<?xml version="1.0" encoding="UTF-8" standalone="yes"?>
<gpx
 xmlns="http://www.topografix.com/GPX/1/1"
 creator="OziExplorer Version 3955k - http://www.oziexplorer.com"
 version="1.1"
 xmlns:xsi="http://www.w3.org/2001/XMLSchema-instance"
 xsi:schemaLocation="http://www.topografix.com/GPX/1/1 http://www.topografix.com/GPX/1/1/gpx.xsd">
<metadata>
 <time>2011-02-26T18:31:39Z</time>
 <bounds minlat="30.847210" minlon="34.754370" maxlat="31.836510" maxlon="35.049210"/>
</metadata>
<trk>
 <name>latrun-masrek</name>
 <desc>ACTIVE LOG</desc>
<trkseg>
<trkpt lat="30.8472100" lon="34.7543700">
<ele>501.464844</ele>
<time>2011-02-26T06:50:01.000Z</time>
</trkpt>
</trkseg>
<trkseg>
<trkpt lat="31.8363000" lon="34.9784900">
<ele>205.859497</ele>
<time>2011-02-26T06:50:54.000Z</time>
</trkpt>
<trkpt lat="31.8363300" lon="34.9785700">
<ele>211.627441</ele>
<time>2011-02-26T06:54:02.000Z</time>
</trkpt>
<trkpt lat="31.8363200" lon="34.9786100">
<ele>211.146729</ele>
<time>2011-02-26T06:54:10.000Z</time>
</trkpt>
<trkpt lat="31.8363600" lon="34.9785100">
<ele>212.108032</ele>
<time>2011-02-26T06:54:16.000Z</time>
</trkpt>
<trkpt lat="31.8363300" lon="34.9784400">
<ele>211.146729</ele>
<time>2011-02-26T06:54:26.000Z</time>
</trkpt>
<trkpt lat="31.8363200" lon="34.9785300">
<ele>211.627441</ele>
<time>2011-02-26T06:54:35.000Z</time>
</trkpt>
<trkpt lat="31.8363500" lon="34.9784900">
<ele>211.627441</ele>
<time>2011-02-26T06:54:44.000Z</time>
</trkpt>
<trkpt lat="31.8363900" lon="34.9783800">
<ele>211.146729</ele>
<time>2011-02-26T06:54:48.000Z</time>
</trkpt>
<trkpt lat="31.8363800" lon="34.9782500">
<ele>210.666031</ele>
<time>2011-02-26T06:54:52.000Z</time>
</trkpt>
<trkpt lat="31.8364500" lon="34.9781800">
<ele>211.146729</ele>
<time>2011-02-26T06:54:55.000Z</time>
</trkpt>
<trkpt lat="31.8364100" lon="34.9781800">
<ele>210.185425</ele>
<time>2011-02-26T06:55:00.000Z</time>
</trkpt>
<trkpt lat="31.8363700" lon="34.9783200">
<ele>211.146729</ele>
<time>2011-02-26T06:55:05.000Z</time>
</trkpt>
<trkpt lat="31.8363700" lon="34.9784300">
<ele>211.627441</ele>
<time>2011-02-26T06:55:09.000Z</time>
</trkpt>
<trkpt lat="31.8363300" lon="34.9785200">
<ele>211.627441</ele>
<time>2011-02-26T06:55:14.000Z</time>
</trkpt>
<trkpt lat="31.8363000" lon="34.9786300">
<ele>211.627441</ele>
<time>2011-02-26T06:55:20.000Z</time>
</trkpt>
<trkpt lat="31.8363200" lon="34.9786500">
<ele>211.146729</ele>
<time>2011-02-26T06:55:28.000Z</time>
</trkpt>
<trkpt lat="31.8363100" lon="34.9786200">
<ele>211.146729</ele>
<time>2011-02-26T06:55:36.000Z</time>
</trkpt>
<trkpt lat="31.8362400" lon="34.9786500">
<ele>210.666031</ele>
<time>2011-02-26T06:57:40.000Z</time>
</trkpt>
<trkpt lat="31.8362200" lon="34.9787700">
<ele>211.146729</ele>
<time>2011-02-26T06:57:45.000Z</time>
</trkpt>
<trkpt lat="31.8362400" lon="34.9788500">
<ele>211.627441</ele>
<time>2011-02-26T06:57:50.000Z</time>
</trkpt>
<trkpt lat="31.8362700" lon="34.9787400">
<ele>211.146729</ele>
<time>2011-02-26T06:57:54.000Z</time>
</trkpt>
<trkpt lat="31.8362900" lon="34.9786400">
<ele>210.666031</ele>
<time>2011-02-26T06:57:59.000Z</time>
</trkpt>
<trkpt lat="31.8363200" lon="34.9786200">
<ele>211.146729</ele>
<time>2011-02-26T06:58:06.000Z</time>
</trkpt>
<trkpt lat="31.8362700" lon="34.9787100">
<ele>210.666031</ele>
<time>2011-02-26T06:58:14.000Z</time>
</trkpt>
<trkpt lat="31.8362300" lon="34.9788200">
<ele>210.666031</ele>
<time>2011-02-26T06:58:20.000Z</time>
</trkpt>
<trkpt lat="31.8362000" lon="34.9789400">
<ele>211.146729</ele>
<time>2011-02-26T06:58:26.000Z</time>
</trkpt>
<trkpt lat="31.8361700" lon="34.9790400">
<ele>212.108032</ele>
<time>2011-02-26T06:58:32.000Z</time>
</trkpt>
<trkpt lat="31.8361400" lon="34.9791400">
<ele>213.069336</ele>
<time>2011-02-26T06:58:38.000Z</time>
</trkpt>
<trkpt lat="31.8361100" lon="34.9792600">
<ele>213.550049</ele>
<time>2011-02-26T06:58:43.000Z</time>
</trkpt>
<trkpt lat="31.8360800" lon="34.9793600">
<ele>214.030640</ele>
<time>2011-02-26T06:58:47.000Z</time>
</trkpt>
<trkpt lat="31.8360600" lon="34.9794800">
<ele>214.511215</ele>
<time>2011-02-26T06:58:51.000Z</time>
</trkpt>
<trkpt lat="31.8360300" lon="34.9795800">
<ele>214.511215</ele>
<time>2011-02-26T06:58:55.000Z</time>
</trkpt>
<trkpt lat="31.8360100" lon="34.9797100">
<ele>214.991943</ele>
<time>2011-02-26T06:59:00.000Z</time>
</trkpt>
<trkpt lat="31.8359800" lon="34.9798100">
<ele>214.991943</ele>
<time>2011-02-26T06:59:04.000Z</time>
</trkpt>
<trkpt lat="31.8359600" lon="34.9799300">
<ele>216.433945</ele>
<time>2011-02-26T06:59:08.000Z</time>
</trkpt>
<trkpt lat="31.8359400" lon="34.9800400">
<ele>216.433945</ele>
<time>2011-02-26T06:59:12.000Z</time>
</trkpt>
<trkpt lat="31.8359300" lon="34.9801600">
<ele>216.914673</ele>
<time>2011-02-26T06:59:16.000Z</time>
</trkpt>
<trkpt lat="31.8359100" lon="34.9802600">
<ele>217.875992</ele>
<time>2011-02-26T06:59:20.000Z</time>
</trkpt>
<trkpt lat="31.8358800" lon="34.9803400">
<ele>219.317993</ele>
<time>2011-02-26T06:59:30.000Z</time>
</trkpt>
<trkpt lat="31.8358000" lon="34.9804100">
<ele>218.837280</ele>
<time>2011-02-26T06:59:45.000Z</time>
</trkpt>
<trkpt lat="31.8357800" lon="34.9805100">
<ele>219.317993</ele>
<time>2011-02-26T06:59:56.000Z</time>
</trkpt>
<trkpt lat="31.8357600" lon="34.9806200">
<ele>219.798584</ele>
<time>2011-02-26T07:00:02.000Z</time>
</trkpt>
<trkpt lat="31.8357100" lon="34.9807400">
<ele>219.798584</ele>
<time>2011-02-26T07:00:07.000Z</time>
</trkpt>
<trkpt lat="31.8356700" lon="34.9808400">
<ele>220.279175</ele>
<time>2011-02-26T07:00:11.000Z</time>
</trkpt>
<trkpt lat="31.8356200" lon="34.9809300">
<ele>220.279175</ele>
<time>2011-02-26T07:00:15.000Z</time>
</trkpt>
<trkpt lat="31.8355700" lon="34.9810200">
<ele>220.279175</ele>
<time>2011-02-26T07:00:19.000Z</time>
</trkpt>
<trkpt lat="31.8355200" lon="34.9811400">
<ele>220.279175</ele>
<time>2011-02-26T07:00:24.000Z</time>
</trkpt>
<trkpt lat="31.8354600" lon="34.9812500">
<ele>220.759888</ele>
<time>2011-02-26T07:00:29.000Z</time>
</trkpt>
<trkpt lat="31.8354100" lon="34.9813400">
<ele>221.721176</ele>
<time>2011-02-26T07:00:33.000Z</time>
</trkpt>
<trkpt lat="31.8353700" lon="34.9814400">
<ele>221.721176</ele>
<time>2011-02-26T07:00:37.000Z</time>
</trkpt>
<trkpt lat="31.8353100" lon="34.9815400">
<ele>222.201782</ele>
<time>2011-02-26T07:00:42.000Z</time>
</trkpt>
<trkpt lat="31.8352600" lon="34.9816500">
<ele>222.682495</ele>
<time>2011-02-26T07:00:47.000Z</time>
</trkpt>
<trkpt lat="31.8352000" lon="34.9817500">
<ele>223.643799</ele>
<time>2011-02-26T07:00:52.000Z</time>
</trkpt>
<trkpt lat="31.8351500" lon="34.9818600">
<ele>224.605225</ele>
<time>2011-02-26T07:00:57.000Z</time>
</trkpt>
<trkpt lat="31.8351000" lon="34.9819600">
<ele>225.566528</ele>
<time>2011-02-26T07:01:02.000Z</time>
</trkpt>
<trkpt lat="31.8350500" lon="34.9820600">
<ele>226.527832</ele>
<time>2011-02-26T07:01:07.000Z</time>
</trkpt>
<trkpt lat="31.8350000" lon="34.9821700">
<ele>227.008545</ele>
<time>2011-02-26T07:01:13.000Z</time>
</trkpt>
<trkpt lat="31.8349400" lon="34.9822700">
<ele>227.489136</ele>
<time>2011-02-26T07:01:18.000Z</time>
</trkpt>
<trkpt lat="31.8348900" lon="34.9823700">
<ele>227.969727</ele>
<time>2011-02-26T07:01:23.000Z</time>
</trkpt>
<trkpt lat="31.8348400" lon="34.9824700">
<ele>227.969727</ele>
<time>2011-02-26T07:01:28.000Z</time>
</trkpt>
<trkpt lat="31.8347900" lon="34.9825900">
<ele>228.931168</ele>
<time>2011-02-26T07:01:33.000Z</time>
</trkpt>
<trkpt lat="31.8347300" lon="34.9826900">
<ele>229.892334</ele>
<time>2011-02-26T07:01:38.000Z</time>
</trkpt>
<trkpt lat="31.8346800" lon="34.9828000">
<ele>229.892334</ele>
<time>2011-02-26T07:01:43.000Z</time>
</trkpt>
<trkpt lat="31.8346200" lon="34.9829100">
<ele>230.373047</ele>
<time>2011-02-26T07:01:48.000Z</time>
</trkpt>
<trkpt lat="31.8345700" lon="34.9830200">
<ele>230.373047</ele>
<time>2011-02-26T07:01:53.000Z</time>
</trkpt>
<trkpt lat="31.8345100" lon="34.9831200">
<ele>231.814941</ele>
<time>2011-02-26T07:01:58.000Z</time>
</trkpt>
<trkpt lat="31.8344600" lon="34.9832300">
<ele>232.295776</ele>
<time>2011-02-26T07:02:03.000Z</time>
</trkpt>
<trkpt lat="31.8344100" lon="34.9833200">
<ele>232.776489</ele>
<time>2011-02-26T07:02:07.000Z</time>
</trkpt>
<trkpt lat="31.8343500" lon="34.9834300">
<ele>234.218399</ele>
<time>2011-02-26T07:02:12.000Z</time>
</trkpt>
<trkpt lat="31.8342800" lon="34.9835300">
<ele>234.699081</ele>
<time>2011-02-26T07:02:17.000Z</time>
</trkpt>
<trkpt lat="31.8342300" lon="34.9836400">
<ele>235.660278</ele>
<time>2011-02-26T07:02:22.000Z</time>
</trkpt>
<trkpt lat="31.8341600" lon="34.9837500">
<ele>236.140991</ele>
<time>2011-02-26T07:02:27.000Z</time>
</trkpt>
<trkpt lat="31.8340900" lon="34.9838300">
<ele>237.102295</ele>
<time>2011-02-26T07:02:31.000Z</time>
</trkpt>
<trkpt lat="31.8340100" lon="34.9839000">
<ele>237.582901</ele>
<time>2011-02-26T07:02:36.000Z</time>
</trkpt>
<trkpt lat="31.8339200" lon="34.9839800">
<ele>238.544312</ele>
<time>2011-02-26T07:02:41.000Z</time>
</trkpt>
<trkpt lat="31.8338300" lon="34.9840600">
<ele>239.986206</ele>
<time>2011-02-26T07:02:46.000Z</time>
</trkpt>
<trkpt lat="31.8337600" lon="34.9841300">
<ele>239.986206</ele>
<time>2011-02-26T07:02:51.000Z</time>
</trkpt>
<trkpt lat="31.8336900" lon="34.9842000">
<ele>241.428223</ele>
<time>2011-02-26T07:02:56.000Z</time>
</trkpt>
<trkpt lat="31.8336100" lon="34.9842600">
<ele>242.389648</ele>
<time>2011-02-26T07:03:01.000Z</time>
</trkpt>
<trkpt lat="31.8335400" lon="34.9843200">
<ele>242.870239</ele>
<time>2011-02-26T07:03:06.000Z</time>
</trkpt>
<trkpt lat="31.8334700" lon="34.9843900">
<ele>244.312256</ele>
<time>2011-02-26T07:03:11.000Z</time>
</trkpt>
<trkpt lat="31.8333900" lon="34.9844500">
<ele>245.273438</ele>
<time>2011-02-26T07:03:16.000Z</time>
</trkpt>
<trkpt lat="31.8333000" lon="34.9845000">
<ele>245.273438</ele>
<time>2011-02-26T07:03:21.000Z</time>
</trkpt>
<trkpt lat="31.8332000" lon="34.9845500">
<ele>246.715454</ele>
<time>2011-02-26T07:03:27.000Z</time>
</trkpt>
<trkpt lat="31.8331000" lon="34.9845900">
<ele>247.676758</ele>
<time>2011-02-26T07:03:33.000Z</time>
</trkpt>
<trkpt lat="31.8330100" lon="34.9846300">
<ele>249.599487</ele>
<time>2011-02-26T07:03:39.000Z</time>
</trkpt>
<trkpt lat="31.8329200" lon="34.9846800">
<ele>249.599487</ele>
<time>2011-02-26T07:03:45.000Z</time>
</trkpt>
<trkpt lat="31.8328300" lon="34.9847200">
<ele>252.002808</ele>
<time>2011-02-26T07:03:51.000Z</time>
</trkpt>
<trkpt lat="31.8327400" lon="34.9847500">
<ele>253.925415</ele>
<time>2011-02-26T07:03:57.000Z</time>
</trkpt>
<trkpt lat="31.8326500" lon="34.9847800">
<ele>254.405991</ele>
<time>2011-02-26T07:04:03.000Z</time>
</trkpt>
<trkpt lat="31.8325600" lon="34.9847600">
<ele>254.886597</ele>
<time>2011-02-26T07:04:09.000Z</time>
</trkpt>
<trkpt lat="31.8324500" lon="34.9847300">
<ele>255.367310</ele>
<time>2011-02-26T07:04:15.000Z</time>
</trkpt>
<trkpt lat="31.8323500" lon="34.9846900">
<ele>256.328735</ele>
<time>2011-02-26T07:04:21.000Z</time>
</trkpt>
<trkpt lat="31.8322700" lon="34.9846700">
<ele>257.290039</ele>
<time>2011-02-26T07:04:27.000Z</time>
</trkpt>
<trkpt lat="31.8321800" lon="34.9846400">
<ele>257.290039</ele>
<time>2011-02-26T07:04:34.000Z</time>
</trkpt>
<trkpt lat="31.8320900" lon="34.9845700">
<ele>257.290039</ele>
<time>2011-02-26T07:04:41.000Z</time>
</trkpt>
<trkpt lat="31.8320100" lon="34.9845100">
<ele>256.809326</ele>
<time>2011-02-26T07:04:47.000Z</time>
</trkpt>
<trkpt lat="31.8319100" lon="34.9844500">
<ele>257.770752</ele>
<time>2011-02-26T07:04:53.000Z</time>
</trkpt>
<trkpt lat="31.8317900" lon="34.9844400">
<ele>257.290039</ele>
<time>2011-02-26T07:04:58.000Z</time>
</trkpt>
<trkpt lat="31.8316900" lon="34.9844300">
<ele>255.848022</ele>
<time>2011-02-26T07:05:01.000Z</time>
</trkpt>
<trkpt lat="31.8315700" lon="34.9844100">
<ele>255.367310</ele>
<time>2011-02-26T07:05:04.000Z</time>
</trkpt>
<trkpt lat="31.8314800" lon="34.9843800">
<ele>254.886597</ele>
<time>2011-02-26T07:05:06.000Z</time>
</trkpt>
<trkpt lat="31.8313900" lon="34.9843200">
<ele>254.886597</ele>
<time>2011-02-26T07:05:08.000Z</time>
</trkpt>
<trkpt lat="31.8312800" lon="34.9842500">
<ele>252.483398</ele>
<time>2011-02-26T07:05:10.000Z</time>
</trkpt>
<trkpt lat="31.8311700" lon="34.9841800">
<ele>250.560806</ele>
<time>2011-02-26T07:05:12.000Z</time>
</trkpt>
<trkpt lat="31.8310600" lon="34.9841000">
<ele>250.560806</ele>
<time>2011-02-26T07:05:14.000Z</time>
</trkpt>
<trkpt lat="31.8309600" lon="34.9840100">
<ele>250.560806</ele>
<time>2011-02-26T07:05:16.000Z</time>
</trkpt>
<trkpt lat="31.8308700" lon="34.9839300">
<ele>250.560806</ele>
<time>2011-02-26T07:05:18.000Z</time>
</trkpt>
<trkpt lat="31.8308000" lon="34.9838800">
<ele>250.560806</ele>
<time>2011-02-26T07:05:20.000Z</time>
</trkpt>
<trkpt lat="31.8307000" lon="34.9838200">
<ele>252.483398</ele>
<time>2011-02-26T07:05:23.000Z</time>
</trkpt>
<trkpt lat="31.8306100" lon="34.9837600">
<ele>251.522095</ele>
<time>2011-02-26T07:05:26.000Z</time>
</trkpt>
<trkpt lat="31.8305200" lon="34.9836800">
<ele>253.444702</ele>
<time>2011-02-26T07:05:30.000Z</time>
</trkpt>
<trkpt lat="31.8304500" lon="34.9836100">
<ele>252.483398</ele>
<time>2011-02-26T07:05:33.000Z</time>
</trkpt>
<trkpt lat="31.8303700" lon="34.9835200">
<ele>253.925415</ele>
<time>2011-02-26T07:05:37.000Z</time>
</trkpt>
<trkpt lat="31.8303000" lon="34.9834500">
<ele>253.444702</ele>
<time>2011-02-26T07:05:40.000Z</time>
</trkpt>
<trkpt lat="31.8302200" lon="34.9833700">
<ele>251.041382</ele>
<time>2011-02-26T07:05:43.000Z</time>
</trkpt>
<trkpt lat="31.8301700" lon="34.9832600">
<ele>251.522095</ele>
<time>2011-02-26T07:05:46.000Z</time>
</trkpt>
<trkpt lat="31.8301400" lon="34.9831400">
<ele>253.925415</ele>
<time>2011-02-26T07:05:49.000Z</time>
</trkpt>
<trkpt lat="31.8301200" lon="34.9830300">
<ele>253.925415</ele>
<time>2011-02-26T07:05:52.000Z</time>
</trkpt>
<trkpt lat="31.8301100" lon="34.9829200">
<ele>253.925415</ele>
<time>2011-02-26T07:05:55.000Z</time>
</trkpt>
<trkpt lat="31.8300900" lon="34.9827900">
<ele>254.405991</ele>
<time>2011-02-26T07:05:59.000Z</time>
</trkpt>
<trkpt lat="31.8300600" lon="34.9826500">
<ele>253.444702</ele>
<time>2011-02-26T07:06:03.000Z</time>
</trkpt>
<trkpt lat="31.8300500" lon="34.9825300">
<ele>252.963989</ele>
<time>2011-02-26T07:06:06.000Z</time>
</trkpt>
<trkpt lat="31.8300600" lon="34.9824200">
<ele>253.444702</ele>
<time>2011-02-26T07:06:10.000Z</time>
</trkpt>
<trkpt lat="31.8300600" lon="34.9824400">
<ele>252.002808</ele>
<time>2011-02-26T07:08:15.000Z</time>
</trkpt>
<trkpt lat="31.8300500" lon="34.9825700">
<ele>251.522095</ele>
<time>2011-02-26T07:08:19.000Z</time>
</trkpt>
<trkpt lat="31.8300600" lon="34.9827000">
<ele>252.963989</ele>
<time>2011-02-26T07:08:23.000Z</time>
</trkpt>
<trkpt lat="31.8300800" lon="34.9828200">
<ele>252.963989</ele>
<time>2011-02-26T07:08:27.000Z</time>
</trkpt>
<trkpt lat="31.8301000" lon="34.9829500">
<ele>252.963989</ele>
<time>2011-02-26T07:08:31.000Z</time>
</trkpt>
<trkpt lat="31.8301200" lon="34.9830800">
<ele>252.963989</ele>
<time>2011-02-26T07:08:35.000Z</time>
</trkpt>
<trkpt lat="31.8301400" lon="34.9831900">
<ele>252.002808</ele>
<time>2011-02-26T07:08:38.000Z</time>
</trkpt>
<trkpt lat="31.8301800" lon="34.9833300">
<ele>251.522095</ele>
<time>2011-02-26T07:08:41.000Z</time>
</trkpt>
<trkpt lat="31.8302300" lon="34.9834200">
<ele>251.522095</ele>
<time>2011-02-26T07:08:45.000Z</time>
</trkpt>
<trkpt lat="31.8301200" lon="34.9834700">
<ele>248.638184</ele>
<time>2011-02-26T07:09:00.000Z</time>
</trkpt>
<trkpt lat="31.8300000" lon="34.9834800">
<ele>246.715454</ele>
<time>2011-02-26T07:09:03.000Z</time>
</trkpt>
<trkpt lat="31.8298800" lon="34.9834800">
<ele>245.273438</ele>
<time>2011-02-26T07:09:06.000Z</time>
</trkpt>
<trkpt lat="31.8297600" lon="34.9834900">
<ele>245.273438</ele>
<time>2011-02-26T07:09:10.000Z</time>
</trkpt>
<trkpt lat="31.8296300" lon="34.9834700">
<ele>243.350845</ele>
<time>2011-02-26T07:09:14.000Z</time>
</trkpt>
<trkpt lat="31.8295400" lon="34.9834400">
<ele>239.986206</ele>
<time>2011-02-26T07:09:17.000Z</time>
</trkpt>
<trkpt lat="31.8294700" lon="34.9833600">
<ele>239.024902</ele>
<time>2011-02-26T07:09:20.000Z</time>
</trkpt>
<trkpt lat="31.8293900" lon="34.9832900">
<ele>237.102295</ele>
<time>2011-02-26T07:09:23.000Z</time>
</trkpt>
<trkpt lat="31.8292900" lon="34.9832800">
<ele>235.660278</ele>
<time>2011-02-26T07:09:26.000Z</time>
</trkpt>
<trkpt lat="31.8292200" lon="34.9832000">
<ele>235.660278</ele>
<time>2011-02-26T07:09:30.000Z</time>
</trkpt>
<trkpt lat="31.8292100" lon="34.9830600">
<ele>235.660278</ele>
<time>2011-02-26T07:09:34.000Z</time>
</trkpt>
<trkpt lat="31.8292100" lon="34.9829400">
<ele>235.660278</ele>
<time>2011-02-26T07:09:37.000Z</time>
</trkpt>
<trkpt lat="31.8291900" lon="34.9828300">
<ele>235.660278</ele>
<time>2011-02-26T07:09:40.000Z</time>
</trkpt>
<trkpt lat="31.8291700" lon="34.9827100">
<ele>235.179688</ele>
<time>2011-02-26T07:09:43.000Z</time>
</trkpt>
<trkpt lat="31.8291700" lon="34.9826000">
<ele>235.179688</ele>
<time>2011-02-26T07:09:46.000Z</time>
</trkpt>
<trkpt lat="31.8291800" lon="34.9824900">
<ele>235.660278</ele>
<time>2011-02-26T07:09:50.000Z</time>
</trkpt>
<trkpt lat="31.8291100" lon="34.9823700">
<ele>233.257080</ele>
<time>2011-02-26T07:09:58.000Z</time>
</trkpt>
<trkpt lat="31.8290400" lon="34.9822900">
<ele>230.853760</ele>
<time>2011-02-26T07:10:00.000Z</time>
</trkpt>
<trkpt lat="31.8289600" lon="34.9821600">
<ele>229.892334</ele>
<time>2011-02-26T07:10:03.000Z</time>
</trkpt>
<trkpt lat="31.8289000" lon="34.9820700">
<ele>228.931168</ele>
<time>2011-02-26T07:10:05.000Z</time>
</trkpt>
<trkpt lat="31.8288300" lon="34.9820000">
<ele>228.931168</ele>
<time>2011-02-26T07:10:07.000Z</time>
</trkpt>
<trkpt lat="31.8287300" lon="34.9819500">
<ele>226.527832</ele>
<time>2011-02-26T07:10:10.000Z</time>
</trkpt>
<trkpt lat="31.8286100" lon="34.9818700">
<ele>226.047119</ele>
<time>2011-02-26T07:10:13.000Z</time>
</trkpt>
<trkpt lat="31.8285400" lon="34.9818100">
<ele>225.085938</ele>
<time>2011-02-26T07:10:15.000Z</time>
</trkpt>
<trkpt lat="31.8284800" lon="34.9817100">
<ele>222.682495</ele>
<time>2011-02-26T07:10:18.000Z</time>
</trkpt>
<trkpt lat="31.8284500" lon="34.9815700">
<ele>221.240601</ele>
<time>2011-02-26T07:10:21.000Z</time>
</trkpt>
<trkpt lat="31.8284000" lon="34.9814600">
<ele>218.837280</ele>
<time>2011-02-26T07:10:23.000Z</time>
</trkpt>
<trkpt lat="31.8283200" lon="34.9813800">
<ele>216.914673</ele>
<time>2011-02-26T07:10:25.000Z</time>
</trkpt>
<trkpt lat="31.8282100" lon="34.9813100">
<ele>215.472656</ele>
<time>2011-02-26T07:10:28.000Z</time>
</trkpt>
<trkpt lat="31.8281000" lon="34.9812100">
<ele>213.550049</ele>
<time>2011-02-26T07:10:31.000Z</time>
</trkpt>
<trkpt lat="31.8280300" lon="34.9811400">
<ele>211.627441</ele>
<time>2011-02-26T07:10:33.000Z</time>
</trkpt>
<trkpt lat="31.8279500" lon="34.9810000">
<ele>209.704834</ele>
<time>2011-02-26T07:10:36.000Z</time>
</trkpt>
<trkpt lat="31.8278800" lon="34.9809100">
<ele>208.743408</ele>
<time>2011-02-26T07:10:38.000Z</time>
</trkpt>
<trkpt lat="31.8277800" lon="34.9808500">
<ele>206.820679</ele>
<time>2011-02-26T07:10:40.000Z</time>
</trkpt>
<trkpt lat="31.8276700" lon="34.9808100">
<ele>205.378769</ele>
<time>2011-02-26T07:10:42.000Z</time>
</trkpt>
<trkpt lat="31.8275500" lon="34.9807800">
<ele>202.975464</ele>
<time>2011-02-26T07:10:44.000Z</time>
</trkpt>
<trkpt lat="31.8274300" lon="34.9807700">
<ele>201.052856</ele>
<time>2011-02-26T07:10:46.000Z</time>
</trkpt>
<trkpt lat="31.8273300" lon="34.9807400">
<ele>200.572266</ele>
<time>2011-02-26T07:10:48.000Z</time>
</trkpt>
<trkpt lat="31.8272600" lon="34.9806900">
<ele>199.610855</ele>
<time>2011-02-26T07:10:50.000Z</time>
</trkpt>
<trkpt lat="31.8271700" lon="34.9806500">
<ele>199.130127</ele>
<time>2011-02-26T07:10:53.000Z</time>
</trkpt>
<trkpt lat="31.8270600" lon="34.9806300">
<ele>198.168945</ele>
<time>2011-02-26T07:11:02.000Z</time>
</trkpt>
<trkpt lat="31.8269300" lon="34.9806000">
<ele>195.284912</ele>
<time>2011-02-26T07:11:05.000Z</time>
</trkpt>
<trkpt lat="31.8268400" lon="34.9805800">
<ele>194.804321</ele>
<time>2011-02-26T07:11:07.000Z</time>
</trkpt>
<trkpt lat="31.8267300" lon="34.9805500">
<ele>194.323730</ele>
<time>2011-02-26T07:11:09.000Z</time>
</trkpt>
<trkpt lat="31.8266100" lon="34.9805400">
<ele>193.362305</ele>
<time>2011-02-26T07:11:11.000Z</time>
</trkpt>
<trkpt lat="31.8264900" lon="34.9805200">
<ele>192.401123</ele>
<time>2011-02-26T07:11:13.000Z</time>
</trkpt>
<trkpt lat="31.8263700" lon="34.9805000">
<ele>191.439575</ele>
<time>2011-02-26T07:11:15.000Z</time>
</trkpt>
<trkpt lat="31.8262700" lon="34.9804800">
<ele>191.920288</ele>
<time>2011-02-26T07:11:17.000Z</time>
</trkpt>
<trkpt lat="31.8261800" lon="34.9804700">
<ele>192.881714</ele>
<time>2011-02-26T07:11:19.000Z</time>
</trkpt>
<trkpt lat="31.8260500" lon="34.9804600">
<ele>192.401123</ele>
<time>2011-02-26T07:11:22.000Z</time>
</trkpt>
<trkpt lat="31.8259600" lon="34.9804500">
<ele>191.920288</ele>
<time>2011-02-26T07:11:25.000Z</time>
</trkpt>
<trkpt lat="31.8258700" lon="34.9804700">
<ele>192.881714</ele>
<time>2011-02-26T07:11:29.000Z</time>
</trkpt>
<trkpt lat="31.8257700" lon="34.9805100">
<ele>192.881714</ele>
<time>2011-02-26T07:11:33.000Z</time>
</trkpt>
<trkpt lat="31.8256600" lon="34.9804800">
<ele>192.881714</ele>
<time>2011-02-26T07:11:37.000Z</time>
</trkpt>
<trkpt lat="31.8255900" lon="34.9804000">
<ele>193.362305</ele>
<time>2011-02-26T07:11:41.000Z</time>
</trkpt>
<trkpt lat="31.8254900" lon="34.9803700">
<ele>193.843018</ele>
<time>2011-02-26T07:11:46.000Z</time>
</trkpt>
<trkpt lat="31.8254000" lon="34.9803600">
<ele>193.843018</ele>
<time>2011-02-26T07:11:50.000Z</time>
</trkpt>
<trkpt lat="31.8253000" lon="34.9803500">
<ele>194.323730</ele>
<time>2011-02-26T07:11:55.000Z</time>
</trkpt>
<trkpt lat="31.8252000" lon="34.9803500">
<ele>195.284912</ele>
<time>2011-02-26T07:11:59.000Z</time>
</trkpt>
<trkpt lat="31.8251100" lon="34.9803600">
<ele>195.765625</ele>
<time>2011-02-26T07:12:03.000Z</time>
</trkpt>
<trkpt lat="31.8250100" lon="34.9803700">
<ele>196.726929</ele>
<time>2011-02-26T07:12:07.000Z</time>
</trkpt>
<trkpt lat="31.8249200" lon="34.9803800">
<ele>196.726929</ele>
<time>2011-02-26T07:12:11.000Z</time>
</trkpt>
<trkpt lat="31.8248100" lon="34.9804000">
<ele>196.246353</ele>
<time>2011-02-26T07:12:15.000Z</time>
</trkpt>
<trkpt lat="31.8247100" lon="34.9804000">
<ele>197.207520</ele>
<time>2011-02-26T07:12:19.000Z</time>
</trkpt>
<trkpt lat="31.8246100" lon="34.9804100">
<ele>197.688232</ele>
<time>2011-02-26T07:12:23.000Z</time>
</trkpt>
<trkpt lat="31.8245000" lon="34.9804100">
<ele>197.688232</ele>
<time>2011-02-26T07:12:27.000Z</time>
</trkpt>
<trkpt lat="31.8244100" lon="34.9804200">
<ele>198.168945</ele>
<time>2011-02-26T07:12:31.000Z</time>
</trkpt>
<trkpt lat="31.8243100" lon="34.9804000">
<ele>198.649536</ele>
<time>2011-02-26T07:12:35.000Z</time>
</trkpt>
<trkpt lat="31.8242300" lon="34.9803600">
<ele>198.649536</ele>
<time>2011-02-26T07:12:39.000Z</time>
</trkpt>
<trkpt lat="31.8241200" lon="34.9803200">
<ele>199.130127</ele>
<time>2011-02-26T07:12:44.000Z</time>
</trkpt>
<trkpt lat="31.8240300" lon="34.9803100">
<ele>200.091675</ele>
<time>2011-02-26T07:12:48.000Z</time>
</trkpt>
<trkpt lat="31.8239400" lon="34.9803200">
<ele>200.091675</ele>
<time>2011-02-26T07:12:52.000Z</time>
</trkpt>
<trkpt lat="31.8238400" lon="34.9803500">
<ele>201.052856</ele>
<time>2011-02-26T07:12:57.000Z</time>
</trkpt>
<trkpt lat="31.8237400" lon="34.9803700">
<ele>202.014267</ele>
<time>2011-02-26T07:13:02.000Z</time>
</trkpt>
<trkpt lat="31.8236400" lon="34.9803800">
<ele>203.456177</ele>
<time>2011-02-26T07:13:07.000Z</time>
</trkpt>
<trkpt lat="31.8235400" lon="34.9803900">
<ele>203.936890</ele>
<time>2011-02-26T07:13:12.000Z</time>
</trkpt>
<trkpt lat="31.8234300" lon="34.9803700">
<ele>204.417480</ele>
<time>2011-02-26T07:13:17.000Z</time>
</trkpt>
<trkpt lat="31.8233200" lon="34.9803700">
<ele>205.859497</ele>
<time>2011-02-26T07:13:22.000Z</time>
</trkpt>
<trkpt lat="31.8232300" lon="34.9803600">
<ele>205.859497</ele>
<time>2011-02-26T07:13:27.000Z</time>
</trkpt>
<trkpt lat="31.8231200" lon="34.9803600">
<ele>207.301392</ele>
<time>2011-02-26T07:13:33.000Z</time>
</trkpt>
<trkpt lat="31.8230200" lon="34.9803500">
<ele>207.301392</ele>
<time>2011-02-26T07:13:39.000Z</time>
</trkpt>
<trkpt lat="31.8229100" lon="34.9803500">
<ele>208.262817</ele>
<time>2011-02-26T07:13:45.000Z</time>
</trkpt>
<trkpt lat="31.8228200" lon="34.9803000">
<ele>208.743408</ele>
<time>2011-02-26T07:13:51.000Z</time>
</trkpt>
<trkpt lat="31.8227300" lon="34.9802700">
<ele>209.704834</ele>
<time>2011-02-26T07:13:56.000Z</time>
</trkpt>
<trkpt lat="31.8226500" lon="34.9802300">
<ele>211.146729</ele>
<time>2011-02-26T07:14:01.000Z</time>
</trkpt>
<trkpt lat="31.8225500" lon="34.9801900">
<ele>212.108032</ele>
<time>2011-02-26T07:14:07.000Z</time>
</trkpt>
<trkpt lat="31.8224500" lon="34.9801600">
<ele>212.588623</ele>
<time>2011-02-26T07:14:13.000Z</time>
</trkpt>
<trkpt lat="31.8223500" lon="34.9801700">
<ele>214.030640</ele>
<time>2011-02-26T07:14:19.000Z</time>
</trkpt>
<trkpt lat="31.8222400" lon="34.9801900">
<ele>215.472656</ele>
<time>2011-02-26T07:14:25.000Z</time>
</trkpt>
<trkpt lat="31.8221400" lon="34.9802300">
<ele>216.433945</ele>
<time>2011-02-26T07:14:31.000Z</time>
</trkpt>
<trkpt lat="31.8220500" lon="34.9802700">
<ele>216.914673</ele>
<time>2011-02-26T07:14:37.000Z</time>
</trkpt>
<trkpt lat="31.8219500" lon="34.9803200">
<ele>218.837280</ele>
<time>2011-02-26T07:14:43.000Z</time>
</trkpt>
<trkpt lat="31.8218700" lon="34.9803800">
<ele>220.279175</ele>
<time>2011-02-26T07:14:49.000Z</time>
</trkpt>
<trkpt lat="31.8217800" lon="34.9804000">
<ele>221.240601</ele>
<time>2011-02-26T07:14:55.000Z</time>
</trkpt>
<trkpt lat="31.8216900" lon="34.9804300">
<ele>222.201782</ele>
<time>2011-02-26T07:15:01.000Z</time>
</trkpt>
<trkpt lat="31.8216500" lon="34.9805400">
<ele>223.643799</ele>
<time>2011-02-26T07:15:07.000Z</time>
</trkpt>
<trkpt lat="31.8216700" lon="34.9806600">
<ele>224.605225</ele>
<time>2011-02-26T07:15:13.000Z</time>
</trkpt>
<trkpt lat="31.8217200" lon="34.9807700">
<ele>225.566528</ele>
<time>2011-02-26T07:15:20.000Z</time>
</trkpt>
<trkpt lat="31.8217700" lon="34.9808700">
<ele>226.047119</ele>
<time>2011-02-26T07:15:26.000Z</time>
</trkpt>
<trkpt lat="31.8218300" lon="34.9809600">
<ele>226.047119</ele>
<time>2011-02-26T07:15:32.000Z</time>
</trkpt>
<trkpt lat="31.8219100" lon="34.9810500">
<ele>226.527832</ele>
<time>2011-02-26T07:15:38.000Z</time>
</trkpt>
<trkpt lat="31.8220000" lon="34.9811100">
<ele>226.527832</ele>
<time>2011-02-26T07:15:42.000Z</time>
</trkpt>
<trkpt lat="31.8220900" lon="34.9811700">
<ele>225.566528</ele>
<time>2011-02-26T07:15:45.000Z</time>
</trkpt>
<trkpt lat="31.8221800" lon="34.9812600">
<ele>225.085938</ele>
<time>2011-02-26T07:15:48.000Z</time>
</trkpt>
<trkpt lat="31.8222200" lon="34.9813800">
<ele>225.085938</ele>
<time>2011-02-26T07:15:51.000Z</time>
</trkpt>
<trkpt lat="31.8222600" lon="34.9814900">
<ele>225.566528</ele>
<time>2011-02-26T07:15:54.000Z</time>
</trkpt>
<trkpt lat="31.8222900" lon="34.9816000">
<ele>226.047119</ele>
<time>2011-02-26T07:15:58.000Z</time>
</trkpt>
<trkpt lat="31.8223600" lon="34.9817300">
<ele>226.527832</ele>
<time>2011-02-26T07:16:03.000Z</time>
</trkpt>
<trkpt lat="31.8224600" lon="34.9818100">
<ele>226.047119</ele>
<time>2011-02-26T07:16:07.000Z</time>
</trkpt>
<trkpt lat="31.8225600" lon="34.9818600">
<ele>225.566528</ele>
<time>2011-02-26T07:16:10.000Z</time>
</trkpt>
<trkpt lat="31.8226600" lon="34.9819000">
<ele>225.085938</ele>
<time>2011-02-26T07:16:13.000Z</time>
</trkpt>
<trkpt lat="31.8228000" lon="34.9819500">
<ele>223.643799</ele>
<time>2011-02-26T07:16:16.000Z</time>
</trkpt>
<trkpt lat="31.8228900" lon="34.9820000">
<ele>222.682495</ele>
<time>2011-02-26T07:16:18.000Z</time>
</trkpt>
<trkpt lat="31.8229700" lon="34.9820600">
<ele>222.682495</ele>
<time>2011-02-26T07:16:20.000Z</time>
</trkpt>
<trkpt lat="31.8230300" lon="34.9821400">
<ele>222.682495</ele>
<time>2011-02-26T07:16:22.000Z</time>
</trkpt>
<trkpt lat="31.8231100" lon="34.9822100">
<ele>221.240601</ele>
<time>2011-02-26T07:16:24.000Z</time>
</trkpt>
<trkpt lat="31.8232100" lon="34.9822500">
<ele>220.759888</ele>
<time>2011-02-26T07:16:26.000Z</time>
</trkpt>
<trkpt lat="31.8232600" lon="34.9823300">
<ele>220.759888</ele>
<time>2011-02-26T07:16:28.000Z</time>
</trkpt>
<trkpt lat="31.8233300" lon="34.9824700">
<ele>218.837280</ele>
<time>2011-02-26T07:16:31.000Z</time>
</trkpt>
<trkpt lat="31.8233400" lon="34.9825700">
<ele>219.317993</ele>
<time>2011-02-26T07:16:33.000Z</time>
</trkpt>
<trkpt lat="31.8233200" lon="34.9827000">
<ele>221.240601</ele>
<time>2011-02-26T07:16:36.000Z</time>
</trkpt>
<trkpt lat="31.8233000" lon="34.9828200">
<ele>222.682495</ele>
<time>2011-02-26T07:16:41.000Z</time>
</trkpt>
<trkpt lat="31.8232800" lon="34.9829300">
<ele>223.643799</ele>
<time>2011-02-26T07:16:47.000Z</time>
</trkpt>
<trkpt lat="31.8232500" lon="34.9830400">
<ele>225.085938</ele>
<time>2011-02-26T07:16:53.000Z</time>
</trkpt>
<trkpt lat="31.8232000" lon="34.9831300">
<ele>225.566528</ele>
<time>2011-02-26T07:17:00.000Z</time>
</trkpt>
<trkpt lat="31.8231100" lon="34.9831800">
<ele>228.450439</ele>
<time>2011-02-26T07:17:08.000Z</time>
</trkpt>
<trkpt lat="31.8230200" lon="34.9831700">
<ele>229.411743</ele>
<time>2011-02-26T07:17:15.000Z</time>
</trkpt>
<trkpt lat="31.8229400" lon="34.9831000">
<ele>230.853760</ele>
<time>2011-02-26T07:17:22.000Z</time>
</trkpt>
<trkpt lat="31.8228600" lon="34.9830400">
<ele>232.776489</ele>
<time>2011-02-26T07:17:29.000Z</time>
</trkpt>
<trkpt lat="31.8227700" lon="34.9829900">
<ele>233.257080</ele>
<time>2011-02-26T07:17:36.000Z</time>
</trkpt>
<trkpt lat="31.8226700" lon="34.9829700">
<ele>235.179688</ele>
<time>2011-02-26T07:17:43.000Z</time>
</trkpt>
<trkpt lat="31.8225800" lon="34.9829500">
<ele>235.179688</ele>
<time>2011-02-26T07:17:51.000Z</time>
</trkpt>
<trkpt lat="31.8225000" lon="34.9828900">
<ele>238.063583</ele>
<time>2011-02-26T07:17:58.000Z</time>
</trkpt>
<trkpt lat="31.8224200" lon="34.9828200">
<ele>238.544312</ele>
<time>2011-02-26T07:18:05.000Z</time>
</trkpt>
<trkpt lat="31.8223400" lon="34.9827600">
<ele>238.544312</ele>
<time>2011-02-26T07:18:11.000Z</time>
</trkpt>
<trkpt lat="31.8222500" lon="34.9827100">
<ele>238.544312</ele>
<time>2011-02-26T07:18:18.000Z</time>
</trkpt>
<trkpt lat="31.8221600" lon="34.9827000">
<ele>238.544312</ele>
<time>2011-02-26T07:18:26.000Z</time>
</trkpt>
<trkpt lat="31.8220800" lon="34.9827400">
<ele>239.986206</ele>
<time>2011-02-26T07:18:33.000Z</time>
</trkpt>
<trkpt lat="31.8220000" lon="34.9828100">
<ele>241.908936</ele>
<time>2011-02-26T07:18:41.000Z</time>
</trkpt>
<trkpt lat="31.8219100" lon="34.9828500">
<ele>243.831543</ele>
<time>2011-02-26T07:18:49.000Z</time>
</trkpt>
<trkpt lat="31.8218100" lon="34.9828400">
<ele>245.754150</ele>
<time>2011-02-26T07:18:57.000Z</time>
</trkpt>
<trkpt lat="31.8217200" lon="34.9828100">
<ele>246.715454</ele>
<time>2011-02-26T07:19:05.000Z</time>
</trkpt>
<trkpt lat="31.8216300" lon="34.9827800">
<ele>248.638184</ele>
<time>2011-02-26T07:19:13.000Z</time>
</trkpt>
<trkpt lat="31.8215400" lon="34.9827400">
<ele>248.157593</ele>
<time>2011-02-26T07:19:21.000Z</time>
</trkpt>
<trkpt lat="31.8214400" lon="34.9827000">
<ele>249.118759</ele>
<time>2011-02-26T07:19:29.000Z</time>
</trkpt>
<trkpt lat="31.8213500" lon="34.9826600">
<ele>248.638184</ele>
<time>2011-02-26T07:19:37.000Z</time>
</trkpt>
<trkpt lat="31.8212500" lon="34.9826200">
<ele>249.599487</ele>
<time>2011-02-26T07:19:45.000Z</time>
</trkpt>
<trkpt lat="31.8211600" lon="34.9825900">
<ele>251.522095</ele>
<time>2011-02-26T07:19:52.000Z</time>
</trkpt>
<trkpt lat="31.8210800" lon="34.9825700">
<ele>252.002808</ele>
<time>2011-02-26T07:19:59.000Z</time>
</trkpt>
<trkpt lat="31.8209800" lon="34.9825500">
<ele>252.483398</ele>
<time>2011-02-26T07:20:07.000Z</time>
</trkpt>
<trkpt lat="31.8208800" lon="34.9825500">
<ele>252.963989</ele>
<time>2011-02-26T07:20:15.000Z</time>
</trkpt>
<trkpt lat="31.8207900" lon="34.9825000">
<ele>253.444702</ele>
<time>2011-02-26T07:20:23.000Z</time>
</trkpt>
<trkpt lat="31.8207000" lon="34.9824900">
<ele>255.367310</ele>
<time>2011-02-26T07:20:31.000Z</time>
</trkpt>
<trkpt lat="31.8206100" lon="34.9824900">
<ele>256.328735</ele>
<time>2011-02-26T07:20:38.000Z</time>
</trkpt>
<trkpt lat="31.8205100" lon="34.9824900">
<ele>256.809326</ele>
<time>2011-02-26T07:20:46.000Z</time>
</trkpt>
<trkpt lat="31.8204100" lon="34.9824900">
<ele>257.290039</ele>
<time>2011-02-26T07:20:54.000Z</time>
</trkpt>
<trkpt lat="31.8203200" lon="34.9824800">
<ele>257.290039</ele>
<time>2011-02-26T07:21:01.000Z</time>
</trkpt>
<trkpt lat="31.8202200" lon="34.9824700">
<ele>257.770752</ele>
<time>2011-02-26T07:21:09.000Z</time>
</trkpt>
<trkpt lat="31.8201200" lon="34.9824900">
<ele>259.212646</ele>
<time>2011-02-26T07:21:16.000Z</time>
</trkpt>
<trkpt lat="31.8200300" lon="34.9825200">
<ele>261.135254</ele>
<time>2011-02-26T07:21:23.000Z</time>
</trkpt>
<trkpt lat="31.8199400" lon="34.9825800">
<ele>262.577148</ele>
<time>2011-02-26T07:21:31.000Z</time>
</trkpt>
<trkpt lat="31.8198500" lon="34.9826200">
<ele>264.019287</ele>
<time>2011-02-26T07:21:39.000Z</time>
</trkpt>
<trkpt lat="31.8197600" lon="34.9826100">
<ele>264.980591</ele>
<time>2011-02-26T07:21:46.000Z</time>
</trkpt>
<trkpt lat="31.8196600" lon="34.9826100">
<ele>267.383911</ele>
<time>2011-02-26T07:21:53.000Z</time>
</trkpt>
<trkpt lat="31.8195700" lon="34.9826200">
<ele>269.306519</ele>
<time>2011-02-26T07:22:00.000Z</time>
</trkpt>
<trkpt lat="31.8194800" lon="34.9825800">
<ele>270.748413</ele>
<time>2011-02-26T07:22:07.000Z</time>
</trkpt>
<trkpt lat="31.8193900" lon="34.9825500">
<ele>271.709717</ele>
<time>2011-02-26T07:22:15.000Z</time>
</trkpt>
<trkpt lat="31.8193000" lon="34.9825300">
<ele>272.190430</ele>
<time>2011-02-26T07:22:21.000Z</time>
</trkpt>
<trkpt lat="31.8192100" lon="34.9824900">
<ele>273.151855</ele>
<time>2011-02-26T07:22:27.000Z</time>
</trkpt>
<trkpt lat="31.8191200" lon="34.9824600">
<ele>274.593750</ele>
<time>2011-02-26T07:22:32.000Z</time>
</trkpt>
<trkpt lat="31.8190200" lon="34.9824100">
<ele>276.516357</ele>
<time>2011-02-26T07:22:38.000Z</time>
</trkpt>
<trkpt lat="31.8189200" lon="34.9823700">
<ele>277.477661</ele>
<time>2011-02-26T07:22:45.000Z</time>
</trkpt>
<trkpt lat="31.8188300" lon="34.9823300">
<ele>277.958252</ele>
<time>2011-02-26T07:22:51.000Z</time>
</trkpt>
<trkpt lat="31.8187400" lon="34.9822700">
<ele>278.438965</ele>
<time>2011-02-26T07:22:57.000Z</time>
</trkpt>
<trkpt lat="31.8186500" lon="34.9822000">
<ele>279.400269</ele>
<time>2011-02-26T07:23:03.000Z</time>
</trkpt>
<trkpt lat="31.8185500" lon="34.9821500">
<ele>278.438965</ele>
<time>2011-02-26T07:23:08.000Z</time>
</trkpt>
<trkpt lat="31.8184500" lon="34.9820900">
<ele>278.919678</ele>
<time>2011-02-26T07:23:13.000Z</time>
</trkpt>
<trkpt lat="31.8183700" lon="34.9820400">
<ele>279.400269</ele>
<time>2011-02-26T07:23:18.000Z</time>
</trkpt>
<trkpt lat="31.8182600" lon="34.9819900">
<ele>279.880859</ele>
<time>2011-02-26T07:23:24.000Z</time>
</trkpt>
<trkpt lat="31.8181800" lon="34.9819300">
<ele>279.880859</ele>
<time>2011-02-26T07:23:29.000Z</time>
</trkpt>
<trkpt lat="31.8181000" lon="34.9818700">
<ele>279.400269</ele>
<time>2011-02-26T07:23:33.000Z</time>
</trkpt>
<trkpt lat="31.8180300" lon="34.9817800">
<ele>279.880859</ele>
<time>2011-02-26T07:23:37.000Z</time>
</trkpt>
<trkpt lat="31.8179500" lon="34.9817500">
<ele>279.880859</ele>
<time>2011-02-26T07:23:41.000Z</time>
</trkpt>
<trkpt lat="31.8178600" lon="34.9817800">
<ele>280.842407</ele>
<time>2011-02-26T07:23:45.000Z</time>
</trkpt>
<trkpt lat="31.8177700" lon="34.9818100">
<ele>281.322998</ele>
<time>2011-02-26T07:23:50.000Z</time>
</trkpt>
<trkpt lat="31.8176700" lon="34.9818400">
<ele>282.284302</ele>
<time>2011-02-26T07:23:56.000Z</time>
</trkpt>
<trkpt lat="31.8175700" lon="34.9818000">
<ele>285.168213</ele>
<time>2011-02-26T07:24:02.000Z</time>
</trkpt>
<trkpt lat="31.8174800" lon="34.9818100">
<ele>286.610229</ele>
<time>2011-02-26T07:24:08.000Z</time>
</trkpt>
<trkpt lat="31.8173800" lon="34.9817900">
<ele>286.610229</ele>
<time>2011-02-26T07:24:15.000Z</time>
</trkpt>
<trkpt lat="31.8172900" lon="34.9817300">
<ele>287.571411</ele>
<time>2011-02-26T07:24:22.000Z</time>
</trkpt>
<trkpt lat="31.8171800" lon="34.9817000">
<ele>289.494141</ele>
<time>2011-02-26T07:24:29.000Z</time>
</trkpt>
<trkpt lat="31.8171000" lon="34.9817200">
<ele>291.416748</ele>
<time>2011-02-26T07:24:35.000Z</time>
</trkpt>
<trkpt lat="31.8170100" lon="34.9817800">
<ele>293.339355</ele>
<time>2011-02-26T07:24:42.000Z</time>
</trkpt>
<trkpt lat="31.8169300" lon="34.9818300">
<ele>295.742676</ele>
<time>2011-02-26T07:24:49.000Z</time>
</trkpt>
<trkpt lat="31.8168600" lon="34.9818900">
<ele>296.223511</ele>
<time>2011-02-26T07:24:57.000Z</time>
</trkpt>
<trkpt lat="31.8167700" lon="34.9818400">
<ele>298.146118</ele>
<time>2011-02-26T07:25:05.000Z</time>
</trkpt>
<trkpt lat="31.8166900" lon="34.9817800">
<ele>299.107300</ele>
<time>2011-02-26T07:25:13.000Z</time>
</trkpt>
<trkpt lat="31.8166200" lon="34.9817200">
<ele>300.068726</ele>
<time>2011-02-26T07:25:21.000Z</time>
</trkpt>
<trkpt lat="31.8165400" lon="34.9816500">
<ele>300.549316</ele>
<time>2011-02-26T07:25:29.000Z</time>
</trkpt>
<trkpt lat="31.8164400" lon="34.9816100">
<ele>301.029907</ele>
<time>2011-02-26T07:25:36.000Z</time>
</trkpt>
<trkpt lat="31.8163600" lon="34.9815700">
<ele>302.471924</ele>
<time>2011-02-26T07:25:43.000Z</time>
</trkpt>
<trkpt lat="31.8162600" lon="34.9815500">
<ele>302.471924</ele>
<time>2011-02-26T07:25:50.000Z</time>
</trkpt>
<trkpt lat="31.8161700" lon="34.9815600">
<ele>302.952515</ele>
<time>2011-02-26T07:25:57.000Z</time>
</trkpt>
<trkpt lat="31.8161200" lon="34.9816700">
<ele>303.433228</ele>
<time>2011-02-26T07:26:03.000Z</time>
</trkpt>
<trkpt lat="31.8160500" lon="34.9817600">
<ele>303.913940</ele>
<time>2011-02-26T07:26:10.000Z</time>
</trkpt>
<trkpt lat="31.8159700" lon="34.9816800">
<ele>301.510620</ele>
<time>2011-02-26T07:26:16.000Z</time>
</trkpt>
<trkpt lat="31.8159000" lon="34.9815600">
<ele>299.107300</ele>
<time>2011-02-26T07:26:20.000Z</time>
</trkpt>
<trkpt lat="31.8158300" lon="34.9814700">
<ele>296.704102</ele>
<time>2011-02-26T07:26:22.000Z</time>
</trkpt>
<trkpt lat="31.8157600" lon="34.9813800">
<ele>295.742676</ele>
<time>2011-02-26T07:26:24.000Z</time>
</trkpt>
<trkpt lat="31.8156600" lon="34.9813600">
<ele>292.858765</ele>
<time>2011-02-26T07:26:26.000Z</time>
</trkpt>
<trkpt lat="31.8154600" lon="34.9813500">
<ele>290.455566</ele>
<time>2011-02-26T07:26:30.000Z</time>
</trkpt>
<trkpt lat="31.8153600" lon="34.9813600">
<ele>288.052246</ele>
<time>2011-02-26T07:26:32.000Z</time>
</trkpt>
<trkpt lat="31.8152400" lon="34.9813700">
<ele>284.687622</ele>
<time>2011-02-26T07:26:34.000Z</time>
</trkpt>
<trkpt lat="31.8150700" lon="34.9813900">
<ele>281.322998</ele>
<time>2011-02-26T07:26:37.000Z</time>
</trkpt>
<trkpt lat="31.8149600" lon="34.9813900">
<ele>281.803589</ele>
<time>2011-02-26T07:26:39.000Z</time>
</trkpt>
<trkpt lat="31.8148600" lon="34.9814000">
<ele>279.400269</ele>
<time>2011-02-26T07:26:41.000Z</time>
</trkpt>
<trkpt lat="31.8147500" lon="34.9814100">
<ele>278.438965</ele>
<time>2011-02-26T07:26:43.000Z</time>
</trkpt>
<trkpt lat="31.8146300" lon="34.9814100">
<ele>275.555054</ele>
<time>2011-02-26T07:26:45.000Z</time>
</trkpt>
<trkpt lat="31.8144900" lon="34.9814200">
<ele>272.671143</ele>
<time>2011-02-26T07:26:47.000Z</time>
</trkpt>
<trkpt lat="31.8143400" lon="34.9814300">
<ele>270.748413</ele>
<time>2011-02-26T07:26:49.000Z</time>
</trkpt>
<trkpt lat="31.8141800" lon="34.9814400">
<ele>269.306519</ele>
<time>2011-02-26T07:26:51.000Z</time>
</trkpt>
<trkpt lat="31.8140100" lon="34.9814500">
<ele>267.383911</ele>
<time>2011-02-26T07:26:53.000Z</time>
</trkpt>
<trkpt lat="31.8138500" lon="34.9814500">
<ele>264.499878</ele>
<time>2011-02-26T07:26:55.000Z</time>
</trkpt>
<trkpt lat="31.8137700" lon="34.9814500">
<ele>264.499878</ele>
<time>2011-02-26T07:26:56.000Z</time>
</trkpt>
<trkpt lat="31.8135900" lon="34.9814500">
<ele>263.057861</ele>
<time>2011-02-26T07:26:58.000Z</time>
</trkpt>
<trkpt lat="31.8134200" lon="34.9814500">
<ele>260.654541</ele>
<time>2011-02-26T07:27:00.000Z</time>
</trkpt>
<trkpt lat="31.8132400" lon="34.9814600">
<ele>258.251343</ele>
<time>2011-02-26T07:27:02.000Z</time>
</trkpt>
<trkpt lat="31.8130800" lon="34.9814500">
<ele>257.290039</ele>
<time>2011-02-26T07:27:04.000Z</time>
</trkpt>
<trkpt lat="31.8129300" lon="34.9814700">
<ele>258.731934</ele>
<time>2011-02-26T07:27:06.000Z</time>
</trkpt>
<trkpt lat="31.8128100" lon="34.9814900">
<ele>260.173950</ele>
<time>2011-02-26T07:27:08.000Z</time>
</trkpt>
<trkpt lat="31.8127100" lon="34.9815000">
<ele>261.135254</ele>
<time>2011-02-26T07:27:10.000Z</time>
</trkpt>
<trkpt lat="31.8126200" lon="34.9815300">
<ele>261.615967</ele>
<time>2011-02-26T07:27:12.000Z</time>
</trkpt>
<trkpt lat="31.8125300" lon="34.9815500">
<ele>262.096558</ele>
<time>2011-02-26T07:27:15.000Z</time>
</trkpt>
<trkpt lat="31.8124100" lon="34.9816000">
<ele>262.577148</ele>
<time>2011-02-26T07:27:19.000Z</time>
</trkpt>
<trkpt lat="31.8123100" lon="34.9816600">
<ele>263.057861</ele>
<time>2011-02-26T07:27:23.000Z</time>
</trkpt>
<trkpt lat="31.8122300" lon="34.9817200">
<ele>264.019287</ele>
<time>2011-02-26T07:27:27.000Z</time>
</trkpt>
<trkpt lat="31.8121200" lon="34.9817600">
<ele>263.538574</ele>
<time>2011-02-26T07:27:32.000Z</time>
</trkpt>
<trkpt lat="31.8120200" lon="34.9818100">
<ele>264.019287</ele>
<time>2011-02-26T07:27:37.000Z</time>
</trkpt>
<trkpt lat="31.8119200" lon="34.9818500">
<ele>263.538574</ele>
<time>2011-02-26T07:27:41.000Z</time>
</trkpt>
<trkpt lat="31.8118100" lon="34.9819000">
<ele>263.538574</ele>
<time>2011-02-26T07:27:45.000Z</time>
</trkpt>
<trkpt lat="31.8117200" lon="34.9819400">
<ele>263.538574</ele>
<time>2011-02-26T07:27:48.000Z</time>
</trkpt>
<trkpt lat="31.8116100" lon="34.9820200">
<ele>261.615967</ele>
<time>2011-02-26T07:27:51.000Z</time>
</trkpt>
<trkpt lat="31.8115000" lon="34.9820900">
<ele>261.135254</ele>
<time>2011-02-26T07:27:54.000Z</time>
</trkpt>
<trkpt lat="31.8114000" lon="34.9821600">
<ele>259.212646</ele>
<time>2011-02-26T07:27:57.000Z</time>
</trkpt>
<trkpt lat="31.8112900" lon="34.9821700">
<ele>257.290039</ele>
<time>2011-02-26T07:28:00.000Z</time>
</trkpt>
<trkpt lat="31.8112300" lon="34.9821000">
<ele>256.328735</ele>
<time>2011-02-26T07:28:04.000Z</time>
</trkpt>
<trkpt lat="31.8111700" lon="34.9819700">
<ele>254.886597</ele>
<time>2011-02-26T07:28:20.000Z</time>
</trkpt>
<trkpt lat="31.8111200" lon="34.9818500">
<ele>254.886597</ele>
<time>2011-02-26T07:28:23.000Z</time>
</trkpt>
<trkpt lat="31.8110700" lon="34.9817400">
<ele>251.522095</ele>
<time>2011-02-26T07:28:26.000Z</time>
</trkpt>
<trkpt lat="31.8110100" lon="34.9816200">
<ele>251.522095</ele>
<time>2011-02-26T07:28:29.000Z</time>
</trkpt>
<trkpt lat="31.8109700" lon="34.9815300">
<ele>251.522095</ele>
<time>2011-02-26T07:28:32.000Z</time>
</trkpt>
<trkpt lat="31.8109200" lon="34.9815300">
<ele>251.041382</ele>
<time>2011-02-26T07:28:38.000Z</time>
</trkpt>
<trkpt lat="31.8109900" lon="34.9816100">
<ele>250.560806</ele>
<time>2011-02-26T07:28:45.000Z</time>
</trkpt>
<trkpt lat="31.8110500" lon="34.9817100">
<ele>252.483398</ele>
<time>2011-02-26T07:28:52.000Z</time>
</trkpt>
<trkpt lat="31.8111000" lon="34.9818100">
<ele>253.444702</ele>
<time>2011-02-26T07:28:58.000Z</time>
</trkpt>
<trkpt lat="31.8111500" lon="34.9819200">
<ele>254.405991</ele>
<time>2011-02-26T07:29:05.000Z</time>
</trkpt>
<trkpt lat="31.8112000" lon="34.9820200">
<ele>254.405991</ele>
<time>2011-02-26T07:29:12.000Z</time>
</trkpt>
<trkpt lat="31.8112600" lon="34.9821200">
<ele>257.770752</ele>
<time>2011-02-26T07:29:19.000Z</time>
</trkpt>
<trkpt lat="31.8112900" lon="34.9822300">
<ele>259.693359</ele>
<time>2011-02-26T07:29:26.000Z</time>
</trkpt>
<trkpt lat="31.8113000" lon="34.9823400">
<ele>260.173950</ele>
<time>2011-02-26T07:29:33.000Z</time>
</trkpt>
<trkpt lat="31.8113200" lon="34.9824500">
<ele>260.654541</ele>
<time>2011-02-26T07:29:40.000Z</time>
</trkpt>
<trkpt lat="31.8113600" lon="34.9825600">
<ele>261.135254</ele>
<time>2011-02-26T07:29:47.000Z</time>
</trkpt>
<trkpt lat="31.8114000" lon="34.9826600">
<ele>261.135254</ele>
<time>2011-02-26T07:29:53.000Z</time>
</trkpt>
<trkpt lat="31.8114500" lon="34.9827600">
<ele>262.577148</ele>
<time>2011-02-26T07:30:00.000Z</time>
</trkpt>
<trkpt lat="31.8115000" lon="34.9828600">
<ele>263.538574</ele>
<time>2011-02-26T07:30:08.000Z</time>
</trkpt>
<trkpt lat="31.8115700" lon="34.9829500">
<ele>264.499878</ele>
<time>2011-02-26T07:30:16.000Z</time>
</trkpt>
<trkpt lat="31.8116500" lon="34.9830300">
<ele>265.461304</ele>
<time>2011-02-26T07:30:24.000Z</time>
</trkpt>
<trkpt lat="31.8117200" lon="34.9831000">
<ele>266.903198</ele>
<time>2011-02-26T07:30:31.000Z</time>
</trkpt>
<trkpt lat="31.8118100" lon="34.9831600">
<ele>268.345093</ele>
<time>2011-02-26T07:30:38.000Z</time>
</trkpt>
<trkpt lat="31.8118800" lon="34.9832300">
<ele>269.787109</ele>
<time>2011-02-26T07:30:45.000Z</time>
</trkpt>
<trkpt lat="31.8119600" lon="34.9833200">
<ele>271.709717</ele>
<time>2011-02-26T07:30:52.000Z</time>
</trkpt>
<trkpt lat="31.8120200" lon="34.9833900">
<ele>273.151855</ele>
<time>2011-02-26T07:30:59.000Z</time>
</trkpt>
<trkpt lat="31.8120800" lon="34.9834700">
<ele>274.593750</ele>
<time>2011-02-26T07:31:07.000Z</time>
</trkpt>
<trkpt lat="31.8120900" lon="34.9834800">
<ele>274.593750</ele>
<time>2011-02-26T07:31:59.000Z</time>
</trkpt>
<trkpt lat="31.8120300" lon="34.9833600">
<ele>272.671143</ele>
<time>2011-02-26T07:32:07.000Z</time>
</trkpt>
<trkpt lat="31.8119600" lon="34.9832900">
<ele>270.267700</ele>
<time>2011-02-26T07:32:10.000Z</time>
</trkpt>
<trkpt lat="31.8118600" lon="34.9832000">
<ele>267.383911</ele>
<time>2011-02-26T07:32:13.000Z</time>
</trkpt>
<trkpt lat="31.8117800" lon="34.9831400">
<ele>266.422485</ele>
<time>2011-02-26T07:32:15.000Z</time>
</trkpt>
<trkpt lat="31.8116800" lon="34.9830500">
<ele>264.499878</ele>
<time>2011-02-26T07:32:17.000Z</time>
</trkpt>
<trkpt lat="31.8115900" lon="34.9829600">
<ele>264.019287</ele>
<time>2011-02-26T07:32:19.000Z</time>
</trkpt>
<trkpt lat="31.8115200" lon="34.9828400">
<ele>263.538574</ele>
<time>2011-02-26T07:32:21.000Z</time>
</trkpt>
<trkpt lat="31.8114500" lon="34.9827300">
<ele>261.135254</ele>
<time>2011-02-26T07:32:23.000Z</time>
</trkpt>
<trkpt lat="31.8114000" lon="34.9826200">
<ele>259.693359</ele>
<time>2011-02-26T07:32:25.000Z</time>
</trkpt>
<trkpt lat="31.8113600" lon="34.9825100">
<ele>259.693359</ele>
<time>2011-02-26T07:32:27.000Z</time>
</trkpt>
<trkpt lat="31.8113200" lon="34.9823800">
<ele>260.173950</ele>
<time>2011-02-26T07:32:29.000Z</time>
</trkpt>
<trkpt lat="31.8113100" lon="34.9822600">
<ele>258.251343</ele>
<time>2011-02-26T07:32:32.000Z</time>
</trkpt>
<trkpt lat="31.8112900" lon="34.9821400">
<ele>257.290039</ele>
<time>2011-02-26T07:32:35.000Z</time>
</trkpt>
<trkpt lat="31.8112100" lon="34.9819900">
<ele>254.886597</ele>
<time>2011-02-26T07:32:38.000Z</time>
</trkpt>
<trkpt lat="31.8111600" lon="34.9818700">
<ele>252.483398</ele>
<time>2011-02-26T07:32:40.000Z</time>
</trkpt>
<trkpt lat="31.8111000" lon="34.9817700">
<ele>251.522095</ele>
<time>2011-02-26T07:32:42.000Z</time>
</trkpt>
<trkpt lat="31.8110500" lon="34.9816700">
<ele>250.560806</ele>
<time>2011-02-26T07:32:44.000Z</time>
</trkpt>
<trkpt lat="31.8109800" lon="34.9815500">
<ele>250.080200</ele>
<time>2011-02-26T07:32:47.000Z</time>
</trkpt>
<trkpt lat="31.8108800" lon="34.9815500">
<ele>249.599487</ele>
<time>2011-02-26T07:32:50.000Z</time>
</trkpt>
<trkpt lat="31.8108300" lon="34.9816700">
<ele>250.560806</ele>
<time>2011-02-26T07:32:55.000Z</time>
</trkpt>
<trkpt lat="31.8107900" lon="34.9817900">
<ele>250.560806</ele>
<time>2011-02-26T07:33:00.000Z</time>
</trkpt>
<trkpt lat="31.8107500" lon="34.9819200">
<ele>251.041382</ele>
<time>2011-02-26T07:33:05.000Z</time>
</trkpt>
<trkpt lat="31.8107100" lon="34.9820400">
<ele>252.002808</ele>
<time>2011-02-26T07:33:10.000Z</time>
</trkpt>
<trkpt lat="31.8106800" lon="34.9821700">
<ele>252.002808</ele>
<time>2011-02-26T07:33:15.000Z</time>
</trkpt>
<trkpt lat="31.8106400" lon="34.9823000">
<ele>252.483398</ele>
<time>2011-02-26T07:33:20.000Z</time>
</trkpt>
<trkpt lat="31.8106000" lon="34.9824000">
<ele>252.963989</ele>
<time>2011-02-26T07:33:24.000Z</time>
</trkpt>
<trkpt lat="31.8105600" lon="34.9825100">
<ele>253.925415</ele>
<time>2011-02-26T07:33:28.000Z</time>
</trkpt>
<trkpt lat="31.8105100" lon="34.9826300">
<ele>253.925415</ele>
<time>2011-02-26T07:33:33.000Z</time>
</trkpt>
<trkpt lat="31.8104500" lon="34.9827500">
<ele>254.405991</ele>
<time>2011-02-26T07:33:38.000Z</time>
</trkpt>
<trkpt lat="31.8103800" lon="34.9828600">
<ele>254.886597</ele>
<time>2011-02-26T07:33:43.000Z</time>
</trkpt>
<trkpt lat="31.8103000" lon="34.9829500">
<ele>256.328735</ele>
<time>2011-02-26T07:33:48.000Z</time>
</trkpt>
<trkpt lat="31.8102200" lon="34.9830200">
<ele>256.809326</ele>
<time>2011-02-26T07:33:53.000Z</time>
</trkpt>
<trkpt lat="31.8101300" lon="34.9831100">
<ele>257.290039</ele>
<time>2011-02-26T07:33:58.000Z</time>
</trkpt>
<trkpt lat="31.8100500" lon="34.9832000">
<ele>257.770752</ele>
<time>2011-02-26T07:34:03.000Z</time>
</trkpt>
<trkpt lat="31.8099800" lon="34.9832900">
<ele>258.251343</ele>
<time>2011-02-26T07:34:08.000Z</time>
</trkpt>
<trkpt lat="31.8099200" lon="34.9833900">
<ele>259.212646</ele>
<time>2011-02-26T07:34:13.000Z</time>
</trkpt>
<trkpt lat="31.8098700" lon="34.9834800">
<ele>259.693359</ele>
<time>2011-02-26T07:34:18.000Z</time>
</trkpt>
<trkpt lat="31.8098200" lon="34.9835800">
<ele>260.173950</ele>
<time>2011-02-26T07:34:23.000Z</time>
</trkpt>
<trkpt lat="31.8097800" lon="34.9836900">
<ele>260.654541</ele>
<time>2011-02-26T07:34:28.000Z</time>
</trkpt>
<trkpt lat="31.8097500" lon="34.9837900">
<ele>261.615967</ele>
<time>2011-02-26T07:34:33.000Z</time>
</trkpt>
<trkpt lat="31.8097200" lon="34.9838900">
<ele>262.577148</ele>
<time>2011-02-26T07:34:38.000Z</time>
</trkpt>
<trkpt lat="31.8096800" lon="34.9840000">
<ele>262.577148</ele>
<time>2011-02-26T07:34:43.000Z</time>
</trkpt>
<trkpt lat="31.8096600" lon="34.9841000">
<ele>263.538574</ele>
<time>2011-02-26T07:34:48.000Z</time>
</trkpt>
<trkpt lat="31.8096200" lon="34.9842100">
<ele>263.538574</ele>
<time>2011-02-26T07:34:53.000Z</time>
</trkpt>
<trkpt lat="31.8095800" lon="34.9843100">
<ele>263.057861</ele>
<time>2011-02-26T07:34:58.000Z</time>
</trkpt>
<trkpt lat="31.8095500" lon="34.9844100">
<ele>264.499878</ele>
<time>2011-02-26T07:35:03.000Z</time>
</trkpt>
<trkpt lat="31.8095000" lon="34.9845300">
<ele>264.019287</ele>
<time>2011-02-26T07:35:09.000Z</time>
</trkpt>
<trkpt lat="31.8094700" lon="34.9846300">
<ele>264.980591</ele>
<time>2011-02-26T07:35:14.000Z</time>
</trkpt>
<trkpt lat="31.8094300" lon="34.9847200">
<ele>266.422485</ele>
<time>2011-02-26T07:35:19.000Z</time>
</trkpt>
<trkpt lat="31.8093800" lon="34.9848200">
<ele>267.383911</ele>
<time>2011-02-26T07:35:24.000Z</time>
</trkpt>
<trkpt lat="31.8093400" lon="34.9849200">
<ele>268.345093</ele>
<time>2011-02-26T07:35:29.000Z</time>
</trkpt>
<trkpt lat="31.8093000" lon="34.9850200">
<ele>268.825806</ele>
<time>2011-02-26T07:35:34.000Z</time>
</trkpt>
<trkpt lat="31.8092600" lon="34.9851200">
<ele>268.825806</ele>
<time>2011-02-26T07:35:39.000Z</time>
</trkpt>
<trkpt lat="31.8092300" lon="34.9852200">
<ele>268.825806</ele>
<time>2011-02-26T07:35:44.000Z</time>
</trkpt>
<trkpt lat="31.8092100" lon="34.9853300">
<ele>269.787109</ele>
<time>2011-02-26T07:35:49.000Z</time>
</trkpt>
<trkpt lat="31.8092000" lon="34.9854400">
<ele>269.306519</ele>
<time>2011-02-26T07:35:54.000Z</time>
</trkpt>
<trkpt lat="31.8092100" lon="34.9855600">
<ele>270.748413</ele>
<time>2011-02-26T07:36:00.000Z</time>
</trkpt>
<trkpt lat="31.8092300" lon="34.9856800">
<ele>270.748413</ele>
<time>2011-02-26T07:36:06.000Z</time>
</trkpt>
<trkpt lat="31.8092600" lon="34.9857900">
<ele>271.229126</ele>
<time>2011-02-26T07:36:12.000Z</time>
</trkpt>
<trkpt lat="31.8092900" lon="34.9859000">
<ele>272.671143</ele>
<time>2011-02-26T07:36:18.000Z</time>
</trkpt>
<trkpt lat="31.8093200" lon="34.9860100">
<ele>273.151855</ele>
<time>2011-02-26T07:36:24.000Z</time>
</trkpt>
<trkpt lat="31.8093600" lon="34.9861200">
<ele>274.113037</ele>
<time>2011-02-26T07:36:31.000Z</time>
</trkpt>
<trkpt lat="31.8093900" lon="34.9862200">
<ele>275.074463</ele>
<time>2011-02-26T07:36:38.000Z</time>
</trkpt>
<trkpt lat="31.8094100" lon="34.9863300">
<ele>276.997070</ele>
<time>2011-02-26T07:36:45.000Z</time>
</trkpt>
<trkpt lat="31.8094300" lon="34.9864300">
<ele>278.438965</ele>
<time>2011-02-26T07:36:52.000Z</time>
</trkpt>
<trkpt lat="31.8094500" lon="34.9865400">
<ele>279.880859</ele>
<time>2011-02-26T07:37:00.000Z</time>
</trkpt>
<trkpt lat="31.8094600" lon="34.9866600">
<ele>281.322998</ele>
<time>2011-02-26T07:37:07.000Z</time>
</trkpt>
<trkpt lat="31.8094800" lon="34.9867700">
<ele>281.803589</ele>
<time>2011-02-26T07:37:14.000Z</time>
</trkpt>
<trkpt lat="31.8095000" lon="34.9868800">
<ele>283.726196</ele>
<time>2011-02-26T07:37:21.000Z</time>
</trkpt>
<trkpt lat="31.8095100" lon="34.9869900">
<ele>284.687622</ele>
<time>2011-02-26T07:37:28.000Z</time>
</trkpt>
<trkpt lat="31.8095200" lon="34.9871000">
<ele>285.168213</ele>
<time>2011-02-26T07:37:35.000Z</time>
</trkpt>
<trkpt lat="31.8095400" lon="34.9872100">
<ele>285.648804</ele>
<time>2011-02-26T07:37:42.000Z</time>
</trkpt>
<trkpt lat="31.8095600" lon="34.9873200">
<ele>286.610229</ele>
<time>2011-02-26T07:37:49.000Z</time>
</trkpt>
<trkpt lat="31.8095800" lon="34.9874300">
<ele>287.090820</ele>
<time>2011-02-26T07:37:56.000Z</time>
</trkpt>
<trkpt lat="31.8096100" lon="34.9875400">
<ele>288.532959</ele>
<time>2011-02-26T07:38:03.000Z</time>
</trkpt>
<trkpt lat="31.8096300" lon="34.9876500">
<ele>289.494141</ele>
<time>2011-02-26T07:38:10.000Z</time>
</trkpt>
<trkpt lat="31.8096300" lon="34.9877600">
<ele>290.455566</ele>
<time>2011-02-26T07:38:18.000Z</time>
</trkpt>
<trkpt lat="31.8096200" lon="34.9878700">
<ele>290.455566</ele>
<time>2011-02-26T07:38:25.000Z</time>
</trkpt>
<trkpt lat="31.8095800" lon="34.9879800">
<ele>290.936157</ele>
<time>2011-02-26T07:38:32.000Z</time>
</trkpt>
<trkpt lat="31.8095300" lon="34.9880800">
<ele>292.378174</ele>
<time>2011-02-26T07:38:39.000Z</time>
</trkpt>
<trkpt lat="31.8094600" lon="34.9881600">
<ele>292.858765</ele>
<time>2011-02-26T07:38:46.000Z</time>
</trkpt>
<trkpt lat="31.8094000" lon="34.9882400">
<ele>294.300781</ele>
<time>2011-02-26T07:38:53.000Z</time>
</trkpt>
<trkpt lat="31.8093400" lon="34.9883200">
<ele>295.742676</ele>
<time>2011-02-26T07:39:00.000Z</time>
</trkpt>
<trkpt lat="31.8092900" lon="34.9884100">
<ele>295.742676</ele>
<time>2011-02-26T07:39:07.000Z</time>
</trkpt>
<trkpt lat="31.8092400" lon="34.9885100">
<ele>297.184692</ele>
<time>2011-02-26T07:39:14.000Z</time>
</trkpt>
<trkpt lat="31.8091900" lon="34.9886100">
<ele>297.665405</ele>
<time>2011-02-26T07:39:21.000Z</time>
</trkpt>
<trkpt lat="31.8091500" lon="34.9887100">
<ele>298.626709</ele>
<time>2011-02-26T07:39:28.000Z</time>
</trkpt>
<trkpt lat="31.8091100" lon="34.9888200">
<ele>300.068726</ele>
<time>2011-02-26T07:39:35.000Z</time>
</trkpt>
<trkpt lat="31.8090500" lon="34.9889100">
<ele>300.549316</ele>
<time>2011-02-26T07:39:42.000Z</time>
</trkpt>
<trkpt lat="31.8090100" lon="34.9890000">
<ele>301.510620</ele>
<time>2011-02-26T07:39:48.000Z</time>
</trkpt>
<trkpt lat="31.8089700" lon="34.9890900">
<ele>302.471924</ele>
<time>2011-02-26T07:39:54.000Z</time>
</trkpt>
<trkpt lat="31.8089200" lon="34.9891900">
<ele>303.433228</ele>
<time>2011-02-26T07:40:01.000Z</time>
</trkpt>
<trkpt lat="31.8088700" lon="34.9893000">
<ele>303.433228</ele>
<time>2011-02-26T07:40:08.000Z</time>
</trkpt>
<trkpt lat="31.8088200" lon="34.9893900">
<ele>304.394653</ele>
<time>2011-02-26T07:40:15.000Z</time>
</trkpt>
<trkpt lat="31.8087600" lon="34.9894800">
<ele>304.875244</ele>
<time>2011-02-26T07:40:22.000Z</time>
</trkpt>
<trkpt lat="31.8087000" lon="34.9895700">
<ele>305.355957</ele>
<time>2011-02-26T07:40:29.000Z</time>
</trkpt>
<trkpt lat="31.8086400" lon="34.9896700">
<ele>306.317261</ele>
<time>2011-02-26T07:40:36.000Z</time>
</trkpt>
<trkpt lat="31.8085700" lon="34.9897500">
<ele>307.278564</ele>
<time>2011-02-26T07:40:43.000Z</time>
</trkpt>
<trkpt lat="31.8085000" lon="34.9898500">
<ele>308.239868</ele>
<time>2011-02-26T07:40:50.000Z</time>
</trkpt>
<trkpt lat="31.8084300" lon="34.9899300">
<ele>309.201172</ele>
<time>2011-02-26T07:40:57.000Z</time>
</trkpt>
<trkpt lat="31.8083700" lon="34.9900200">
<ele>309.681885</ele>
<time>2011-02-26T07:41:04.000Z</time>
</trkpt>
<trkpt lat="31.8083000" lon="34.9901000">
<ele>311.123779</ele>
<time>2011-02-26T07:41:11.000Z</time>
</trkpt>
<trkpt lat="31.8082500" lon="34.9902000">
<ele>311.604492</ele>
<time>2011-02-26T07:41:18.000Z</time>
</trkpt>
<trkpt lat="31.8082200" lon="34.9903100">
<ele>312.565826</ele>
<time>2011-02-26T07:41:25.000Z</time>
</trkpt>
<trkpt lat="31.8081800" lon="34.9904100">
<ele>312.565826</ele>
<time>2011-02-26T07:41:32.000Z</time>
</trkpt>
<trkpt lat="31.8081400" lon="34.9905200">
<ele>313.046478</ele>
<time>2011-02-26T07:41:39.000Z</time>
</trkpt>
<trkpt lat="31.8081200" lon="34.9906300">
<ele>314.969116</ele>
<time>2011-02-26T07:41:46.000Z</time>
</trkpt>
<trkpt lat="31.8080900" lon="34.9907400">
<ele>316.411011</ele>
<time>2011-02-26T07:41:53.000Z</time>
</trkpt>
<trkpt lat="31.8080500" lon="34.9908400">
<ele>316.891724</ele>
<time>2011-02-26T07:42:00.000Z</time>
</trkpt>
<trkpt lat="31.8080500" lon="34.9909400">
<ele>318.814331</ele>
<time>2011-02-26T07:42:07.000Z</time>
</trkpt>
<trkpt lat="31.8080100" lon="34.9910400">
<ele>320.737061</ele>
<time>2011-02-26T07:42:14.000Z</time>
</trkpt>
<trkpt lat="31.8079800" lon="34.9911400">
<ele>322.178955</ele>
<time>2011-02-26T07:42:21.000Z</time>
</trkpt>
<trkpt lat="31.8079400" lon="34.9912500">
<ele>323.620941</ele>
<time>2011-02-26T07:42:29.000Z</time>
</trkpt>
<trkpt lat="31.8079000" lon="34.9913600">
<ele>326.504883</ele>
<time>2011-02-26T07:42:37.000Z</time>
</trkpt>
<trkpt lat="31.8078900" lon="34.9914700">
<ele>327.466187</ele>
<time>2011-02-26T07:42:44.000Z</time>
</trkpt>
<trkpt lat="31.8078900" lon="34.9915800">
<ele>328.427612</ele>
<time>2011-02-26T07:42:51.000Z</time>
</trkpt>
<trkpt lat="31.8078900" lon="34.9916900">
<ele>329.388885</ele>
<time>2011-02-26T07:42:58.000Z</time>
</trkpt>
<trkpt lat="31.8079400" lon="34.9918000">
<ele>329.388885</ele>
<time>2011-02-26T07:43:04.000Z</time>
</trkpt>
<trkpt lat="31.8079900" lon="34.9919000">
<ele>328.908325</ele>
<time>2011-02-26T07:43:10.000Z</time>
</trkpt>
<trkpt lat="31.8080500" lon="34.9920100">
<ele>328.908325</ele>
<time>2011-02-26T07:43:15.000Z</time>
</trkpt>
<trkpt lat="31.8081100" lon="34.9921300">
<ele>327.946777</ele>
<time>2011-02-26T07:43:19.000Z</time>
</trkpt>
<trkpt lat="31.8081800" lon="34.9922300">
<ele>327.946777</ele>
<time>2011-02-26T07:43:22.000Z</time>
</trkpt>
<trkpt lat="31.8082400" lon="34.9923100">
<ele>326.985596</ele>
<time>2011-02-26T07:43:25.000Z</time>
</trkpt>
<trkpt lat="31.8083200" lon="34.9924000">
<ele>326.024170</ele>
<time>2011-02-26T07:43:29.000Z</time>
</trkpt>
<trkpt lat="31.8083500" lon="34.9924900">
<ele>323.620941</ele>
<time>2011-02-26T07:43:34.000Z</time>
</trkpt>
<trkpt lat="31.8082600" lon="34.9925000">
<ele>322.178955</ele>
<time>2011-02-26T07:43:37.000Z</time>
</trkpt>
<trkpt lat="31.8081400" lon="34.9925000">
<ele>319.775635</ele>
<time>2011-02-26T07:43:40.000Z</time>
</trkpt>
<trkpt lat="31.8080400" lon="34.9925200">
<ele>318.814331</ele>
<time>2011-02-26T07:43:42.000Z</time>
</trkpt>
<trkpt lat="31.8078600" lon="34.9925800">
<ele>315.930420</ele>
<time>2011-02-26T07:43:46.000Z</time>
</trkpt>
<trkpt lat="31.8077600" lon="34.9926100">
<ele>315.930420</ele>
<time>2011-02-26T07:43:48.000Z</time>
</trkpt>
<trkpt lat="31.8076700" lon="34.9926600">
<ele>313.527222</ele>
<time>2011-02-26T07:43:50.000Z</time>
</trkpt>
<trkpt lat="31.8075400" lon="34.9927600">
<ele>312.565826</ele>
<time>2011-02-26T07:43:53.000Z</time>
</trkpt>
<trkpt lat="31.8074100" lon="34.9928300">
<ele>312.085205</ele>
<time>2011-02-26T07:43:56.000Z</time>
</trkpt>
<trkpt lat="31.8072800" lon="34.9928800">
<ele>311.604492</ele>
<time>2011-02-26T07:43:59.000Z</time>
</trkpt>
<trkpt lat="31.8071700" lon="34.9929100">
<ele>310.643066</ele>
<time>2011-02-26T07:44:02.000Z</time>
</trkpt>
<trkpt lat="31.8071700" lon="34.9930200">
<ele>308.239868</ele>
<time>2011-02-26T07:44:06.000Z</time>
</trkpt>
<trkpt lat="31.8071900" lon="34.9931200">
<ele>306.317261</ele>
<time>2011-02-26T07:44:10.000Z</time>
</trkpt>
<trkpt lat="31.8072800" lon="34.9931600">
<ele>304.394653</ele>
<time>2011-02-26T07:44:13.000Z</time>
</trkpt>
<trkpt lat="31.8073900" lon="34.9932200">
<ele>301.991333</ele>
<time>2011-02-26T07:44:16.000Z</time>
</trkpt>
<trkpt lat="31.8075100" lon="34.9932700">
<ele>300.549316</ele>
<time>2011-02-26T07:44:19.000Z</time>
</trkpt>
<trkpt lat="31.8076900" lon="34.9933600">
<ele>298.146118</ele>
<time>2011-02-26T07:44:25.000Z</time>
</trkpt>
<trkpt lat="31.8077900" lon="34.9934000">
<ele>295.742676</ele>
<time>2011-02-26T07:44:28.000Z</time>
</trkpt>
<trkpt lat="31.8078900" lon="34.9934400">
<ele>292.858765</ele>
<time>2011-02-26T07:44:31.000Z</time>
</trkpt>
<trkpt lat="31.8079600" lon="34.9935300">
<ele>290.936157</ele>
<time>2011-02-26T07:44:34.000Z</time>
</trkpt>
<trkpt lat="31.8079900" lon="34.9936500">
<ele>289.013550</ele>
<time>2011-02-26T07:44:37.000Z</time>
</trkpt>
<trkpt lat="31.8080200" lon="34.9938000">
<ele>288.052246</ele>
<time>2011-02-26T07:44:40.000Z</time>
</trkpt>
<trkpt lat="31.8080300" lon="34.9939100">
<ele>287.090820</ele>
<time>2011-02-26T07:44:42.000Z</time>
</trkpt>
<trkpt lat="31.8080300" lon="34.9940800">
<ele>285.648804</ele>
<time>2011-02-26T07:44:45.000Z</time>
</trkpt>
<trkpt lat="31.8080200" lon="34.9941900">
<ele>283.726196</ele>
<time>2011-02-26T07:44:47.000Z</time>
</trkpt>
<trkpt lat="31.8079900" lon="34.9943400">
<ele>282.284302</ele>
<time>2011-02-26T07:44:50.000Z</time>
</trkpt>
<trkpt lat="31.8080500" lon="34.9944300">
<ele>281.803589</ele>
<time>2011-02-26T07:44:54.000Z</time>
</trkpt>
<trkpt lat="31.8081400" lon="34.9944200">
<ele>281.803589</ele>
<time>2011-02-26T07:44:59.000Z</time>
</trkpt>
<trkpt lat="31.8082200" lon="34.9944800">
<ele>282.284302</ele>
<time>2011-02-26T07:45:49.000Z</time>
</trkpt>
<trkpt lat="31.8082900" lon="34.9945400">
<ele>280.842407</ele>
<time>2011-02-26T07:45:53.000Z</time>
</trkpt>
<trkpt lat="31.8083800" lon="34.9946100">
<ele>279.880859</ele>
<time>2011-02-26T07:45:56.000Z</time>
</trkpt>
<trkpt lat="31.8084800" lon="34.9947000">
<ele>278.919678</ele>
<time>2011-02-26T07:45:59.000Z</time>
</trkpt>
<trkpt lat="31.8085600" lon="34.9947600">
<ele>276.997070</ele>
<time>2011-02-26T07:46:01.000Z</time>
</trkpt>
<trkpt lat="31.8086700" lon="34.9948600">
<ele>276.035645</ele>
<time>2011-02-26T07:46:04.000Z</time>
</trkpt>
<trkpt lat="31.8087400" lon="34.9949200">
<ele>275.555054</ele>
<time>2011-02-26T07:46:06.000Z</time>
</trkpt>
<trkpt lat="31.8088800" lon="34.9950200">
<ele>273.632446</ele>
<time>2011-02-26T07:46:09.000Z</time>
</trkpt>
<trkpt lat="31.8089800" lon="34.9950600">
<ele>273.151855</ele>
<time>2011-02-26T07:46:11.000Z</time>
</trkpt>
<trkpt lat="31.8091000" lon="34.9950900">
<ele>273.151855</ele>
<time>2011-02-26T07:46:13.000Z</time>
</trkpt>
<trkpt lat="31.8092100" lon="34.9951000">
<ele>272.190430</ele>
<time>2011-02-26T07:46:15.000Z</time>
</trkpt>
<trkpt lat="31.8093300" lon="34.9951100">
<ele>271.709717</ele>
<time>2011-02-26T07:46:17.000Z</time>
</trkpt>
<trkpt lat="31.8094600" lon="34.9951100">
<ele>271.229126</ele>
<time>2011-02-26T07:46:19.000Z</time>
</trkpt>
<trkpt lat="31.8096000" lon="34.9951000">
<ele>271.229126</ele>
<time>2011-02-26T07:46:21.000Z</time>
</trkpt>
<trkpt lat="31.8097400" lon="34.9951000">
<ele>270.748413</ele>
<time>2011-02-26T07:46:23.000Z</time>
</trkpt>
<trkpt lat="31.8098900" lon="34.9951000">
<ele>270.267700</ele>
<time>2011-02-26T07:46:25.000Z</time>
</trkpt>
<trkpt lat="31.8100400" lon="34.9951000">
<ele>268.825806</ele>
<time>2011-02-26T07:46:27.000Z</time>
</trkpt>
<trkpt lat="31.8101900" lon="34.9951000">
<ele>267.383911</ele>
<time>2011-02-26T07:46:29.000Z</time>
</trkpt>
<trkpt lat="31.8103400" lon="34.9951000">
<ele>267.383911</ele>
<time>2011-02-26T07:46:31.000Z</time>
</trkpt>
<trkpt lat="31.8104700" lon="34.9951200">
<ele>267.383911</ele>
<time>2011-02-26T07:46:33.000Z</time>
</trkpt>
<trkpt lat="31.8105900" lon="34.9951600">
<ele>267.864502</ele>
<time>2011-02-26T07:46:35.000Z</time>
</trkpt>
<trkpt lat="31.8107000" lon="34.9952100">
<ele>266.903198</ele>
<time>2011-02-26T07:46:37.000Z</time>
</trkpt>
<trkpt lat="31.8108000" lon="34.9952300">
<ele>266.422485</ele>
<time>2011-02-26T07:46:39.000Z</time>
</trkpt>
<trkpt lat="31.8109000" lon="34.9952200">
<ele>266.903198</ele>
<time>2011-02-26T07:46:41.000Z</time>
</trkpt>
<trkpt lat="31.8110000" lon="34.9952000">
<ele>267.383911</ele>
<time>2011-02-26T07:46:43.000Z</time>
</trkpt>
<trkpt lat="31.8111000" lon="34.9951900">
<ele>266.422485</ele>
<time>2011-02-26T07:46:45.000Z</time>
</trkpt>
<trkpt lat="31.8112000" lon="34.9951900">
<ele>266.903198</ele>
<time>2011-02-26T07:46:47.000Z</time>
</trkpt>
<trkpt lat="31.8113100" lon="34.9951700">
<ele>264.980591</ele>
<time>2011-02-26T07:46:49.000Z</time>
</trkpt>
<trkpt lat="31.8114400" lon="34.9951500">
<ele>264.019287</ele>
<time>2011-02-26T07:46:51.000Z</time>
</trkpt>
<trkpt lat="31.8115700" lon="34.9951300">
<ele>264.019287</ele>
<time>2011-02-26T07:46:53.000Z</time>
</trkpt>
<trkpt lat="31.8117000" lon="34.9951100">
<ele>264.499878</ele>
<time>2011-02-26T07:46:55.000Z</time>
</trkpt>
<trkpt lat="31.8118200" lon="34.9951000">
<ele>264.019287</ele>
<time>2011-02-26T07:46:57.000Z</time>
</trkpt>
<trkpt lat="31.8119300" lon="34.9950800">
<ele>264.019287</ele>
<time>2011-02-26T07:46:59.000Z</time>
</trkpt>
<trkpt lat="31.8120400" lon="34.9950500">
<ele>264.019287</ele>
<time>2011-02-26T07:47:01.000Z</time>
</trkpt>
<trkpt lat="31.8121700" lon="34.9949900">
<ele>264.019287</ele>
<time>2011-02-26T07:47:04.000Z</time>
</trkpt>
<trkpt lat="31.8122500" lon="34.9949200">
<ele>264.499878</ele>
<time>2011-02-26T07:47:06.000Z</time>
</trkpt>
<trkpt lat="31.8123300" lon="34.9948400">
<ele>263.057861</ele>
<time>2011-02-26T07:47:08.000Z</time>
</trkpt>
<trkpt lat="31.8124200" lon="34.9947600">
<ele>261.615967</ele>
<time>2011-02-26T07:47:10.000Z</time>
</trkpt>
<trkpt lat="31.8125100" lon="34.9946900">
<ele>259.212646</ele>
<time>2011-02-26T07:47:12.000Z</time>
</trkpt>
<trkpt lat="31.8126100" lon="34.9946500">
<ele>258.731934</ele>
<time>2011-02-26T07:47:14.000Z</time>
</trkpt>
<trkpt lat="31.8127400" lon="34.9946500">
<ele>257.290039</ele>
<time>2011-02-26T07:47:16.000Z</time>
</trkpt>
<trkpt lat="31.8128600" lon="34.9946700">
<ele>257.290039</ele>
<time>2011-02-26T07:47:18.000Z</time>
</trkpt>
<trkpt lat="31.8129700" lon="34.9946900">
<ele>257.290039</ele>
<time>2011-02-26T07:47:20.000Z</time>
</trkpt>
<trkpt lat="31.8130700" lon="34.9947400">
<ele>257.770752</ele>
<time>2011-02-26T07:47:22.000Z</time>
</trkpt>
<trkpt lat="31.8131500" lon="34.9947800">
<ele>257.770752</ele>
<time>2011-02-26T07:47:24.000Z</time>
</trkpt>
<trkpt lat="31.8132500" lon="34.9948300">
<ele>258.731934</ele>
<time>2011-02-26T07:47:27.000Z</time>
</trkpt>
<trkpt lat="31.8133700" lon="34.9948800">
<ele>258.731934</ele>
<time>2011-02-26T07:47:31.000Z</time>
</trkpt>
<trkpt lat="31.8134800" lon="34.9949100">
<ele>258.251343</ele>
<time>2011-02-26T07:47:35.000Z</time>
</trkpt>
<trkpt lat="31.8136000" lon="34.9949100">
<ele>257.290039</ele>
<time>2011-02-26T07:47:38.000Z</time>
</trkpt>
<trkpt lat="31.8137300" lon="34.9948700">
<ele>255.848022</ele>
<time>2011-02-26T07:47:41.000Z</time>
</trkpt>
<trkpt lat="31.8138600" lon="34.9948100">
<ele>255.367310</ele>
<time>2011-02-26T07:47:44.000Z</time>
</trkpt>
<trkpt lat="31.8139600" lon="34.9947700">
<ele>254.405991</ele>
<time>2011-02-26T07:47:46.000Z</time>
</trkpt>
<trkpt lat="31.8140600" lon="34.9947500">
<ele>253.444702</ele>
<time>2011-02-26T07:47:48.000Z</time>
</trkpt>
<trkpt lat="31.8141700" lon="34.9947400">
<ele>252.483398</ele>
<time>2011-02-26T07:47:50.000Z</time>
</trkpt>
<trkpt lat="31.8142700" lon="34.9947300">
<ele>252.002808</ele>
<time>2011-02-26T07:47:52.000Z</time>
</trkpt>
<trkpt lat="31.8144200" lon="34.9947200">
<ele>251.041382</ele>
<time>2011-02-26T07:47:55.000Z</time>
</trkpt>
<trkpt lat="31.8145200" lon="34.9947300">
<ele>250.080200</ele>
<time>2011-02-26T07:47:57.000Z</time>
</trkpt>
<trkpt lat="31.8146400" lon="34.9947500">
<ele>248.638184</ele>
<time>2011-02-26T07:47:59.000Z</time>
</trkpt>
<trkpt lat="31.8147600" lon="34.9948000">
<ele>247.196030</ele>
<time>2011-02-26T07:48:01.000Z</time>
</trkpt>
<trkpt lat="31.8148700" lon="34.9948600">
<ele>246.234863</ele>
<time>2011-02-26T07:48:03.000Z</time>
</trkpt>
<trkpt lat="31.8149700" lon="34.9949400">
<ele>246.234863</ele>
<time>2011-02-26T07:48:05.000Z</time>
</trkpt>
<trkpt lat="31.8150700" lon="34.9950300">
<ele>245.754150</ele>
<time>2011-02-26T07:48:07.000Z</time>
</trkpt>
<trkpt lat="31.8151700" lon="34.9951200">
<ele>245.754150</ele>
<time>2011-02-26T07:48:09.000Z</time>
</trkpt>
<trkpt lat="31.8152800" lon="34.9952100">
<ele>244.312256</ele>
<time>2011-02-26T07:48:11.000Z</time>
</trkpt>
<trkpt lat="31.8153900" lon="34.9953000">
<ele>243.831543</ele>
<time>2011-02-26T07:48:13.000Z</time>
</trkpt>
<trkpt lat="31.8155000" lon="34.9954000">
<ele>243.350845</ele>
<time>2011-02-26T07:48:15.000Z</time>
</trkpt>
<trkpt lat="31.8156000" lon="34.9955200">
<ele>242.389648</ele>
<time>2011-02-26T07:48:17.000Z</time>
</trkpt>
<trkpt lat="31.8157000" lon="34.9956400">
<ele>240.947632</ele>
<time>2011-02-26T07:48:19.000Z</time>
</trkpt>
<trkpt lat="31.8157800" lon="34.9957700">
<ele>239.986206</ele>
<time>2011-02-26T07:48:21.000Z</time>
</trkpt>
<trkpt lat="31.8158200" lon="34.9959200">
<ele>240.467041</ele>
<time>2011-02-26T07:48:23.000Z</time>
</trkpt>
<trkpt lat="31.8158600" lon="34.9960600">
<ele>239.986206</ele>
<time>2011-02-26T07:48:25.000Z</time>
</trkpt>
<trkpt lat="31.8158800" lon="34.9961900">
<ele>240.947632</ele>
<time>2011-02-26T07:48:27.000Z</time>
</trkpt>
<trkpt lat="31.8159100" lon="34.9963000">
<ele>241.908936</ele>
<time>2011-02-26T07:48:29.000Z</time>
</trkpt>
<trkpt lat="31.8159300" lon="34.9964000">
<ele>240.947632</ele>
<time>2011-02-26T07:48:31.000Z</time>
</trkpt>
<trkpt lat="31.8159700" lon="34.9965300">
<ele>240.947632</ele>
<time>2011-02-26T07:48:34.000Z</time>
</trkpt>
<trkpt lat="31.8160100" lon="34.9966800">
<ele>240.467041</ele>
<time>2011-02-26T07:48:37.000Z</time>
</trkpt>
<trkpt lat="31.8160200" lon="34.9967800">
<ele>239.986206</ele>
<time>2011-02-26T07:48:39.000Z</time>
</trkpt>
<trkpt lat="31.8160000" lon="34.9968900">
<ele>239.505493</ele>
<time>2011-02-26T07:48:41.000Z</time>
</trkpt>
<trkpt lat="31.8159600" lon="34.9970000">
<ele>239.986206</ele>
<time>2011-02-26T07:48:43.000Z</time>
</trkpt>
<trkpt lat="31.8159000" lon="34.9970900">
<ele>239.986206</ele>
<time>2011-02-26T07:48:45.000Z</time>
</trkpt>
<trkpt lat="31.8158400" lon="34.9972100">
<ele>239.986206</ele>
<time>2011-02-26T07:48:48.000Z</time>
</trkpt>
<trkpt lat="31.8157700" lon="34.9973000">
<ele>239.986206</ele>
<time>2011-02-26T07:48:51.000Z</time>
</trkpt>
<trkpt lat="31.8157000" lon="34.9974000">
<ele>239.986206</ele>
<time>2011-02-26T07:48:54.000Z</time>
</trkpt>
<trkpt lat="31.8156300" lon="34.9975200">
<ele>239.505493</ele>
<time>2011-02-26T07:48:57.000Z</time>
</trkpt>
<trkpt lat="31.8155700" lon="34.9976200">
<ele>239.986206</ele>
<time>2011-02-26T07:49:00.000Z</time>
</trkpt>
<trkpt lat="31.8155100" lon="34.9977200">
<ele>239.986206</ele>
<time>2011-02-26T07:49:03.000Z</time>
</trkpt>
<trkpt lat="31.8154500" lon="34.9978000">
<ele>240.467041</ele>
<time>2011-02-26T07:49:06.000Z</time>
</trkpt>
<trkpt lat="31.8153700" lon="34.9979100">
<ele>239.986206</ele>
<time>2011-02-26T07:49:10.000Z</time>
</trkpt>
<trkpt lat="31.8152800" lon="34.9980100">
<ele>239.505493</ele>
<time>2011-02-26T07:49:13.000Z</time>
</trkpt>
<trkpt lat="31.8151900" lon="34.9981100">
<ele>238.063583</ele>
<time>2011-02-26T07:49:16.000Z</time>
</trkpt>
<trkpt lat="31.8150800" lon="34.9981600">
<ele>239.505493</ele>
<time>2011-02-26T07:49:19.000Z</time>
</trkpt>
<trkpt lat="31.8149900" lon="34.9982200">
<ele>240.947632</ele>
<time>2011-02-26T07:49:22.000Z</time>
</trkpt>
<trkpt lat="31.8149100" lon="34.9983100">
<ele>241.428223</ele>
<time>2011-02-26T07:49:26.000Z</time>
</trkpt>
<trkpt lat="31.8148100" lon="34.9984000">
<ele>241.428223</ele>
<time>2011-02-26T07:49:30.000Z</time>
</trkpt>
<trkpt lat="31.8147400" lon="34.9985000">
<ele>240.947632</ele>
<time>2011-02-26T07:49:33.000Z</time>
</trkpt>
<trkpt lat="31.8146800" lon="34.9985900">
<ele>241.428223</ele>
<time>2011-02-26T07:49:36.000Z</time>
</trkpt>
<trkpt lat="31.8146200" lon="34.9986900">
<ele>240.947632</ele>
<time>2011-02-26T07:49:39.000Z</time>
</trkpt>
<trkpt lat="31.8145700" lon="34.9988100">
<ele>240.947632</ele>
<time>2011-02-26T07:49:42.000Z</time>
</trkpt>
<trkpt lat="31.8144900" lon="34.9989000">
<ele>240.947632</ele>
<time>2011-02-26T07:49:45.000Z</time>
</trkpt>
<trkpt lat="31.8144200" lon="34.9989900">
<ele>241.428223</ele>
<time>2011-02-26T07:49:48.000Z</time>
</trkpt>
<trkpt lat="31.8143500" lon="34.9990700">
<ele>242.389648</ele>
<time>2011-02-26T07:49:51.000Z</time>
</trkpt>
<trkpt lat="31.8142800" lon="34.9991600">
<ele>243.350845</ele>
<time>2011-02-26T07:49:54.000Z</time>
</trkpt>
<trkpt lat="31.8142200" lon="34.9992500">
<ele>243.831543</ele>
<time>2011-02-26T07:49:57.000Z</time>
</trkpt>
<trkpt lat="31.8141700" lon="34.9993400">
<ele>244.792847</ele>
<time>2011-02-26T07:50:00.000Z</time>
</trkpt>
<trkpt lat="31.8141100" lon="34.9994500">
<ele>244.792847</ele>
<time>2011-02-26T07:50:04.000Z</time>
</trkpt>
<trkpt lat="31.8140300" lon="34.9995500">
<ele>244.792847</ele>
<time>2011-02-26T07:50:08.000Z</time>
</trkpt>
<trkpt lat="31.8139300" lon="34.9996200">
<ele>245.273438</ele>
<time>2011-02-26T07:50:12.000Z</time>
</trkpt>
<trkpt lat="31.8138200" lon="34.9996700">
<ele>245.754150</ele>
<time>2011-02-26T07:50:16.000Z</time>
</trkpt>
<trkpt lat="31.8137100" lon="34.9997300">
<ele>246.715454</ele>
<time>2011-02-26T07:50:20.000Z</time>
</trkpt>
<trkpt lat="31.8136000" lon="34.9997800">
<ele>246.715454</ele>
<time>2011-02-26T07:50:24.000Z</time>
</trkpt>
<trkpt lat="31.8134900" lon="34.9998400">
<ele>247.196030</ele>
<time>2011-02-26T07:50:28.000Z</time>
</trkpt>
<trkpt lat="31.8134100" lon="34.9998900">
<ele>247.676758</ele>
<time>2011-02-26T07:50:31.000Z</time>
</trkpt>
<trkpt lat="31.8133300" lon="34.9999500">
<ele>246.715454</ele>
<time>2011-02-26T07:50:34.000Z</time>
</trkpt>
<trkpt lat="31.8132600" lon="35.0000200">
<ele>247.196030</ele>
<time>2011-02-26T07:50:37.000Z</time>
</trkpt>
<trkpt lat="31.8131800" lon="35.0000900">
<ele>247.196030</ele>
<time>2011-02-26T07:50:40.000Z</time>
</trkpt>
<trkpt lat="31.8131100" lon="35.0001500">
<ele>247.196030</ele>
<time>2011-02-26T07:50:43.000Z</time>
</trkpt>
<trkpt lat="31.8130300" lon="35.0002100">
<ele>247.676758</ele>
<time>2011-02-26T07:50:46.000Z</time>
</trkpt>
<trkpt lat="31.8129400" lon="35.0002600">
<ele>247.676758</ele>
<time>2011-02-26T07:50:49.000Z</time>
</trkpt>
<trkpt lat="31.8128500" lon="35.0003100">
<ele>248.157593</ele>
<time>2011-02-26T07:50:52.000Z</time>
</trkpt>
<trkpt lat="31.8127600" lon="35.0003500">
<ele>248.157593</ele>
<time>2011-02-26T07:50:55.000Z</time>
</trkpt>
<trkpt lat="31.8126700" lon="35.0003600">
<ele>249.118759</ele>
<time>2011-02-26T07:50:58.000Z</time>
</trkpt>
<trkpt lat="31.8125600" lon="35.0003800">
<ele>250.080200</ele>
<time>2011-02-26T07:51:02.000Z</time>
</trkpt>
<trkpt lat="31.8124500" lon="35.0004100">
<ele>251.041382</ele>
<time>2011-02-26T07:51:06.000Z</time>
</trkpt>
<trkpt lat="31.8123500" lon="35.0004400">
<ele>251.041382</ele>
<time>2011-02-26T07:51:10.000Z</time>
</trkpt>
<trkpt lat="31.8122400" lon="35.0004800">
<ele>251.522095</ele>
<time>2011-02-26T07:51:14.000Z</time>
</trkpt>
<trkpt lat="31.8121400" lon="35.0005300">
<ele>252.002808</ele>
<time>2011-02-26T07:51:18.000Z</time>
</trkpt>
<trkpt lat="31.8120300" lon="35.0005800">
<ele>252.483398</ele>
<time>2011-02-26T07:51:22.000Z</time>
</trkpt>
<trkpt lat="31.8119500" lon="35.0006500">
<ele>253.444702</ele>
<time>2011-02-26T07:51:26.000Z</time>
</trkpt>
<trkpt lat="31.8118800" lon="35.0007400">
<ele>253.925415</ele>
<time>2011-02-26T07:51:30.000Z</time>
</trkpt>
<trkpt lat="31.8118200" lon="35.0008400">
<ele>254.405991</ele>
<time>2011-02-26T07:51:34.000Z</time>
</trkpt>
<trkpt lat="31.8117500" lon="35.0009300">
<ele>254.405991</ele>
<time>2011-02-26T07:51:38.000Z</time>
</trkpt>
<trkpt lat="31.8116800" lon="35.0010300">
<ele>253.925415</ele>
<time>2011-02-26T07:51:42.000Z</time>
</trkpt>
<trkpt lat="31.8116100" lon="35.0011300">
<ele>253.925415</ele>
<time>2011-02-26T07:51:46.000Z</time>
</trkpt>
<trkpt lat="31.8115400" lon="35.0012200">
<ele>253.925415</ele>
<time>2011-02-26T07:51:50.000Z</time>
</trkpt>
<trkpt lat="31.8114900" lon="35.0013100">
<ele>253.444702</ele>
<time>2011-02-26T07:51:54.000Z</time>
</trkpt>
<trkpt lat="31.8114300" lon="35.0013900">
<ele>253.444702</ele>
<time>2011-02-26T07:51:58.000Z</time>
</trkpt>
<trkpt lat="31.8113700" lon="35.0014800">
<ele>253.444702</ele>
<time>2011-02-26T07:52:02.000Z</time>
</trkpt>
<trkpt lat="31.8113000" lon="35.0015900">
<ele>253.444702</ele>
<time>2011-02-26T07:52:06.000Z</time>
</trkpt>
<trkpt lat="31.8112300" lon="35.0017000">
<ele>253.444702</ele>
<time>2011-02-26T07:52:10.000Z</time>
</trkpt>
<trkpt lat="31.8111700" lon="35.0018300">
<ele>253.444702</ele>
<time>2011-02-26T07:52:14.000Z</time>
</trkpt>
<trkpt lat="31.8111000" lon="35.0019400">
<ele>253.925415</ele>
<time>2011-02-26T07:52:18.000Z</time>
</trkpt>
<trkpt lat="31.8110400" lon="35.0020300">
<ele>253.925415</ele>
<time>2011-02-26T07:52:22.000Z</time>
</trkpt>
<trkpt lat="31.8109800" lon="35.0021300">
<ele>254.405991</ele>
<time>2011-02-26T07:52:26.000Z</time>
</trkpt>
<trkpt lat="31.8109300" lon="35.0022500">
<ele>254.405991</ele>
<time>2011-02-26T07:52:30.000Z</time>
</trkpt>
<trkpt lat="31.8108900" lon="35.0023800">
<ele>254.405991</ele>
<time>2011-02-26T07:52:34.000Z</time>
</trkpt>
<trkpt lat="31.8108500" lon="35.0025100">
<ele>254.405991</ele>
<time>2011-02-26T07:52:38.000Z</time>
</trkpt>
<trkpt lat="31.8107900" lon="35.0026300">
<ele>254.405991</ele>
<time>2011-02-26T07:52:42.000Z</time>
</trkpt>
<trkpt lat="31.8107300" lon="35.0027400">
<ele>253.925415</ele>
<time>2011-02-26T07:52:46.000Z</time>
</trkpt>
<trkpt lat="31.8106500" lon="35.0028300">
<ele>254.886597</ele>
<time>2011-02-26T07:52:50.000Z</time>
</trkpt>
<trkpt lat="31.8105700" lon="35.0029000">
<ele>254.886597</ele>
<time>2011-02-26T07:52:54.000Z</time>
</trkpt>
<trkpt lat="31.8104700" lon="35.0029500">
<ele>255.367310</ele>
<time>2011-02-26T07:52:58.000Z</time>
</trkpt>
<trkpt lat="31.8103800" lon="35.0029800">
<ele>255.848022</ele>
<time>2011-02-26T07:53:02.000Z</time>
</trkpt>
<trkpt lat="31.8102700" lon="35.0030100">
<ele>257.290039</ele>
<time>2011-02-26T07:53:06.000Z</time>
</trkpt>
<trkpt lat="31.8101800" lon="35.0030400">
<ele>257.290039</ele>
<time>2011-02-26T07:53:10.000Z</time>
</trkpt>
<trkpt lat="31.8100800" lon="35.0030600">
<ele>258.251343</ele>
<time>2011-02-26T07:53:14.000Z</time>
</trkpt>
<trkpt lat="31.8100000" lon="35.0030700">
<ele>259.693359</ele>
<time>2011-02-26T07:53:18.000Z</time>
</trkpt>
<trkpt lat="31.8098800" lon="35.0030900">
<ele>260.173950</ele>
<time>2011-02-26T07:53:23.000Z</time>
</trkpt>
<trkpt lat="31.8097800" lon="35.0031000">
<ele>260.173950</ele>
<time>2011-02-26T07:53:27.000Z</time>
</trkpt>
<trkpt lat="31.8096600" lon="35.0030900">
<ele>260.173950</ele>
<time>2011-02-26T07:53:31.000Z</time>
</trkpt>
<trkpt lat="31.8095700" lon="35.0030900">
<ele>260.173950</ele>
<time>2011-02-26T07:53:34.000Z</time>
</trkpt>
<trkpt lat="31.8094600" lon="35.0030700">
<ele>261.135254</ele>
<time>2011-02-26T07:53:38.000Z</time>
</trkpt>
<trkpt lat="31.8093600" lon="35.0030500">
<ele>261.615967</ele>
<time>2011-02-26T07:53:42.000Z</time>
</trkpt>
<trkpt lat="31.8092500" lon="35.0030600">
<ele>261.615967</ele>
<time>2011-02-26T07:53:46.000Z</time>
</trkpt>
<trkpt lat="31.8091400" lon="35.0031000">
<ele>262.096558</ele>
<time>2011-02-26T07:53:50.000Z</time>
</trkpt>
<trkpt lat="31.8090200" lon="35.0031600">
<ele>261.615967</ele>
<time>2011-02-26T07:53:54.000Z</time>
</trkpt>
<trkpt lat="31.8089300" lon="35.0032100">
<ele>261.615967</ele>
<time>2011-02-26T07:53:57.000Z</time>
</trkpt>
<trkpt lat="31.8088600" lon="35.0032800">
<ele>261.615967</ele>
<time>2011-02-26T07:54:00.000Z</time>
</trkpt>
<trkpt lat="31.8087800" lon="35.0033300">
<ele>261.615967</ele>
<time>2011-02-26T07:54:03.000Z</time>
</trkpt>
<trkpt lat="31.8087000" lon="35.0033700">
<ele>261.615967</ele>
<time>2011-02-26T07:54:06.000Z</time>
</trkpt>
<trkpt lat="31.8085800" lon="35.0034000">
<ele>262.577148</ele>
<time>2011-02-26T07:54:10.000Z</time>
</trkpt>
<trkpt lat="31.8084700" lon="35.0034000">
<ele>264.019287</ele>
<time>2011-02-26T07:54:14.000Z</time>
</trkpt>
<trkpt lat="31.8083600" lon="35.0033700">
<ele>264.499878</ele>
<time>2011-02-26T07:54:18.000Z</time>
</trkpt>
<trkpt lat="31.8082700" lon="35.0033200">
<ele>264.499878</ele>
<time>2011-02-26T07:54:22.000Z</time>
</trkpt>
<trkpt lat="31.8081800" lon="35.0032500">
<ele>265.941895</ele>
<time>2011-02-26T07:54:27.000Z</time>
</trkpt>
<trkpt lat="31.8080900" lon="35.0032200">
<ele>267.383911</ele>
<time>2011-02-26T07:54:31.000Z</time>
</trkpt>
<trkpt lat="31.8080000" lon="35.0032000">
<ele>268.825806</ele>
<time>2011-02-26T07:54:36.000Z</time>
</trkpt>
<trkpt lat="31.8079100" lon="35.0031700">
<ele>269.306519</ele>
<time>2011-02-26T07:54:40.000Z</time>
</trkpt>
<trkpt lat="31.8078200" lon="35.0031600">
<ele>268.825806</ele>
<time>2011-02-26T07:54:44.000Z</time>
</trkpt>
<trkpt lat="31.8077200" lon="35.0031800">
<ele>268.825806</ele>
<time>2011-02-26T07:54:48.000Z</time>
</trkpt>
<trkpt lat="31.8076300" lon="35.0032300">
<ele>268.825806</ele>
<time>2011-02-26T07:54:52.000Z</time>
</trkpt>
<trkpt lat="31.8075600" lon="35.0033400">
<ele>268.825806</ele>
<time>2011-02-26T07:54:56.000Z</time>
</trkpt>
<trkpt lat="31.8075100" lon="35.0034800">
<ele>268.345093</ele>
<time>2011-02-26T07:54:59.000Z</time>
</trkpt>
<trkpt lat="31.8074700" lon="35.0035800">
<ele>267.864502</ele>
<time>2011-02-26T07:55:01.000Z</time>
</trkpt>
<trkpt lat="31.8073900" lon="35.0037100">
<ele>268.345093</ele>
<time>2011-02-26T07:55:04.000Z</time>
</trkpt>
<trkpt lat="31.8073200" lon="35.0038000">
<ele>268.825806</ele>
<time>2011-02-26T07:55:07.000Z</time>
</trkpt>
<trkpt lat="31.8072700" lon="35.0038900">
<ele>268.345093</ele>
<time>2011-02-26T07:55:10.000Z</time>
</trkpt>
<trkpt lat="31.8071900" lon="35.0039700">
<ele>267.864502</ele>
<time>2011-02-26T07:55:13.000Z</time>
</trkpt>
<trkpt lat="31.8069900" lon="35.0041100">
<ele>267.864502</ele>
<time>2011-02-26T07:55:19.000Z</time>
</trkpt>
<trkpt lat="31.8069100" lon="35.0042200">
<ele>267.383911</ele>
<time>2011-02-26T07:55:23.000Z</time>
</trkpt>
<trkpt lat="31.8067700" lon="35.0044600">
<ele>264.499878</ele>
<time>2011-02-26T07:55:29.000Z</time>
</trkpt>
<trkpt lat="31.8066900" lon="35.0045300">
<ele>265.941895</ele>
<time>2011-02-26T07:55:32.000Z</time>
</trkpt>
<trkpt lat="31.8066700" lon="35.0046400">
<ele>265.941895</ele>
<time>2011-02-26T07:55:37.000Z</time>
</trkpt>
<trkpt lat="31.8067200" lon="35.0047600">
<ele>264.499878</ele>
<time>2011-02-26T07:55:41.000Z</time>
</trkpt>
<trkpt lat="31.8067500" lon="35.0048500">
<ele>264.980591</ele>
<time>2011-02-26T07:55:44.000Z</time>
</trkpt>
<trkpt lat="31.8068100" lon="35.0049400">
<ele>267.864502</ele>
<time>2011-02-26T07:55:48.000Z</time>
</trkpt>
<trkpt lat="31.8068900" lon="35.0050000">
<ele>268.345093</ele>
<time>2011-02-26T07:55:52.000Z</time>
</trkpt>
<trkpt lat="31.8069800" lon="35.0050000">
<ele>268.345093</ele>
<time>2011-02-26T07:55:56.000Z</time>
</trkpt>
<trkpt lat="31.8071200" lon="35.0049300">
<ele>267.383911</ele>
<time>2011-02-26T07:56:00.000Z</time>
</trkpt>
<trkpt lat="31.8072100" lon="35.0048800">
<ele>265.461304</ele>
<time>2011-02-26T07:56:02.000Z</time>
</trkpt>
<trkpt lat="31.8073000" lon="35.0048300">
<ele>265.941895</ele>
<time>2011-02-26T07:56:04.000Z</time>
</trkpt>
<trkpt lat="31.8073900" lon="35.0047700">
<ele>264.980591</ele>
<time>2011-02-26T07:56:06.000Z</time>
</trkpt>
<trkpt lat="31.8074900" lon="35.0047300">
<ele>264.019287</ele>
<time>2011-02-26T07:56:08.000Z</time>
</trkpt>
<trkpt lat="31.8075700" lon="35.0047100">
<ele>264.499878</ele>
<time>2011-02-26T07:56:10.000Z</time>
</trkpt>
<trkpt lat="31.8076700" lon="35.0047200">
<ele>264.019287</ele>
<time>2011-02-26T07:56:13.000Z</time>
</trkpt>
<trkpt lat="31.8077600" lon="35.0047400">
<ele>264.019287</ele>
<time>2011-02-26T07:56:16.000Z</time>
</trkpt>
<trkpt lat="31.8078600" lon="35.0047700">
<ele>264.499878</ele>
<time>2011-02-26T07:56:19.000Z</time>
</trkpt>
<trkpt lat="31.8079500" lon="35.0048200">
<ele>264.499878</ele>
<time>2011-02-26T07:56:22.000Z</time>
</trkpt>
<trkpt lat="31.8080300" lon="35.0048800">
<ele>264.019287</ele>
<time>2011-02-26T07:56:25.000Z</time>
</trkpt>
<trkpt lat="31.8081300" lon="35.0049400">
<ele>265.941895</ele>
<time>2011-02-26T07:56:29.000Z</time>
</trkpt>
<trkpt lat="31.8082300" lon="35.0049800">
<ele>267.383911</ele>
<time>2011-02-26T07:56:33.000Z</time>
</trkpt>
<trkpt lat="31.8083300" lon="35.0049900">
<ele>267.383911</ele>
<time>2011-02-26T07:56:37.000Z</time>
</trkpt>
<trkpt lat="31.8084200" lon="35.0049900">
<ele>266.903198</ele>
<time>2011-02-26T07:56:41.000Z</time>
</trkpt>
<trkpt lat="31.8085200" lon="35.0049900">
<ele>265.941895</ele>
<time>2011-02-26T07:56:45.000Z</time>
</trkpt>
<trkpt lat="31.8086300" lon="35.0049900">
<ele>266.422485</ele>
<time>2011-02-26T07:56:49.000Z</time>
</trkpt>
<trkpt lat="31.8087300" lon="35.0050100">
<ele>267.383911</ele>
<time>2011-02-26T07:56:53.000Z</time>
</trkpt>
<trkpt lat="31.8088300" lon="35.0050400">
<ele>267.864502</ele>
<time>2011-02-26T07:56:57.000Z</time>
</trkpt>
<trkpt lat="31.8089300" lon="35.0050900">
<ele>267.864502</ele>
<time>2011-02-26T07:57:01.000Z</time>
</trkpt>
<trkpt lat="31.8090300" lon="35.0051400">
<ele>268.345093</ele>
<time>2011-02-26T07:57:05.000Z</time>
</trkpt>
<trkpt lat="31.8091400" lon="35.0051800">
<ele>268.345093</ele>
<time>2011-02-26T07:57:09.000Z</time>
</trkpt>
<trkpt lat="31.8092400" lon="35.0051700">
<ele>268.825806</ele>
<time>2011-02-26T07:57:13.000Z</time>
</trkpt>
<trkpt lat="31.8093300" lon="35.0051200">
<ele>268.825806</ele>
<time>2011-02-26T07:57:17.000Z</time>
</trkpt>
<trkpt lat="31.8094200" lon="35.0050300">
<ele>268.825806</ele>
<time>2011-02-26T07:57:21.000Z</time>
</trkpt>
<trkpt lat="31.8094700" lon="35.0049400">
<ele>268.345093</ele>
<time>2011-02-26T07:57:24.000Z</time>
</trkpt>
<trkpt lat="31.8095400" lon="35.0047900">
<ele>265.941895</ele>
<time>2011-02-26T07:57:27.000Z</time>
</trkpt>
<trkpt lat="31.8096200" lon="35.0046900">
<ele>264.499878</ele>
<time>2011-02-26T07:57:29.000Z</time>
</trkpt>
<trkpt lat="31.8096800" lon="35.0045800">
<ele>264.499878</ele>
<time>2011-02-26T07:57:31.000Z</time>
</trkpt>
<trkpt lat="31.8097800" lon="35.0044900">
<ele>264.019287</ele>
<time>2011-02-26T07:57:33.000Z</time>
</trkpt>
<trkpt lat="31.8098800" lon="35.0044000">
<ele>262.577148</ele>
<time>2011-02-26T07:57:35.000Z</time>
</trkpt>
<trkpt lat="31.8099400" lon="35.0042900">
<ele>261.615967</ele>
<time>2011-02-26T07:57:37.000Z</time>
</trkpt>
<trkpt lat="31.8100100" lon="35.0041700">
<ele>261.135254</ele>
<time>2011-02-26T07:57:39.000Z</time>
</trkpt>
<trkpt lat="31.8101000" lon="35.0040600">
<ele>259.212646</ele>
<time>2011-02-26T07:57:41.000Z</time>
</trkpt>
<trkpt lat="31.8102300" lon="35.0039700">
<ele>257.290039</ele>
<time>2011-02-26T07:57:43.000Z</time>
</trkpt>
<trkpt lat="31.8103800" lon="35.0039000">
<ele>256.328735</ele>
<time>2011-02-26T07:57:45.000Z</time>
</trkpt>
<trkpt lat="31.8105300" lon="35.0038500">
<ele>255.367310</ele>
<time>2011-02-26T07:57:47.000Z</time>
</trkpt>
<trkpt lat="31.8106900" lon="35.0038000">
<ele>254.886597</ele>
<time>2011-02-26T07:57:49.000Z</time>
</trkpt>
<trkpt lat="31.8108100" lon="35.0037800">
<ele>255.367310</ele>
<time>2011-02-26T07:57:51.000Z</time>
</trkpt>
<trkpt lat="31.8109100" lon="35.0037800">
<ele>255.848022</ele>
<time>2011-02-26T07:57:53.000Z</time>
</trkpt>
<trkpt lat="31.8110200" lon="35.0038200">
<ele>255.848022</ele>
<time>2011-02-26T07:57:56.000Z</time>
</trkpt>
<trkpt lat="31.8111200" lon="35.0038800">
<ele>256.328735</ele>
<time>2011-02-26T07:57:59.000Z</time>
</trkpt>
<trkpt lat="31.8112000" lon="35.0039500">
<ele>257.290039</ele>
<time>2011-02-26T07:58:02.000Z</time>
</trkpt>
<trkpt lat="31.8112700" lon="35.0040100">
<ele>257.290039</ele>
<time>2011-02-26T07:58:05.000Z</time>
</trkpt>
<trkpt lat="31.8113600" lon="35.0040900">
<ele>257.770752</ele>
<time>2011-02-26T07:58:09.000Z</time>
</trkpt>
<trkpt lat="31.8114500" lon="35.0041600">
<ele>257.770752</ele>
<time>2011-02-26T07:58:13.000Z</time>
</trkpt>
<trkpt lat="31.8115300" lon="35.0042800">
<ele>258.251343</ele>
<time>2011-02-26T07:58:17.000Z</time>
</trkpt>
<trkpt lat="31.8115700" lon="35.0043400">
<ele>258.251343</ele>
<time>2011-02-26T07:58:19.000Z</time>
</trkpt>
<trkpt lat="31.8115900" lon="35.0044900">
<ele>258.251343</ele>
<time>2011-02-26T07:58:23.000Z</time>
</trkpt>
<trkpt lat="31.8116000" lon="35.0046000">
<ele>258.731934</ele>
<time>2011-02-26T07:58:26.000Z</time>
</trkpt>
<trkpt lat="31.8116100" lon="35.0047400">
<ele>259.212646</ele>
<time>2011-02-26T07:58:30.000Z</time>
</trkpt>
<trkpt lat="31.8116100" lon="35.0048500">
<ele>260.173950</ele>
<time>2011-02-26T07:58:33.000Z</time>
</trkpt>
<trkpt lat="31.8116200" lon="35.0049900">
<ele>260.654541</ele>
<time>2011-02-26T07:58:37.000Z</time>
</trkpt>
<trkpt lat="31.8116600" lon="35.0051300">
<ele>260.654541</ele>
<time>2011-02-26T07:58:41.000Z</time>
</trkpt>
<trkpt lat="31.8117000" lon="35.0052500">
<ele>260.654541</ele>
<time>2011-02-26T07:58:45.000Z</time>
</trkpt>
<trkpt lat="31.8117600" lon="35.0053800">
<ele>260.173950</ele>
<time>2011-02-26T07:58:49.000Z</time>
</trkpt>
<trkpt lat="31.8118400" lon="35.0054800">
<ele>259.212646</ele>
<time>2011-02-26T07:58:52.000Z</time>
</trkpt>
<trkpt lat="31.8119200" lon="35.0055000">
<ele>258.731934</ele>
<time>2011-02-26T07:58:55.000Z</time>
</trkpt>
<trkpt lat="31.8120100" lon="35.0054500">
<ele>259.212646</ele>
<time>2011-02-26T07:58:58.000Z</time>
</trkpt>
<trkpt lat="31.8121000" lon="35.0054300">
<ele>260.654541</ele>
<time>2011-02-26T07:59:01.000Z</time>
</trkpt>
<trkpt lat="31.8121600" lon="35.0055300">
<ele>261.135254</ele>
<time>2011-02-26T07:59:05.000Z</time>
</trkpt>
<trkpt lat="31.8121900" lon="35.0056500">
<ele>261.615967</ele>
<time>2011-02-26T07:59:09.000Z</time>
</trkpt>
<trkpt lat="31.8122100" lon="35.0057800">
<ele>262.577148</ele>
<time>2011-02-26T07:59:13.000Z</time>
</trkpt>
<trkpt lat="31.8122200" lon="35.0059100">
<ele>263.057861</ele>
<time>2011-02-26T07:59:17.000Z</time>
</trkpt>
<trkpt lat="31.8122300" lon="35.0060300">
<ele>263.057861</ele>
<time>2011-02-26T07:59:21.000Z</time>
</trkpt>
<trkpt lat="31.8122400" lon="35.0061600">
<ele>264.019287</ele>
<time>2011-02-26T07:59:26.000Z</time>
</trkpt>
<trkpt lat="31.8122400" lon="35.0062800">
<ele>265.461304</ele>
<time>2011-02-26T07:59:31.000Z</time>
</trkpt>
<trkpt lat="31.8122700" lon="35.0064000">
<ele>265.941895</ele>
<time>2011-02-26T07:59:36.000Z</time>
</trkpt>
<trkpt lat="31.8123100" lon="35.0065000">
<ele>265.941895</ele>
<time>2011-02-26T07:59:41.000Z</time>
</trkpt>
<trkpt lat="31.8123700" lon="35.0065900">
<ele>267.864502</ele>
<time>2011-02-26T07:59:47.000Z</time>
</trkpt>
<trkpt lat="31.8123800" lon="35.0067100">
<ele>267.864502</ele>
<time>2011-02-26T07:59:52.000Z</time>
</trkpt>
<trkpt lat="31.8123800" lon="35.0068200">
<ele>268.345093</ele>
<time>2011-02-26T07:59:56.000Z</time>
</trkpt>
<trkpt lat="31.8123700" lon="35.0069500">
<ele>268.825806</ele>
<time>2011-02-26T08:00:01.000Z</time>
</trkpt>
<trkpt lat="31.8123600" lon="35.0070800">
<ele>268.345093</ele>
<time>2011-02-26T08:00:06.000Z</time>
</trkpt>
<trkpt lat="31.8123500" lon="35.0071900">
<ele>268.825806</ele>
<time>2011-02-26T08:00:10.000Z</time>
</trkpt>
<trkpt lat="31.8123400" lon="35.0073000">
<ele>267.864502</ele>
<time>2011-02-26T08:00:14.000Z</time>
</trkpt>
<trkpt lat="31.8123300" lon="35.0074100">
<ele>266.903198</ele>
<time>2011-02-26T08:00:18.000Z</time>
</trkpt>
<trkpt lat="31.8123200" lon="35.0075400">
<ele>268.345093</ele>
<time>2011-02-26T08:00:22.000Z</time>
</trkpt>
<trkpt lat="31.8123100" lon="35.0076600">
<ele>268.345093</ele>
<time>2011-02-26T08:00:26.000Z</time>
</trkpt>
<trkpt lat="31.8123100" lon="35.0077900">
<ele>269.306519</ele>
<time>2011-02-26T08:00:30.000Z</time>
</trkpt>
<trkpt lat="31.8123100" lon="35.0079200">
<ele>269.306519</ele>
<time>2011-02-26T08:00:34.000Z</time>
</trkpt>
<trkpt lat="31.8123100" lon="35.0080400">
<ele>269.306519</ele>
<time>2011-02-26T08:00:38.000Z</time>
</trkpt>
<trkpt lat="31.8123100" lon="35.0081600">
<ele>269.306519</ele>
<time>2011-02-26T08:00:42.000Z</time>
</trkpt>
<trkpt lat="31.8123000" lon="35.0082900">
<ele>269.306519</ele>
<time>2011-02-26T08:00:46.000Z</time>
</trkpt>
<trkpt lat="31.8123000" lon="35.0084100">
<ele>269.787109</ele>
<time>2011-02-26T08:00:50.000Z</time>
</trkpt>
<trkpt lat="31.8123100" lon="35.0085200">
<ele>269.787109</ele>
<time>2011-02-26T08:00:54.000Z</time>
</trkpt>
<trkpt lat="31.8123000" lon="35.0086400">
<ele>269.787109</ele>
<time>2011-02-26T08:00:58.000Z</time>
</trkpt>
<trkpt lat="31.8122900" lon="35.0087500">
<ele>269.306519</ele>
<time>2011-02-26T08:01:02.000Z</time>
</trkpt>
<trkpt lat="31.8122900" lon="35.0088600">
<ele>269.787109</ele>
<time>2011-02-26T08:01:06.000Z</time>
</trkpt>
<trkpt lat="31.8122700" lon="35.0089800">
<ele>269.787109</ele>
<time>2011-02-26T08:01:10.000Z</time>
</trkpt>
<trkpt lat="31.8122600" lon="35.0090900">
<ele>269.787109</ele>
<time>2011-02-26T08:01:14.000Z</time>
</trkpt>
<trkpt lat="31.8122500" lon="35.0092000">
<ele>270.748413</ele>
<time>2011-02-26T08:01:18.000Z</time>
</trkpt>
<trkpt lat="31.8122500" lon="35.0093200">
<ele>270.748413</ele>
<time>2011-02-26T08:01:22.000Z</time>
</trkpt>
<trkpt lat="31.8122500" lon="35.0094300">
<ele>271.709717</ele>
<time>2011-02-26T08:01:26.000Z</time>
</trkpt>
<trkpt lat="31.8122400" lon="35.0095400">
<ele>274.113037</ele>
<time>2011-02-26T08:01:30.000Z</time>
</trkpt>
<trkpt lat="31.8122400" lon="35.0096500">
<ele>272.671143</ele>
<time>2011-02-26T08:01:34.000Z</time>
</trkpt>
<trkpt lat="31.8122400" lon="35.0097600">
<ele>273.151855</ele>
<time>2011-02-26T08:01:38.000Z</time>
</trkpt>
<trkpt lat="31.8122300" lon="35.0098800">
<ele>273.632446</ele>
<time>2011-02-26T08:01:42.000Z</time>
</trkpt>
<trkpt lat="31.8122200" lon="35.0099900">
<ele>274.113037</ele>
<time>2011-02-26T08:01:46.000Z</time>
</trkpt>
<trkpt lat="31.8122100" lon="35.0101000">
<ele>274.113037</ele>
<time>2011-02-26T08:01:50.000Z</time>
</trkpt>
<trkpt lat="31.8121900" lon="35.0102200">
<ele>274.113037</ele>
<time>2011-02-26T08:01:54.000Z</time>
</trkpt>
<trkpt lat="31.8121700" lon="35.0103200">
<ele>274.593750</ele>
<time>2011-02-26T08:01:58.000Z</time>
</trkpt>
<trkpt lat="31.8121600" lon="35.0104300">
<ele>275.555054</ele>
<time>2011-02-26T08:02:02.000Z</time>
</trkpt>
<trkpt lat="31.8121300" lon="35.0105500">
<ele>274.593750</ele>
<time>2011-02-26T08:02:06.000Z</time>
</trkpt>
<trkpt lat="31.8121100" lon="35.0106600">
<ele>273.632446</ele>
<time>2011-02-26T08:02:09.000Z</time>
</trkpt>
<trkpt lat="31.8120800" lon="35.0107900">
<ele>275.074463</ele>
<time>2011-02-26T08:02:13.000Z</time>
</trkpt>
<trkpt lat="31.8120500" lon="35.0109000">
<ele>275.555054</ele>
<time>2011-02-26T08:02:17.000Z</time>
</trkpt>
<trkpt lat="31.8120100" lon="35.0110300">
<ele>276.035645</ele>
<time>2011-02-26T08:02:21.000Z</time>
</trkpt>
<trkpt lat="31.8119800" lon="35.0111500">
<ele>276.035645</ele>
<time>2011-02-26T08:02:25.000Z</time>
</trkpt>
<trkpt lat="31.8119600" lon="35.0112600">
<ele>276.516357</ele>
<time>2011-02-26T08:02:29.000Z</time>
</trkpt>
<trkpt lat="31.8119300" lon="35.0113700">
<ele>277.958252</ele>
<time>2011-02-26T08:02:33.000Z</time>
</trkpt>
<trkpt lat="31.8119100" lon="35.0114700">
<ele>277.958252</ele>
<time>2011-02-26T08:02:37.000Z</time>
</trkpt>
<trkpt lat="31.8118800" lon="35.0115800">
<ele>278.438965</ele>
<time>2011-02-26T08:02:41.000Z</time>
</trkpt>
<trkpt lat="31.8118600" lon="35.0116900">
<ele>278.438965</ele>
<time>2011-02-26T08:02:45.000Z</time>
</trkpt>
<trkpt lat="31.8118300" lon="35.0117900">
<ele>278.438965</ele>
<time>2011-02-26T08:02:49.000Z</time>
</trkpt>
<trkpt lat="31.8118000" lon="35.0118900">
<ele>278.438965</ele>
<time>2011-02-26T08:02:53.000Z</time>
</trkpt>
<trkpt lat="31.8117700" lon="35.0120000">
<ele>278.438965</ele>
<time>2011-02-26T08:02:57.000Z</time>
</trkpt>
<trkpt lat="31.8117400" lon="35.0121100">
<ele>278.438965</ele>
<time>2011-02-26T08:03:01.000Z</time>
</trkpt>
<trkpt lat="31.8117100" lon="35.0122200">
<ele>278.919678</ele>
<time>2011-02-26T08:03:05.000Z</time>
</trkpt>
<trkpt lat="31.8116900" lon="35.0123300">
<ele>279.400269</ele>
<time>2011-02-26T08:03:09.000Z</time>
</trkpt>
<trkpt lat="31.8116500" lon="35.0124300">
<ele>279.400269</ele>
<time>2011-02-26T08:03:13.000Z</time>
</trkpt>
<trkpt lat="31.8116100" lon="35.0125300">
<ele>280.361694</ele>
<time>2011-02-26T08:03:17.000Z</time>
</trkpt>
<trkpt lat="31.8115800" lon="35.0126400">
<ele>280.361694</ele>
<time>2011-02-26T08:03:21.000Z</time>
</trkpt>
<trkpt lat="31.8115400" lon="35.0127400">
<ele>280.842407</ele>
<time>2011-02-26T08:03:25.000Z</time>
</trkpt>
<trkpt lat="31.8115200" lon="35.0128500">
<ele>280.361694</ele>
<time>2011-02-26T08:03:29.000Z</time>
</trkpt>
<trkpt lat="31.8114800" lon="35.0129600">
<ele>280.361694</ele>
<time>2011-02-26T08:03:33.000Z</time>
</trkpt>
<trkpt lat="31.8114600" lon="35.0130700">
<ele>280.842407</ele>
<time>2011-02-26T08:03:37.000Z</time>
</trkpt>
<trkpt lat="31.8114500" lon="35.0132000">
<ele>281.803589</ele>
<time>2011-02-26T08:03:42.000Z</time>
</trkpt>
<trkpt lat="31.8114200" lon="35.0133000">
<ele>281.803589</ele>
<time>2011-02-26T08:03:46.000Z</time>
</trkpt>
<trkpt lat="31.8113900" lon="35.0134200">
<ele>282.284302</ele>
<time>2011-02-26T08:03:51.000Z</time>
</trkpt>
<trkpt lat="31.8113400" lon="35.0135300">
<ele>282.284302</ele>
<time>2011-02-26T08:03:56.000Z</time>
</trkpt>
<trkpt lat="31.8113000" lon="35.0136500">
<ele>282.284302</ele>
<time>2011-02-26T08:04:01.000Z</time>
</trkpt>
<trkpt lat="31.8112400" lon="35.0137600">
<ele>282.284302</ele>
<time>2011-02-26T08:04:06.000Z</time>
</trkpt>
<trkpt lat="31.8111700" lon="35.0138700">
<ele>282.284302</ele>
<time>2011-02-26T08:04:11.000Z</time>
</trkpt>
<trkpt lat="31.8111000" lon="35.0139700">
<ele>282.765015</ele>
<time>2011-02-26T08:04:16.000Z</time>
</trkpt>
<trkpt lat="31.8110400" lon="35.0140800">
<ele>283.245605</ele>
<time>2011-02-26T08:04:21.000Z</time>
</trkpt>
<trkpt lat="31.8109800" lon="35.0141700">
<ele>284.206909</ele>
<time>2011-02-26T08:04:25.000Z</time>
</trkpt>
<trkpt lat="31.8109200" lon="35.0142800">
<ele>284.687622</ele>
<time>2011-02-26T08:04:30.000Z</time>
</trkpt>
<trkpt lat="31.8108700" lon="35.0143700">
<ele>285.168213</ele>
<time>2011-02-26T08:04:34.000Z</time>
</trkpt>
<trkpt lat="31.8108100" lon="35.0144600">
<ele>284.687622</ele>
<time>2011-02-26T08:04:38.000Z</time>
</trkpt>
<trkpt lat="31.8107600" lon="35.0145500">
<ele>285.648804</ele>
<time>2011-02-26T08:04:42.000Z</time>
</trkpt>
<trkpt lat="31.8107100" lon="35.0146600">
<ele>284.206909</ele>
<time>2011-02-26T08:04:47.000Z</time>
</trkpt>
<trkpt lat="31.8106500" lon="35.0147600">
<ele>285.168213</ele>
<time>2011-02-26T08:04:51.000Z</time>
</trkpt>
<trkpt lat="31.8105800" lon="35.0148500">
<ele>286.610229</ele>
<time>2011-02-26T08:04:55.000Z</time>
</trkpt>
<trkpt lat="31.8105300" lon="35.0149600">
<ele>286.610229</ele>
<time>2011-02-26T08:04:59.000Z</time>
</trkpt>
<trkpt lat="31.8105000" lon="35.0150800">
<ele>287.090820</ele>
<time>2011-02-26T08:05:03.000Z</time>
</trkpt>
<trkpt lat="31.8104800" lon="35.0152000">
<ele>287.571411</ele>
<time>2011-02-26T08:05:07.000Z</time>
</trkpt>
<trkpt lat="31.8104400" lon="35.0152900">
<ele>287.571411</ele>
<time>2011-02-26T08:05:11.000Z</time>
</trkpt>
<trkpt lat="31.8103700" lon="35.0154100">
<ele>288.052246</ele>
<time>2011-02-26T08:05:16.000Z</time>
</trkpt>
<trkpt lat="31.8103200" lon="35.0155100">
<ele>288.052246</ele>
<time>2011-02-26T08:05:20.000Z</time>
</trkpt>
<trkpt lat="31.8103100" lon="35.0156100">
<ele>288.532959</ele>
<time>2011-02-26T08:05:24.000Z</time>
</trkpt>
<trkpt lat="31.8102800" lon="35.0157300">
<ele>289.494141</ele>
<time>2011-02-26T08:05:29.000Z</time>
</trkpt>
<trkpt lat="31.8102500" lon="35.0158400">
<ele>289.974854</ele>
<time>2011-02-26T08:05:33.000Z</time>
</trkpt>
<trkpt lat="31.8102000" lon="35.0159800">
<ele>289.974854</ele>
<time>2011-02-26T08:05:38.000Z</time>
</trkpt>
<trkpt lat="31.8101600" lon="35.0160900">
<ele>289.974854</ele>
<time>2011-02-26T08:05:42.000Z</time>
</trkpt>
<trkpt lat="31.8101300" lon="35.0162000">
<ele>289.494141</ele>
<time>2011-02-26T08:05:46.000Z</time>
</trkpt>
<trkpt lat="31.8100900" lon="35.0163300">
<ele>289.494141</ele>
<time>2011-02-26T08:05:50.000Z</time>
</trkpt>
<trkpt lat="31.8100500" lon="35.0164500">
<ele>289.974854</ele>
<time>2011-02-26T08:05:54.000Z</time>
</trkpt>
<trkpt lat="31.8100100" lon="35.0165700">
<ele>290.455566</ele>
<time>2011-02-26T08:05:58.000Z</time>
</trkpt>
<trkpt lat="31.8099600" lon="35.0166900">
<ele>290.455566</ele>
<time>2011-02-26T08:06:02.000Z</time>
</trkpt>
<trkpt lat="31.8099200" lon="35.0168100">
<ele>291.416748</ele>
<time>2011-02-26T08:06:06.000Z</time>
</trkpt>
<trkpt lat="31.8098800" lon="35.0169100">
<ele>291.416748</ele>
<time>2011-02-26T08:06:10.000Z</time>
</trkpt>
<trkpt lat="31.8098400" lon="35.0170300">
<ele>291.897461</ele>
<time>2011-02-26T08:06:14.000Z</time>
</trkpt>
<trkpt lat="31.8098000" lon="35.0171400">
<ele>291.897461</ele>
<time>2011-02-26T08:06:18.000Z</time>
</trkpt>
<trkpt lat="31.8097600" lon="35.0172500">
<ele>292.378174</ele>
<time>2011-02-26T08:06:22.000Z</time>
</trkpt>
<trkpt lat="31.8097200" lon="35.0173500">
<ele>292.378174</ele>
<time>2011-02-26T08:06:26.000Z</time>
</trkpt>
<trkpt lat="31.8096800" lon="35.0174900">
<ele>293.339355</ele>
<time>2011-02-26T08:06:31.000Z</time>
</trkpt>
<trkpt lat="31.8096500" lon="35.0175900">
<ele>294.300781</ele>
<time>2011-02-26T08:06:35.000Z</time>
</trkpt>
<trkpt lat="31.8096100" lon="35.0177200">
<ele>293.820068</ele>
<time>2011-02-26T08:06:40.000Z</time>
</trkpt>
<trkpt lat="31.8095900" lon="35.0178300">
<ele>294.300781</ele>
<time>2011-02-26T08:06:44.000Z</time>
</trkpt>
<trkpt lat="31.8095700" lon="35.0179400">
<ele>294.781372</ele>
<time>2011-02-26T08:06:48.000Z</time>
</trkpt>
<trkpt lat="31.8095600" lon="35.0180600">
<ele>294.781372</ele>
<time>2011-02-26T08:06:52.000Z</time>
</trkpt>
<trkpt lat="31.8095500" lon="35.0181600">
<ele>295.261963</ele>
<time>2011-02-26T08:06:56.000Z</time>
</trkpt>
<trkpt lat="31.8095500" lon="35.0183100">
<ele>295.742676</ele>
<time>2011-02-26T08:07:01.000Z</time>
</trkpt>
<trkpt lat="31.8095500" lon="35.0184100">
<ele>296.704102</ele>
<time>2011-02-26T08:07:05.000Z</time>
</trkpt>
<trkpt lat="31.8095700" lon="35.0185300">
<ele>297.665405</ele>
<time>2011-02-26T08:07:10.000Z</time>
</trkpt>
<trkpt lat="31.8095900" lon="35.0186600">
<ele>298.146118</ele>
<time>2011-02-26T08:07:15.000Z</time>
</trkpt>
<trkpt lat="31.8096100" lon="35.0187700">
<ele>298.626709</ele>
<time>2011-02-26T08:07:20.000Z</time>
</trkpt>
<trkpt lat="31.8096400" lon="35.0188900">
<ele>299.588013</ele>
<time>2011-02-26T08:07:25.000Z</time>
</trkpt>
<trkpt lat="31.8096600" lon="35.0189900">
<ele>301.029907</ele>
<time>2011-02-26T08:07:29.000Z</time>
</trkpt>
<trkpt lat="31.8096500" lon="35.0191000">
<ele>301.510620</ele>
<time>2011-02-26T08:07:33.000Z</time>
</trkpt>
<trkpt lat="31.8096700" lon="35.0192100">
<ele>302.952515</ele>
<time>2011-02-26T08:07:39.000Z</time>
</trkpt>
<trkpt lat="31.8096500" lon="35.0193300">
<ele>303.913940</ele>
<time>2011-02-26T08:07:57.000Z</time>
</trkpt>
<trkpt lat="31.8096500" lon="35.0194200">
<ele>303.433228</ele>
<time>2011-02-26T08:08:09.000Z</time>
</trkpt>
<trkpt lat="31.8096200" lon="35.0195400">
<ele>302.952515</ele>
<time>2011-02-26T08:08:14.000Z</time>
</trkpt>
<trkpt lat="31.8095900" lon="35.0196400">
<ele>303.433228</ele>
<time>2011-02-26T08:08:20.000Z</time>
</trkpt>
<trkpt lat="31.8095600" lon="35.0197500">
<ele>304.875244</ele>
<time>2011-02-26T08:08:26.000Z</time>
</trkpt>
<trkpt lat="31.8095300" lon="35.0198600">
<ele>305.355957</ele>
<time>2011-02-26T08:08:32.000Z</time>
</trkpt>
<trkpt lat="31.8095100" lon="35.0199700">
<ele>305.836670</ele>
<time>2011-02-26T08:08:38.000Z</time>
</trkpt>
<trkpt lat="31.8094900" lon="35.0200900">
<ele>306.317261</ele>
<time>2011-02-26T08:08:44.000Z</time>
</trkpt>
<trkpt lat="31.8094800" lon="35.0202100">
<ele>306.797852</ele>
<time>2011-02-26T08:08:50.000Z</time>
</trkpt>
<trkpt lat="31.8094600" lon="35.0203200">
<ele>306.797852</ele>
<time>2011-02-26T08:08:56.000Z</time>
</trkpt>
<trkpt lat="31.8094300" lon="35.0204400">
<ele>307.278564</ele>
<time>2011-02-26T08:09:02.000Z</time>
</trkpt>
<trkpt lat="31.8094000" lon="35.0205600">
<ele>309.201172</ele>
<time>2011-02-26T08:09:08.000Z</time>
</trkpt>
<trkpt lat="31.8093600" lon="35.0206500">
<ele>310.162476</ele>
<time>2011-02-26T08:09:14.000Z</time>
</trkpt>
<trkpt lat="31.8093600" lon="35.0207800">
<ele>310.162476</ele>
<time>2011-02-26T08:09:20.000Z</time>
</trkpt>
<trkpt lat="31.8093500" lon="35.0208900">
<ele>310.162476</ele>
<time>2011-02-26T08:09:26.000Z</time>
</trkpt>
<trkpt lat="31.8093100" lon="35.0210100">
<ele>310.162476</ele>
<time>2011-02-26T08:09:32.000Z</time>
</trkpt>
<trkpt lat="31.8092900" lon="35.0211300">
<ele>311.604492</ele>
<time>2011-02-26T08:09:38.000Z</time>
</trkpt>
<trkpt lat="31.8092600" lon="35.0212500">
<ele>312.565826</ele>
<time>2011-02-26T08:09:44.000Z</time>
</trkpt>
<trkpt lat="31.8092200" lon="35.0213600">
<ele>313.527222</ele>
<time>2011-02-26T08:09:50.000Z</time>
</trkpt>
<trkpt lat="31.8091800" lon="35.0214600">
<ele>313.527222</ele>
<time>2011-02-26T08:09:55.000Z</time>
</trkpt>
<trkpt lat="31.8091500" lon="35.0215600">
<ele>314.007813</ele>
<time>2011-02-26T08:10:00.000Z</time>
</trkpt>
<trkpt lat="31.8091000" lon="35.0216500">
<ele>314.488403</ele>
<time>2011-02-26T08:10:05.000Z</time>
</trkpt>
<trkpt lat="31.8090500" lon="35.0217400">
<ele>315.449829</ele>
<time>2011-02-26T08:10:10.000Z</time>
</trkpt>
<trkpt lat="31.8089700" lon="35.0218300">
<ele>316.411011</ele>
<time>2011-02-26T08:10:16.000Z</time>
</trkpt>
<trkpt lat="31.8089100" lon="35.0219200">
<ele>317.372437</ele>
<time>2011-02-26T08:10:22.000Z</time>
</trkpt>
<trkpt lat="31.8088500" lon="35.0220000">
<ele>317.853058</ele>
<time>2011-02-26T08:10:28.000Z</time>
</trkpt>
<trkpt lat="31.8087900" lon="35.0220900">
<ele>318.333618</ele>
<time>2011-02-26T08:10:34.000Z</time>
</trkpt>
<trkpt lat="31.8087100" lon="35.0221700">
<ele>318.814331</ele>
<time>2011-02-26T08:10:40.000Z</time>
</trkpt>
<trkpt lat="31.8086200" lon="35.0222500">
<ele>319.295044</ele>
<time>2011-02-26T08:10:47.000Z</time>
</trkpt>
<trkpt lat="31.8085500" lon="35.0223300">
<ele>320.256348</ele>
<time>2011-02-26T08:10:54.000Z</time>
</trkpt>
<trkpt lat="31.8084700" lon="35.0224100">
<ele>320.256348</ele>
<time>2011-02-26T08:11:02.000Z</time>
</trkpt>
<trkpt lat="31.8083900" lon="35.0224800">
<ele>321.217773</ele>
<time>2011-02-26T08:11:09.000Z</time>
</trkpt>
<trkpt lat="31.8083100" lon="35.0225400">
<ele>321.698364</ele>
<time>2011-02-26T08:11:16.000Z</time>
</trkpt>
<trkpt lat="31.8082400" lon="35.0226000">
<ele>322.659668</ele>
<time>2011-02-26T08:11:23.000Z</time>
</trkpt>
<trkpt lat="31.8081600" lon="35.0226800">
<ele>323.620941</ele>
<time>2011-02-26T08:11:30.000Z</time>
</trkpt>
<trkpt lat="31.8080800" lon="35.0227400">
<ele>324.582275</ele>
<time>2011-02-26T08:11:38.000Z</time>
</trkpt>
<trkpt lat="31.8080100" lon="35.0228000">
<ele>325.543579</ele>
<time>2011-02-26T08:11:46.000Z</time>
</trkpt>
<trkpt lat="31.8079300" lon="35.0228700">
<ele>326.024170</ele>
<time>2011-02-26T08:11:54.000Z</time>
</trkpt>
<trkpt lat="31.8078600" lon="35.0229500">
<ele>327.466187</ele>
<time>2011-02-26T08:12:02.000Z</time>
</trkpt>
<trkpt lat="31.8077700" lon="35.0230300">
<ele>327.946777</ele>
<time>2011-02-26T08:12:10.000Z</time>
</trkpt>
<trkpt lat="31.8077000" lon="35.0231000">
<ele>330.350220</ele>
<time>2011-02-26T08:12:16.000Z</time>
</trkpt>
<trkpt lat="31.8076200" lon="35.0231600">
<ele>332.272827</ele>
<time>2011-02-26T08:12:22.000Z</time>
</trkpt>
<trkpt lat="31.8075400" lon="35.0232100">
<ele>334.195465</ele>
<time>2011-02-26T08:12:28.000Z</time>
</trkpt>
<trkpt lat="31.8074700" lon="35.0232800">
<ele>335.637329</ele>
<time>2011-02-26T08:12:35.000Z</time>
</trkpt>
<trkpt lat="31.8073900" lon="35.0233500">
<ele>337.079468</ele>
<time>2011-02-26T08:12:42.000Z</time>
</trkpt>
<trkpt lat="31.8073200" lon="35.0234400">
<ele>339.963348</ele>
<time>2011-02-26T08:12:49.000Z</time>
</trkpt>
<trkpt lat="31.8072500" lon="35.0234800">
<ele>340.444061</ele>
<time>2011-02-26T08:12:56.000Z</time>
</trkpt>
<trkpt lat="31.8071800" lon="35.0235400">
<ele>340.924683</ele>
<time>2011-02-26T08:13:04.000Z</time>
</trkpt>
<trkpt lat="31.8071100" lon="35.0236100">
<ele>343.327881</ele>
<time>2011-02-26T08:13:12.000Z</time>
</trkpt>
<trkpt lat="31.8070400" lon="35.0236800">
<ele>343.808594</ele>
<time>2011-02-26T08:13:20.000Z</time>
</trkpt>
<trkpt lat="31.8069700" lon="35.0237500">
<ele>344.289429</ele>
<time>2011-02-26T08:13:28.000Z</time>
</trkpt>
<trkpt lat="31.8068800" lon="35.0238100">
<ele>345.731293</ele>
<time>2011-02-26T08:13:36.000Z</time>
</trkpt>
<trkpt lat="31.8067900" lon="35.0238500">
<ele>345.250641</ele>
<time>2011-02-26T08:13:44.000Z</time>
</trkpt>
<trkpt lat="31.8067100" lon="35.0239100">
<ele>346.212036</ele>
<time>2011-02-26T08:13:52.000Z</time>
</trkpt>
<trkpt lat="31.8066200" lon="35.0239500">
<ele>347.173218</ele>
<time>2011-02-26T08:14:00.000Z</time>
</trkpt>
<trkpt lat="31.8065200" lon="35.0239800">
<ele>348.134644</ele>
<time>2011-02-26T08:14:08.000Z</time>
</trkpt>
<trkpt lat="31.8064300" lon="35.0240200">
<ele>349.095825</ele>
<time>2011-02-26T08:14:16.000Z</time>
</trkpt>
<trkpt lat="31.8063400" lon="35.0240700">
<ele>350.537872</ele>
<time>2011-02-26T08:14:24.000Z</time>
</trkpt>
<trkpt lat="31.8062500" lon="35.0241100">
<ele>351.018433</ele>
<time>2011-02-26T08:14:32.000Z</time>
</trkpt>
<trkpt lat="31.8061500" lon="35.0241300">
<ele>352.941162</ele>
<time>2011-02-26T08:14:40.000Z</time>
</trkpt>
<trkpt lat="31.8060600" lon="35.0241600">
<ele>354.383179</ele>
<time>2011-02-26T08:14:48.000Z</time>
</trkpt>
<trkpt lat="31.8059600" lon="35.0241900">
<ele>354.863770</ele>
<time>2011-02-26T08:14:56.000Z</time>
</trkpt>
<trkpt lat="31.8058700" lon="35.0242100">
<ele>355.344482</ele>
<time>2011-02-26T08:15:04.000Z</time>
</trkpt>
<trkpt lat="31.8057800" lon="35.0242600">
<ele>357.267090</ele>
<time>2011-02-26T08:15:13.000Z</time>
</trkpt>
<trkpt lat="31.8056900" lon="35.0243100">
<ele>357.747803</ele>
<time>2011-02-26T08:15:21.000Z</time>
</trkpt>
<trkpt lat="31.8056000" lon="35.0243500">
<ele>357.747803</ele>
<time>2011-02-26T08:15:29.000Z</time>
</trkpt>
<trkpt lat="31.8055300" lon="35.0244300">
<ele>361.593140</ele>
<time>2011-02-26T08:15:38.000Z</time>
</trkpt>
<trkpt lat="31.8054500" lon="35.0244700">
<ele>362.073700</ele>
<time>2011-02-26T08:15:45.000Z</time>
</trkpt>
<trkpt lat="31.8053600" lon="35.0245300">
<ele>362.554321</ele>
<time>2011-02-26T08:15:53.000Z</time>
</trkpt>
<trkpt lat="31.8052800" lon="35.0245800">
<ele>363.515747</ele>
<time>2011-02-26T08:16:01.000Z</time>
</trkpt>
<trkpt lat="31.8052100" lon="35.0246400">
<ele>364.476929</ele>
<time>2011-02-26T08:16:09.000Z</time>
</trkpt>
<trkpt lat="31.8051300" lon="35.0246900">
<ele>365.918945</ele>
<time>2011-02-26T08:16:17.000Z</time>
</trkpt>
<trkpt lat="31.8050400" lon="35.0247400">
<ele>367.841553</ele>
<time>2011-02-26T08:16:25.000Z</time>
</trkpt>
<trkpt lat="31.8049500" lon="35.0248000">
<ele>369.283691</ele>
<time>2011-02-26T08:16:33.000Z</time>
</trkpt>
<trkpt lat="31.8048800" lon="35.0248600">
<ele>370.725586</ele>
<time>2011-02-26T08:16:40.000Z</time>
</trkpt>
<trkpt lat="31.8047900" lon="35.0249200">
<ele>371.206299</ele>
<time>2011-02-26T08:16:47.000Z</time>
</trkpt>
<trkpt lat="31.8047200" lon="35.0249600">
<ele>371.206299</ele>
<time>2011-02-26T08:16:53.000Z</time>
</trkpt>
<trkpt lat="31.8046300" lon="35.0250100">
<ele>371.686890</ele>
<time>2011-02-26T08:17:00.000Z</time>
</trkpt>
<trkpt lat="31.8045500" lon="35.0250700">
<ele>372.167511</ele>
<time>2011-02-26T08:17:08.000Z</time>
</trkpt>
<trkpt lat="31.8044600" lon="35.0251300">
<ele>373.609497</ele>
<time>2011-02-26T08:17:16.000Z</time>
</trkpt>
<trkpt lat="31.8043800" lon="35.0252100">
<ele>375.051514</ele>
<time>2011-02-26T08:17:24.000Z</time>
</trkpt>
<trkpt lat="31.8042900" lon="35.0252700">
<ele>377.454834</ele>
<time>2011-02-26T08:17:32.000Z</time>
</trkpt>
<trkpt lat="31.8042300" lon="35.0253400">
<ele>377.454834</ele>
<time>2011-02-26T08:17:39.000Z</time>
</trkpt>
<trkpt lat="31.8041300" lon="35.0253800">
<ele>377.935455</ele>
<time>2011-02-26T08:17:46.000Z</time>
</trkpt>
<trkpt lat="31.8040500" lon="35.0254400">
<ele>380.338745</ele>
<time>2011-02-26T08:17:53.000Z</time>
</trkpt>
<trkpt lat="31.8039500" lon="35.0254900">
<ele>380.819458</ele>
<time>2011-02-26T08:18:00.000Z</time>
</trkpt>
<trkpt lat="31.8038700" lon="35.0255500">
<ele>381.780640</ele>
<time>2011-02-26T08:18:07.000Z</time>
</trkpt>
<trkpt lat="31.8037800" lon="35.0256300">
<ele>381.780640</ele>
<time>2011-02-26T08:18:14.000Z</time>
</trkpt>
<trkpt lat="31.8036900" lon="35.0256800">
<ele>382.261353</ele>
<time>2011-02-26T08:18:20.000Z</time>
</trkpt>
<trkpt lat="31.8036100" lon="35.0257500">
<ele>381.300049</ele>
<time>2011-02-26T08:18:26.000Z</time>
</trkpt>
<trkpt lat="31.8035300" lon="35.0258100">
<ele>381.780640</ele>
<time>2011-02-26T08:18:31.000Z</time>
</trkpt>
<trkpt lat="31.8034300" lon="35.0258500">
<ele>382.261353</ele>
<time>2011-02-26T08:18:37.000Z</time>
</trkpt>
<trkpt lat="31.8033500" lon="35.0259100">
<ele>382.742065</ele>
<time>2011-02-26T08:18:43.000Z</time>
</trkpt>
<trkpt lat="31.8032600" lon="35.0259700">
<ele>384.184052</ele>
<time>2011-02-26T08:18:49.000Z</time>
</trkpt>
<trkpt lat="31.8031700" lon="35.0260200">
<ele>384.184052</ele>
<time>2011-02-26T08:18:55.000Z</time>
</trkpt>
<trkpt lat="31.8030900" lon="35.0260800">
<ele>385.625977</ele>
<time>2011-02-26T08:19:01.000Z</time>
</trkpt>
<trkpt lat="31.8030100" lon="35.0261400">
<ele>387.067993</ele>
<time>2011-02-26T08:19:07.000Z</time>
</trkpt>
<trkpt lat="31.8029300" lon="35.0262000">
<ele>388.029297</ele>
<time>2011-02-26T08:19:13.000Z</time>
</trkpt>
<trkpt lat="31.8028600" lon="35.0262700">
<ele>389.951904</ele>
<time>2011-02-26T08:19:19.000Z</time>
</trkpt>
<trkpt lat="31.8027800" lon="35.0263300">
<ele>390.913208</ele>
<time>2011-02-26T08:19:25.000Z</time>
</trkpt>
<trkpt lat="31.8027300" lon="35.0264300">
<ele>390.432617</ele>
<time>2011-02-26T08:19:32.000Z</time>
</trkpt>
<trkpt lat="31.8026900" lon="35.0265300">
<ele>391.874512</ele>
<time>2011-02-26T08:19:39.000Z</time>
</trkpt>
<trkpt lat="31.8026600" lon="35.0266400">
<ele>393.316528</ele>
<time>2011-02-26T08:19:46.000Z</time>
</trkpt>
<trkpt lat="31.8026300" lon="35.0267500">
<ele>394.758514</ele>
<time>2011-02-26T08:19:53.000Z</time>
</trkpt>
<trkpt lat="31.8026100" lon="35.0268500">
<ele>395.239136</ele>
<time>2011-02-26T08:20:00.000Z</time>
</trkpt>
<trkpt lat="31.8025800" lon="35.0269700">
<ele>396.200562</ele>
<time>2011-02-26T08:20:07.000Z</time>
</trkpt>
<trkpt lat="31.8025600" lon="35.0270800">
<ele>397.161743</ele>
<time>2011-02-26T08:20:14.000Z</time>
</trkpt>
<trkpt lat="31.8025700" lon="35.0271800">
<ele>398.603760</ele>
<time>2011-02-26T08:20:21.000Z</time>
</trkpt>
<trkpt lat="31.8025300" lon="35.0272800">
<ele>399.565094</ele>
<time>2011-02-26T08:20:29.000Z</time>
</trkpt>
<trkpt lat="31.8024600" lon="35.0273700">
<ele>400.045898</ele>
<time>2011-02-26T08:20:37.000Z</time>
</trkpt>
<trkpt lat="31.8023900" lon="35.0274400">
<ele>401.007080</ele>
<time>2011-02-26T08:20:44.000Z</time>
</trkpt>
<trkpt lat="31.8023200" lon="35.0275300">
<ele>401.487793</ele>
<time>2011-02-26T08:20:51.000Z</time>
</trkpt>
<trkpt lat="31.8022500" lon="35.0276100">
<ele>402.449097</ele>
<time>2011-02-26T08:20:58.000Z</time>
</trkpt>
<trkpt lat="31.8021900" lon="35.0276900">
<ele>404.852325</ele>
<time>2011-02-26T08:21:05.000Z</time>
</trkpt>
<trkpt lat="31.8021300" lon="35.0277700">
<ele>405.813690</ele>
<time>2011-02-26T08:21:12.000Z</time>
</trkpt>
<trkpt lat="31.8020700" lon="35.0278700">
<ele>407.255615</ele>
<time>2011-02-26T08:21:19.000Z</time>
</trkpt>
<trkpt lat="31.8020100" lon="35.0279600">
<ele>409.178345</ele>
<time>2011-02-26T08:21:27.000Z</time>
</trkpt>
<trkpt lat="31.8019500" lon="35.0280500">
<ele>409.659058</ele>
<time>2011-02-26T08:21:34.000Z</time>
</trkpt>
<trkpt lat="31.8019000" lon="35.0281300">
<ele>411.581635</ele>
<time>2011-02-26T08:21:41.000Z</time>
</trkpt>
<trkpt lat="31.8018500" lon="35.0282200">
<ele>412.542847</ele>
<time>2011-02-26T08:21:48.000Z</time>
</trkpt>
<trkpt lat="31.8017900" lon="35.0283100">
<ele>413.984863</ele>
<time>2011-02-26T08:21:56.000Z</time>
</trkpt>
<trkpt lat="31.8017500" lon="35.0284200">
<ele>415.426880</ele>
<time>2011-02-26T08:22:05.000Z</time>
</trkpt>
<trkpt lat="31.8016900" lon="35.0285000">
<ele>416.388153</ele>
<time>2011-02-26T08:22:13.000Z</time>
</trkpt>
<trkpt lat="31.8016100" lon="35.0285500">
<ele>417.830200</ele>
<time>2011-02-26T08:22:21.000Z</time>
</trkpt>
<trkpt lat="31.8015500" lon="35.0286400">
<ele>418.791504</ele>
<time>2011-02-26T08:22:28.000Z</time>
</trkpt>
<trkpt lat="31.8014800" lon="35.0287300">
<ele>420.233398</ele>
<time>2011-02-26T08:22:35.000Z</time>
</trkpt>
<trkpt lat="31.8014100" lon="35.0288200">
<ele>421.194824</ele>
<time>2011-02-26T08:22:42.000Z</time>
</trkpt>
<trkpt lat="31.8013500" lon="35.0289000">
<ele>423.117432</ele>
<time>2011-02-26T08:22:49.000Z</time>
</trkpt>
<trkpt lat="31.8012800" lon="35.0289800">
<ele>424.078735</ele>
<time>2011-02-26T08:22:56.000Z</time>
</trkpt>
<trkpt lat="31.8012300" lon="35.0290700">
<ele>424.078735</ele>
<time>2011-02-26T08:23:03.000Z</time>
</trkpt>
<trkpt lat="31.8011700" lon="35.0291500">
<ele>427.443329</ele>
<time>2011-02-26T08:23:09.000Z</time>
</trkpt>
<trkpt lat="31.8011000" lon="35.0292200">
<ele>426.962769</ele>
<time>2011-02-26T08:23:16.000Z</time>
</trkpt>
<trkpt lat="31.8010400" lon="35.0293000">
<ele>427.443329</ele>
<time>2011-02-26T08:23:23.000Z</time>
</trkpt>
<trkpt lat="31.8009800" lon="35.0293800">
<ele>428.404663</ele>
<time>2011-02-26T08:23:30.000Z</time>
</trkpt>
<trkpt lat="31.8009200" lon="35.0294800">
<ele>429.846558</ele>
<time>2011-02-26T08:23:37.000Z</time>
</trkpt>
<trkpt lat="31.8008700" lon="35.0295700">
<ele>430.327271</ele>
<time>2011-02-26T08:23:43.000Z</time>
</trkpt>
<trkpt lat="31.8008200" lon="35.0296500">
<ele>430.807983</ele>
<time>2011-02-26T08:23:50.000Z</time>
</trkpt>
<trkpt lat="31.8007700" lon="35.0297500">
<ele>431.769165</ele>
<time>2011-02-26T08:23:57.000Z</time>
</trkpt>
<trkpt lat="31.8007300" lon="35.0298600">
<ele>432.730713</ele>
<time>2011-02-26T08:24:04.000Z</time>
</trkpt>
<trkpt lat="31.8006900" lon="35.0299700">
<ele>436.095215</ele>
<time>2011-02-26T08:24:11.000Z</time>
</trkpt>
<trkpt lat="31.8006700" lon="35.0300800">
<ele>433.691895</ele>
<time>2011-02-26T08:24:17.000Z</time>
</trkpt>
<trkpt lat="31.8006400" lon="35.0301800">
<ele>434.172607</ele>
<time>2011-02-26T08:24:23.000Z</time>
</trkpt>
<trkpt lat="31.8006200" lon="35.0302900">
<ele>434.653320</ele>
<time>2011-02-26T08:24:29.000Z</time>
</trkpt>
<trkpt lat="31.8006000" lon="35.0304000">
<ele>435.614502</ele>
<time>2011-02-26T08:24:35.000Z</time>
</trkpt>
<trkpt lat="31.8005800" lon="35.0305000">
<ele>436.095215</ele>
<time>2011-02-26T08:24:41.000Z</time>
</trkpt>
<trkpt lat="31.8005500" lon="35.0306100">
<ele>437.537140</ele>
<time>2011-02-26T08:24:47.000Z</time>
</trkpt>
<trkpt lat="31.8005400" lon="35.0307300">
<ele>438.498505</ele>
<time>2011-02-26T08:24:54.000Z</time>
</trkpt>
<trkpt lat="31.8005100" lon="35.0308300">
<ele>439.940430</ele>
<time>2011-02-26T08:25:01.000Z</time>
</trkpt>
<trkpt lat="31.8004800" lon="35.0309300">
<ele>441.382446</ele>
<time>2011-02-26T08:25:08.000Z</time>
</trkpt>
<trkpt lat="31.8004600" lon="35.0310500">
<ele>440.901855</ele>
<time>2011-02-26T08:25:15.000Z</time>
</trkpt>
<trkpt lat="31.8004200" lon="35.0311600">
<ele>441.382446</ele>
<time>2011-02-26T08:25:22.000Z</time>
</trkpt>
<trkpt lat="31.8004100" lon="35.0312700">
<ele>442.824463</ele>
<time>2011-02-26T08:25:29.000Z</time>
</trkpt>
<trkpt lat="31.8003800" lon="35.0313800">
<ele>444.266449</ele>
<time>2011-02-26T08:25:36.000Z</time>
</trkpt>
<trkpt lat="31.8003600" lon="35.0315000">
<ele>445.227661</ele>
<time>2011-02-26T08:25:43.000Z</time>
</trkpt>
<trkpt lat="31.8003200" lon="35.0316000">
<ele>446.669678</ele>
<time>2011-02-26T08:25:50.000Z</time>
</trkpt>
<trkpt lat="31.8003300" lon="35.0317200">
<ele>448.111816</ele>
<time>2011-02-26T08:25:58.000Z</time>
</trkpt>
<trkpt lat="31.8002700" lon="35.0318100">
<ele>449.072968</ele>
<time>2011-02-26T08:26:07.000Z</time>
</trkpt>
<trkpt lat="31.8002400" lon="35.0319100">
<ele>450.995605</ele>
<time>2011-02-26T08:26:14.000Z</time>
</trkpt>
<trkpt lat="31.8001900" lon="35.0319800">
<ele>452.918213</ele>
<time>2011-02-26T08:26:21.000Z</time>
</trkpt>
<trkpt lat="31.8001300" lon="35.0320300">
<ele>454.360260</ele>
<time>2011-02-26T08:26:48.000Z</time>
</trkpt>
<trkpt lat="31.8000600" lon="35.0321100">
<ele>456.282959</ele>
<time>2011-02-26T08:27:05.000Z</time>
</trkpt>
<trkpt lat="31.7999800" lon="35.0321300">
<ele>457.725006</ele>
<time>2011-02-26T08:27:19.000Z</time>
</trkpt>
<trkpt lat="31.7999100" lon="35.0321800">
<ele>460.128143</ele>
<time>2011-02-26T08:27:46.000Z</time>
</trkpt>
<trkpt lat="31.7998700" lon="35.0322500">
<ele>461.570190</ele>
<time>2011-02-26T08:32:04.000Z</time>
</trkpt>
<trkpt lat="31.7998300" lon="35.0323600">
<ele>463.012085</ele>
<time>2011-02-26T08:32:41.000Z</time>
</trkpt>
<trkpt lat="31.7997800" lon="35.0324100">
<ele>467.338135</ele>
<time>2011-02-26T08:33:23.000Z</time>
</trkpt>
<trkpt lat="31.7997000" lon="35.0324600">
<ele>467.338135</ele>
<time>2011-02-26T08:33:35.000Z</time>
</trkpt>
<trkpt lat="31.7996100" lon="35.0324100">
<ele>469.260742</ele>
<time>2011-02-26T08:33:51.000Z</time>
</trkpt>
<trkpt lat="31.7995100" lon="35.0324300">
<ele>470.702667</ele>
<time>2011-02-26T08:33:59.000Z</time>
</trkpt>
<trkpt lat="31.7994300" lon="35.0324900">
<ele>473.106079</ele>
<time>2011-02-26T08:34:06.000Z</time>
</trkpt>
<trkpt lat="31.7993800" lon="35.0325800">
<ele>475.028687</ele>
<time>2011-02-26T08:34:14.000Z</time>
</trkpt>
<trkpt lat="31.7992800" lon="35.0326000">
<ele>476.470551</ele>
<time>2011-02-26T08:34:22.000Z</time>
</trkpt>
<trkpt lat="31.7992000" lon="35.0326400">
<ele>478.393188</ele>
<time>2011-02-26T08:34:30.000Z</time>
</trkpt>
<trkpt lat="31.7991100" lon="35.0326200">
<ele>479.835083</ele>
<time>2011-02-26T08:34:38.000Z</time>
</trkpt>
<trkpt lat="31.7990200" lon="35.0326500">
<ele>481.757782</ele>
<time>2011-02-26T08:34:46.000Z</time>
</trkpt>
<trkpt lat="31.7989300" lon="35.0326900">
<ele>483.199829</ele>
<time>2011-02-26T08:34:54.000Z</time>
</trkpt>
<trkpt lat="31.7988800" lon="35.0327700">
<ele>483.199829</ele>
<time>2011-02-26T08:35:02.000Z</time>
</trkpt>
<trkpt lat="31.7988700" lon="35.0328900">
<ele>483.199829</ele>
<time>2011-02-26T08:35:07.000Z</time>
</trkpt>
<trkpt lat="31.7988600" lon="35.0330400">
<ele>482.238495</ele>
<time>2011-02-26T08:35:10.000Z</time>
</trkpt>
<trkpt lat="31.7988400" lon="35.0331500">
<ele>481.277222</ele>
<time>2011-02-26T08:35:12.000Z</time>
</trkpt>
<trkpt lat="31.7988400" lon="35.0332700">
<ele>482.238495</ele>
<time>2011-02-26T08:35:15.000Z</time>
</trkpt>
<trkpt lat="31.7988400" lon="35.0333800">
<ele>483.199829</ele>
<time>2011-02-26T08:35:21.000Z</time>
</trkpt>
<trkpt lat="31.7988700" lon="35.0334900">
<ele>484.161133</ele>
<time>2011-02-26T08:35:27.000Z</time>
</trkpt>
<trkpt lat="31.7989300" lon="35.0336100">
<ele>482.719238</ele>
<time>2011-02-26T08:35:33.000Z</time>
</trkpt>
<trkpt lat="31.7989700" lon="35.0337400">
<ele>481.757782</ele>
<time>2011-02-26T08:35:37.000Z</time>
</trkpt>
<trkpt lat="31.7990300" lon="35.0338800">
<ele>481.277222</ele>
<time>2011-02-26T08:35:40.000Z</time>
</trkpt>
<trkpt lat="31.7991100" lon="35.0340000">
<ele>481.277222</ele>
<time>2011-02-26T08:35:43.000Z</time>
</trkpt>
<trkpt lat="31.7991900" lon="35.0340900">
<ele>481.277222</ele>
<time>2011-02-26T08:35:46.000Z</time>
</trkpt>
<trkpt lat="31.7992800" lon="35.0341600">
<ele>481.757782</ele>
<time>2011-02-26T08:35:51.000Z</time>
</trkpt>
<trkpt lat="31.7993600" lon="35.0342200">
<ele>482.719238</ele>
<time>2011-02-26T08:35:55.000Z</time>
</trkpt>
<trkpt lat="31.7994600" lon="35.0343100">
<ele>481.757782</ele>
<time>2011-02-26T08:35:59.000Z</time>
</trkpt>
<trkpt lat="31.7995600" lon="35.0344300">
<ele>480.796631</ele>
<time>2011-02-26T08:36:02.000Z</time>
</trkpt>
<trkpt lat="31.7996800" lon="35.0345600">
<ele>480.796631</ele>
<time>2011-02-26T08:36:05.000Z</time>
</trkpt>
<trkpt lat="31.7997600" lon="35.0346600">
<ele>479.835083</ele>
<time>2011-02-26T08:36:07.000Z</time>
</trkpt>
<trkpt lat="31.7998500" lon="35.0347700">
<ele>479.354492</ele>
<time>2011-02-26T08:36:09.000Z</time>
</trkpt>
<trkpt lat="31.7999300" lon="35.0348800">
<ele>478.393188</ele>
<time>2011-02-26T08:36:11.000Z</time>
</trkpt>
<trkpt lat="31.8000300" lon="35.0349600">
<ele>476.951263</ele>
<time>2011-02-26T08:36:13.000Z</time>
</trkpt>
<trkpt lat="31.8001300" lon="35.0350200">
<ele>477.912476</ele>
<time>2011-02-26T08:36:15.000Z</time>
</trkpt>
<trkpt lat="31.8002200" lon="35.0350600">
<ele>478.873901</ele>
<time>2011-02-26T08:36:17.000Z</time>
</trkpt>
<trkpt lat="31.8003100" lon="35.0351000">
<ele>477.912476</ele>
<time>2011-02-26T08:36:19.000Z</time>
</trkpt>
<trkpt lat="31.8004000" lon="35.0351400">
<ele>477.431885</ele>
<time>2011-02-26T08:36:21.000Z</time>
</trkpt>
<trkpt lat="31.8004900" lon="35.0351900">
<ele>476.951263</ele>
<time>2011-02-26T08:36:23.000Z</time>
</trkpt>
<trkpt lat="31.8005600" lon="35.0353100">
<ele>477.431885</ele>
<time>2011-02-26T08:36:27.000Z</time>
</trkpt>
<trkpt lat="31.8005100" lon="35.0354100">
<ele>478.393188</ele>
<time>2011-02-26T08:36:31.000Z</time>
</trkpt>
<trkpt lat="31.8004900" lon="35.0355300">
<ele>478.393188</ele>
<time>2011-02-26T08:36:35.000Z</time>
</trkpt>
<trkpt lat="31.8004900" lon="35.0356600">
<ele>478.873901</ele>
<time>2011-02-26T08:36:39.000Z</time>
</trkpt>
<trkpt lat="31.8005000" lon="35.0357800">
<ele>478.393188</ele>
<time>2011-02-26T08:36:43.000Z</time>
</trkpt>
<trkpt lat="31.8005100" lon="35.0359100">
<ele>478.873901</ele>
<time>2011-02-26T08:36:47.000Z</time>
</trkpt>
<trkpt lat="31.8004700" lon="35.0360300">
<ele>479.354492</ele>
<time>2011-02-26T08:36:51.000Z</time>
</trkpt>
<trkpt lat="31.8004300" lon="35.0361300">
<ele>479.354492</ele>
<time>2011-02-26T08:36:55.000Z</time>
</trkpt>
<trkpt lat="31.8003800" lon="35.0362200">
<ele>479.835083</ele>
<time>2011-02-26T08:36:59.000Z</time>
</trkpt>
<trkpt lat="31.8003300" lon="35.0363200">
<ele>480.796631</ele>
<time>2011-02-26T08:37:03.000Z</time>
</trkpt>
<trkpt lat="31.8002800" lon="35.0364200">
<ele>480.796631</ele>
<time>2011-02-26T08:37:07.000Z</time>
</trkpt>
<trkpt lat="31.8002200" lon="35.0365400">
<ele>481.277222</ele>
<time>2011-02-26T08:37:12.000Z</time>
</trkpt>
<trkpt lat="31.8001700" lon="35.0366500">
<ele>481.757782</ele>
<time>2011-02-26T08:37:17.000Z</time>
</trkpt>
<trkpt lat="31.8001000" lon="35.0367600">
<ele>482.719238</ele>
<time>2011-02-26T08:37:22.000Z</time>
</trkpt>
<trkpt lat="31.8000400" lon="35.0368600">
<ele>482.719238</ele>
<time>2011-02-26T08:37:27.000Z</time>
</trkpt>
<trkpt lat="31.7999800" lon="35.0369600">
<ele>483.680420</ele>
<time>2011-02-26T08:37:32.000Z</time>
</trkpt>
<trkpt lat="31.7999200" lon="35.0370500">
<ele>484.641846</ele>
<time>2011-02-26T08:37:37.000Z</time>
</trkpt>
<trkpt lat="31.7998400" lon="35.0371500">
<ele>484.641846</ele>
<time>2011-02-26T08:37:42.000Z</time>
</trkpt>
<trkpt lat="31.7997800" lon="35.0372600">
<ele>485.603027</ele>
<time>2011-02-26T08:37:47.000Z</time>
</trkpt>
<trkpt lat="31.7997200" lon="35.0373600">
<ele>486.564453</ele>
<time>2011-02-26T08:37:52.000Z</time>
</trkpt>
<trkpt lat="31.7996700" lon="35.0374600">
<ele>488.006470</ele>
<time>2011-02-26T08:37:57.000Z</time>
</trkpt>
<trkpt lat="31.7996300" lon="35.0375800">
<ele>488.967773</ele>
<time>2011-02-26T08:38:03.000Z</time>
</trkpt>
<trkpt lat="31.7995900" lon="35.0376800">
<ele>488.967773</ele>
<time>2011-02-26T08:38:08.000Z</time>
</trkpt>
<trkpt lat="31.7995400" lon="35.0377900">
<ele>488.967773</ele>
<time>2011-02-26T08:38:13.000Z</time>
</trkpt>
<trkpt lat="31.7995100" lon="35.0378900">
<ele>488.967773</ele>
<time>2011-02-26T08:38:18.000Z</time>
</trkpt>
<trkpt lat="31.7994600" lon="35.0380000">
<ele>488.967773</ele>
<time>2011-02-26T08:38:23.000Z</time>
</trkpt>
<trkpt lat="31.7994200" lon="35.0381100">
<ele>490.890381</ele>
<time>2011-02-26T08:38:29.000Z</time>
</trkpt>
<trkpt lat="31.7993600" lon="35.0382000">
<ele>492.332397</ele>
<time>2011-02-26T08:38:36.000Z</time>
</trkpt>
<trkpt lat="31.7993100" lon="35.0382900">
<ele>493.774292</ele>
<time>2011-02-26T08:38:42.000Z</time>
</trkpt>
<trkpt lat="31.7992700" lon="35.0384100">
<ele>493.774292</ele>
<time>2011-02-26T08:38:48.000Z</time>
</trkpt>
<trkpt lat="31.7992300" lon="35.0385200">
<ele>494.255005</ele>
<time>2011-02-26T08:38:54.000Z</time>
</trkpt>
<trkpt lat="31.7991900" lon="35.0386200">
<ele>495.696899</ele>
<time>2011-02-26T08:39:00.000Z</time>
</trkpt>
<trkpt lat="31.7991400" lon="35.0387400">
<ele>496.177765</ele>
<time>2011-02-26T08:39:06.000Z</time>
</trkpt>
<trkpt lat="31.7991000" lon="35.0388300">
<ele>496.658325</ele>
<time>2011-02-26T08:39:11.000Z</time>
</trkpt>
<trkpt lat="31.7990400" lon="35.0389200">
<ele>497.619629</ele>
<time>2011-02-26T08:39:16.000Z</time>
</trkpt>
<trkpt lat="31.7989500" lon="35.0390000">
<ele>497.138916</ele>
<time>2011-02-26T08:39:22.000Z</time>
</trkpt>
<trkpt lat="31.7988800" lon="35.0390700">
<ele>498.100342</ele>
<time>2011-02-26T08:39:27.000Z</time>
</trkpt>
<trkpt lat="31.7988300" lon="35.0391600">
<ele>499.542236</ele>
<time>2011-02-26T08:39:33.000Z</time>
</trkpt>
<trkpt lat="31.7987800" lon="35.0392700">
<ele>499.542236</ele>
<time>2011-02-26T08:39:38.000Z</time>
</trkpt>
<trkpt lat="31.7987100" lon="35.0393600">
<ele>499.061523</ele>
<time>2011-02-26T08:39:44.000Z</time>
</trkpt>
<trkpt lat="31.7986400" lon="35.0394600">
<ele>498.100342</ele>
<time>2011-02-26T08:39:56.000Z</time>
</trkpt>
<trkpt lat="31.7985900" lon="35.0395300">
<ele>499.542236</ele>
<time>2011-02-26T08:40:12.000Z</time>
</trkpt>
<trkpt lat="31.7985300" lon="35.0396200">
<ele>500.503540</ele>
<time>2011-02-26T08:40:18.000Z</time>
</trkpt>
<trkpt lat="31.7984700" lon="35.0397100">
<ele>501.945557</ele>
<time>2011-02-26T08:40:24.000Z</time>
</trkpt>
<trkpt lat="31.7984100" lon="35.0398100">
<ele>501.464844</ele>
<time>2011-02-26T08:40:35.000Z</time>
</trkpt>
<trkpt lat="31.7983500" lon="35.0399000">
<ele>503.868134</ele>
<time>2011-02-26T08:40:41.000Z</time>
</trkpt>
<trkpt lat="31.7982800" lon="35.0399900">
<ele>504.829468</ele>
<time>2011-02-26T08:40:47.000Z</time>
</trkpt>
<trkpt lat="31.7982100" lon="35.0400800">
<ele>505.790894</ele>
<time>2011-02-26T08:40:54.000Z</time>
</trkpt>
<trkpt lat="31.7981400" lon="35.0401700">
<ele>505.310181</ele>
<time>2011-02-26T08:41:00.000Z</time>
</trkpt>
<trkpt lat="31.7980700" lon="35.0402500">
<ele>505.790894</ele>
<time>2011-02-26T08:41:06.000Z</time>
</trkpt>
<trkpt lat="31.7980000" lon="35.0403400">
<ele>506.752075</ele>
<time>2011-02-26T08:41:12.000Z</time>
</trkpt>
<trkpt lat="31.7979500" lon="35.0404400">
<ele>508.674713</ele>
<time>2011-02-26T08:41:19.000Z</time>
</trkpt>
<trkpt lat="31.7978800" lon="35.0405200">
<ele>509.155365</ele>
<time>2011-02-26T08:41:26.000Z</time>
</trkpt>
<trkpt lat="31.7978200" lon="35.0406200">
<ele>509.636078</ele>
<time>2011-02-26T08:41:32.000Z</time>
</trkpt>
<trkpt lat="31.7977700" lon="35.0407200">
<ele>509.636078</ele>
<time>2011-02-26T08:41:39.000Z</time>
</trkpt>
<trkpt lat="31.7977300" lon="35.0408200">
<ele>510.116699</ele>
<time>2011-02-26T08:41:46.000Z</time>
</trkpt>
<trkpt lat="31.7976700" lon="35.0409200">
<ele>510.597290</ele>
<time>2011-02-26T08:41:53.000Z</time>
</trkpt>
<trkpt lat="31.7976000" lon="35.0409900">
<ele>511.078003</ele>
<time>2011-02-26T08:41:59.000Z</time>
</trkpt>
<trkpt lat="31.7975400" lon="35.0410800">
<ele>511.558716</ele>
<time>2011-02-26T08:42:06.000Z</time>
</trkpt>
<trkpt lat="31.7974700" lon="35.0411600">
<ele>511.558716</ele>
<time>2011-02-26T08:42:13.000Z</time>
</trkpt>
<trkpt lat="31.7973900" lon="35.0412400">
<ele>512.520020</ele>
<time>2011-02-26T08:42:20.000Z</time>
</trkpt>
<trkpt lat="31.7973200" lon="35.0413200">
<ele>513.962036</ele>
<time>2011-02-26T08:42:27.000Z</time>
</trkpt>
<trkpt lat="31.7972600" lon="35.0414000">
<ele>513.962036</ele>
<time>2011-02-26T08:42:34.000Z</time>
</trkpt>
<trkpt lat="31.7972000" lon="35.0414800">
<ele>514.442627</ele>
<time>2011-02-26T08:42:40.000Z</time>
</trkpt>
<trkpt lat="31.7971300" lon="35.0415700">
<ele>514.442627</ele>
<time>2011-02-26T08:42:47.000Z</time>
</trkpt>
<trkpt lat="31.7970700" lon="35.0416500">
<ele>515.884644</ele>
<time>2011-02-26T08:42:53.000Z</time>
</trkpt>
<trkpt lat="31.7969900" lon="35.0417400">
<ele>516.365234</ele>
<time>2011-02-26T08:43:00.000Z</time>
</trkpt>
<trkpt lat="31.7969300" lon="35.0418400">
<ele>517.326660</ele>
<time>2011-02-26T08:43:07.000Z</time>
</trkpt>
<trkpt lat="31.7968700" lon="35.0419300">
<ele>517.807251</ele>
<time>2011-02-26T08:43:14.000Z</time>
</trkpt>
<trkpt lat="31.7968200" lon="35.0420300">
<ele>518.287842</ele>
<time>2011-02-26T08:43:20.000Z</time>
</trkpt>
<trkpt lat="31.7967700" lon="35.0421300">
<ele>518.768555</ele>
<time>2011-02-26T08:43:27.000Z</time>
</trkpt>
<trkpt lat="31.7967400" lon="35.0422300">
<ele>520.691284</ele>
<time>2011-02-26T08:48:23.000Z</time>
</trkpt>
<trkpt lat="31.7967000" lon="35.0423100">
<ele>520.691284</ele>
<time>2011-02-26T08:48:30.000Z</time>
</trkpt>
<trkpt lat="31.7966400" lon="35.0424200">
<ele>520.691284</ele>
<time>2011-02-26T08:48:36.000Z</time>
</trkpt>
<trkpt lat="31.7966000" lon="35.0425200">
<ele>521.652588</ele>
<time>2011-02-26T08:48:42.000Z</time>
</trkpt>
<trkpt lat="31.7965400" lon="35.0426300">
<ele>521.652588</ele>
<time>2011-02-26T08:48:49.000Z</time>
</trkpt>
<trkpt lat="31.7964900" lon="35.0427200">
<ele>522.613892</ele>
<time>2011-02-26T08:48:56.000Z</time>
</trkpt>
<trkpt lat="31.7964300" lon="35.0428200">
<ele>522.613892</ele>
<time>2011-02-26T08:49:03.000Z</time>
</trkpt>
<trkpt lat="31.7963800" lon="35.0429100">
<ele>523.575195</ele>
<time>2011-02-26T08:49:09.000Z</time>
</trkpt>
<trkpt lat="31.7963100" lon="35.0430000">
<ele>524.055786</ele>
<time>2011-02-26T08:49:15.000Z</time>
</trkpt>
<trkpt lat="31.7962400" lon="35.0430800">
<ele>525.017212</ele>
<time>2011-02-26T08:49:21.000Z</time>
</trkpt>
<trkpt lat="31.7961600" lon="35.0431600">
<ele>525.978394</ele>
<time>2011-02-26T08:49:27.000Z</time>
</trkpt>
<trkpt lat="31.7960900" lon="35.0432400">
<ele>526.459106</ele>
<time>2011-02-26T08:49:33.000Z</time>
</trkpt>
<trkpt lat="31.7960200" lon="35.0433200">
<ele>528.381836</ele>
<time>2011-02-26T08:49:41.000Z</time>
</trkpt>
<trkpt lat="31.7959500" lon="35.0434000">
<ele>528.862549</ele>
<time>2011-02-26T08:49:47.000Z</time>
</trkpt>
<trkpt lat="31.7958600" lon="35.0434700">
<ele>529.823730</ele>
<time>2011-02-26T08:49:54.000Z</time>
</trkpt>
<trkpt lat="31.7957900" lon="35.0435400">
<ele>531.746338</ele>
<time>2011-02-26T08:50:01.000Z</time>
</trkpt>
<trkpt lat="31.7957200" lon="35.0436200">
<ele>532.707764</ele>
<time>2011-02-26T08:50:08.000Z</time>
</trkpt>
<trkpt lat="31.7956500" lon="35.0436900">
<ele>534.149658</ele>
<time>2011-02-26T08:50:15.000Z</time>
</trkpt>
<trkpt lat="31.7955500" lon="35.0437400">
<ele>535.591553</ele>
<time>2011-02-26T08:50:23.000Z</time>
</trkpt>
<trkpt lat="31.7954800" lon="35.0438000">
<ele>537.994995</ele>
<time>2011-02-26T08:50:30.000Z</time>
</trkpt>
<trkpt lat="31.7954200" lon="35.0438700">
<ele>538.956299</ele>
<time>2011-02-26T08:50:37.000Z</time>
</trkpt>
<trkpt lat="31.7953800" lon="35.0439800">
<ele>539.436890</ele>
<time>2011-02-26T08:50:44.000Z</time>
</trkpt>
<trkpt lat="31.7953300" lon="35.0440700">
<ele>538.956299</ele>
<time>2011-02-26T08:50:49.000Z</time>
</trkpt>
<trkpt lat="31.7952800" lon="35.0441800">
<ele>538.956299</ele>
<time>2011-02-26T08:50:54.000Z</time>
</trkpt>
<trkpt lat="31.7952200" lon="35.0442600">
<ele>539.436890</ele>
<time>2011-02-26T08:50:59.000Z</time>
</trkpt>
<trkpt lat="31.7951600" lon="35.0443600">
<ele>540.398315</ele>
<time>2011-02-26T08:51:05.000Z</time>
</trkpt>
<trkpt lat="31.7950900" lon="35.0444400">
<ele>540.398315</ele>
<time>2011-02-26T08:51:11.000Z</time>
</trkpt>
<trkpt lat="31.7950100" lon="35.0445100">
<ele>541.359497</ele>
<time>2011-02-26T08:51:17.000Z</time>
</trkpt>
<trkpt lat="31.7949300" lon="35.0445700">
<ele>542.320923</ele>
<time>2011-02-26T08:51:22.000Z</time>
</trkpt>
<trkpt lat="31.7948600" lon="35.0446500">
<ele>543.762817</ele>
<time>2011-02-26T08:51:28.000Z</time>
</trkpt>
<trkpt lat="31.7947900" lon="35.0447300">
<ele>545.204834</ele>
<time>2011-02-26T08:51:34.000Z</time>
</trkpt>
<trkpt lat="31.7947300" lon="35.0448000">
<ele>545.685547</ele>
<time>2011-02-26T08:51:40.000Z</time>
</trkpt>
<trkpt lat="31.7946500" lon="35.0448800">
<ele>547.127441</ele>
<time>2011-02-26T08:51:47.000Z</time>
</trkpt>
<trkpt lat="31.7945700" lon="35.0449400">
<ele>547.608154</ele>
<time>2011-02-26T08:51:54.000Z</time>
</trkpt>
<trkpt lat="31.7944800" lon="35.0449800">
<ele>549.050049</ele>
<time>2011-02-26T08:52:01.000Z</time>
</trkpt>
<trkpt lat="31.7944000" lon="35.0450300">
<ele>550.972656</ele>
<time>2011-02-26T08:52:09.000Z</time>
</trkpt>
<trkpt lat="31.7943100" lon="35.0450600">
<ele>553.856689</ele>
<time>2011-02-26T08:52:17.000Z</time>
</trkpt>
<trkpt lat="31.7942200" lon="35.0450700">
<ele>555.298584</ele>
<time>2011-02-26T08:52:25.000Z</time>
</trkpt>
<trkpt lat="31.7941300" lon="35.0451100">
<ele>555.779297</ele>
<time>2011-02-26T08:52:35.000Z</time>
</trkpt>
<trkpt lat="31.7940400" lon="35.0451400">
<ele>556.740723</ele>
<time>2011-02-26T08:52:45.000Z</time>
</trkpt>
<trkpt lat="31.7939600" lon="35.0451900">
<ele>557.221436</ele>
<time>2011-02-26T08:52:54.000Z</time>
</trkpt>
<trkpt lat="31.7938700" lon="35.0452200">
<ele>558.182861</ele>
<time>2011-02-26T08:53:03.000Z</time>
</trkpt>
<trkpt lat="31.7937800" lon="35.0452500">
<ele>560.585938</ele>
<time>2011-02-26T08:53:11.000Z</time>
</trkpt>
<trkpt lat="31.7936900" lon="35.0452600">
<ele>561.547363</ele>
<time>2011-02-26T08:53:20.000Z</time>
</trkpt>
<trkpt lat="31.7935900" lon="35.0452400">
<ele>562.989258</ele>
<time>2011-02-26T08:53:29.000Z</time>
</trkpt>
<trkpt lat="31.7935000" lon="35.0452400">
<ele>564.911865</ele>
<time>2011-02-26T08:53:39.000Z</time>
</trkpt>
<trkpt lat="31.7934100" lon="35.0452300">
<ele>567.315186</ele>
<time>2011-02-26T08:53:49.000Z</time>
</trkpt>
<trkpt lat="31.7933100" lon="35.0452100">
<ele>568.757080</ele>
<time>2011-02-26T08:53:59.000Z</time>
</trkpt>
<trkpt lat="31.7932300" lon="35.0452000">
<ele>569.718506</ele>
<time>2011-02-26T08:54:08.000Z</time>
</trkpt>
<trkpt lat="31.7931300" lon="35.0452000">
<ele>571.640869</ele>
<time>2011-02-26T08:54:17.000Z</time>
</trkpt>
<trkpt lat="31.7930400" lon="35.0452400">
<ele>573.083252</ele>
<time>2011-02-26T08:54:26.000Z</time>
</trkpt>
<trkpt lat="31.7929800" lon="35.0453400">
<ele>574.044434</ele>
<time>2011-02-26T08:54:35.000Z</time>
</trkpt>
<trkpt lat="31.7929700" lon="35.0454600">
<ele>575.005859</ele>
<time>2011-02-26T08:54:44.000Z</time>
</trkpt>
<trkpt lat="31.7929800" lon="35.0455800">
<ele>575.486328</ele>
<time>2011-02-26T08:54:52.000Z</time>
</trkpt>
<trkpt lat="31.7929900" lon="35.0456900">
<ele>575.486328</ele>
<time>2011-02-26T08:55:00.000Z</time>
</trkpt>
<trkpt lat="31.7930300" lon="35.0457900">
<ele>575.486328</ele>
<time>2011-02-26T08:55:07.000Z</time>
</trkpt>
<trkpt lat="31.7931000" lon="35.0458800">
<ele>576.447754</ele>
<time>2011-02-26T08:55:14.000Z</time>
</trkpt>
<trkpt lat="31.7931600" lon="35.0459700">
<ele>577.409180</ele>
<time>2011-02-26T08:55:21.000Z</time>
</trkpt>
<trkpt lat="31.7932300" lon="35.0460500">
<ele>577.889648</ele>
<time>2011-02-26T08:55:28.000Z</time>
</trkpt>
<trkpt lat="31.7932700" lon="35.0461400">
<ele>577.889648</ele>
<time>2011-02-26T08:55:35.000Z</time>
</trkpt>
<trkpt lat="31.7932900" lon="35.0462600">
<ele>579.812256</ele>
<time>2011-02-26T08:55:43.000Z</time>
</trkpt>
<trkpt lat="31.7933600" lon="35.0463300">
<ele>580.773682</ele>
<time>2011-02-26T08:55:56.000Z</time>
</trkpt>
<trkpt lat="31.7934100" lon="35.0464300">
<ele>581.734863</ele>
<time>2011-02-26T08:56:04.000Z</time>
</trkpt>
<trkpt lat="31.7934800" lon="35.0465200">
<ele>581.734863</ele>
<time>2011-02-26T08:56:11.000Z</time>
</trkpt>
<trkpt lat="31.7935500" lon="35.0465900">
<ele>582.696289</ele>
<time>2011-02-26T08:56:16.000Z</time>
</trkpt>
<trkpt lat="31.7936200" lon="35.0466800">
<ele>583.657471</ele>
<time>2011-02-26T08:56:23.000Z</time>
</trkpt>
<trkpt lat="31.7936900" lon="35.0467800">
<ele>583.176758</ele>
<time>2011-02-26T08:56:29.000Z</time>
</trkpt>
<trkpt lat="31.7937400" lon="35.0468700">
<ele>582.696289</ele>
<time>2011-02-26T08:56:33.000Z</time>
</trkpt>
<trkpt lat="31.7938200" lon="35.0469600">
<ele>582.696289</ele>
<time>2011-02-26T08:56:38.000Z</time>
</trkpt>
<trkpt lat="31.7938800" lon="35.0470500">
<ele>582.696289</ele>
<time>2011-02-26T08:56:42.000Z</time>
</trkpt>
<trkpt lat="31.7939500" lon="35.0471500">
<ele>581.734863</ele>
<time>2011-02-26T08:56:46.000Z</time>
</trkpt>
<trkpt lat="31.7940200" lon="35.0472300">
<ele>580.292969</ele>
<time>2011-02-26T08:56:50.000Z</time>
</trkpt>
<trkpt lat="31.7940700" lon="35.0473200">
<ele>579.812256</ele>
<time>2011-02-26T08:56:54.000Z</time>
</trkpt>
<trkpt lat="31.7941400" lon="35.0474100">
<ele>577.409180</ele>
<time>2011-02-26T08:56:57.000Z</time>
</trkpt>
<trkpt lat="31.7942100" lon="35.0475000">
<ele>575.967041</ele>
<time>2011-02-26T08:57:01.000Z</time>
</trkpt>
<trkpt lat="31.7942900" lon="35.0476100">
<ele>574.044434</ele>
<time>2011-02-26T08:57:04.000Z</time>
</trkpt>
<trkpt lat="31.7943400" lon="35.0477000">
<ele>572.121826</ele>
<time>2011-02-26T08:57:06.000Z</time>
</trkpt>
<trkpt lat="31.7943900" lon="35.0478100">
<ele>571.640869</ele>
<time>2011-02-26T08:57:08.000Z</time>
</trkpt>
<trkpt lat="31.7944800" lon="35.0478800">
<ele>570.198975</ele>
<time>2011-02-26T08:57:10.000Z</time>
</trkpt>
<trkpt lat="31.7946000" lon="35.0479000">
<ele>569.237793</ele>
<time>2011-02-26T08:57:12.000Z</time>
</trkpt>
<trkpt lat="31.7947200" lon="35.0479300">
<ele>569.718506</ele>
<time>2011-02-26T08:57:14.000Z</time>
</trkpt>
<trkpt lat="31.7948300" lon="35.0479400">
<ele>568.757080</ele>
<time>2011-02-26T08:57:16.000Z</time>
</trkpt>
<trkpt lat="31.7949400" lon="35.0479400">
<ele>569.237793</ele>
<time>2011-02-26T08:57:18.000Z</time>
</trkpt>
<trkpt lat="31.7950200" lon="35.0479400">
<ele>570.679688</ele>
<time>2011-02-26T08:57:20.000Z</time>
</trkpt>
<trkpt lat="31.7951400" lon="35.0479300">
<ele>572.121826</ele>
<time>2011-02-26T08:57:25.000Z</time>
</trkpt>
<trkpt lat="31.7952400" lon="35.0479600">
<ele>574.044434</ele>
<time>2011-02-26T08:57:31.000Z</time>
</trkpt>
<trkpt lat="31.7953100" lon="35.0480100">
<ele>576.928467</ele>
<time>2011-02-26T08:57:36.000Z</time>
</trkpt>
<trkpt lat="31.7953800" lon="35.0481000">
<ele>577.409180</ele>
<time>2011-02-26T08:57:42.000Z</time>
</trkpt>
<trkpt lat="31.7954100" lon="35.0482200">
<ele>579.812256</ele>
<time>2011-02-26T08:57:48.000Z</time>
</trkpt>
<trkpt lat="31.7954500" lon="35.0483200">
<ele>581.734863</ele>
<time>2011-02-26T08:57:54.000Z</time>
</trkpt>
<trkpt lat="31.7955100" lon="35.0484100">
<ele>583.176758</ele>
<time>2011-02-26T08:58:00.000Z</time>
</trkpt>
<trkpt lat="31.7955400" lon="35.0485100">
<ele>583.657471</ele>
<time>2011-02-26T08:58:06.000Z</time>
</trkpt>
<trkpt lat="31.7955800" lon="35.0486200">
<ele>583.657471</ele>
<time>2011-02-26T08:58:13.000Z</time>
</trkpt>
<trkpt lat="31.7955900" lon="35.0487200">
<ele>584.618896</ele>
<time>2011-02-26T08:58:20.000Z</time>
</trkpt>
<trkpt lat="31.7956200" lon="35.0488400">
<ele>585.580078</ele>
<time>2011-02-26T08:58:28.000Z</time>
</trkpt>
<trkpt lat="31.7956400" lon="35.0489600">
<ele>587.021973</ele>
<time>2011-02-26T08:58:35.000Z</time>
</trkpt>
<trkpt lat="31.7956800" lon="35.0490700">
<ele>587.502686</ele>
<time>2011-02-26T08:58:42.000Z</time>
</trkpt>
<trkpt lat="31.7957600" lon="35.0491500">
<ele>588.464355</ele>
<time>2011-02-26T08:58:49.000Z</time>
</trkpt>
<trkpt lat="31.7958300" lon="35.0492100">
<ele>589.906250</ele>
<time>2011-02-26T08:58:56.000Z</time>
</trkpt>
<trkpt lat="31.7959400" lon="35.0491900">
<ele>590.867432</ele>
<time>2011-02-26T08:59:04.000Z</time>
</trkpt>
<trkpt lat="31.7960100" lon="35.0491100">
<ele>590.867432</ele>
<time>2011-02-26T08:59:11.000Z</time>
</trkpt>
<trkpt lat="31.7960700" lon="35.0490200">
<ele>590.386963</ele>
<time>2011-02-26T08:59:17.000Z</time>
</trkpt>
<trkpt lat="31.7961200" lon="35.0489300">
<ele>590.386963</ele>
<time>2011-02-26T08:59:23.000Z</time>
</trkpt>
<trkpt lat="31.7962000" lon="35.0488700">
<ele>591.828857</ele>
<time>2011-02-26T08:59:29.000Z</time>
</trkpt>
<trkpt lat="31.7962600" lon="35.0487800">
<ele>592.790283</ele>
<time>2011-02-26T08:59:35.000Z</time>
</trkpt>
<trkpt lat="31.7962900" lon="35.0486800">
<ele>593.751465</ele>
<time>2011-02-26T08:59:41.000Z</time>
</trkpt>
<trkpt lat="31.7963200" lon="35.0485700">
<ele>593.751465</ele>
<time>2011-02-26T08:59:47.000Z</time>
</trkpt>
<trkpt lat="31.7963700" lon="35.0484800">
<ele>594.232178</ele>
<time>2011-02-26T08:59:53.000Z</time>
</trkpt>
<trkpt lat="31.7964300" lon="35.0483800">
<ele>595.193359</ele>
<time>2011-02-26T09:00:00.000Z</time>
</trkpt>
<trkpt lat="31.7964900" lon="35.0482900">
<ele>595.674072</ele>
<time>2011-02-26T09:00:07.000Z</time>
</trkpt>
<trkpt lat="31.7965400" lon="35.0481900">
<ele>597.115967</ele>
<time>2011-02-26T09:00:15.000Z</time>
</trkpt>
<trkpt lat="31.7966100" lon="35.0481000">
<ele>599.519287</ele>
<time>2011-02-26T09:00:22.000Z</time>
</trkpt>
<trkpt lat="31.7966900" lon="35.0480500">
<ele>600.961182</ele>
<time>2011-02-26T09:00:29.000Z</time>
</trkpt>
<trkpt lat="31.7967900" lon="35.0480300">
<ele>600.961182</ele>
<time>2011-02-26T09:00:35.000Z</time>
</trkpt>
<trkpt lat="31.7968600" lon="35.0479700">
<ele>601.922607</ele>
<time>2011-02-26T09:00:41.000Z</time>
</trkpt>
<trkpt lat="31.7968800" lon="35.0478600">
<ele>602.403076</ele>
<time>2011-02-26T09:00:48.000Z</time>
</trkpt>
<trkpt lat="31.7968000" lon="35.0478300">
<ele>602.403076</ele>
<time>2011-02-26T09:00:54.000Z</time>
</trkpt>
<trkpt lat="31.7967100" lon="35.0478400">
<ele>603.364502</ele>
<time>2011-02-26T09:01:00.000Z</time>
</trkpt>
<trkpt lat="31.7966200" lon="35.0477900">
<ele>604.806641</ele>
<time>2011-02-26T09:01:06.000Z</time>
</trkpt>
<trkpt lat="31.7965900" lon="35.0476800">
<ele>605.768066</ele>
<time>2011-02-26T09:01:12.000Z</time>
</trkpt>
<trkpt lat="31.7965300" lon="35.0475900">
<ele>606.248535</ele>
<time>2011-02-26T09:01:19.000Z</time>
</trkpt>
<trkpt lat="31.7965400" lon="35.0474800">
<ele>607.690674</ele>
<time>2011-02-26T09:01:26.000Z</time>
</trkpt>
<trkpt lat="31.7965900" lon="35.0473800">
<ele>609.613281</ele>
<time>2011-02-26T09:01:35.000Z</time>
</trkpt>
<trkpt lat="31.7966500" lon="35.0473000">
<ele>611.535889</ele>
<time>2011-02-26T09:01:44.000Z</time>
</trkpt>
<trkpt lat="31.7967200" lon="35.0472200">
<ele>614.419678</ele>
<time>2011-02-26T09:01:52.000Z</time>
</trkpt>
<trkpt lat="31.7968000" lon="35.0471500">
<ele>614.900391</ele>
<time>2011-02-26T09:02:00.000Z</time>
</trkpt>
<trkpt lat="31.7967700" lon="35.0470500">
<ele>613.938965</ele>
<time>2011-02-26T09:02:08.000Z</time>
</trkpt>
<trkpt lat="31.7967500" lon="35.0469500">
<ele>616.822998</ele>
<time>2011-02-26T09:02:16.000Z</time>
</trkpt>
<trkpt lat="31.7967900" lon="35.0468500">
<ele>617.784180</ele>
<time>2011-02-26T09:02:25.000Z</time>
</trkpt>
<trkpt lat="31.7968600" lon="35.0467900">
<ele>619.226318</ele>
<time>2011-02-26T09:02:32.000Z</time>
</trkpt>
<trkpt lat="31.7969600" lon="35.0468200">
<ele>620.187744</ele>
<time>2011-02-26T09:02:38.000Z</time>
</trkpt>
<trkpt lat="31.7970500" lon="35.0468600">
<ele>618.745605</ele>
<time>2011-02-26T09:02:43.000Z</time>
</trkpt>
<trkpt lat="31.7971400" lon="35.0469000">
<ele>618.745605</ele>
<time>2011-02-26T09:02:47.000Z</time>
</trkpt>
<trkpt lat="31.7972300" lon="35.0468400">
<ele>617.303711</ele>
<time>2011-02-26T09:02:51.000Z</time>
</trkpt>
<trkpt lat="31.7972500" lon="35.0467400">
<ele>619.226318</ele>
<time>2011-02-26T09:02:56.000Z</time>
</trkpt>
<trkpt lat="31.7972500" lon="35.0466300">
<ele>622.110352</ele>
<time>2011-02-26T09:03:02.000Z</time>
</trkpt>
<trkpt lat="31.7972900" lon="35.0465300">
<ele>621.149170</ele>
<time>2011-02-26T09:03:09.000Z</time>
</trkpt>
<trkpt lat="31.7972900" lon="35.0464100">
<ele>624.513672</ele>
<time>2011-02-26T09:03:17.000Z</time>
</trkpt>
<trkpt lat="31.7973200" lon="35.0463100">
<ele>624.032959</ele>
<time>2011-02-26T09:03:24.000Z</time>
</trkpt>
<trkpt lat="31.7972400" lon="35.0462400">
<ele>624.994385</ele>
<time>2011-02-26T09:03:30.000Z</time>
</trkpt>
<trkpt lat="31.7971700" lon="35.0461600">
<ele>624.032959</ele>
<time>2011-02-26T09:03:42.000Z</time>
</trkpt>
<trkpt lat="31.7971400" lon="35.0461000">
<ele>623.071777</ele>
<time>2011-02-26T09:09:22.000Z</time>
</trkpt>
<trkpt lat="31.7972100" lon="35.0462100">
<ele>623.071777</ele>
<time>2011-02-26T09:10:20.000Z</time>
</trkpt>
<trkpt lat="31.7973000" lon="35.0462300">
<ele>622.591064</ele>
<time>2011-02-26T09:10:25.000Z</time>
</trkpt>
<trkpt lat="31.7973900" lon="35.0461600">
<ele>620.187744</ele>
<time>2011-02-26T09:10:28.000Z</time>
</trkpt>
<trkpt lat="31.7974800" lon="35.0460500">
<ele>618.264893</ele>
<time>2011-02-26T09:10:31.000Z</time>
</trkpt>
<trkpt lat="31.7975700" lon="35.0459700">
<ele>618.745605</ele>
<time>2011-02-26T09:10:33.000Z</time>
</trkpt>
<trkpt lat="31.7976700" lon="35.0459100">
<ele>616.342285</ele>
<time>2011-02-26T09:10:37.000Z</time>
</trkpt>
<trkpt lat="31.7977600" lon="35.0458400">
<ele>615.381104</ele>
<time>2011-02-26T09:10:56.000Z</time>
</trkpt>
<trkpt lat="31.7978700" lon="35.0457500">
<ele>613.458496</ele>
<time>2011-02-26T09:10:59.000Z</time>
</trkpt>
<trkpt lat="31.7979600" lon="35.0456900">
<ele>612.977783</ele>
<time>2011-02-26T09:11:01.000Z</time>
</trkpt>
<trkpt lat="31.7980600" lon="35.0456200">
<ele>612.977783</ele>
<time>2011-02-26T09:11:03.000Z</time>
</trkpt>
<trkpt lat="31.7981400" lon="35.0455500">
<ele>612.977783</ele>
<time>2011-02-26T09:11:05.000Z</time>
</trkpt>
<trkpt lat="31.7982500" lon="35.0454800">
<ele>612.016602</ele>
<time>2011-02-26T09:11:08.000Z</time>
</trkpt>
<trkpt lat="31.7983700" lon="35.0454000">
<ele>610.093750</ele>
<time>2011-02-26T09:11:11.000Z</time>
</trkpt>
<trkpt lat="31.7984600" lon="35.0452900">
<ele>608.171387</ele>
<time>2011-02-26T09:11:13.000Z</time>
</trkpt>
<trkpt lat="31.7985500" lon="35.0451900">
<ele>609.132568</ele>
<time>2011-02-26T09:11:15.000Z</time>
</trkpt>
<trkpt lat="31.7986500" lon="35.0451200">
<ele>607.209961</ele>
<time>2011-02-26T09:11:17.000Z</time>
</trkpt>
<trkpt lat="31.7987400" lon="35.0450700">
<ele>607.209961</ele>
<time>2011-02-26T09:11:19.000Z</time>
</trkpt>
<trkpt lat="31.7987300" lon="35.0450600">
<ele>607.690674</ele>
<time>2011-02-26T09:11:49.000Z</time>
</trkpt>
<trkpt lat="31.7988000" lon="35.0450100">
<ele>607.690674</ele>
<time>2011-02-26T09:12:01.000Z</time>
</trkpt>
<trkpt lat="31.7988800" lon="35.0449800">
<ele>607.690674</ele>
<time>2011-02-26T09:12:17.000Z</time>
</trkpt>
<trkpt lat="31.7989900" lon="35.0449400">
<ele>605.768066</ele>
<time>2011-02-26T09:12:22.000Z</time>
</trkpt>
<trkpt lat="31.7990800" lon="35.0449200">
<ele>604.326172</ele>
<time>2011-02-26T09:12:26.000Z</time>
</trkpt>
<trkpt lat="31.7991800" lon="35.0448700">
<ele>601.922607</ele>
<time>2011-02-26T09:12:30.000Z</time>
</trkpt>
<trkpt lat="31.7992700" lon="35.0448600">
<ele>601.441895</ele>
<time>2011-02-26T09:12:33.000Z</time>
</trkpt>
<trkpt lat="31.7993700" lon="35.0448300">
<ele>599.519287</ele>
<time>2011-02-26T09:12:36.000Z</time>
</trkpt>
<trkpt lat="31.7994700" lon="35.0447800">
<ele>598.077393</ele>
<time>2011-02-26T09:12:39.000Z</time>
</trkpt>
<trkpt lat="31.7995600" lon="35.0446700">
<ele>596.635498</ele>
<time>2011-02-26T09:12:43.000Z</time>
</trkpt>
<trkpt lat="31.7996700" lon="35.0446100">
<ele>592.309570</ele>
<time>2011-02-26T09:12:46.000Z</time>
</trkpt>
<trkpt lat="31.7997700" lon="35.0445800">
<ele>591.348145</ele>
<time>2011-02-26T09:12:49.000Z</time>
</trkpt>
<trkpt lat="31.7998900" lon="35.0445300">
<ele>588.945068</ele>
<time>2011-02-26T09:12:52.000Z</time>
</trkpt>
<trkpt lat="31.7999600" lon="35.0444400">
<ele>588.464355</ele>
<time>2011-02-26T09:12:54.000Z</time>
</trkpt>
<trkpt lat="31.8000200" lon="35.0443400">
<ele>587.983398</ele>
<time>2011-02-26T09:12:56.000Z</time>
</trkpt>
<trkpt lat="31.8001100" lon="35.0442700">
<ele>587.502686</ele>
<time>2011-02-26T09:12:58.000Z</time>
</trkpt>
<trkpt lat="31.8002100" lon="35.0442100">
<ele>587.021973</ele>
<time>2011-02-26T09:13:00.000Z</time>
</trkpt>
<trkpt lat="31.8003100" lon="35.0441500">
<ele>587.021973</ele>
<time>2011-02-26T09:13:02.000Z</time>
</trkpt>
<trkpt lat="31.8004100" lon="35.0441100">
<ele>587.021973</ele>
<time>2011-02-26T09:13:04.000Z</time>
</trkpt>
<trkpt lat="31.8005000" lon="35.0440600">
<ele>585.099609</ele>
<time>2011-02-26T09:13:06.000Z</time>
</trkpt>
<trkpt lat="31.8005300" lon="35.0439500">
<ele>584.618896</ele>
<time>2011-02-26T09:13:08.000Z</time>
</trkpt>
<trkpt lat="31.8004700" lon="35.0438200">
<ele>585.099609</ele>
<time>2011-02-26T09:13:11.000Z</time>
</trkpt>
<trkpt lat="31.8004300" lon="35.0437100">
<ele>585.580078</ele>
<time>2011-02-26T09:13:14.000Z</time>
</trkpt>
<trkpt lat="31.8003700" lon="35.0436000">
<ele>587.021973</ele>
<time>2011-02-26T09:13:19.000Z</time>
</trkpt>
<trkpt lat="31.8003300" lon="35.0434900">
<ele>587.021973</ele>
<time>2011-02-26T09:13:24.000Z</time>
</trkpt>
<trkpt lat="31.8003000" lon="35.0433700">
<ele>587.021973</ele>
<time>2011-02-26T09:13:28.000Z</time>
</trkpt>
<trkpt lat="31.8003000" lon="35.0432500">
<ele>586.060791</ele>
<time>2011-02-26T09:13:32.000Z</time>
</trkpt>
<trkpt lat="31.8002900" lon="35.0431100">
<ele>586.060791</ele>
<time>2011-02-26T09:13:36.000Z</time>
</trkpt>
<trkpt lat="31.8002800" lon="35.0429900">
<ele>587.021973</ele>
<time>2011-02-26T09:13:40.000Z</time>
</trkpt>
<trkpt lat="31.8002800" lon="35.0428500">
<ele>586.541504</ele>
<time>2011-02-26T09:13:44.000Z</time>
</trkpt>
<trkpt lat="31.8002900" lon="35.0427200">
<ele>587.021973</ele>
<time>2011-02-26T09:13:48.000Z</time>
</trkpt>
<trkpt lat="31.8003400" lon="35.0426300">
<ele>587.502686</ele>
<time>2011-02-26T09:13:52.000Z</time>
</trkpt>
<trkpt lat="31.8004300" lon="35.0425400">
<ele>586.541504</ele>
<time>2011-02-26T09:13:56.000Z</time>
</trkpt>
<trkpt lat="31.8005100" lon="35.0424700">
<ele>586.060791</ele>
<time>2011-02-26T09:13:59.000Z</time>
</trkpt>
<trkpt lat="31.8005900" lon="35.0423700">
<ele>584.618896</ele>
<time>2011-02-26T09:14:02.000Z</time>
</trkpt>
<trkpt lat="31.8006500" lon="35.0422600">
<ele>583.657471</ele>
<time>2011-02-26T09:14:05.000Z</time>
</trkpt>
<trkpt lat="31.8007100" lon="35.0421400">
<ele>580.773682</ele>
<time>2011-02-26T09:14:08.000Z</time>
</trkpt>
<trkpt lat="31.8007600" lon="35.0420200">
<ele>579.812256</ele>
<time>2011-02-26T09:14:11.000Z</time>
</trkpt>
<trkpt lat="31.8007400" lon="35.0419000">
<ele>576.928467</ele>
<time>2011-02-26T09:14:14.000Z</time>
</trkpt>
<trkpt lat="31.8006600" lon="35.0418000">
<ele>577.409180</ele>
<time>2011-02-26T09:14:17.000Z</time>
</trkpt>
<trkpt lat="31.8005500" lon="35.0417500">
<ele>577.889648</ele>
<time>2011-02-26T09:14:20.000Z</time>
</trkpt>
<trkpt lat="31.8004600" lon="35.0417000">
<ele>579.812256</ele>
<time>2011-02-26T09:14:23.000Z</time>
</trkpt>
<trkpt lat="31.8003800" lon="35.0416300">
<ele>580.773682</ele>
<time>2011-02-26T09:14:27.000Z</time>
</trkpt>
<trkpt lat="31.8003300" lon="35.0415500">
<ele>580.292969</ele>
<time>2011-02-26T09:14:30.000Z</time>
</trkpt>
<trkpt lat="31.8003200" lon="35.0414400">
<ele>577.889648</ele>
<time>2011-02-26T09:14:33.000Z</time>
</trkpt>
<trkpt lat="31.8003400" lon="35.0413100">
<ele>576.928467</ele>
<time>2011-02-26T09:14:36.000Z</time>
</trkpt>
<trkpt lat="31.8003900" lon="35.0411700">
<ele>575.005859</ele>
<time>2011-02-26T09:14:39.000Z</time>
</trkpt>
<trkpt lat="31.8004100" lon="35.0410700">
<ele>575.486328</ele>
<time>2011-02-26T09:14:41.000Z</time>
</trkpt>
<trkpt lat="31.8003900" lon="35.0409500">
<ele>575.005859</ele>
<time>2011-02-26T09:14:43.000Z</time>
</trkpt>
<trkpt lat="31.8003700" lon="35.0408300">
<ele>575.005859</ele>
<time>2011-02-26T09:14:45.000Z</time>
</trkpt>
<trkpt lat="31.8003900" lon="35.0406600">
<ele>573.563965</ele>
<time>2011-02-26T09:14:48.000Z</time>
</trkpt>
<trkpt lat="31.8004100" lon="35.0405500">
<ele>573.083252</ele>
<time>2011-02-26T09:14:50.000Z</time>
</trkpt>
<trkpt lat="31.8004300" lon="35.0404400">
<ele>572.121826</ele>
<time>2011-02-26T09:14:52.000Z</time>
</trkpt>
<trkpt lat="31.8004600" lon="35.0403300">
<ele>570.198975</ele>
<time>2011-02-26T09:14:54.000Z</time>
</trkpt>
<trkpt lat="31.8004600" lon="35.0401700">
<ele>568.276367</ele>
<time>2011-02-26T09:14:57.000Z</time>
</trkpt>
<trkpt lat="31.8004100" lon="35.0400800">
<ele>565.392578</ele>
<time>2011-02-26T09:15:00.000Z</time>
</trkpt>
<trkpt lat="31.8003400" lon="35.0400100">
<ele>566.353760</ele>
<time>2011-02-26T09:15:03.000Z</time>
</trkpt>
<trkpt lat="31.8004000" lon="35.0399000">
<ele>564.911865</ele>
<time>2011-02-26T09:15:06.000Z</time>
</trkpt>
<trkpt lat="31.8004700" lon="35.0398300">
<ele>564.911865</ele>
<time>2011-02-26T09:15:08.000Z</time>
</trkpt>
<trkpt lat="31.8005500" lon="35.0397700">
<ele>563.469971</ele>
<time>2011-02-26T09:15:10.000Z</time>
</trkpt>
<trkpt lat="31.8006300" lon="35.0397300">
<ele>562.508545</ele>
<time>2011-02-26T09:15:12.000Z</time>
</trkpt>
<trkpt lat="31.8007200" lon="35.0396700">
<ele>559.624756</ele>
<time>2011-02-26T09:15:15.000Z</time>
</trkpt>
<trkpt lat="31.8007000" lon="35.0395400">
<ele>559.144043</ele>
<time>2011-02-26T09:15:18.000Z</time>
</trkpt>
<trkpt lat="31.8006000" lon="35.0395000">
<ele>556.260010</ele>
<time>2011-02-26T09:15:21.000Z</time>
</trkpt>
<trkpt lat="31.8004900" lon="35.0395200">
<ele>554.817871</ele>
<time>2011-02-26T09:15:24.000Z</time>
</trkpt>
<trkpt lat="31.8004300" lon="35.0394300">
<ele>555.298584</ele>
<time>2011-02-26T09:15:28.000Z</time>
</trkpt>
<trkpt lat="31.8004800" lon="35.0393000">
<ele>552.414551</ele>
<time>2011-02-26T09:15:31.000Z</time>
</trkpt>
<trkpt lat="31.8005400" lon="35.0391900">
<ele>551.934082</ele>
<time>2011-02-26T09:15:33.000Z</time>
</trkpt>
<trkpt lat="31.8006100" lon="35.0391100">
<ele>551.934082</ele>
<time>2011-02-26T09:15:35.000Z</time>
</trkpt>
<trkpt lat="31.8006900" lon="35.0390200">
<ele>550.492188</ele>
<time>2011-02-26T09:15:37.000Z</time>
</trkpt>
<trkpt lat="31.8007800" lon="35.0389700">
<ele>549.530762</ele>
<time>2011-02-26T09:15:39.000Z</time>
</trkpt>
<trkpt lat="31.8009100" lon="35.0389300">
<ele>548.569336</ele>
<time>2011-02-26T09:15:42.000Z</time>
</trkpt>
<trkpt lat="31.8010000" lon="35.0388800">
<ele>546.646851</ele>
<time>2011-02-26T09:15:45.000Z</time>
</trkpt>
<trkpt lat="31.8010100" lon="35.0387500">
<ele>546.646851</ele>
<time>2011-02-26T09:15:48.000Z</time>
</trkpt>
<trkpt lat="31.8009900" lon="35.0386400">
<ele>546.166260</ele>
<time>2011-02-26T09:15:51.000Z</time>
</trkpt>
<trkpt lat="31.8010200" lon="35.0385000">
<ele>542.320923</ele>
<time>2011-02-26T09:15:54.000Z</time>
</trkpt>
<trkpt lat="31.8010500" lon="35.0383800">
<ele>540.398315</ele>
<time>2011-02-26T09:15:56.000Z</time>
</trkpt>
<trkpt lat="31.8011200" lon="35.0383000">
<ele>539.436890</ele>
<time>2011-02-26T09:15:58.000Z</time>
</trkpt>
<trkpt lat="31.8012300" lon="35.0382500">
<ele>537.994995</ele>
<time>2011-02-26T09:16:00.000Z</time>
</trkpt>
<trkpt lat="31.8013400" lon="35.0382700">
<ele>537.994995</ele>
<time>2011-02-26T09:16:02.000Z</time>
</trkpt>
<trkpt lat="31.8014500" lon="35.0383200">
<ele>537.514282</ele>
<time>2011-02-26T09:16:04.000Z</time>
</trkpt>
<trkpt lat="31.8015500" lon="35.0383700">
<ele>537.994995</ele>
<time>2011-02-26T09:16:06.000Z</time>
</trkpt>
<trkpt lat="31.8016400" lon="35.0384300">
<ele>537.994995</ele>
<time>2011-02-26T09:16:08.000Z</time>
</trkpt>
<trkpt lat="31.8017300" lon="35.0385000">
<ele>537.994995</ele>
<time>2011-02-26T09:16:10.000Z</time>
</trkpt>
<trkpt lat="31.8018100" lon="35.0385700">
<ele>537.514282</ele>
<time>2011-02-26T09:16:13.000Z</time>
</trkpt>
<trkpt lat="31.8018600" lon="35.0386700">
<ele>537.033691</ele>
<time>2011-02-26T09:16:19.000Z</time>
</trkpt>
<trkpt lat="31.8019500" lon="35.0385800">
<ele>535.591553</ele>
<time>2011-02-26T09:16:24.000Z</time>
</trkpt>
<trkpt lat="31.8019400" lon="35.0384300">
<ele>533.668945</ele>
<time>2011-02-26T09:16:27.000Z</time>
</trkpt>
<trkpt lat="31.8019200" lon="35.0382900">
<ele>534.149658</ele>
<time>2011-02-26T09:16:30.000Z</time>
</trkpt>
<trkpt lat="31.8018900" lon="35.0381900">
<ele>534.630371</ele>
<time>2011-02-26T09:16:33.000Z</time>
</trkpt>
<trkpt lat="31.8018700" lon="35.0380600">
<ele>534.149658</ele>
<time>2011-02-26T09:16:37.000Z</time>
</trkpt>
<trkpt lat="31.8018800" lon="35.0379200">
<ele>534.630371</ele>
<time>2011-02-26T09:16:41.000Z</time>
</trkpt>
<trkpt lat="31.8019200" lon="35.0378100">
<ele>535.110962</ele>
<time>2011-02-26T09:16:44.000Z</time>
</trkpt>
<trkpt lat="31.8019600" lon="35.0377000">
<ele>535.110962</ele>
<time>2011-02-26T09:16:47.000Z</time>
</trkpt>
<trkpt lat="31.8020200" lon="35.0376100">
<ele>536.072388</ele>
<time>2011-02-26T09:16:51.000Z</time>
</trkpt>
<trkpt lat="31.8020600" lon="35.0375000">
<ele>537.514282</ele>
<time>2011-02-26T09:16:56.000Z</time>
</trkpt>
<trkpt lat="31.8020900" lon="35.0374000">
<ele>538.475708</ele>
<time>2011-02-26T09:17:01.000Z</time>
</trkpt>
<trkpt lat="31.8020900" lon="35.0372800">
<ele>538.956299</ele>
<time>2011-02-26T09:17:07.000Z</time>
</trkpt>
<trkpt lat="31.8020900" lon="35.0371500">
<ele>539.917603</ele>
<time>2011-02-26T09:17:13.000Z</time>
</trkpt>
<trkpt lat="31.8021100" lon="35.0370300">
<ele>539.917603</ele>
<time>2011-02-26T09:17:19.000Z</time>
</trkpt>
<trkpt lat="31.8021400" lon="35.0369200">
<ele>540.878906</ele>
<time>2011-02-26T09:17:24.000Z</time>
</trkpt>
<trkpt lat="31.8021800" lon="35.0368100">
<ele>540.398315</ele>
<time>2011-02-26T09:17:30.000Z</time>
</trkpt>
<trkpt lat="31.8022100" lon="35.0366900">
<ele>539.436890</ele>
<time>2011-02-26T09:17:36.000Z</time>
</trkpt>
<trkpt lat="31.8022500" lon="35.0365800">
<ele>541.840210</ele>
<time>2011-02-26T09:17:42.000Z</time>
</trkpt>
<trkpt lat="31.8023100" lon="35.0364800">
<ele>542.801514</ele>
<time>2011-02-26T09:17:48.000Z</time>
</trkpt>
<trkpt lat="31.8023600" lon="35.0363800">
<ele>542.320923</ele>
<time>2011-02-26T09:17:53.000Z</time>
</trkpt>
<trkpt lat="31.8024100" lon="35.0362800">
<ele>542.801514</ele>
<time>2011-02-26T09:17:58.000Z</time>
</trkpt>
<trkpt lat="31.8024600" lon="35.0361800">
<ele>543.762817</ele>
<time>2011-02-26T09:18:03.000Z</time>
</trkpt>
<trkpt lat="31.8025000" lon="35.0360900">
<ele>543.762817</ele>
<time>2011-02-26T09:18:08.000Z</time>
</trkpt>
<trkpt lat="31.8025400" lon="35.0359900">
<ele>545.204834</ele>
<time>2011-02-26T09:18:14.000Z</time>
</trkpt>
<trkpt lat="31.8025900" lon="35.0358800">
<ele>545.685547</ele>
<time>2011-02-26T09:18:21.000Z</time>
</trkpt>
<trkpt lat="31.8026300" lon="35.0357800">
<ele>546.646851</ele>
<time>2011-02-26T09:18:27.000Z</time>
</trkpt>
<trkpt lat="31.8026800" lon="35.0356900">
<ele>547.127441</ele>
<time>2011-02-26T09:18:33.000Z</time>
</trkpt>
<trkpt lat="31.8027500" lon="35.0356100">
<ele>547.127441</ele>
<time>2011-02-26T09:18:40.000Z</time>
</trkpt>
<trkpt lat="31.8028300" lon="35.0355600">
<ele>549.050049</ele>
<time>2011-02-26T09:18:47.000Z</time>
</trkpt>
<trkpt lat="31.8028900" lon="35.0354700">
<ele>549.530762</ele>
<time>2011-02-26T09:18:54.000Z</time>
</trkpt>
<trkpt lat="31.8029600" lon="35.0354000">
<ele>550.011475</ele>
<time>2011-02-26T09:19:00.000Z</time>
</trkpt>
<trkpt lat="31.8030300" lon="35.0353100">
<ele>549.050049</ele>
<time>2011-02-26T09:19:06.000Z</time>
</trkpt>
<trkpt lat="31.8030800" lon="35.0352400">
<ele>549.050049</ele>
<time>2011-02-26T09:19:51.000Z</time>
</trkpt>
<trkpt lat="31.8030900" lon="35.0351600">
<ele>545.204834</ele>
<time>2011-02-26T09:20:03.000Z</time>
</trkpt>
<trkpt lat="31.8030100" lon="35.0351200">
<ele>545.685547</ele>
<time>2011-02-26T09:20:09.000Z</time>
</trkpt>
<trkpt lat="31.8030700" lon="35.0350600">
<ele>546.646851</ele>
<time>2011-02-26T09:20:26.000Z</time>
</trkpt>
<trkpt lat="31.8031300" lon="35.0350300">
<ele>546.166260</ele>
<time>2011-02-26T09:20:41.000Z</time>
</trkpt>
<trkpt lat="31.8032000" lon="35.0349700">
<ele>543.282104</ele>
<time>2011-02-26T09:21:07.000Z</time>
</trkpt>
<trkpt lat="31.8031900" lon="35.0348600">
<ele>541.359497</ele>
<time>2011-02-26T09:21:12.000Z</time>
</trkpt>
<trkpt lat="31.8032700" lon="35.0347600">
<ele>540.878906</ele>
<time>2011-02-26T09:21:17.000Z</time>
</trkpt>
<trkpt lat="31.8033400" lon="35.0347100">
<ele>540.398315</ele>
<time>2011-02-26T09:21:22.000Z</time>
</trkpt>
<trkpt lat="31.8034100" lon="35.0346500">
<ele>537.994995</ele>
<time>2011-02-26T09:21:28.000Z</time>
</trkpt>
<trkpt lat="31.8034900" lon="35.0346000">
<ele>536.553101</ele>
<time>2011-02-26T09:21:56.000Z</time>
</trkpt>
<trkpt lat="31.8035600" lon="35.0346200">
<ele>536.072388</ele>
<time>2011-02-26T09:22:51.000Z</time>
</trkpt>
<trkpt lat="31.8035800" lon="35.0345500">
<ele>533.668945</ele>
<time>2011-02-26T09:23:16.000Z</time>
</trkpt>
<trkpt lat="31.8036200" lon="35.0344400">
<ele>531.746338</ele>
<time>2011-02-26T09:23:26.000Z</time>
</trkpt>
<trkpt lat="31.8037100" lon="35.0343800">
<ele>529.823730</ele>
<time>2011-02-26T09:23:29.000Z</time>
</trkpt>
<trkpt lat="31.8037700" lon="35.0342800">
<ele>529.343140</ele>
<time>2011-02-26T09:23:33.000Z</time>
</trkpt>
<trkpt lat="31.8037100" lon="35.0342100">
<ele>526.939819</ele>
<time>2011-02-26T09:23:37.000Z</time>
</trkpt>
<trkpt lat="31.8036100" lon="35.0342200">
<ele>527.901001</ele>
<time>2011-02-26T09:23:43.000Z</time>
</trkpt>
<trkpt lat="31.8035300" lon="35.0341500">
<ele>523.094604</ele>
<time>2011-02-26T09:23:49.000Z</time>
</trkpt>
<trkpt lat="31.8035700" lon="35.0340900">
<ele>524.055786</ele>
<time>2011-02-26T09:24:26.000Z</time>
</trkpt>
<trkpt lat="31.8035400" lon="35.0340100">
<ele>518.768555</ele>
<time>2011-02-26T09:24:40.000Z</time>
</trkpt>
<trkpt lat="31.8035500" lon="35.0339400">
<ele>517.807251</ele>
<time>2011-02-26T09:27:10.000Z</time>
</trkpt>
<trkpt lat="31.8035800" lon="35.0338400">
<ele>516.365234</ele>
<time>2011-02-26T09:27:21.000Z</time>
</trkpt>
<trkpt lat="31.8035100" lon="35.0337800">
<ele>513.000732</ele>
<time>2011-02-26T09:27:44.000Z</time>
</trkpt>
<trkpt lat="31.8034200" lon="35.0338000">
<ele>512.520020</ele>
<time>2011-02-26T09:27:49.000Z</time>
</trkpt>
<trkpt lat="31.8033400" lon="35.0337800">
<ele>512.039429</ele>
<time>2011-02-26T09:30:32.000Z</time>
</trkpt>
<trkpt lat="31.8033100" lon="35.0336900">
<ele>507.713501</ele>
<time>2011-02-26T09:30:37.000Z</time>
</trkpt>
<trkpt lat="31.8033600" lon="35.0335900">
<ele>507.232788</ele>
<time>2011-02-26T09:30:41.000Z</time>
</trkpt>
<trkpt lat="31.8033000" lon="35.0335100">
<ele>505.790894</ele>
<time>2011-02-26T09:30:46.000Z</time>
</trkpt>
<trkpt lat="31.8032700" lon="35.0334000">
<ele>503.387482</ele>
<time>2011-02-26T09:30:51.000Z</time>
</trkpt>
<trkpt lat="31.8032000" lon="35.0334000">
<ele>500.022949</ele>
<time>2011-02-26T09:31:13.000Z</time>
</trkpt>
<trkpt lat="31.8031100" lon="35.0333700">
<ele>498.580902</ele>
<time>2011-02-26T09:31:32.000Z</time>
</trkpt>
<trkpt lat="31.8031300" lon="35.0332400">
<ele>497.619629</ele>
<time>2011-02-26T09:31:38.000Z</time>
</trkpt>
<trkpt lat="31.8031600" lon="35.0331200">
<ele>495.216187</ele>
<time>2011-02-26T09:31:42.000Z</time>
</trkpt>
<trkpt lat="31.8031000" lon="35.0330300">
<ele>493.293579</ele>
<time>2011-02-26T09:31:47.000Z</time>
</trkpt>
<trkpt lat="31.8031300" lon="35.0329100">
<ele>491.851685</ele>
<time>2011-02-26T09:31:52.000Z</time>
</trkpt>
<trkpt lat="31.8031500" lon="35.0328000">
<ele>489.929077</ele>
<time>2011-02-26T09:31:57.000Z</time>
</trkpt>
<trkpt lat="31.8031100" lon="35.0327000">
<ele>488.967773</ele>
<time>2011-02-26T09:32:01.000Z</time>
</trkpt>
<trkpt lat="31.8031300" lon="35.0325800">
<ele>486.564453</ele>
<time>2011-02-26T09:32:06.000Z</time>
</trkpt>
<trkpt lat="31.8031700" lon="35.0324800">
<ele>485.122437</ele>
<time>2011-02-26T09:32:12.000Z</time>
</trkpt>
<trkpt lat="31.8031700" lon="35.0323700">
<ele>484.161133</ele>
<time>2011-02-26T09:32:23.000Z</time>
</trkpt>
<trkpt lat="31.8031300" lon="35.0322800">
<ele>481.757782</ele>
<time>2011-02-26T09:32:29.000Z</time>
</trkpt>
<trkpt lat="31.8031500" lon="35.0321700">
<ele>480.315918</ele>
<time>2011-02-26T09:32:34.000Z</time>
</trkpt>
<trkpt lat="31.8031100" lon="35.0320500">
<ele>478.393188</ele>
<time>2011-02-26T09:32:40.000Z</time>
</trkpt>
<trkpt lat="31.8030900" lon="35.0319400">
<ele>475.989899</ele>
<time>2011-02-26T09:33:22.000Z</time>
</trkpt>
<trkpt lat="31.8030200" lon="35.0318700">
<ele>473.106079</ele>
<time>2011-02-26T09:33:30.000Z</time>
</trkpt>
<trkpt lat="31.8029200" lon="35.0318800">
<ele>471.183319</ele>
<time>2011-02-26T09:33:36.000Z</time>
</trkpt>
<trkpt lat="31.8028800" lon="35.0317800">
<ele>468.299316</ele>
<time>2011-02-26T09:33:42.000Z</time>
</trkpt>
<trkpt lat="31.8028100" lon="35.0317100">
<ele>466.857422</ele>
<time>2011-02-26T09:33:50.000Z</time>
</trkpt>
<trkpt lat="31.8027900" lon="35.0315900">
<ele>462.531372</ele>
<time>2011-02-26T09:33:56.000Z</time>
</trkpt>
<trkpt lat="31.8029100" lon="35.0315400">
<ele>461.570190</ele>
<time>2011-02-26T09:34:00.000Z</time>
</trkpt>
<trkpt lat="31.8029800" lon="35.0315300">
<ele>462.531372</ele>
<time>2011-02-26T09:35:00.000Z</time>
</trkpt>
<trkpt lat="31.8030900" lon="35.0315100">
<ele>462.531372</ele>
<time>2011-02-26T09:35:11.000Z</time>
</trkpt>
<trkpt lat="31.8031800" lon="35.0314800">
<ele>463.973389</ele>
<time>2011-02-26T09:35:16.000Z</time>
</trkpt>
<trkpt lat="31.8032600" lon="35.0314200">
<ele>462.531372</ele>
<time>2011-02-26T09:35:21.000Z</time>
</trkpt>
<trkpt lat="31.8033600" lon="35.0313400">
<ele>462.050781</ele>
<time>2011-02-26T09:35:26.000Z</time>
</trkpt>
<trkpt lat="31.8034500" lon="35.0312900">
<ele>462.531372</ele>
<time>2011-02-26T09:35:30.000Z</time>
</trkpt>
<trkpt lat="31.8035500" lon="35.0312700">
<ele>465.415527</ele>
<time>2011-02-26T09:35:35.000Z</time>
</trkpt>
<trkpt lat="31.8036400" lon="35.0312000">
<ele>465.896088</ele>
<time>2011-02-26T09:35:41.000Z</time>
</trkpt>
<trkpt lat="31.8037100" lon="35.0310900">
<ele>465.415527</ele>
<time>2011-02-26T09:35:45.000Z</time>
</trkpt>
<trkpt lat="31.8037600" lon="35.0310200">
<ele>464.454102</ele>
<time>2011-02-26T09:35:48.000Z</time>
</trkpt>
<trkpt lat="31.8038300" lon="35.0309100">
<ele>463.012085</ele>
<time>2011-02-26T09:35:52.000Z</time>
</trkpt>
<trkpt lat="31.8038600" lon="35.0307900">
<ele>461.089478</ele>
<time>2011-02-26T09:35:55.000Z</time>
</trkpt>
<trkpt lat="31.8038900" lon="35.0306600">
<ele>457.725006</ele>
<time>2011-02-26T09:35:58.000Z</time>
</trkpt>
<trkpt lat="31.8039200" lon="35.0305600">
<ele>458.686157</ele>
<time>2011-02-26T09:36:01.000Z</time>
</trkpt>
<trkpt lat="31.8039800" lon="35.0304700">
<ele>456.282959</ele>
<time>2011-02-26T09:36:04.000Z</time>
</trkpt>
<trkpt lat="31.8040400" lon="35.0303700">
<ele>455.802246</ele>
<time>2011-02-26T09:36:08.000Z</time>
</trkpt>
<trkpt lat="31.8041300" lon="35.0303000">
<ele>460.128143</ele>
<time>2011-02-26T09:36:12.000Z</time>
</trkpt>
<trkpt lat="31.8042200" lon="35.0302500">
<ele>460.608765</ele>
<time>2011-02-26T09:36:17.000Z</time>
</trkpt>
<trkpt lat="31.8043200" lon="35.0302100">
<ele>460.608765</ele>
<time>2011-02-26T09:36:21.000Z</time>
</trkpt>
<trkpt lat="31.8044200" lon="35.0301500">
<ele>460.608765</ele>
<time>2011-02-26T09:36:25.000Z</time>
</trkpt>
<trkpt lat="31.8045200" lon="35.0301200">
<ele>458.686157</ele>
<time>2011-02-26T09:36:29.000Z</time>
</trkpt>
<trkpt lat="31.8046200" lon="35.0300900">
<ele>456.763550</ele>
<time>2011-02-26T09:36:32.000Z</time>
</trkpt>
<trkpt lat="31.8047000" lon="35.0300700">
<ele>456.282959</ele>
<time>2011-02-26T09:36:34.000Z</time>
</trkpt>
<trkpt lat="31.8048000" lon="35.0300600">
<ele>457.725006</ele>
<time>2011-02-26T09:36:36.000Z</time>
</trkpt>
<trkpt lat="31.8049200" lon="35.0300100">
<ele>456.763550</ele>
<time>2011-02-26T09:36:39.000Z</time>
</trkpt>
<trkpt lat="31.8050200" lon="35.0299500">
<ele>456.763550</ele>
<time>2011-02-26T09:36:42.000Z</time>
</trkpt>
<trkpt lat="31.8051200" lon="35.0299100">
<ele>457.725006</ele>
<time>2011-02-26T09:36:46.000Z</time>
</trkpt>
<trkpt lat="31.8052200" lon="35.0298700">
<ele>457.244263</ele>
<time>2011-02-26T09:36:50.000Z</time>
</trkpt>
<trkpt lat="31.8053000" lon="35.0298200">
<ele>457.725006</ele>
<time>2011-02-26T09:36:53.000Z</time>
</trkpt>
<trkpt lat="31.8054200" lon="35.0297800">
<ele>456.763550</ele>
<time>2011-02-26T09:36:57.000Z</time>
</trkpt>
<trkpt lat="31.8055300" lon="35.0297500">
<ele>458.686157</ele>
<time>2011-02-26T09:37:01.000Z</time>
</trkpt>
<trkpt lat="31.8056400" lon="35.0297500">
<ele>458.686157</ele>
<time>2011-02-26T09:37:05.000Z</time>
</trkpt>
<trkpt lat="31.8057400" lon="35.0297300">
<ele>459.166870</ele>
<time>2011-02-26T09:37:09.000Z</time>
</trkpt>
<trkpt lat="31.8058300" lon="35.0296800">
<ele>460.128143</ele>
<time>2011-02-26T09:37:13.000Z</time>
</trkpt>
<trkpt lat="31.8058900" lon="35.0296000">
<ele>459.647583</ele>
<time>2011-02-26T09:37:17.000Z</time>
</trkpt>
<trkpt lat="31.8059400" lon="35.0294900">
<ele>459.166870</ele>
<time>2011-02-26T09:37:21.000Z</time>
</trkpt>
<trkpt lat="31.8059700" lon="35.0293900">
<ele>459.166870</ele>
<time>2011-02-26T09:37:24.000Z</time>
</trkpt>
<trkpt lat="31.8060400" lon="35.0293100">
<ele>458.686157</ele>
<time>2011-02-26T09:37:28.000Z</time>
</trkpt>
<trkpt lat="31.8061400" lon="35.0292600">
<ele>458.205566</ele>
<time>2011-02-26T09:37:32.000Z</time>
</trkpt>
<trkpt lat="31.8062400" lon="35.0292100">
<ele>458.205566</ele>
<time>2011-02-26T09:37:36.000Z</time>
</trkpt>
<trkpt lat="31.8063400" lon="35.0291800">
<ele>457.725006</ele>
<time>2011-02-26T09:37:39.000Z</time>
</trkpt>
<trkpt lat="31.8064200" lon="35.0291300">
<ele>457.725006</ele>
<time>2011-02-26T09:37:42.000Z</time>
</trkpt>
<trkpt lat="31.8064900" lon="35.0290000">
<ele>457.244263</ele>
<time>2011-02-26T09:37:46.000Z</time>
</trkpt>
<trkpt lat="31.8065500" lon="35.0288900">
<ele>453.879639</ele>
<time>2011-02-26T09:37:49.000Z</time>
</trkpt>
<trkpt lat="31.8066400" lon="35.0288300">
<ele>452.918213</ele>
<time>2011-02-26T09:37:52.000Z</time>
</trkpt>
<trkpt lat="31.8067200" lon="35.0287700">
<ele>451.957031</ele>
<time>2011-02-26T09:37:55.000Z</time>
</trkpt>
<trkpt lat="31.8068300" lon="35.0287400">
<ele>450.034424</ele>
<time>2011-02-26T09:37:59.000Z</time>
</trkpt>
<trkpt lat="31.8069400" lon="35.0287300">
<ele>448.111816</ele>
<time>2011-02-26T09:38:03.000Z</time>
</trkpt>
<trkpt lat="31.8070200" lon="35.0287100">
<ele>445.708374</ele>
<time>2011-02-26T09:38:06.000Z</time>
</trkpt>
<trkpt lat="31.8071300" lon="35.0286800">
<ele>442.824463</ele>
<time>2011-02-26T09:38:10.000Z</time>
</trkpt>
<trkpt lat="31.8072200" lon="35.0286500">
<ele>441.382446</ele>
<time>2011-02-26T09:38:15.000Z</time>
</trkpt>
<trkpt lat="31.8073200" lon="35.0286000">
<ele>437.537140</ele>
<time>2011-02-26T09:38:19.000Z</time>
</trkpt>
<trkpt lat="31.8074300" lon="35.0286000">
<ele>436.575928</ele>
<time>2011-02-26T09:38:23.000Z</time>
</trkpt>
<trkpt lat="31.8075300" lon="35.0286500">
<ele>434.172607</ele>
<time>2011-02-26T09:38:26.000Z</time>
</trkpt>
<trkpt lat="31.8076400" lon="35.0286500">
<ele>434.172607</ele>
<time>2011-02-26T09:38:29.000Z</time>
</trkpt>
<trkpt lat="31.8077300" lon="35.0286500">
<ele>433.211273</ele>
<time>2011-02-26T09:38:32.000Z</time>
</trkpt>
<trkpt lat="31.8078000" lon="35.0285800">
<ele>432.250000</ele>
<time>2011-02-26T09:38:36.000Z</time>
</trkpt>
<trkpt lat="31.8077700" lon="35.0284800">
<ele>428.404663</ele>
<time>2011-02-26T09:38:39.000Z</time>
</trkpt>
<trkpt lat="31.8076800" lon="35.0284000">
<ele>427.443329</ele>
<time>2011-02-26T09:38:42.000Z</time>
</trkpt>
<trkpt lat="31.8075900" lon="35.0283600">
<ele>426.482056</ele>
<time>2011-02-26T09:38:45.000Z</time>
</trkpt>
<trkpt lat="31.8075300" lon="35.0282700">
<ele>425.040192</ele>
<time>2011-02-26T09:38:48.000Z</time>
</trkpt>
<trkpt lat="31.8075700" lon="35.0281700">
<ele>425.040192</ele>
<time>2011-02-26T09:38:51.000Z</time>
</trkpt>
<trkpt lat="31.8076600" lon="35.0281400">
<ele>424.078735</ele>
<time>2011-02-26T09:38:54.000Z</time>
</trkpt>
<trkpt lat="31.8077500" lon="35.0280600">
<ele>420.714111</ele>
<time>2011-02-26T09:38:57.000Z</time>
</trkpt>
<trkpt lat="31.8078200" lon="35.0279700">
<ele>419.752808</ele>
<time>2011-02-26T09:39:00.000Z</time>
</trkpt>
<trkpt lat="31.8079100" lon="35.0279100">
<ele>415.907501</ele>
<time>2011-02-26T09:39:03.000Z</time>
</trkpt>
<trkpt lat="31.8080100" lon="35.0279000">
<ele>415.907501</ele>
<time>2011-02-26T09:39:05.000Z</time>
</trkpt>
<trkpt lat="31.8081100" lon="35.0279500">
<ele>416.868866</ele>
<time>2011-02-26T09:39:07.000Z</time>
</trkpt>
<trkpt lat="31.8082100" lon="35.0280000">
<ele>416.388153</ele>
<time>2011-02-26T09:39:09.000Z</time>
</trkpt>
<trkpt lat="31.8082900" lon="35.0280600">
<ele>415.907501</ele>
<time>2011-02-26T09:39:11.000Z</time>
</trkpt>
<trkpt lat="31.8083700" lon="35.0281300">
<ele>415.907501</ele>
<time>2011-02-26T09:39:13.000Z</time>
</trkpt>
<trkpt lat="31.8084500" lon="35.0282000">
<ele>415.426880</ele>
<time>2011-02-26T09:39:15.000Z</time>
</trkpt>
<trkpt lat="31.8085300" lon="35.0282400">
<ele>414.946167</ele>
<time>2011-02-26T09:39:17.000Z</time>
</trkpt>
<trkpt lat="31.8086300" lon="35.0282800">
<ele>413.504272</ele>
<time>2011-02-26T09:39:19.000Z</time>
</trkpt>
<trkpt lat="31.8087400" lon="35.0283100">
<ele>413.984863</ele>
<time>2011-02-26T09:39:22.000Z</time>
</trkpt>
<trkpt lat="31.8088500" lon="35.0282900">
<ele>411.100922</ele>
<time>2011-02-26T09:39:25.000Z</time>
</trkpt>
<trkpt lat="31.8089500" lon="35.0282800">
<ele>409.659058</ele>
<time>2011-02-26T09:39:29.000Z</time>
</trkpt>
<trkpt lat="31.8090700" lon="35.0282900">
<ele>407.736328</ele>
<time>2011-02-26T09:39:32.000Z</time>
</trkpt>
<trkpt lat="31.8091700" lon="35.0282400">
<ele>405.333038</ele>
<time>2011-02-26T09:39:35.000Z</time>
</trkpt>
<trkpt lat="31.8092700" lon="35.0281400">
<ele>404.371704</ele>
<time>2011-02-26T09:39:38.000Z</time>
</trkpt>
<trkpt lat="31.8093500" lon="35.0280400">
<ele>404.371704</ele>
<time>2011-02-26T09:39:41.000Z</time>
</trkpt>
<trkpt lat="31.8094500" lon="35.0279600">
<ele>404.371704</ele>
<time>2011-02-26T09:39:44.000Z</time>
</trkpt>
<trkpt lat="31.8095600" lon="35.0279300">
<ele>402.449097</ele>
<time>2011-02-26T09:39:47.000Z</time>
</trkpt>
<trkpt lat="31.8096500" lon="35.0279000">
<ele>401.487793</ele>
<time>2011-02-26T09:39:51.000Z</time>
</trkpt>
<trkpt lat="31.8096300" lon="35.0278000">
<ele>401.487793</ele>
<time>2011-02-26T09:39:56.000Z</time>
</trkpt>
<trkpt lat="31.8095400" lon="35.0277500">
<ele>401.487793</ele>
<time>2011-02-26T09:40:00.000Z</time>
</trkpt>
<trkpt lat="31.8094600" lon="35.0276600">
<ele>401.487793</ele>
<time>2011-02-26T09:40:05.000Z</time>
</trkpt>
<trkpt lat="31.8094000" lon="35.0275900">
<ele>401.968506</ele>
<time>2011-02-26T09:40:10.000Z</time>
</trkpt>
<trkpt lat="31.8093500" lon="35.0274800">
<ele>401.968506</ele>
<time>2011-02-26T09:40:15.000Z</time>
</trkpt>
<trkpt lat="31.8092700" lon="35.0274100">
<ele>401.968506</ele>
<time>2011-02-26T09:40:20.000Z</time>
</trkpt>
<trkpt lat="31.8091800" lon="35.0273400">
<ele>401.007080</ele>
<time>2011-02-26T09:40:25.000Z</time>
</trkpt>
<trkpt lat="31.8091000" lon="35.0272500">
<ele>401.007080</ele>
<time>2011-02-26T09:40:30.000Z</time>
</trkpt>
<trkpt lat="31.8090500" lon="35.0271400">
<ele>401.007080</ele>
<time>2011-02-26T09:40:34.000Z</time>
</trkpt>
<trkpt lat="31.8090200" lon="35.0270300">
<ele>399.084381</ele>
<time>2011-02-26T09:40:37.000Z</time>
</trkpt>
<trkpt lat="31.8089700" lon="35.0269200">
<ele>399.084381</ele>
<time>2011-02-26T09:40:40.000Z</time>
</trkpt>
<trkpt lat="31.8089100" lon="35.0268100">
<ele>394.277954</ele>
<time>2011-02-26T09:40:43.000Z</time>
</trkpt>
<trkpt lat="31.8088800" lon="35.0266700">
<ele>393.797241</ele>
<time>2011-02-26T09:40:46.000Z</time>
</trkpt>
<trkpt lat="31.8088700" lon="35.0265500">
<ele>391.874512</ele>
<time>2011-02-26T09:40:49.000Z</time>
</trkpt>
<trkpt lat="31.8089000" lon="35.0264400">
<ele>391.393799</ele>
<time>2011-02-26T09:40:52.000Z</time>
</trkpt>
<trkpt lat="31.8089700" lon="35.0263600">
<ele>390.913208</ele>
<time>2011-02-26T09:40:55.000Z</time>
</trkpt>
<trkpt lat="31.8090800" lon="35.0263200">
<ele>389.471191</ele>
<time>2011-02-26T09:40:58.000Z</time>
</trkpt>
<trkpt lat="31.8092000" lon="35.0262900">
<ele>388.029297</ele>
<time>2011-02-26T09:41:01.000Z</time>
</trkpt>
<trkpt lat="31.8093200" lon="35.0263100">
<ele>388.510010</ele>
<time>2011-02-26T09:41:04.000Z</time>
</trkpt>
<trkpt lat="31.8094500" lon="35.0263500">
<ele>388.029297</ele>
<time>2011-02-26T09:41:07.000Z</time>
</trkpt>
<trkpt lat="31.8095400" lon="35.0264000">
<ele>387.067993</ele>
<time>2011-02-26T09:41:10.000Z</time>
</trkpt>
<trkpt lat="31.8096500" lon="35.0264300">
<ele>387.067993</ele>
<time>2011-02-26T09:41:13.000Z</time>
</trkpt>
<trkpt lat="31.8098500" lon="35.0264400">
<ele>386.106689</ele>
<time>2011-02-26T09:41:19.000Z</time>
</trkpt>
<trkpt lat="31.8099500" lon="35.0264300">
<ele>385.625977</ele>
<time>2011-02-26T09:41:22.000Z</time>
</trkpt>
<trkpt lat="31.8100500" lon="35.0263900">
<ele>384.184052</ele>
<time>2011-02-26T09:41:25.000Z</time>
</trkpt>
<trkpt lat="31.8100900" lon="35.0262800">
<ele>380.819458</ele>
<time>2011-02-26T09:41:28.000Z</time>
</trkpt>
<trkpt lat="31.8100700" lon="35.0261300">
<ele>379.377441</ele>
<time>2011-02-26T09:41:31.000Z</time>
</trkpt>
<trkpt lat="31.8100600" lon="35.0259600">
<ele>378.896851</ele>
<time>2011-02-26T09:42:16.000Z</time>
</trkpt>
<trkpt lat="31.8100000" lon="35.0259000">
<ele>376.012817</ele>
<time>2011-02-26T09:42:19.000Z</time>
</trkpt>
<trkpt lat="31.8098900" lon="35.0258300">
<ele>373.609497</ele>
<time>2011-02-26T09:42:22.000Z</time>
</trkpt>
<trkpt lat="31.8097900" lon="35.0257700">
<ele>373.128876</ele>
<time>2011-02-26T09:42:25.000Z</time>
</trkpt>
<trkpt lat="31.8097100" lon="35.0256700">
<ele>371.686890</ele>
<time>2011-02-26T09:42:28.000Z</time>
</trkpt>
<trkpt lat="31.8096400" lon="35.0255600">
<ele>367.841553</ele>
<time>2011-02-26T09:42:31.000Z</time>
</trkpt>
<trkpt lat="31.8095700" lon="35.0254400">
<ele>365.918945</ele>
<time>2011-02-26T09:42:34.000Z</time>
</trkpt>
<trkpt lat="31.8094900" lon="35.0253300">
<ele>362.554321</ele>
<time>2011-02-26T09:42:37.000Z</time>
</trkpt>
<trkpt lat="31.8094100" lon="35.0252000">
<ele>359.670410</ele>
<time>2011-02-26T09:42:40.000Z</time>
</trkpt>
<trkpt lat="31.8093300" lon="35.0250800">
<ele>358.228394</ele>
<time>2011-02-26T09:42:43.000Z</time>
</trkpt>
<trkpt lat="31.8091500" lon="35.0248700">
<ele>353.902588</ele>
<time>2011-02-26T09:42:49.000Z</time>
</trkpt>
<trkpt lat="31.8090600" lon="35.0247800">
<ele>352.460571</ele>
<time>2011-02-26T09:42:52.000Z</time>
</trkpt>
<trkpt lat="31.8090400" lon="35.0246800">
<ele>351.018433</ele>
<time>2011-02-26T09:42:55.000Z</time>
</trkpt>
<trkpt lat="31.8091300" lon="35.0246100">
<ele>349.576538</ele>
<time>2011-02-26T09:42:58.000Z</time>
</trkpt>
<trkpt lat="31.8092500" lon="35.0245400">
<ele>348.134644</ele>
<time>2011-02-26T09:43:01.000Z</time>
</trkpt>
<trkpt lat="31.8093300" lon="35.0244800">
<ele>345.731293</ele>
<time>2011-02-26T09:43:03.000Z</time>
</trkpt>
<trkpt lat="31.8094100" lon="35.0244100">
<ele>343.808594</ele>
<time>2011-02-26T09:43:05.000Z</time>
</trkpt>
<trkpt lat="31.8094400" lon="35.0243200">
<ele>342.847290</ele>
<time>2011-02-26T09:43:07.000Z</time>
</trkpt>
<trkpt lat="31.8094900" lon="35.0241800">
<ele>342.366699</ele>
<time>2011-02-26T09:43:10.000Z</time>
</trkpt>
<trkpt lat="31.8095200" lon="35.0240400">
<ele>340.924683</ele>
<time>2011-02-26T09:43:13.000Z</time>
</trkpt>
<trkpt lat="31.8095200" lon="35.0239000">
<ele>339.963348</ele>
<time>2011-02-26T09:43:16.000Z</time>
</trkpt>
<trkpt lat="31.8095100" lon="35.0237900">
<ele>337.560059</ele>
<time>2011-02-26T09:43:18.000Z</time>
</trkpt>
<trkpt lat="31.8095000" lon="35.0236500">
<ele>334.676117</ele>
<time>2011-02-26T09:43:21.000Z</time>
</trkpt>
<trkpt lat="31.8095100" lon="35.0235000">
<ele>332.753540</ele>
<time>2011-02-26T09:43:24.000Z</time>
</trkpt>
<trkpt lat="31.8095100" lon="35.0233500">
<ele>331.311523</ele>
<time>2011-02-26T09:43:27.000Z</time>
</trkpt>
<trkpt lat="31.8095100" lon="35.0232500">
<ele>330.830933</ele>
<time>2011-02-26T09:43:29.000Z</time>
</trkpt>
<trkpt lat="31.8095100" lon="35.0231400">
<ele>329.388885</ele>
<time>2011-02-26T09:43:31.000Z</time>
</trkpt>
<trkpt lat="31.8095000" lon="35.0229600">
<ele>327.946777</ele>
<time>2011-02-26T09:43:34.000Z</time>
</trkpt>
<trkpt lat="31.8094900" lon="35.0228500">
<ele>326.985596</ele>
<time>2011-02-26T09:43:36.000Z</time>
</trkpt>
<trkpt lat="31.8094800" lon="35.0227000">
<ele>324.582275</ele>
<time>2011-02-26T09:43:39.000Z</time>
</trkpt>
<trkpt lat="31.8094600" lon="35.0225900">
<ele>322.659668</ele>
<time>2011-02-26T09:43:42.000Z</time>
</trkpt>
<trkpt lat="31.8093400" lon="35.0226100">
<ele>324.582275</ele>
<time>2011-02-26T09:43:48.000Z</time>
</trkpt>
<trkpt lat="31.8092200" lon="35.0225600">
<ele>321.698364</ele>
<time>2011-02-26T09:44:53.000Z</time>
</trkpt>
<trkpt lat="31.8090600" lon="35.0223300">
<ele>320.256348</ele>
<time>2011-02-26T09:45:05.000Z</time>
</trkpt>
<trkpt lat="31.8089700" lon="35.0221600">
<ele>322.178955</ele>
<time>2011-02-26T09:45:28.000Z</time>
</trkpt>
<trkpt lat="31.8089400" lon="35.0219600">
<ele>320.737061</ele>
<time>2011-02-26T09:45:50.000Z</time>
</trkpt>
<trkpt lat="31.8090900" lon="35.0217000">
<ele>318.814331</ele>
<time>2011-02-26T09:46:03.000Z</time>
</trkpt>
<trkpt lat="31.8091500" lon="35.0215700">
<ele>318.814331</ele>
<time>2011-02-26T09:46:06.000Z</time>
</trkpt>
<trkpt lat="31.8092200" lon="35.0214300">
<ele>318.333618</ele>
<time>2011-02-26T09:46:09.000Z</time>
</trkpt>
<trkpt lat="31.8092600" lon="35.0213000">
<ele>317.853058</ele>
<time>2011-02-26T09:46:12.000Z</time>
</trkpt>
<trkpt lat="31.8093000" lon="35.0211300">
<ele>316.411011</ele>
<time>2011-02-26T09:46:15.000Z</time>
</trkpt>
<trkpt lat="31.8093300" lon="35.0210100">
<ele>315.930420</ele>
<time>2011-02-26T09:46:17.000Z</time>
</trkpt>
<trkpt lat="31.8093400" lon="35.0209000">
<ele>314.969116</ele>
<time>2011-02-26T09:46:19.000Z</time>
</trkpt>
<trkpt lat="31.8093700" lon="35.0207900">
<ele>315.449829</ele>
<time>2011-02-26T09:46:21.000Z</time>
</trkpt>
<trkpt lat="31.8094100" lon="35.0206300">
<ele>314.007813</ele>
<time>2011-02-26T09:46:24.000Z</time>
</trkpt>
<trkpt lat="31.8094400" lon="35.0205100">
<ele>312.565826</ele>
<time>2011-02-26T09:46:26.000Z</time>
</trkpt>
<trkpt lat="31.8095000" lon="35.0202400">
<ele>311.604492</ele>
<time>2011-02-26T09:46:31.000Z</time>
</trkpt>
<trkpt lat="31.8095200" lon="35.0201400">
<ele>311.123779</ele>
<time>2011-02-26T09:46:33.000Z</time>
</trkpt>
<trkpt lat="31.8095600" lon="35.0199800">
<ele>310.643066</ele>
<time>2011-02-26T09:46:36.000Z</time>
</trkpt>
<trkpt lat="31.8095800" lon="35.0198000">
<ele>309.201172</ele>
<time>2011-02-26T09:46:39.000Z</time>
</trkpt>
<trkpt lat="31.8096200" lon="35.0196600">
<ele>306.797852</ele>
<time>2011-02-26T09:46:42.000Z</time>
</trkpt>
<trkpt lat="31.8096600" lon="35.0195500">
<ele>307.759277</ele>
<time>2011-02-26T09:46:45.000Z</time>
</trkpt>
<trkpt lat="31.8097000" lon="35.0194500">
<ele>308.239868</ele>
<time>2011-02-26T09:46:49.000Z</time>
</trkpt>
<trkpt lat="31.8097400" lon="35.0193200">
<ele>308.720459</ele>
<time>2011-02-26T09:47:00.000Z</time>
</trkpt>
<trkpt lat="31.8097000" lon="35.0192300">
<ele>309.201172</ele>
<time>2011-02-26T09:47:03.000Z</time>
</trkpt>
<trkpt lat="31.8096700" lon="35.0191000">
<ele>306.797852</ele>
<time>2011-02-26T09:47:08.000Z</time>
</trkpt>
<trkpt lat="31.8096900" lon="35.0189600">
<ele>305.836670</ele>
<time>2011-02-26T09:47:12.000Z</time>
</trkpt>
<trkpt lat="31.8097600" lon="35.0188900">
<ele>304.875244</ele>
<time>2011-02-26T09:47:15.000Z</time>
</trkpt>
<trkpt lat="31.8098800" lon="35.0189100">
<ele>306.317261</ele>
<time>2011-02-26T09:47:18.000Z</time>
</trkpt>
<trkpt lat="31.8099500" lon="35.0189500">
<ele>305.355957</ele>
<time>2011-02-26T09:47:22.000Z</time>
</trkpt>
<trkpt lat="31.8100300" lon="35.0190200">
<ele>306.317261</ele>
<time>2011-02-26T09:47:27.000Z</time>
</trkpt>
<trkpt lat="31.8101100" lon="35.0191000">
<ele>306.317261</ele>
<time>2011-02-26T09:47:32.000Z</time>
</trkpt>
<trkpt lat="31.8102000" lon="35.0191600">
<ele>306.317261</ele>
<time>2011-02-26T09:47:37.000Z</time>
</trkpt>
<trkpt lat="31.8102800" lon="35.0192100">
<ele>306.797852</ele>
<time>2011-02-26T09:47:41.000Z</time>
</trkpt>
<trkpt lat="31.8103600" lon="35.0192700">
<ele>307.759277</ele>
<time>2011-02-26T09:47:45.000Z</time>
</trkpt>
<trkpt lat="31.8104300" lon="35.0193300">
<ele>308.239868</ele>
<time>2011-02-26T09:47:50.000Z</time>
</trkpt>
<trkpt lat="31.8105100" lon="35.0194200">
<ele>308.720459</ele>
<time>2011-02-26T09:47:55.000Z</time>
</trkpt>
<trkpt lat="31.8106000" lon="35.0194900">
<ele>308.720459</ele>
<time>2011-02-26T09:48:00.000Z</time>
</trkpt>
<trkpt lat="31.8106800" lon="35.0195600">
<ele>308.720459</ele>
<time>2011-02-26T09:48:04.000Z</time>
</trkpt>
<trkpt lat="31.8107500" lon="35.0196200">
<ele>309.201172</ele>
<time>2011-02-26T09:48:08.000Z</time>
</trkpt>
<trkpt lat="31.8108200" lon="35.0196900">
<ele>309.201172</ele>
<time>2011-02-26T09:48:12.000Z</time>
</trkpt>
<trkpt lat="31.8109000" lon="35.0197700">
<ele>310.643066</ele>
<time>2011-02-26T09:48:17.000Z</time>
</trkpt>
<trkpt lat="31.8110100" lon="35.0198500">
<ele>311.123779</ele>
<time>2011-02-26T09:48:22.000Z</time>
</trkpt>
<trkpt lat="31.8110900" lon="35.0199300">
<ele>312.565826</ele>
<time>2011-02-26T09:48:26.000Z</time>
</trkpt>
<trkpt lat="31.8111600" lon="35.0200100">
<ele>312.085205</ele>
<time>2011-02-26T09:48:30.000Z</time>
</trkpt>
<trkpt lat="31.8112400" lon="35.0200800">
<ele>312.565826</ele>
<time>2011-02-26T09:48:34.000Z</time>
</trkpt>
<trkpt lat="31.8113200" lon="35.0201600">
<ele>313.527222</ele>
<time>2011-02-26T09:48:38.000Z</time>
</trkpt>
<trkpt lat="31.8114100" lon="35.0202200">
<ele>313.527222</ele>
<time>2011-02-26T09:48:42.000Z</time>
</trkpt>
<trkpt lat="31.8114900" lon="35.0202900">
<ele>314.007813</ele>
<time>2011-02-26T09:48:46.000Z</time>
</trkpt>
<trkpt lat="31.8115800" lon="35.0203500">
<ele>314.969116</ele>
<time>2011-02-26T09:48:50.000Z</time>
</trkpt>
<trkpt lat="31.8116700" lon="35.0204000">
<ele>315.449829</ele>
<time>2011-02-26T09:48:54.000Z</time>
</trkpt>
<trkpt lat="31.8117600" lon="35.0204600">
<ele>315.449829</ele>
<time>2011-02-26T09:48:58.000Z</time>
</trkpt>
<trkpt lat="31.8118500" lon="35.0204600">
<ele>317.853058</ele>
<time>2011-02-26T09:49:03.000Z</time>
</trkpt>
<trkpt lat="31.8118600" lon="35.0203500">
<ele>318.333618</ele>
<time>2011-02-26T09:49:08.000Z</time>
</trkpt>
<trkpt lat="31.8118600" lon="35.0202200">
<ele>318.814331</ele>
<time>2011-02-26T09:49:13.000Z</time>
</trkpt>
<trkpt lat="31.8118600" lon="35.0201100">
<ele>320.737061</ele>
<time>2011-02-26T09:49:19.000Z</time>
</trkpt>
<trkpt lat="31.8118700" lon="35.0200000">
<ele>321.217773</ele>
<time>2011-02-26T09:49:25.000Z</time>
</trkpt>
<trkpt lat="31.8118800" lon="35.0198800">
<ele>322.659668</ele>
<time>2011-02-26T09:49:32.000Z</time>
</trkpt>
<trkpt lat="31.8119100" lon="35.0197600">
<ele>323.620941</ele>
<time>2011-02-26T09:49:39.000Z</time>
</trkpt>
<trkpt lat="31.8119300" lon="35.0196400">
<ele>323.620941</ele>
<time>2011-02-26T09:49:46.000Z</time>
</trkpt>
<trkpt lat="31.8119500" lon="35.0195200">
<ele>325.543579</ele>
<time>2011-02-26T09:49:52.000Z</time>
</trkpt>
<trkpt lat="31.8119900" lon="35.0194000">
<ele>324.582275</ele>
<time>2011-02-26T09:49:58.000Z</time>
</trkpt>
<trkpt lat="31.8120100" lon="35.0193000">
<ele>325.543579</ele>
<time>2011-02-26T09:50:04.000Z</time>
</trkpt>
<trkpt lat="31.8120500" lon="35.0191900">
<ele>326.504883</ele>
<time>2011-02-26T09:50:10.000Z</time>
</trkpt>
<trkpt lat="31.8120900" lon="35.0190700">
<ele>325.543579</ele>
<time>2011-02-26T09:50:16.000Z</time>
</trkpt>
<trkpt lat="31.8121100" lon="35.0189700">
<ele>327.946777</ele>
<time>2011-02-26T09:50:21.000Z</time>
</trkpt>
<trkpt lat="31.8121300" lon="35.0188500">
<ele>328.427612</ele>
<time>2011-02-26T09:50:27.000Z</time>
</trkpt>
<trkpt lat="31.8121900" lon="35.0187200">
<ele>328.427612</ele>
<time>2011-02-26T09:50:32.000Z</time>
</trkpt>
<trkpt lat="31.8122700" lon="35.0186600">
<ele>328.427612</ele>
<time>2011-02-26T09:50:37.000Z</time>
</trkpt>
<trkpt lat="31.8123400" lon="35.0185700">
<ele>329.388885</ele>
<time>2011-02-26T09:50:43.000Z</time>
</trkpt>
<trkpt lat="31.8123800" lon="35.0184500">
<ele>328.908325</ele>
<time>2011-02-26T09:50:49.000Z</time>
</trkpt>
<trkpt lat="31.8124100" lon="35.0183300">
<ele>331.311523</ele>
<time>2011-02-26T09:50:55.000Z</time>
</trkpt>
<trkpt lat="31.8124200" lon="35.0182200">
<ele>331.792114</ele>
<time>2011-02-26T09:51:01.000Z</time>
</trkpt>
<trkpt lat="31.8124200" lon="35.0181000">
<ele>333.234131</ele>
<time>2011-02-26T09:51:08.000Z</time>
</trkpt>
<trkpt lat="31.8124000" lon="35.0179800">
<ele>332.753540</ele>
<time>2011-02-26T09:51:14.000Z</time>
</trkpt>
<trkpt lat="31.8123800" lon="35.0178700">
<ele>332.753540</ele>
<time>2011-02-26T09:51:20.000Z</time>
</trkpt>
<trkpt lat="31.8123800" lon="35.0177600">
<ele>332.272827</ele>
<time>2011-02-26T09:51:25.000Z</time>
</trkpt>
<trkpt lat="31.8123700" lon="35.0176400">
<ele>331.792114</ele>
<time>2011-02-26T09:51:30.000Z</time>
</trkpt>
<trkpt lat="31.8123800" lon="35.0175300">
<ele>332.272827</ele>
<time>2011-02-26T09:51:35.000Z</time>
</trkpt>
<trkpt lat="31.8124000" lon="35.0174300">
<ele>334.195465</ele>
<time>2011-02-26T09:51:40.000Z</time>
</trkpt>
<trkpt lat="31.8124400" lon="35.0173300">
<ele>334.195465</ele>
<time>2011-02-26T09:51:45.000Z</time>
</trkpt>
<trkpt lat="31.8124800" lon="35.0172400">
<ele>333.714752</ele>
<time>2011-02-26T09:51:51.000Z</time>
</trkpt>
<trkpt lat="31.8125300" lon="35.0171500">
<ele>334.195465</ele>
<time>2011-02-26T09:51:57.000Z</time>
</trkpt>
<trkpt lat="31.8125800" lon="35.0170600">
<ele>336.118164</ele>
<time>2011-02-26T09:52:03.000Z</time>
</trkpt>
<trkpt lat="31.8126200" lon="35.0169500">
<ele>336.118164</ele>
<time>2011-02-26T09:52:10.000Z</time>
</trkpt>
<trkpt lat="31.8126400" lon="35.0168500">
<ele>337.079468</ele>
<time>2011-02-26T09:52:16.000Z</time>
</trkpt>
<trkpt lat="31.8126900" lon="35.0167400">
<ele>337.560059</ele>
<time>2011-02-26T09:52:22.000Z</time>
</trkpt>
<trkpt lat="31.8127300" lon="35.0166500">
<ele>339.002075</ele>
<time>2011-02-26T09:52:28.000Z</time>
</trkpt>
<trkpt lat="31.8127600" lon="35.0165400">
<ele>339.002075</ele>
<time>2011-02-26T09:52:35.000Z</time>
</trkpt>
<trkpt lat="31.8128000" lon="35.0164300">
<ele>339.963348</ele>
<time>2011-02-26T09:52:42.000Z</time>
</trkpt>
<trkpt lat="31.8128400" lon="35.0163200">
<ele>341.885986</ele>
<time>2011-02-26T09:52:49.000Z</time>
</trkpt>
<trkpt lat="31.8129000" lon="35.0162400">
<ele>345.731293</ele>
<time>2011-02-26T09:52:56.000Z</time>
</trkpt>
<trkpt lat="31.8129500" lon="35.0161400">
<ele>343.327881</ele>
<time>2011-02-26T09:53:03.000Z</time>
</trkpt>
<trkpt lat="31.8130100" lon="35.0160600">
<ele>344.289429</ele>
<time>2011-02-26T09:53:09.000Z</time>
</trkpt>
<trkpt lat="31.8130700" lon="35.0159600">
<ele>344.289429</ele>
<time>2011-02-26T09:53:15.000Z</time>
</trkpt>
<trkpt lat="31.8131400" lon="35.0158800">
<ele>344.289429</ele>
<time>2011-02-26T09:53:20.000Z</time>
</trkpt>
<trkpt lat="31.8132000" lon="35.0158000">
<ele>345.250641</ele>
<time>2011-02-26T09:53:25.000Z</time>
</trkpt>
<trkpt lat="31.8132600" lon="35.0157200">
<ele>344.289429</ele>
<time>2011-02-26T09:53:30.000Z</time>
</trkpt>
<trkpt lat="31.8133400" lon="35.0156200">
<ele>344.289429</ele>
<time>2011-02-26T09:53:35.000Z</time>
</trkpt>
<trkpt lat="31.8134400" lon="35.0155100">
<ele>342.366699</ele>
<time>2011-02-26T09:53:39.000Z</time>
</trkpt>
<trkpt lat="31.8135000" lon="35.0154100">
<ele>340.924683</ele>
<time>2011-02-26T09:53:42.000Z</time>
</trkpt>
<trkpt lat="31.8135700" lon="35.0152700">
<ele>339.002075</ele>
<time>2011-02-26T09:53:45.000Z</time>
</trkpt>
<trkpt lat="31.8136200" lon="35.0151600">
<ele>337.560059</ele>
<time>2011-02-26T09:53:47.000Z</time>
</trkpt>
<trkpt lat="31.8136700" lon="35.0150600">
<ele>336.118164</ele>
<time>2011-02-26T09:53:49.000Z</time>
</trkpt>
<trkpt lat="31.8137300" lon="35.0149800">
<ele>337.079468</ele>
<time>2011-02-26T09:53:51.000Z</time>
</trkpt>
<trkpt lat="31.8138000" lon="35.0148900">
<ele>340.444061</ele>
<time>2011-02-26T09:53:54.000Z</time>
</trkpt>
<trkpt lat="31.8138700" lon="35.0148100">
<ele>339.482697</ele>
<time>2011-02-26T09:53:58.000Z</time>
</trkpt>
<trkpt lat="31.8139300" lon="35.0147300">
<ele>339.482697</ele>
<time>2011-02-26T09:54:02.000Z</time>
</trkpt>
<trkpt lat="31.8139800" lon="35.0146200">
<ele>339.482697</ele>
<time>2011-02-26T09:54:06.000Z</time>
</trkpt>
<trkpt lat="31.8140200" lon="35.0144800">
<ele>338.521484</ele>
<time>2011-02-26T09:54:10.000Z</time>
</trkpt>
<trkpt lat="31.8140400" lon="35.0143500">
<ele>339.482697</ele>
<time>2011-02-26T09:54:13.000Z</time>
</trkpt>
<trkpt lat="31.8140700" lon="35.0142300">
<ele>338.040771</ele>
<time>2011-02-26T09:54:16.000Z</time>
</trkpt>
<trkpt lat="31.8140700" lon="35.0141100">
<ele>337.079468</ele>
<time>2011-02-26T09:54:18.000Z</time>
</trkpt>
<trkpt lat="31.8140500" lon="35.0139600">
<ele>334.676117</ele>
<time>2011-02-26T09:54:20.000Z</time>
</trkpt>
<trkpt lat="31.8140300" lon="35.0138900">
<ele>334.195465</ele>
<time>2011-02-26T09:54:21.000Z</time>
</trkpt>
<trkpt lat="31.8139800" lon="35.0137500">
<ele>333.714752</ele>
<time>2011-02-26T09:54:23.000Z</time>
</trkpt>
<trkpt lat="31.8139400" lon="35.0136000">
<ele>333.714752</ele>
<time>2011-02-26T09:54:25.000Z</time>
</trkpt>
<trkpt lat="31.8140000" lon="35.0134600">
<ele>337.079468</ele>
<time>2011-02-26T09:54:28.000Z</time>
</trkpt>
<trkpt lat="31.8140600" lon="35.0133800">
<ele>337.560059</ele>
<time>2011-02-26T09:54:31.000Z</time>
</trkpt>
<trkpt lat="31.8141400" lon="35.0132900">
<ele>338.521484</ele>
<time>2011-02-26T09:54:35.000Z</time>
</trkpt>
<trkpt lat="31.8142000" lon="35.0132200">
<ele>340.444061</ele>
<time>2011-02-26T09:54:39.000Z</time>
</trkpt>
<trkpt lat="31.8142900" lon="35.0131400">
<ele>341.885986</ele>
<time>2011-02-26T09:54:44.000Z</time>
</trkpt>
<trkpt lat="31.8143500" lon="35.0130700">
<ele>342.366699</ele>
<time>2011-02-26T09:54:48.000Z</time>
</trkpt>
<trkpt lat="31.8144400" lon="35.0130000">
<ele>343.327881</ele>
<time>2011-02-26T09:54:53.000Z</time>
</trkpt>
<trkpt lat="31.8145100" lon="35.0129200">
<ele>344.289429</ele>
<time>2011-02-26T09:54:59.000Z</time>
</trkpt>
<trkpt lat="31.8145800" lon="35.0128300">
<ele>344.289429</ele>
<time>2011-02-26T09:55:05.000Z</time>
</trkpt>
<trkpt lat="31.8146400" lon="35.0127300">
<ele>345.731293</ele>
<time>2011-02-26T09:55:12.000Z</time>
</trkpt>
<trkpt lat="31.8146900" lon="35.0126400">
<ele>347.653931</ele>
<time>2011-02-26T09:55:19.000Z</time>
</trkpt>
<trkpt lat="31.8147400" lon="35.0125400">
<ele>348.615234</ele>
<time>2011-02-26T09:55:26.000Z</time>
</trkpt>
<trkpt lat="31.8148300" lon="35.0125300">
<ele>352.941162</ele>
<time>2011-02-26T09:55:34.000Z</time>
</trkpt>
<trkpt lat="31.8149300" lon="35.0125600">
<ele>352.460571</ele>
<time>2011-02-26T09:55:42.000Z</time>
</trkpt>
<trkpt lat="31.8150100" lon="35.0126100">
<ele>351.979858</ele>
<time>2011-02-26T09:55:49.000Z</time>
</trkpt>
<trkpt lat="31.8150900" lon="35.0126700">
<ele>352.941162</ele>
<time>2011-02-26T09:55:55.000Z</time>
</trkpt>
<trkpt lat="31.8151900" lon="35.0127100">
<ele>354.863770</ele>
<time>2011-02-26T09:56:02.000Z</time>
</trkpt>
<trkpt lat="31.8153000" lon="35.0126700">
<ele>353.421875</ele>
<time>2011-02-26T09:56:15.000Z</time>
</trkpt>
<trkpt lat="31.8154000" lon="35.0125800">
<ele>353.421875</ele>
<time>2011-02-26T09:56:19.000Z</time>
</trkpt>
<trkpt lat="31.8155800" lon="35.0124100">
<ele>351.018433</ele>
<time>2011-02-26T09:56:25.000Z</time>
</trkpt>
<trkpt lat="31.8157900" lon="35.0122000">
<ele>349.576538</ele>
<time>2011-02-26T09:56:31.000Z</time>
</trkpt>
<trkpt lat="31.8159000" lon="35.0121000">
<ele>351.499146</ele>
<time>2011-02-26T09:56:34.000Z</time>
</trkpt>
<trkpt lat="31.8160000" lon="35.0120200">
<ele>351.979858</ele>
<time>2011-02-26T09:56:37.000Z</time>
</trkpt>
<trkpt lat="31.8161000" lon="35.0119200">
<ele>352.460571</ele>
<time>2011-02-26T09:56:41.000Z</time>
</trkpt>
<trkpt lat="31.8161900" lon="35.0118300">
<ele>351.979858</ele>
<time>2011-02-26T09:56:45.000Z</time>
</trkpt>
<trkpt lat="31.8162400" lon="35.0117500">
<ele>352.460571</ele>
<time>2011-02-26T09:56:47.000Z</time>
</trkpt>
<trkpt lat="31.8163200" lon="35.0116600">
<ele>352.460571</ele>
<time>2011-02-26T09:56:50.000Z</time>
</trkpt>
<trkpt lat="31.8163800" lon="35.0115700">
<ele>352.460571</ele>
<time>2011-02-26T09:56:53.000Z</time>
</trkpt>
<trkpt lat="31.8164600" lon="35.0114700">
<ele>352.460571</ele>
<time>2011-02-26T09:56:57.000Z</time>
</trkpt>
<trkpt lat="31.8165200" lon="35.0113900">
<ele>352.941162</ele>
<time>2011-02-26T09:57:00.000Z</time>
</trkpt>
<trkpt lat="31.8165900" lon="35.0113000">
<ele>352.941162</ele>
<time>2011-02-26T09:57:03.000Z</time>
</trkpt>
<trkpt lat="31.8166400" lon="35.0111900">
<ele>352.460571</ele>
<time>2011-02-26T09:57:06.000Z</time>
</trkpt>
<trkpt lat="31.8166600" lon="35.0110700">
<ele>352.460571</ele>
<time>2011-02-26T09:57:09.000Z</time>
</trkpt>
<trkpt lat="31.8166800" lon="35.0109300">
<ele>351.979858</ele>
<time>2011-02-26T09:57:12.000Z</time>
</trkpt>
<trkpt lat="31.8167100" lon="35.0107800">
<ele>351.499146</ele>
<time>2011-02-26T09:57:15.000Z</time>
</trkpt>
<trkpt lat="31.8167300" lon="35.0106300">
<ele>351.499146</ele>
<time>2011-02-26T09:57:18.000Z</time>
</trkpt>
<trkpt lat="31.8167500" lon="35.0105200">
<ele>351.979858</ele>
<time>2011-02-26T09:57:20.000Z</time>
</trkpt>
<trkpt lat="31.8167600" lon="35.0104000">
<ele>351.018433</ele>
<time>2011-02-26T09:57:22.000Z</time>
</trkpt>
<trkpt lat="31.8167700" lon="35.0102900">
<ele>347.653931</ele>
<time>2011-02-26T09:57:24.000Z</time>
</trkpt>
<trkpt lat="31.8167600" lon="35.0101500">
<ele>346.692627</ele>
<time>2011-02-26T09:57:26.000Z</time>
</trkpt>
<trkpt lat="31.8167600" lon="35.0100100">
<ele>344.289429</ele>
<time>2011-02-26T09:57:28.000Z</time>
</trkpt>
<trkpt lat="31.8167600" lon="35.0096800">
<ele>339.963348</ele>
<time>2011-02-26T09:57:32.000Z</time>
</trkpt>
<trkpt lat="31.8167600" lon="35.0094900">
<ele>337.560059</ele>
<time>2011-02-26T09:57:34.000Z</time>
</trkpt>
<trkpt lat="31.8167600" lon="35.0092600">
<ele>336.598877</ele>
<time>2011-02-26T09:57:36.000Z</time>
</trkpt>
<trkpt lat="31.8167700" lon="35.0090500">
<ele>336.598877</ele>
<time>2011-02-26T09:57:38.000Z</time>
</trkpt>
<trkpt lat="31.8167800" lon="35.0088500">
<ele>336.598877</ele>
<time>2011-02-26T09:57:40.000Z</time>
</trkpt>
<trkpt lat="31.8168000" lon="35.0086600">
<ele>336.118164</ele>
<time>2011-02-26T09:57:42.000Z</time>
</trkpt>
<trkpt lat="31.8168200" lon="35.0084900">
<ele>337.079468</ele>
<time>2011-02-26T09:57:44.000Z</time>
</trkpt>
<trkpt lat="31.8168500" lon="35.0083600">
<ele>337.560059</ele>
<time>2011-02-26T09:57:46.000Z</time>
</trkpt>
<trkpt lat="31.8169800" lon="35.0079500">
<ele>338.040771</ele>
<time>2011-02-26T09:57:54.000Z</time>
</trkpt>
<trkpt lat="31.8170400" lon="35.0078300">
<ele>338.521484</ele>
<time>2011-02-26T09:57:57.000Z</time>
</trkpt>
<trkpt lat="31.8171100" lon="35.0077300">
<ele>338.521484</ele>
<time>2011-02-26T09:58:00.000Z</time>
</trkpt>
<trkpt lat="31.8171800" lon="35.0076300">
<ele>339.002075</ele>
<time>2011-02-26T09:58:03.000Z</time>
</trkpt>
<trkpt lat="31.8172500" lon="35.0075400">
<ele>338.521484</ele>
<time>2011-02-26T09:58:06.000Z</time>
</trkpt>
<trkpt lat="31.8173100" lon="35.0074500">
<ele>339.482697</ele>
<time>2011-02-26T09:58:09.000Z</time>
</trkpt>
<trkpt lat="31.8173700" lon="35.0073600">
<ele>339.963348</ele>
<time>2011-02-26T09:58:12.000Z</time>
</trkpt>
<trkpt lat="31.8174200" lon="35.0072700">
<ele>339.482697</ele>
<time>2011-02-26T09:58:15.000Z</time>
</trkpt>
<trkpt lat="31.8174600" lon="35.0072100">
<ele>339.482697</ele>
<time>2011-02-26T09:58:17.000Z</time>
</trkpt>
<trkpt lat="31.8175500" lon="35.0071200">
<ele>339.482697</ele>
<time>2011-02-26T09:58:21.000Z</time>
</trkpt>
<trkpt lat="31.8176200" lon="35.0070400">
<ele>339.482697</ele>
<time>2011-02-26T09:58:25.000Z</time>
</trkpt>
<trkpt lat="31.8176800" lon="35.0069700">
<ele>339.963348</ele>
<time>2011-02-26T09:58:29.000Z</time>
</trkpt>
<trkpt lat="31.8177400" lon="35.0069000">
<ele>340.444061</ele>
<time>2011-02-26T09:58:33.000Z</time>
</trkpt>
<trkpt lat="31.8178100" lon="35.0068200">
<ele>341.405273</ele>
<time>2011-02-26T09:58:37.000Z</time>
</trkpt>
<trkpt lat="31.8179600" lon="35.0066500">
<ele>341.405273</ele>
<time>2011-02-26T09:58:45.000Z</time>
</trkpt>
<trkpt lat="31.8180400" lon="35.0065500">
<ele>342.366699</ele>
<time>2011-02-26T09:58:49.000Z</time>
</trkpt>
<trkpt lat="31.8181300" lon="35.0064700">
<ele>342.366699</ele>
<time>2011-02-26T09:58:53.000Z</time>
</trkpt>
<trkpt lat="31.8182100" lon="35.0064100">
<ele>342.366699</ele>
<time>2011-02-26T09:58:56.000Z</time>
</trkpt>
<trkpt lat="31.8183000" lon="35.0063200">
<ele>342.366699</ele>
<time>2011-02-26T09:58:59.000Z</time>
</trkpt>
<trkpt lat="31.8183800" lon="35.0062500">
<ele>343.327881</ele>
<time>2011-02-26T09:59:02.000Z</time>
</trkpt>
<trkpt lat="31.8184600" lon="35.0061700">
<ele>342.847290</ele>
<time>2011-02-26T09:59:05.000Z</time>
</trkpt>
<trkpt lat="31.8185500" lon="35.0061000">
<ele>343.808594</ele>
<time>2011-02-26T09:59:08.000Z</time>
</trkpt>
<trkpt lat="31.8186300" lon="35.0060200">
<ele>344.289429</ele>
<time>2011-02-26T09:59:11.000Z</time>
</trkpt>
<trkpt lat="31.8187100" lon="35.0059400">
<ele>343.808594</ele>
<time>2011-02-26T09:59:14.000Z</time>
</trkpt>
<trkpt lat="31.8187800" lon="35.0058600">
<ele>344.289429</ele>
<time>2011-02-26T09:59:17.000Z</time>
</trkpt>
<trkpt lat="31.8188300" lon="35.0057600">
<ele>343.808594</ele>
<time>2011-02-26T09:59:20.000Z</time>
</trkpt>
<trkpt lat="31.8188500" lon="35.0056100">
<ele>342.847290</ele>
<time>2011-02-26T09:59:23.000Z</time>
</trkpt>
<trkpt lat="31.8188400" lon="35.0054600">
<ele>341.885986</ele>
<time>2011-02-26T09:59:25.000Z</time>
</trkpt>
<trkpt lat="31.8188200" lon="35.0053100">
<ele>339.963348</ele>
<time>2011-02-26T09:59:27.000Z</time>
</trkpt>
<trkpt lat="31.8188200" lon="35.0051700">
<ele>339.482697</ele>
<time>2011-02-26T09:59:29.000Z</time>
</trkpt>
<trkpt lat="31.8188100" lon="35.0050200">
<ele>336.598877</ele>
<time>2011-02-26T09:59:31.000Z</time>
</trkpt>
<trkpt lat="31.8188200" lon="35.0048600">
<ele>334.676117</ele>
<time>2011-02-26T09:59:33.000Z</time>
</trkpt>
<trkpt lat="31.8188300" lon="35.0047000">
<ele>333.714752</ele>
<time>2011-02-26T09:59:35.000Z</time>
</trkpt>
<trkpt lat="31.8188400" lon="35.0045300">
<ele>331.311523</ele>
<time>2011-02-26T09:59:37.000Z</time>
</trkpt>
<trkpt lat="31.8188500" lon="35.0043600">
<ele>329.388885</ele>
<time>2011-02-26T09:59:39.000Z</time>
</trkpt>
<trkpt lat="31.8188700" lon="35.0041800">
<ele>328.427612</ele>
<time>2011-02-26T09:59:41.000Z</time>
</trkpt>
<trkpt lat="31.8188900" lon="35.0040000">
<ele>325.062988</ele>
<time>2011-02-26T09:59:43.000Z</time>
</trkpt>
<trkpt lat="31.8189100" lon="35.0038300">
<ele>325.062988</ele>
<time>2011-02-26T09:59:45.000Z</time>
</trkpt>
<trkpt lat="31.8189300" lon="35.0036700">
<ele>322.659668</ele>
<time>2011-02-26T09:59:47.000Z</time>
</trkpt>
<trkpt lat="31.8189600" lon="35.0035200">
<ele>321.217773</ele>
<time>2011-02-26T09:59:49.000Z</time>
</trkpt>
<trkpt lat="31.8189800" lon="35.0033800">
<ele>318.814331</ele>
<time>2011-02-26T09:59:51.000Z</time>
</trkpt>
<trkpt lat="31.8190000" lon="35.0032500">
<ele>317.853058</ele>
<time>2011-02-26T09:59:53.000Z</time>
</trkpt>
<trkpt lat="31.8190200" lon="35.0031300">
<ele>315.930420</ele>
<time>2011-02-26T09:59:55.000Z</time>
</trkpt>
<trkpt lat="31.8190400" lon="35.0030100">
<ele>314.969116</ele>
<time>2011-02-26T09:59:57.000Z</time>
</trkpt>
<trkpt lat="31.8190700" lon="35.0028500">
<ele>314.969116</ele>
<time>2011-02-26T10:00:00.000Z</time>
</trkpt>
<trkpt lat="31.8190800" lon="35.0027200">
<ele>314.007813</ele>
<time>2011-02-26T10:00:02.000Z</time>
</trkpt>
<trkpt lat="31.8191000" lon="35.0025900">
<ele>312.085205</ele>
<time>2011-02-26T10:00:04.000Z</time>
</trkpt>
<trkpt lat="31.8191200" lon="35.0024600">
<ele>310.643066</ele>
<time>2011-02-26T10:00:06.000Z</time>
</trkpt>
<trkpt lat="31.8191400" lon="35.0023200">
<ele>308.720459</ele>
<time>2011-02-26T10:00:08.000Z</time>
</trkpt>
<trkpt lat="31.8191600" lon="35.0021900">
<ele>307.278564</ele>
<time>2011-02-26T10:00:10.000Z</time>
</trkpt>
<trkpt lat="31.8191700" lon="35.0020600">
<ele>306.797852</ele>
<time>2011-02-26T10:00:12.000Z</time>
</trkpt>
<trkpt lat="31.8191900" lon="35.0019200">
<ele>303.913940</ele>
<time>2011-02-26T10:00:14.000Z</time>
</trkpt>
<trkpt lat="31.8192000" lon="35.0017900">
<ele>301.991333</ele>
<time>2011-02-26T10:00:16.000Z</time>
</trkpt>
<trkpt lat="31.8192100" lon="35.0016600">
<ele>300.549316</ele>
<time>2011-02-26T10:00:18.000Z</time>
</trkpt>
<trkpt lat="31.8192100" lon="35.0015100">
<ele>300.549316</ele>
<time>2011-02-26T10:00:20.000Z</time>
</trkpt>
<trkpt lat="31.8192100" lon="35.0013500">
<ele>298.626709</ele>
<time>2011-02-26T10:00:22.000Z</time>
</trkpt>
<trkpt lat="31.8192200" lon="35.0012000">
<ele>297.665405</ele>
<time>2011-02-26T10:00:24.000Z</time>
</trkpt>
<trkpt lat="31.8192200" lon="35.0010400">
<ele>295.742676</ele>
<time>2011-02-26T10:00:26.000Z</time>
</trkpt>
<trkpt lat="31.8192200" lon="35.0008900">
<ele>292.378174</ele>
<time>2011-02-26T10:00:28.000Z</time>
</trkpt>
<trkpt lat="31.8192700" lon="35.0007300">
<ele>292.378174</ele>
<time>2011-02-26T10:00:31.000Z</time>
</trkpt>
<trkpt lat="31.8192800" lon="35.0006200">
<ele>291.416748</ele>
<time>2011-02-26T10:00:33.000Z</time>
</trkpt>
<trkpt lat="31.8192900" lon="35.0004900">
<ele>291.416748</ele>
<time>2011-02-26T10:00:35.000Z</time>
</trkpt>
<trkpt lat="31.8192900" lon="35.0003700">
<ele>288.532959</ele>
<time>2011-02-26T10:00:37.000Z</time>
</trkpt>
<trkpt lat="31.8192900" lon="35.0001800">
<ele>285.648804</ele>
<time>2011-02-26T10:00:40.000Z</time>
</trkpt>
<trkpt lat="31.8192800" lon="35.0000600">
<ele>285.648804</ele>
<time>2011-02-26T10:00:42.000Z</time>
</trkpt>
<trkpt lat="31.8192600" lon="34.9999600">
<ele>283.245605</ele>
<time>2011-02-26T10:00:44.000Z</time>
</trkpt>
<trkpt lat="31.8192300" lon="34.9998400">
<ele>281.803589</ele>
<time>2011-02-26T10:00:46.000Z</time>
</trkpt>
<trkpt lat="31.8192000" lon="34.9997200">
<ele>280.361694</ele>
<time>2011-02-26T10:00:48.000Z</time>
</trkpt>
<trkpt lat="31.8191700" lon="34.9995900">
<ele>279.400269</ele>
<time>2011-02-26T10:00:50.000Z</time>
</trkpt>
<trkpt lat="31.8191700" lon="34.9994500">
<ele>278.919678</ele>
<time>2011-02-26T10:00:52.000Z</time>
</trkpt>
<trkpt lat="31.8191800" lon="34.9991500">
<ele>276.516357</ele>
<time>2011-02-26T10:00:56.000Z</time>
</trkpt>
<trkpt lat="31.8192000" lon="34.9990000">
<ele>276.516357</ele>
<time>2011-02-26T10:00:58.000Z</time>
</trkpt>
<trkpt lat="31.8192400" lon="34.9988600">
<ele>276.035645</ele>
<time>2011-02-26T10:01:00.000Z</time>
</trkpt>
<trkpt lat="31.8193100" lon="34.9987400">
<ele>274.593750</ele>
<time>2011-02-26T10:01:02.000Z</time>
</trkpt>
<trkpt lat="31.8193700" lon="34.9986200">
<ele>273.632446</ele>
<time>2011-02-26T10:01:04.000Z</time>
</trkpt>
<trkpt lat="31.8193500" lon="34.9985000">
<ele>272.671143</ele>
<time>2011-02-26T10:01:07.000Z</time>
</trkpt>
<trkpt lat="31.8191900" lon="34.9983900">
<ele>270.267700</ele>
<time>2011-02-26T10:01:11.000Z</time>
</trkpt>
<trkpt lat="31.8190900" lon="34.9984300">
<ele>269.787109</ele>
<time>2011-02-26T10:01:13.000Z</time>
</trkpt>
<trkpt lat="31.8189900" lon="34.9985100">
<ele>268.825806</ele>
<time>2011-02-26T10:01:15.000Z</time>
</trkpt>
<trkpt lat="31.8189100" lon="34.9986400">
<ele>268.345093</ele>
<time>2011-02-26T10:01:17.000Z</time>
</trkpt>
<trkpt lat="31.8188600" lon="34.9987600">
<ele>267.864502</ele>
<time>2011-02-26T10:01:19.000Z</time>
</trkpt>
<trkpt lat="31.8187900" lon="34.9988800">
<ele>267.383911</ele>
<time>2011-02-26T10:01:21.000Z</time>
</trkpt>
<trkpt lat="31.8187200" lon="34.9989900">
<ele>264.980591</ele>
<time>2011-02-26T10:01:23.000Z</time>
</trkpt>
<trkpt lat="31.8186500" lon="34.9990900">
<ele>263.538574</ele>
<time>2011-02-26T10:01:25.000Z</time>
</trkpt>
<trkpt lat="31.8185700" lon="34.9990900">
<ele>263.057861</ele>
<time>2011-02-26T10:01:28.000Z</time>
</trkpt>
<trkpt lat="31.8185000" lon="34.9989900">
<ele>261.135254</ele>
<time>2011-02-26T10:01:31.000Z</time>
</trkpt>
<trkpt lat="31.8184600" lon="34.9988800">
<ele>261.615967</ele>
<time>2011-02-26T10:01:33.000Z</time>
</trkpt>
<trkpt lat="31.8184300" lon="34.9987700">
<ele>258.731934</ele>
<time>2011-02-26T10:01:35.000Z</time>
</trkpt>
<trkpt lat="31.8184000" lon="34.9986400">
<ele>258.251343</ele>
<time>2011-02-26T10:01:37.000Z</time>
</trkpt>
<trkpt lat="31.8184000" lon="34.9985100">
<ele>255.848022</ele>
<time>2011-02-26T10:01:39.000Z</time>
</trkpt>
<trkpt lat="31.8184000" lon="34.9983700">
<ele>254.886597</ele>
<time>2011-02-26T10:01:41.000Z</time>
</trkpt>
<trkpt lat="31.8184100" lon="34.9982200">
<ele>257.770752</ele>
<time>2011-02-26T10:01:43.000Z</time>
</trkpt>
<trkpt lat="31.8184400" lon="34.9980500">
<ele>254.886597</ele>
<time>2011-02-26T10:01:45.000Z</time>
</trkpt>
<trkpt lat="31.8184900" lon="34.9978900">
<ele>251.522095</ele>
<time>2011-02-26T10:01:47.000Z</time>
</trkpt>
<trkpt lat="31.8185700" lon="34.9977200">
<ele>250.560806</ele>
<time>2011-02-26T10:01:49.000Z</time>
</trkpt>
<trkpt lat="31.8186700" lon="34.9975600">
<ele>246.715454</ele>
<time>2011-02-26T10:01:51.000Z</time>
</trkpt>
<trkpt lat="31.8187300" lon="34.9974800">
<ele>247.676758</ele>
<time>2011-02-26T10:01:52.000Z</time>
</trkpt>
<trkpt lat="31.8188300" lon="34.9973200">
<ele>247.676758</ele>
<time>2011-02-26T10:01:54.000Z</time>
</trkpt>
<trkpt lat="31.8189400" lon="34.9971600">
<ele>244.792847</ele>
<time>2011-02-26T10:01:56.000Z</time>
</trkpt>
<trkpt lat="31.8190400" lon="34.9970000">
<ele>244.312256</ele>
<time>2011-02-26T10:01:58.000Z</time>
</trkpt>
<trkpt lat="31.8191000" lon="34.9968700">
<ele>244.792847</ele>
<time>2011-02-26T10:02:00.000Z</time>
</trkpt>
<trkpt lat="31.8191400" lon="34.9967400">
<ele>243.831543</ele>
<time>2011-02-26T10:02:02.000Z</time>
</trkpt>
<trkpt lat="31.8191500" lon="34.9965900">
<ele>242.389648</ele>
<time>2011-02-26T10:02:04.000Z</time>
</trkpt>
<trkpt lat="31.8191300" lon="34.9964500">
<ele>240.467041</ele>
<time>2011-02-26T10:02:06.000Z</time>
</trkpt>
<trkpt lat="31.8191000" lon="34.9963000">
<ele>238.063583</ele>
<time>2011-02-26T10:02:08.000Z</time>
</trkpt>
<trkpt lat="31.8189000" lon="34.9958600">
<ele>234.699081</ele>
<time>2011-02-26T10:02:14.000Z</time>
</trkpt>
<trkpt lat="31.8188400" lon="34.9957200">
<ele>237.582901</ele>
<time>2011-02-26T10:02:16.000Z</time>
</trkpt>
<trkpt lat="31.8187900" lon="34.9956000">
<ele>239.986206</ele>
<time>2011-02-26T10:02:19.000Z</time>
</trkpt>
<trkpt lat="31.8187500" lon="34.9955000">
<ele>240.947632</ele>
<time>2011-02-26T10:02:23.000Z</time>
</trkpt>
<trkpt lat="31.8187300" lon="34.9954100">
<ele>241.908936</ele>
<time>2011-02-26T10:02:28.000Z</time>
</trkpt>
<trkpt lat="31.8187500" lon="34.9953200">
<ele>243.831543</ele>
<time>2011-02-26T10:02:34.000Z</time>
</trkpt>
<trkpt lat="31.8187800" lon="34.9952100">
<ele>246.234863</ele>
<time>2011-02-26T10:02:41.000Z</time>
</trkpt>
<trkpt lat="31.8188200" lon="34.9951100">
<ele>247.676758</ele>
<time>2011-02-26T10:02:47.000Z</time>
</trkpt>
<trkpt lat="31.8188600" lon="34.9950100">
<ele>248.638184</ele>
<time>2011-02-26T10:02:54.000Z</time>
</trkpt>
<trkpt lat="31.8188900" lon="34.9949100">
<ele>250.080200</ele>
<time>2011-02-26T10:03:00.000Z</time>
</trkpt>
<trkpt lat="31.8188900" lon="34.9948000">
<ele>251.041382</ele>
<time>2011-02-26T10:03:06.000Z</time>
</trkpt>
<trkpt lat="31.8188200" lon="34.9947200">
<ele>254.405991</ele>
<time>2011-02-26T10:03:13.000Z</time>
</trkpt>
<trkpt lat="31.8187300" lon="34.9946400">
<ele>255.367310</ele>
<time>2011-02-26T10:03:22.000Z</time>
</trkpt>
<trkpt lat="31.8186400" lon="34.9946000">
<ele>256.328735</ele>
<time>2011-02-26T10:03:30.000Z</time>
</trkpt>
<trkpt lat="31.8185400" lon="34.9945700">
<ele>256.809326</ele>
<time>2011-02-26T10:03:36.000Z</time>
</trkpt>
<trkpt lat="31.8184400" lon="34.9945400">
<ele>256.809326</ele>
<time>2011-02-26T10:03:44.000Z</time>
</trkpt>
<trkpt lat="31.8183300" lon="34.9945200">
<ele>257.770752</ele>
<time>2011-02-26T10:03:50.000Z</time>
</trkpt>
<trkpt lat="31.8182200" lon="34.9945000">
<ele>260.173950</ele>
<time>2011-02-26T10:03:56.000Z</time>
</trkpt>
<trkpt lat="31.8181100" lon="34.9944800">
<ele>261.615967</ele>
<time>2011-02-26T10:04:02.000Z</time>
</trkpt>
<trkpt lat="31.8180200" lon="34.9944600">
<ele>261.135254</ele>
<time>2011-02-26T10:04:08.000Z</time>
</trkpt>
<trkpt lat="31.8179100" lon="34.9944300">
<ele>261.615967</ele>
<time>2011-02-26T10:04:15.000Z</time>
</trkpt>
<trkpt lat="31.8178100" lon="34.9944100">
<ele>263.057861</ele>
<time>2011-02-26T10:04:21.000Z</time>
</trkpt>
<trkpt lat="31.8177100" lon="34.9943900">
<ele>263.538574</ele>
<time>2011-02-26T10:04:27.000Z</time>
</trkpt>
<trkpt lat="31.8176100" lon="34.9943700">
<ele>264.019287</ele>
<time>2011-02-26T10:04:33.000Z</time>
</trkpt>
<trkpt lat="31.8175100" lon="34.9943600">
<ele>264.499878</ele>
<time>2011-02-26T10:04:39.000Z</time>
</trkpt>
<trkpt lat="31.8174100" lon="34.9943500">
<ele>264.980591</ele>
<time>2011-02-26T10:04:45.000Z</time>
</trkpt>
<trkpt lat="31.8173100" lon="34.9943000">
<ele>264.980591</ele>
<time>2011-02-26T10:04:52.000Z</time>
</trkpt>
<trkpt lat="31.8172500" lon="34.9942300">
<ele>264.980591</ele>
<time>2011-02-26T10:04:58.000Z</time>
</trkpt>
<trkpt lat="31.8171900" lon="34.9941300">
<ele>265.941895</ele>
<time>2011-02-26T10:05:05.000Z</time>
</trkpt>
<trkpt lat="31.8171400" lon="34.9940200">
<ele>267.383911</ele>
<time>2011-02-26T10:05:12.000Z</time>
</trkpt>
<trkpt lat="31.8170900" lon="34.9939200">
<ele>267.864502</ele>
<time>2011-02-26T10:05:18.000Z</time>
</trkpt>
<trkpt lat="31.8170600" lon="34.9938200">
<ele>268.825806</ele>
<time>2011-02-26T10:05:24.000Z</time>
</trkpt>
<trkpt lat="31.8170200" lon="34.9937000">
<ele>269.787109</ele>
<time>2011-02-26T10:05:30.000Z</time>
</trkpt>
<trkpt lat="31.8169900" lon="34.9935900">
<ele>268.825806</ele>
<time>2011-02-26T10:05:36.000Z</time>
</trkpt>
<trkpt lat="31.8169500" lon="34.9934700">
<ele>270.267700</ele>
<time>2011-02-26T10:05:42.000Z</time>
</trkpt>
<trkpt lat="31.8169400" lon="34.9933700">
<ele>270.267700</ele>
<time>2011-02-26T10:05:48.000Z</time>
</trkpt>
<trkpt lat="31.8169200" lon="34.9932600">
<ele>270.748413</ele>
<time>2011-02-26T10:05:55.000Z</time>
</trkpt>
<trkpt lat="31.8168900" lon="34.9931400">
<ele>271.229126</ele>
<time>2011-02-26T10:06:01.000Z</time>
</trkpt>
<trkpt lat="31.8168500" lon="34.9930300">
<ele>271.709717</ele>
<time>2011-02-26T10:06:06.000Z</time>
</trkpt>
<trkpt lat="31.8167900" lon="34.9929300">
<ele>271.229126</ele>
<time>2011-02-26T10:06:11.000Z</time>
</trkpt>
<trkpt lat="31.8167000" lon="34.9928500">
<ele>269.787109</ele>
<time>2011-02-26T10:06:15.000Z</time>
</trkpt>
<trkpt lat="31.8165600" lon="34.9928600">
<ele>267.864502</ele>
<time>2011-02-26T10:06:18.000Z</time>
</trkpt>
<trkpt lat="31.8164700" lon="34.9928800">
<ele>268.345093</ele>
<time>2011-02-26T10:06:20.000Z</time>
</trkpt>
<trkpt lat="31.8163500" lon="34.9929100">
<ele>268.825806</ele>
<time>2011-02-26T10:06:23.000Z</time>
</trkpt>
<trkpt lat="31.8162400" lon="34.9929500">
<ele>269.306519</ele>
<time>2011-02-26T10:06:26.000Z</time>
</trkpt>
<trkpt lat="31.8161400" lon="34.9930200">
<ele>269.787109</ele>
<time>2011-02-26T10:06:30.000Z</time>
</trkpt>
<trkpt lat="31.8160700" lon="34.9930900">
<ele>270.267700</ele>
<time>2011-02-26T10:06:35.000Z</time>
</trkpt>
<trkpt lat="31.8159800" lon="34.9931300">
<ele>272.190430</ele>
<time>2011-02-26T10:06:40.000Z</time>
</trkpt>
<trkpt lat="31.8159000" lon="34.9931100">
<ele>273.151855</ele>
<time>2011-02-26T10:06:45.000Z</time>
</trkpt>
<trkpt lat="31.8158400" lon="34.9930200">
<ele>274.593750</ele>
<time>2011-02-26T10:06:52.000Z</time>
</trkpt>
<trkpt lat="31.8159100" lon="34.9927800">
<ele>276.516357</ele>
<time>2011-02-26T10:07:07.000Z</time>
</trkpt>
<trkpt lat="31.8160000" lon="34.9926800">
<ele>277.958252</ele>
<time>2011-02-26T10:07:15.000Z</time>
</trkpt>
<trkpt lat="31.8160400" lon="34.9925700">
<ele>278.919678</ele>
<time>2011-02-26T10:07:22.000Z</time>
</trkpt>
<trkpt lat="31.8161200" lon="34.9924800">
<ele>279.400269</ele>
<time>2011-02-26T10:07:29.000Z</time>
</trkpt>
<trkpt lat="31.8161800" lon="34.9923800">
<ele>280.842407</ele>
<time>2011-02-26T10:07:36.000Z</time>
</trkpt>
<trkpt lat="31.8162600" lon="34.9922900">
<ele>282.284302</ele>
<time>2011-02-26T10:07:43.000Z</time>
</trkpt>
<trkpt lat="31.8163400" lon="34.9921800">
<ele>282.284302</ele>
<time>2011-02-26T10:07:51.000Z</time>
</trkpt>
<trkpt lat="31.8163800" lon="34.9920700">
<ele>283.726196</ele>
<time>2011-02-26T10:07:58.000Z</time>
</trkpt>
<trkpt lat="31.8164300" lon="34.9919700">
<ele>283.726196</ele>
<time>2011-02-26T10:08:04.000Z</time>
</trkpt>
<trkpt lat="31.8164800" lon="34.9918600">
<ele>283.726196</ele>
<time>2011-02-26T10:08:12.000Z</time>
</trkpt>
<trkpt lat="31.8165300" lon="34.9917600">
<ele>284.206909</ele>
<time>2011-02-26T10:08:20.000Z</time>
</trkpt>
<trkpt lat="31.8165600" lon="34.9916500">
<ele>285.168213</ele>
<time>2011-02-26T10:08:28.000Z</time>
</trkpt>
<trkpt lat="31.8165800" lon="34.9915300">
<ele>286.610229</ele>
<time>2011-02-26T10:08:35.000Z</time>
</trkpt>
<trkpt lat="31.8165700" lon="34.9914100">
<ele>287.571411</ele>
<time>2011-02-26T10:08:42.000Z</time>
</trkpt>
<trkpt lat="31.8165900" lon="34.9913000">
<ele>288.532959</ele>
<time>2011-02-26T10:08:50.000Z</time>
</trkpt>
<trkpt lat="31.8166000" lon="34.9911900">
<ele>289.494141</ele>
<time>2011-02-26T10:08:57.000Z</time>
</trkpt>
<trkpt lat="31.8166700" lon="34.9910700">
<ele>290.455566</ele>
<time>2011-02-26T10:09:04.000Z</time>
</trkpt>
<trkpt lat="31.8167700" lon="34.9910400">
<ele>290.936157</ele>
<time>2011-02-26T10:09:11.000Z</time>
</trkpt>
<trkpt lat="31.8168700" lon="34.9910600">
<ele>290.455566</ele>
<time>2011-02-26T10:09:17.000Z</time>
</trkpt>
<trkpt lat="31.8169700" lon="34.9911200">
<ele>290.936157</ele>
<time>2011-02-26T10:09:23.000Z</time>
</trkpt>
<trkpt lat="31.8170500" lon="34.9912000">
<ele>291.416748</ele>
<time>2011-02-26T10:09:31.000Z</time>
</trkpt>
<trkpt lat="31.8171200" lon="34.9912800">
<ele>291.897461</ele>
<time>2011-02-26T10:09:38.000Z</time>
</trkpt>
<trkpt lat="31.8171900" lon="34.9913600">
<ele>292.858765</ele>
<time>2011-02-26T10:09:45.000Z</time>
</trkpt>
<trkpt lat="31.8172700" lon="34.9914500">
<ele>293.820068</ele>
<time>2011-02-26T10:09:53.000Z</time>
</trkpt>
<trkpt lat="31.8173400" lon="34.9915400">
<ele>294.781372</ele>
<time>2011-02-26T10:10:01.000Z</time>
</trkpt>
<trkpt lat="31.8174100" lon="34.9916400">
<ele>294.781372</ele>
<time>2011-02-26T10:10:09.000Z</time>
</trkpt>
<trkpt lat="31.8174700" lon="34.9917400">
<ele>297.184692</ele>
<time>2011-02-26T10:10:16.000Z</time>
</trkpt>
<trkpt lat="31.8175400" lon="34.9918200">
<ele>298.146118</ele>
<time>2011-02-26T10:10:23.000Z</time>
</trkpt>
<trkpt lat="31.8176200" lon="34.9919000">
<ele>299.588013</ele>
<time>2011-02-26T10:10:31.000Z</time>
</trkpt>
<trkpt lat="31.8176900" lon="34.9919800">
<ele>301.510620</ele>
<time>2011-02-26T10:10:40.000Z</time>
</trkpt>
<trkpt lat="31.8178800" lon="34.9920900">
<ele>302.952515</ele>
<time>2011-02-26T10:10:57.000Z</time>
</trkpt>
<trkpt lat="31.8179800" lon="34.9921100">
<ele>302.471924</ele>
<time>2011-02-26T10:11:05.000Z</time>
</trkpt>
<trkpt lat="31.8180700" lon="34.9920900">
<ele>303.433228</ele>
<time>2011-02-26T10:11:12.000Z</time>
</trkpt>
<trkpt lat="31.8181600" lon="34.9920100">
<ele>303.913940</ele>
<time>2011-02-26T10:11:19.000Z</time>
</trkpt>
<trkpt lat="31.8181700" lon="34.9919000">
<ele>303.433228</ele>
<time>2011-02-26T10:11:25.000Z</time>
</trkpt>
<trkpt lat="31.8181600" lon="34.9917600">
<ele>304.875244</ele>
<time>2011-02-26T10:11:31.000Z</time>
</trkpt>
<trkpt lat="31.8181100" lon="34.9916500">
<ele>305.355957</ele>
<time>2011-02-26T10:11:38.000Z</time>
</trkpt>
<trkpt lat="31.8180600" lon="34.9915600">
<ele>304.875244</ele>
<time>2011-02-26T10:11:44.000Z</time>
</trkpt>
<trkpt lat="31.8180000" lon="34.9914600">
<ele>306.317261</ele>
<time>2011-02-26T10:11:50.000Z</time>
</trkpt>
<trkpt lat="31.8179400" lon="34.9913600">
<ele>306.797852</ele>
<time>2011-02-26T10:11:57.000Z</time>
</trkpt>
<trkpt lat="31.8178900" lon="34.9912500">
<ele>306.797852</ele>
<time>2011-02-26T10:12:04.000Z</time>
</trkpt>
<trkpt lat="31.8178600" lon="34.9911400">
<ele>306.317261</ele>
<time>2011-02-26T10:12:10.000Z</time>
</trkpt>
<trkpt lat="31.8178100" lon="34.9910300">
<ele>307.759277</ele>
<time>2011-02-26T10:12:17.000Z</time>
</trkpt>
<trkpt lat="31.8177600" lon="34.9909200">
<ele>308.239868</ele>
<time>2011-02-26T10:12:25.000Z</time>
</trkpt>
<trkpt lat="31.8177200" lon="34.9907800">
<ele>307.278564</ele>
<time>2011-02-26T10:12:33.000Z</time>
</trkpt>
<trkpt lat="31.8176600" lon="34.9906800">
<ele>308.239868</ele>
<time>2011-02-26T10:12:39.000Z</time>
</trkpt>
<trkpt lat="31.8176000" lon="34.9905800">
<ele>310.162476</ele>
<time>2011-02-26T10:12:46.000Z</time>
</trkpt>
<trkpt lat="31.8175600" lon="34.9904800">
<ele>310.643066</ele>
<time>2011-02-26T10:12:52.000Z</time>
</trkpt>
<trkpt lat="31.8175200" lon="34.9903700">
<ele>311.123779</ele>
<time>2011-02-26T10:12:58.000Z</time>
</trkpt>
<trkpt lat="31.8174600" lon="34.9902800">
<ele>311.604492</ele>
<time>2011-02-26T10:13:04.000Z</time>
</trkpt>
<trkpt lat="31.8174100" lon="34.9901700">
<ele>312.085205</ele>
<time>2011-02-26T10:13:10.000Z</time>
</trkpt>
<trkpt lat="31.8173900" lon="34.9900700">
<ele>312.565826</ele>
<time>2011-02-26T10:13:16.000Z</time>
</trkpt>
<trkpt lat="31.8174000" lon="34.9899700">
<ele>314.007813</ele>
<time>2011-02-26T10:13:22.000Z</time>
</trkpt>
<trkpt lat="31.8174200" lon="34.9898600">
<ele>314.007813</ele>
<time>2011-02-26T10:13:28.000Z</time>
</trkpt>
<trkpt lat="31.8174500" lon="34.9897400">
<ele>314.007813</ele>
<time>2011-02-26T10:13:34.000Z</time>
</trkpt>
<trkpt lat="31.8174900" lon="34.9896300">
<ele>313.527222</ele>
<time>2011-02-26T10:13:39.000Z</time>
</trkpt>
<trkpt lat="31.8174900" lon="34.9895100">
<ele>313.046478</ele>
<time>2011-02-26T10:13:44.000Z</time>
</trkpt>
<trkpt lat="31.8174900" lon="34.9894100">
<ele>312.565826</ele>
<time>2011-02-26T10:13:48.000Z</time>
</trkpt>
<trkpt lat="31.8174400" lon="34.9893000">
<ele>312.085205</ele>
<time>2011-02-26T10:13:52.000Z</time>
</trkpt>
<trkpt lat="31.8174100" lon="34.9891900">
<ele>314.007813</ele>
<time>2011-02-26T10:13:58.000Z</time>
</trkpt>
<trkpt lat="31.8173500" lon="34.9891000">
<ele>312.565826</ele>
<time>2011-02-26T10:14:04.000Z</time>
</trkpt>
<trkpt lat="31.8173000" lon="34.9890100">
<ele>314.969116</ele>
<time>2011-02-26T10:14:09.000Z</time>
</trkpt>
<trkpt lat="31.8172400" lon="34.9889300">
<ele>317.853058</ele>
<time>2011-02-26T10:14:14.000Z</time>
</trkpt>
<trkpt lat="31.8171500" lon="34.9888600">
<ele>318.333618</ele>
<time>2011-02-26T10:14:20.000Z</time>
</trkpt>
<trkpt lat="31.8170600" lon="34.9887900">
<ele>318.333618</ele>
<time>2011-02-26T10:14:26.000Z</time>
</trkpt>
<trkpt lat="31.8169700" lon="34.9887500">
<ele>318.814331</ele>
<time>2011-02-26T10:14:32.000Z</time>
</trkpt>
<trkpt lat="31.8168800" lon="34.9887000">
<ele>316.411011</ele>
<time>2011-02-26T10:14:37.000Z</time>
</trkpt>
<trkpt lat="31.8167800" lon="34.9886500">
<ele>315.930420</ele>
<time>2011-02-26T10:14:41.000Z</time>
</trkpt>
<trkpt lat="31.8166700" lon="34.9885900">
<ele>319.775635</ele>
<time>2011-02-26T10:14:45.000Z</time>
</trkpt>
<trkpt lat="31.8165600" lon="34.9885500">
<ele>317.372437</ele>
<time>2011-02-26T10:14:48.000Z</time>
</trkpt>
<trkpt lat="31.8164500" lon="34.9884900">
<ele>316.411011</ele>
<time>2011-02-26T10:14:51.000Z</time>
</trkpt>
<trkpt lat="31.8163700" lon="34.9884300">
<ele>315.930420</ele>
<time>2011-02-26T10:14:53.000Z</time>
</trkpt>
<trkpt lat="31.8162500" lon="34.9883500">
<ele>314.969116</ele>
<time>2011-02-26T10:14:56.000Z</time>
</trkpt>
<trkpt lat="31.8161300" lon="34.9882600">
<ele>315.449829</ele>
<time>2011-02-26T10:14:59.000Z</time>
</trkpt>
<trkpt lat="31.8160700" lon="34.9881800">
<ele>316.891724</ele>
<time>2011-02-26T10:15:02.000Z</time>
</trkpt>
<trkpt lat="31.8160000" lon="34.9881000">
<ele>316.891724</ele>
<time>2011-02-26T10:15:05.000Z</time>
</trkpt>
<trkpt lat="31.8159400" lon="34.9879900">
<ele>316.891724</ele>
<time>2011-02-26T10:15:08.000Z</time>
</trkpt>
<trkpt lat="31.8159300" lon="34.9878800">
<ele>317.372437</ele>
<time>2011-02-26T10:15:11.000Z</time>
</trkpt>
<trkpt lat="31.8159300" lon="34.9877800">
<ele>317.372437</ele>
<time>2011-02-26T10:15:14.000Z</time>
</trkpt>
<trkpt lat="31.8159300" lon="34.9876600">
<ele>317.372437</ele>
<time>2011-02-26T10:15:17.000Z</time>
</trkpt>
<trkpt lat="31.8159300" lon="34.9875400">
<ele>317.372437</ele>
<time>2011-02-26T10:15:20.000Z</time>
</trkpt>
<trkpt lat="31.8159400" lon="34.9874200">
<ele>317.372437</ele>
<time>2011-02-26T10:15:23.000Z</time>
</trkpt>
<trkpt lat="31.8159400" lon="34.9873100">
<ele>318.333618</ele>
<time>2011-02-26T10:15:26.000Z</time>
</trkpt>
<trkpt lat="31.8159500" lon="34.9871700">
<ele>318.333618</ele>
<time>2011-02-26T10:15:30.000Z</time>
</trkpt>
<trkpt lat="31.8159900" lon="34.9868900">
<ele>318.333618</ele>
<time>2011-02-26T10:15:38.000Z</time>
</trkpt>
<trkpt lat="31.8160100" lon="34.9867600">
<ele>319.775635</ele>
<time>2011-02-26T10:15:42.000Z</time>
</trkpt>
<trkpt lat="31.8160300" lon="34.9866200">
<ele>319.295044</ele>
<time>2011-02-26T10:15:46.000Z</time>
</trkpt>
<trkpt lat="31.8160400" lon="34.9864900">
<ele>318.333618</ele>
<time>2011-02-26T10:15:50.000Z</time>
</trkpt>
<trkpt lat="31.8160500" lon="34.9863700">
<ele>318.333618</ele>
<time>2011-02-26T10:15:53.000Z</time>
</trkpt>
<trkpt lat="31.8160600" lon="34.9862500">
<ele>319.295044</ele>
<time>2011-02-26T10:15:56.000Z</time>
</trkpt>
<trkpt lat="31.8160700" lon="34.9861200">
<ele>318.814331</ele>
<time>2011-02-26T10:15:59.000Z</time>
</trkpt>
<trkpt lat="31.8160900" lon="34.9860000">
<ele>316.891724</ele>
<time>2011-02-26T10:16:02.000Z</time>
</trkpt>
<trkpt lat="31.8161000" lon="34.9858700">
<ele>316.891724</ele>
<time>2011-02-26T10:16:05.000Z</time>
</trkpt>
<trkpt lat="31.8161000" lon="34.9857300">
<ele>316.891724</ele>
<time>2011-02-26T10:16:08.000Z</time>
</trkpt>
<trkpt lat="31.8161100" lon="34.9855900">
<ele>316.891724</ele>
<time>2011-02-26T10:16:11.000Z</time>
</trkpt>
<trkpt lat="31.8161200" lon="34.9854500">
<ele>316.891724</ele>
<time>2011-02-26T10:16:14.000Z</time>
</trkpt>
<trkpt lat="31.8161300" lon="34.9853100">
<ele>316.891724</ele>
<time>2011-02-26T10:16:17.000Z</time>
</trkpt>
<trkpt lat="31.8161400" lon="34.9851600">
<ele>316.411011</ele>
<time>2011-02-26T10:16:20.000Z</time>
</trkpt>
<trkpt lat="31.8161400" lon="34.9850700">
<ele>315.930420</ele>
<time>2011-02-26T10:16:22.000Z</time>
</trkpt>
<trkpt lat="31.8161300" lon="34.9849200">
<ele>314.488403</ele>
<time>2011-02-26T10:16:26.000Z</time>
</trkpt>
<trkpt lat="31.8161300" lon="34.9847800">
<ele>314.488403</ele>
<time>2011-02-26T10:16:30.000Z</time>
</trkpt>
<trkpt lat="31.8161400" lon="34.9846700">
<ele>315.449829</ele>
<time>2011-02-26T10:16:33.000Z</time>
</trkpt>
<trkpt lat="31.8161400" lon="34.9845400">
<ele>315.930420</ele>
<time>2011-02-26T10:16:37.000Z</time>
</trkpt>
<trkpt lat="31.8161300" lon="34.9844400">
<ele>315.930420</ele>
<time>2011-02-26T10:16:40.000Z</time>
</trkpt>
<trkpt lat="31.8161200" lon="34.9842900">
<ele>315.449829</ele>
<time>2011-02-26T10:16:44.000Z</time>
</trkpt>
<trkpt lat="31.8161200" lon="34.9841900">
<ele>316.891724</ele>
<time>2011-02-26T10:16:47.000Z</time>
</trkpt>
<trkpt lat="31.8161100" lon="34.9840700">
<ele>315.930420</ele>
<time>2011-02-26T10:16:50.000Z</time>
</trkpt>
<trkpt lat="31.8160900" lon="34.9839500">
<ele>316.411011</ele>
<time>2011-02-26T10:16:53.000Z</time>
</trkpt>
<trkpt lat="31.8160800" lon="34.9838500">
<ele>317.853058</ele>
<time>2011-02-26T10:16:57.000Z</time>
</trkpt>
<trkpt lat="31.8160800" lon="34.9837400">
<ele>317.853058</ele>
<time>2011-02-26T10:17:02.000Z</time>
</trkpt>
<trkpt lat="31.8160600" lon="34.9836200">
<ele>318.333618</ele>
<time>2011-02-26T10:17:06.000Z</time>
</trkpt>
<trkpt lat="31.8160500" lon="34.9835000">
<ele>319.775635</ele>
<time>2011-02-26T10:17:10.000Z</time>
</trkpt>
<trkpt lat="31.8160200" lon="34.9833800">
<ele>320.737061</ele>
<time>2011-02-26T10:17:14.000Z</time>
</trkpt>
<trkpt lat="31.8160100" lon="34.9832700">
<ele>321.217773</ele>
<time>2011-02-26T10:17:19.000Z</time>
</trkpt>
<trkpt lat="31.8160000" lon="34.9831600">
<ele>321.217773</ele>
<time>2011-02-26T10:17:24.000Z</time>
</trkpt>
<trkpt lat="31.8159900" lon="34.9830500">
<ele>321.698364</ele>
<time>2011-02-26T10:17:28.000Z</time>
</trkpt>
<trkpt lat="31.8159800" lon="34.9829300">
<ele>319.775635</ele>
<time>2011-02-26T10:17:32.000Z</time>
</trkpt>
<trkpt lat="31.8159600" lon="34.9828100">
<ele>317.853058</ele>
<time>2011-02-26T10:17:35.000Z</time>
</trkpt>
<trkpt lat="31.8159600" lon="34.9827000">
<ele>317.372437</ele>
<time>2011-02-26T10:17:37.000Z</time>
</trkpt>
<trkpt lat="31.8159600" lon="34.9825600">
<ele>315.930420</ele>
<time>2011-02-26T10:17:39.000Z</time>
</trkpt>
<trkpt lat="31.8159700" lon="34.9823900">
<ele>312.565826</ele>
<time>2011-02-26T10:17:41.000Z</time>
</trkpt>
<trkpt lat="31.8160000" lon="34.9822000">
<ele>310.643066</ele>
<time>2011-02-26T10:17:43.000Z</time>
</trkpt>
<trkpt lat="31.8160500" lon="34.9819100">
<ele>308.720459</ele>
<time>2011-02-26T10:17:46.000Z</time>
</trkpt>
<trkpt lat="31.8161000" lon="34.9816800">
<ele>307.278564</ele>
<time>2011-02-26T10:17:48.000Z</time>
</trkpt>
<trkpt lat="31.8161400" lon="34.9814600">
<ele>307.759277</ele>
<time>2011-02-26T10:17:50.000Z</time>
</trkpt>
<trkpt lat="31.8161600" lon="34.9812700">
<ele>308.239868</ele>
<time>2011-02-26T10:17:52.000Z</time>
</trkpt>
<trkpt lat="31.8161600" lon="34.9811200">
<ele>308.720459</ele>
<time>2011-02-26T10:17:54.000Z</time>
</trkpt>
<trkpt lat="31.8161800" lon="34.9810000">
<ele>310.162476</ele>
<time>2011-02-26T10:17:56.000Z</time>
</trkpt>
<trkpt lat="31.8161900" lon="34.9808600">
<ele>311.123779</ele>
<time>2011-02-26T10:17:59.000Z</time>
</trkpt>
<trkpt lat="31.8161900" lon="34.9807300">
<ele>311.123779</ele>
<time>2011-02-26T10:18:02.000Z</time>
</trkpt>
<trkpt lat="31.8161800" lon="34.9806000">
<ele>313.046478</ele>
<time>2011-02-26T10:18:05.000Z</time>
</trkpt>
<trkpt lat="31.8161800" lon="34.9804700">
<ele>313.046478</ele>
<time>2011-02-26T10:18:08.000Z</time>
</trkpt>
<trkpt lat="31.8161700" lon="34.9803600">
<ele>314.488403</ele>
<time>2011-02-26T10:18:11.000Z</time>
</trkpt>
<trkpt lat="31.8161700" lon="34.9802400">
<ele>315.449829</ele>
<time>2011-02-26T10:18:15.000Z</time>
</trkpt>
<trkpt lat="31.8161700" lon="34.9801300">
<ele>316.411011</ele>
<time>2011-02-26T10:18:20.000Z</time>
</trkpt>
<trkpt lat="31.8161800" lon="34.9799900">
<ele>316.411011</ele>
<time>2011-02-26T10:18:26.000Z</time>
</trkpt>
<trkpt lat="31.8161900" lon="34.9798800">
<ele>316.411011</ele>
<time>2011-02-26T10:18:30.000Z</time>
</trkpt>
<trkpt lat="31.8162100" lon="34.9797600">
<ele>316.891724</ele>
<time>2011-02-26T10:18:34.000Z</time>
</trkpt>
<trkpt lat="31.8162300" lon="34.9796400">
<ele>317.372437</ele>
<time>2011-02-26T10:18:39.000Z</time>
</trkpt>
<trkpt lat="31.8162400" lon="34.9795200">
<ele>316.891724</ele>
<time>2011-02-26T10:18:43.000Z</time>
</trkpt>
<trkpt lat="31.8162600" lon="34.9794000">
<ele>317.372437</ele>
<time>2011-02-26T10:18:47.000Z</time>
</trkpt>
<trkpt lat="31.8162900" lon="34.9792900">
<ele>316.891724</ele>
<time>2011-02-26T10:18:51.000Z</time>
</trkpt>
<trkpt lat="31.8163100" lon="34.9791700">
<ele>316.891724</ele>
<time>2011-02-26T10:18:55.000Z</time>
</trkpt>
<trkpt lat="31.8163200" lon="34.9790600">
<ele>315.930420</ele>
<time>2011-02-26T10:18:59.000Z</time>
</trkpt>
<trkpt lat="31.8163400" lon="34.9789100">
<ele>314.969116</ele>
<time>2011-02-26T10:19:03.000Z</time>
</trkpt>
<trkpt lat="31.8163500" lon="34.9787600">
<ele>314.488403</ele>
<time>2011-02-26T10:19:06.000Z</time>
</trkpt>
<trkpt lat="31.8163500" lon="34.9786300">
<ele>313.527222</ele>
<time>2011-02-26T10:19:08.000Z</time>
</trkpt>
<trkpt lat="31.8163300" lon="34.9784600">
<ele>311.123779</ele>
<time>2011-02-26T10:19:11.000Z</time>
</trkpt>
<trkpt lat="31.8163100" lon="34.9783400">
<ele>311.123779</ele>
<time>2011-02-26T10:19:13.000Z</time>
</trkpt>
<trkpt lat="31.8163000" lon="34.9782400">
<ele>309.681885</ele>
<time>2011-02-26T10:19:15.000Z</time>
</trkpt>
<trkpt lat="31.8162700" lon="34.9781100">
<ele>309.201172</ele>
<time>2011-02-26T10:19:18.000Z</time>
</trkpt>
<trkpt lat="31.8162300" lon="34.9779500">
<ele>307.278564</ele>
<time>2011-02-26T10:19:21.000Z</time>
</trkpt>
<trkpt lat="31.8162000" lon="34.9778100">
<ele>307.278564</ele>
<time>2011-02-26T10:19:23.000Z</time>
</trkpt>
<trkpt lat="31.8161700" lon="34.9776600">
<ele>305.355957</ele>
<time>2011-02-26T10:19:25.000Z</time>
</trkpt>
<trkpt lat="31.8161300" lon="34.9775000">
<ele>301.991333</ele>
<time>2011-02-26T10:19:27.000Z</time>
</trkpt>
<trkpt lat="31.8161200" lon="34.9774200">
<ele>301.029907</ele>
<time>2011-02-26T10:19:28.000Z</time>
</trkpt>
<trkpt lat="31.8160700" lon="34.9772500">
<ele>300.068726</ele>
<time>2011-02-26T10:19:30.000Z</time>
</trkpt>
<trkpt lat="31.8160200" lon="34.9770800">
<ele>299.588013</ele>
<time>2011-02-26T10:19:32.000Z</time>
</trkpt>
<trkpt lat="31.8159800" lon="34.9769200">
<ele>299.588013</ele>
<time>2011-02-26T10:19:34.000Z</time>
</trkpt>
<trkpt lat="31.8160000" lon="34.9767600">
<ele>295.742676</ele>
<time>2011-02-26T10:19:36.000Z</time>
</trkpt>
<trkpt lat="31.8160900" lon="34.9766000">
<ele>295.261963</ele>
<time>2011-02-26T10:19:38.000Z</time>
</trkpt>
<trkpt lat="31.8161500" lon="34.9765100">
<ele>293.820068</ele>
<time>2011-02-26T10:19:40.000Z</time>
</trkpt>
<trkpt lat="31.8162200" lon="34.9763800">
<ele>294.300781</ele>
<time>2011-02-26T10:19:43.000Z</time>
</trkpt>
<trkpt lat="31.8163000" lon="34.9762700">
<ele>291.897461</ele>
<time>2011-02-26T10:19:45.000Z</time>
</trkpt>
<trkpt lat="31.8163900" lon="34.9761200">
<ele>288.532959</ele>
<time>2011-02-26T10:19:47.000Z</time>
</trkpt>
<trkpt lat="31.8164400" lon="34.9760500">
<ele>287.571411</ele>
<time>2011-02-26T10:19:48.000Z</time>
</trkpt>
<trkpt lat="31.8164900" lon="34.9759700">
<ele>286.610229</ele>
<time>2011-02-26T10:19:49.000Z</time>
</trkpt>
<trkpt lat="31.8166000" lon="34.9758100">
<ele>283.726196</ele>
<time>2011-02-26T10:19:51.000Z</time>
</trkpt>
<trkpt lat="31.8166600" lon="34.9757300">
<ele>283.726196</ele>
<time>2011-02-26T10:19:52.000Z</time>
</trkpt>
<trkpt lat="31.8167800" lon="34.9755500">
<ele>280.842407</ele>
<time>2011-02-26T10:19:54.000Z</time>
</trkpt>
<trkpt lat="31.8169000" lon="34.9753800">
<ele>278.438965</ele>
<time>2011-02-26T10:19:56.000Z</time>
</trkpt>
<trkpt lat="31.8169600" lon="34.9752900">
<ele>277.958252</ele>
<time>2011-02-26T10:19:57.000Z</time>
</trkpt>
<trkpt lat="31.8170200" lon="34.9752000">
<ele>277.958252</ele>
<time>2011-02-26T10:19:58.000Z</time>
</trkpt>
<trkpt lat="31.8170700" lon="34.9751200">
<ele>277.958252</ele>
<time>2011-02-26T10:19:59.000Z</time>
</trkpt>
<trkpt lat="31.8171300" lon="34.9750400">
<ele>276.516357</ele>
<time>2011-02-26T10:20:00.000Z</time>
</trkpt>
<trkpt lat="31.8172300" lon="34.9749000">
<ele>273.632446</ele>
<time>2011-02-26T10:20:02.000Z</time>
</trkpt>
<trkpt lat="31.8173300" lon="34.9747800">
<ele>272.190430</ele>
<time>2011-02-26T10:20:04.000Z</time>
</trkpt>
<trkpt lat="31.8174300" lon="34.9746600">
<ele>270.748413</ele>
<time>2011-02-26T10:20:06.000Z</time>
</trkpt>
<trkpt lat="31.8175100" lon="34.9745600">
<ele>268.825806</ele>
<time>2011-02-26T10:20:08.000Z</time>
</trkpt>
<trkpt lat="31.8175700" lon="34.9744800">
<ele>267.864502</ele>
<time>2011-02-26T10:20:10.000Z</time>
</trkpt>
<trkpt lat="31.8176600" lon="34.9743600">
<ele>266.903198</ele>
<time>2011-02-26T10:20:13.000Z</time>
</trkpt>
<trkpt lat="31.8176800" lon="34.9742600">
<ele>267.383911</ele>
<time>2011-02-26T10:20:15.000Z</time>
</trkpt>
<trkpt lat="31.8176600" lon="34.9741700">
<ele>265.461304</ele>
<time>2011-02-26T10:20:17.000Z</time>
</trkpt>
<trkpt lat="31.8176100" lon="34.9740600">
<ele>264.499878</ele>
<time>2011-02-26T10:20:20.000Z</time>
</trkpt>
<trkpt lat="31.8175400" lon="34.9739800">
<ele>263.538574</ele>
<time>2011-02-26T10:20:23.000Z</time>
</trkpt>
<trkpt lat="31.8174500" lon="34.9739300">
<ele>264.019287</ele>
<time>2011-02-26T10:20:26.000Z</time>
</trkpt>
<trkpt lat="31.8173600" lon="34.9739200">
<ele>264.980591</ele>
<time>2011-02-26T10:20:29.000Z</time>
</trkpt>
<trkpt lat="31.8172800" lon="34.9739400">
<ele>264.980591</ele>
<time>2011-02-26T10:20:32.000Z</time>
</trkpt>
<trkpt lat="31.8172000" lon="34.9740400">
<ele>264.980591</ele>
<time>2011-02-26T10:20:36.000Z</time>
</trkpt>
<trkpt lat="31.8171200" lon="34.9741400">
<ele>264.980591</ele>
<time>2011-02-26T10:20:40.000Z</time>
</trkpt>
<trkpt lat="31.8170500" lon="34.9742500">
<ele>264.980591</ele>
<time>2011-02-26T10:20:44.000Z</time>
</trkpt>
<trkpt lat="31.8169700" lon="34.9743000">
<ele>264.019287</ele>
<time>2011-02-26T10:20:47.000Z</time>
</trkpt>
<trkpt lat="31.8168600" lon="34.9742800">
<ele>261.135254</ele>
<time>2011-02-26T10:20:50.000Z</time>
</trkpt>
<trkpt lat="31.8167500" lon="34.9741800">
<ele>260.173950</ele>
<time>2011-02-26T10:20:53.000Z</time>
</trkpt>
<trkpt lat="31.8167000" lon="34.9740600">
<ele>259.212646</ele>
<time>2011-02-26T10:20:55.000Z</time>
</trkpt>
<trkpt lat="31.8166900" lon="34.9739100">
<ele>258.731934</ele>
<time>2011-02-26T10:20:57.000Z</time>
</trkpt>
<trkpt lat="31.8166900" lon="34.9737400">
<ele>258.731934</ele>
<time>2011-02-26T10:20:59.000Z</time>
</trkpt>
<trkpt lat="31.8167100" lon="34.9735400">
<ele>255.848022</ele>
<time>2011-02-26T10:21:01.000Z</time>
</trkpt>
<trkpt lat="31.8167400" lon="34.9734400">
<ele>253.925415</ele>
<time>2011-02-26T10:21:02.000Z</time>
</trkpt>
<trkpt lat="31.8168300" lon="34.9732500">
<ele>252.002808</ele>
<time>2011-02-26T10:21:04.000Z</time>
</trkpt>
<trkpt lat="31.8169500" lon="34.9730800">
<ele>248.638184</ele>
<time>2011-02-26T10:21:06.000Z</time>
</trkpt>
<trkpt lat="31.8170800" lon="34.9729300">
<ele>248.157593</ele>
<time>2011-02-26T10:21:08.000Z</time>
</trkpt>
<trkpt lat="31.8172300" lon="34.9728000">
<ele>247.196030</ele>
<time>2011-02-26T10:21:10.000Z</time>
</trkpt>
<trkpt lat="31.8173200" lon="34.9727400">
<ele>246.234863</ele>
<time>2011-02-26T10:21:11.000Z</time>
</trkpt>
<trkpt lat="31.8174100" lon="34.9727000">
<ele>245.754150</ele>
<time>2011-02-26T10:21:12.000Z</time>
</trkpt>
<trkpt lat="31.8175000" lon="34.9726700">
<ele>246.234863</ele>
<time>2011-02-26T10:21:13.000Z</time>
</trkpt>
<trkpt lat="31.8175900" lon="34.9726500">
<ele>244.792847</ele>
<time>2011-02-26T10:21:14.000Z</time>
</trkpt>
<trkpt lat="31.8176900" lon="34.9726400">
<ele>244.312256</ele>
<time>2011-02-26T10:21:15.000Z</time>
</trkpt>
<trkpt lat="31.8177900" lon="34.9726300">
<ele>243.350845</ele>
<time>2011-02-26T10:21:16.000Z</time>
</trkpt>
<trkpt lat="31.8179000" lon="34.9726300">
<ele>242.389648</ele>
<time>2011-02-26T10:21:17.000Z</time>
</trkpt>
<trkpt lat="31.8180100" lon="34.9726300">
<ele>240.467041</ele>
<time>2011-02-26T10:21:18.000Z</time>
</trkpt>
<trkpt lat="31.8181100" lon="34.9726300">
<ele>239.505493</ele>
<time>2011-02-26T10:21:19.000Z</time>
</trkpt>
<trkpt lat="31.8182300" lon="34.9726300">
<ele>238.544312</ele>
<time>2011-02-26T10:21:20.000Z</time>
</trkpt>
<trkpt lat="31.8184400" lon="34.9726200">
<ele>238.063583</ele>
<time>2011-02-26T10:21:22.000Z</time>
</trkpt>
<trkpt lat="31.8185400" lon="34.9726200">
<ele>238.063583</ele>
<time>2011-02-26T10:21:23.000Z</time>
</trkpt>
<trkpt lat="31.8186300" lon="34.9726100">
<ele>238.063583</ele>
<time>2011-02-26T10:21:24.000Z</time>
</trkpt>
<trkpt lat="31.8187800" lon="34.9725700">
<ele>237.582901</ele>
<time>2011-02-26T10:21:26.000Z</time>
</trkpt>
<trkpt lat="31.8188500" lon="34.9725300">
<ele>236.621704</ele>
<time>2011-02-26T10:21:27.000Z</time>
</trkpt>
<trkpt lat="31.8189100" lon="34.9724800">
<ele>236.140991</ele>
<time>2011-02-26T10:21:28.000Z</time>
</trkpt>
<trkpt lat="31.8190100" lon="34.9723300">
<ele>234.699081</ele>
<time>2011-02-26T10:21:30.000Z</time>
</trkpt>
<trkpt lat="31.8190600" lon="34.9721500">
<ele>231.814941</ele>
<time>2011-02-26T10:21:32.000Z</time>
</trkpt>
<trkpt lat="31.8190900" lon="34.9719500">
<ele>228.931168</ele>
<time>2011-02-26T10:21:34.000Z</time>
</trkpt>
<trkpt lat="31.8191000" lon="34.9717400">
<ele>226.047119</ele>
<time>2011-02-26T10:21:36.000Z</time>
</trkpt>
<trkpt lat="31.8191200" lon="34.9715300">
<ele>225.566528</ele>
<time>2011-02-26T10:21:38.000Z</time>
</trkpt>
<trkpt lat="31.8191600" lon="34.9713300">
<ele>225.085938</ele>
<time>2011-02-26T10:21:40.000Z</time>
</trkpt>
<trkpt lat="31.8191900" lon="34.9712200">
<ele>224.605225</ele>
<time>2011-02-26T10:21:41.000Z</time>
</trkpt>
<trkpt lat="31.8192800" lon="34.9710200">
<ele>221.721176</ele>
<time>2011-02-26T10:21:43.000Z</time>
</trkpt>
<trkpt lat="31.8193300" lon="34.9709300">
<ele>220.759888</ele>
<time>2011-02-26T10:21:44.000Z</time>
</trkpt>
<trkpt lat="31.8194600" lon="34.9707400">
<ele>218.356567</ele>
<time>2011-02-26T10:21:46.000Z</time>
</trkpt>
<trkpt lat="31.8196000" lon="34.9705600">
<ele>216.914673</ele>
<time>2011-02-26T10:21:48.000Z</time>
</trkpt>
<trkpt lat="31.8196700" lon="34.9704700">
<ele>216.433945</ele>
<time>2011-02-26T10:21:49.000Z</time>
</trkpt>
<trkpt lat="31.8197300" lon="34.9703800">
<ele>215.953262</ele>
<time>2011-02-26T10:21:50.000Z</time>
</trkpt>
<trkpt lat="31.8198000" lon="34.9702900">
<ele>215.953262</ele>
<time>2011-02-26T10:21:51.000Z</time>
</trkpt>
<trkpt lat="31.8198600" lon="34.9702000">
<ele>214.991943</ele>
<time>2011-02-26T10:21:52.000Z</time>
</trkpt>
<trkpt lat="31.8199700" lon="34.9700200">
<ele>214.991943</ele>
<time>2011-02-26T10:21:54.000Z</time>
</trkpt>
<trkpt lat="31.8200700" lon="34.9698500">
<ele>214.511215</ele>
<time>2011-02-26T10:21:56.000Z</time>
</trkpt>
<trkpt lat="31.8201400" lon="34.9696900">
<ele>214.991943</ele>
<time>2011-02-26T10:21:58.000Z</time>
</trkpt>
<trkpt lat="31.8202000" lon="34.9695500">
<ele>215.953262</ele>
<time>2011-02-26T10:22:00.000Z</time>
</trkpt>
<trkpt lat="31.8202600" lon="34.9694200">
<ele>215.472656</ele>
<time>2011-02-26T10:22:02.000Z</time>
</trkpt>
<trkpt lat="31.8203000" lon="34.9693200">
<ele>215.472656</ele>
<time>2011-02-26T10:22:04.000Z</time>
</trkpt>
<trkpt lat="31.8203500" lon="34.9692000">
<ele>216.433945</ele>
<time>2011-02-26T10:22:07.000Z</time>
</trkpt>
<trkpt lat="31.8203900" lon="34.9691000">
<ele>216.914673</ele>
<time>2011-02-26T10:22:10.000Z</time>
</trkpt>
<trkpt lat="31.8204400" lon="34.9690000">
<ele>216.914673</ele>
<time>2011-02-26T10:22:13.000Z</time>
</trkpt>
<trkpt lat="31.8204800" lon="34.9689000">
<ele>215.953262</ele>
<time>2011-02-26T10:22:16.000Z</time>
</trkpt>
<trkpt lat="31.8205200" lon="34.9688100">
<ele>216.914673</ele>
<time>2011-02-26T10:22:19.000Z</time>
</trkpt>
<trkpt lat="31.8205600" lon="34.9687100">
<ele>216.914673</ele>
<time>2011-02-26T10:22:22.000Z</time>
</trkpt>
<trkpt lat="31.8206300" lon="34.9686100">
<ele>218.837280</ele>
<time>2011-02-26T10:22:27.000Z</time>
</trkpt>
<trkpt lat="31.8206900" lon="34.9685300">
<ele>218.356567</ele>
<time>2011-02-26T10:22:32.000Z</time>
</trkpt>
<trkpt lat="31.8207500" lon="34.9684700">
<ele>218.356567</ele>
<time>2011-02-26T10:23:24.000Z</time>
</trkpt>
<trkpt lat="31.8208500" lon="34.9684000">
<ele>221.721176</ele>
<time>2011-02-26T10:23:30.000Z</time>
</trkpt>
<trkpt lat="31.8209400" lon="34.9683200">
<ele>219.317993</ele>
<time>2011-02-26T10:23:34.000Z</time>
</trkpt>
<trkpt lat="31.8210200" lon="34.9682600">
<ele>219.798584</ele>
<time>2011-02-26T10:23:38.000Z</time>
</trkpt>
<trkpt lat="31.8211200" lon="34.9681900">
<ele>219.317993</ele>
<time>2011-02-26T10:23:41.000Z</time>
</trkpt>
<trkpt lat="31.8212200" lon="34.9681200">
<ele>219.317993</ele>
<time>2011-02-26T10:23:44.000Z</time>
</trkpt>
<trkpt lat="31.8213500" lon="34.9680400">
<ele>219.317993</ele>
<time>2011-02-26T10:23:47.000Z</time>
</trkpt>
<trkpt lat="31.8214400" lon="34.9679800">
<ele>219.317993</ele>
<time>2011-02-26T10:23:49.000Z</time>
</trkpt>
<trkpt lat="31.8215500" lon="34.9679200">
<ele>218.837280</ele>
<time>2011-02-26T10:23:51.000Z</time>
</trkpt>
<trkpt lat="31.8216500" lon="34.9678600">
<ele>219.317993</ele>
<time>2011-02-26T10:23:53.000Z</time>
</trkpt>
<trkpt lat="31.8217400" lon="34.9678000">
<ele>219.798584</ele>
<time>2011-02-26T10:23:55.000Z</time>
</trkpt>
<trkpt lat="31.8218300" lon="34.9677500">
<ele>220.279175</ele>
<time>2011-02-26T10:23:57.000Z</time>
</trkpt>
<trkpt lat="31.8219400" lon="34.9676900">
<ele>220.759888</ele>
<time>2011-02-26T10:24:00.000Z</time>
</trkpt>
<trkpt lat="31.8220300" lon="34.9676400">
<ele>220.759888</ele>
<time>2011-02-26T10:24:02.000Z</time>
</trkpt>
<trkpt lat="31.8221200" lon="34.9675900">
<ele>220.759888</ele>
<time>2011-02-26T10:24:04.000Z</time>
</trkpt>
<trkpt lat="31.8222000" lon="34.9675500">
<ele>221.240601</ele>
<time>2011-02-26T10:24:06.000Z</time>
</trkpt>
<trkpt lat="31.8223200" lon="34.9674800">
<ele>221.240601</ele>
<time>2011-02-26T10:24:09.000Z</time>
</trkpt>
<trkpt lat="31.8224100" lon="34.9674300">
<ele>221.240601</ele>
<time>2011-02-26T10:24:11.000Z</time>
</trkpt>
<trkpt lat="31.8224900" lon="34.9673800">
<ele>221.721176</ele>
<time>2011-02-26T10:24:13.000Z</time>
</trkpt>
<trkpt lat="31.8225700" lon="34.9673300">
<ele>221.240601</ele>
<time>2011-02-26T10:24:15.000Z</time>
</trkpt>
<trkpt lat="31.8226800" lon="34.9672600">
<ele>222.201782</ele>
<time>2011-02-26T10:24:18.000Z</time>
</trkpt>
<trkpt lat="31.8227900" lon="34.9671800">
<ele>224.124512</ele>
<time>2011-02-26T10:24:21.000Z</time>
</trkpt>
<trkpt lat="31.8228900" lon="34.9671000">
<ele>223.163208</ele>
<time>2011-02-26T10:24:24.000Z</time>
</trkpt>
<trkpt lat="31.8229700" lon="34.9670300">
<ele>224.605225</ele>
<time>2011-02-26T10:24:27.000Z</time>
</trkpt>
<trkpt lat="31.8230500" lon="34.9669400">
<ele>223.163208</ele>
<time>2011-02-26T10:24:30.000Z</time>
</trkpt>
<trkpt lat="31.8231400" lon="34.9668500">
<ele>223.643799</ele>
<time>2011-02-26T10:24:33.000Z</time>
</trkpt>
<trkpt lat="31.8232000" lon="34.9667700">
<ele>224.124512</ele>
<time>2011-02-26T10:24:36.000Z</time>
</trkpt>
<trkpt lat="31.8232800" lon="34.9666700">
<ele>224.124512</ele>
<time>2011-02-26T10:24:39.000Z</time>
</trkpt>
<trkpt lat="31.8233600" lon="34.9665800">
<ele>223.643799</ele>
<time>2011-02-26T10:24:42.000Z</time>
</trkpt>
<trkpt lat="31.8234400" lon="34.9664800">
<ele>223.643799</ele>
<time>2011-02-26T10:24:45.000Z</time>
</trkpt>
<trkpt lat="31.8235200" lon="34.9663800">
<ele>223.643799</ele>
<time>2011-02-26T10:24:48.000Z</time>
</trkpt>
<trkpt lat="31.8236000" lon="34.9662800">
<ele>223.163208</ele>
<time>2011-02-26T10:24:51.000Z</time>
</trkpt>
<trkpt lat="31.8236700" lon="34.9661700">
<ele>221.721176</ele>
<time>2011-02-26T10:24:54.000Z</time>
</trkpt>
<trkpt lat="31.8237600" lon="34.9660700">
<ele>221.721176</ele>
<time>2011-02-26T10:24:57.000Z</time>
</trkpt>
<trkpt lat="31.8238400" lon="34.9659500">
<ele>220.279175</ele>
<time>2011-02-26T10:25:00.000Z</time>
</trkpt>
<trkpt lat="31.8239000" lon="34.9658700">
<ele>219.798584</ele>
<time>2011-02-26T10:25:02.000Z</time>
</trkpt>
<trkpt lat="31.8239700" lon="34.9657900">
<ele>220.279175</ele>
<time>2011-02-26T10:25:04.000Z</time>
</trkpt>
<trkpt lat="31.8240300" lon="34.9657000">
<ele>219.317993</ele>
<time>2011-02-26T10:25:06.000Z</time>
</trkpt>
<trkpt lat="31.8241000" lon="34.9656100">
<ele>218.837280</ele>
<time>2011-02-26T10:25:08.000Z</time>
</trkpt>
<trkpt lat="31.8241700" lon="34.9655200">
<ele>219.317993</ele>
<time>2011-02-26T10:25:10.000Z</time>
</trkpt>
<trkpt lat="31.8242500" lon="34.9654200">
<ele>218.837280</ele>
<time>2011-02-26T10:25:12.000Z</time>
</trkpt>
<trkpt lat="31.8243300" lon="34.9653200">
<ele>217.875992</ele>
<time>2011-02-26T10:25:14.000Z</time>
</trkpt>
<trkpt lat="31.8244200" lon="34.9652300">
<ele>216.914673</ele>
<time>2011-02-26T10:25:16.000Z</time>
</trkpt>
<trkpt lat="31.8244900" lon="34.9651500">
<ele>215.953262</ele>
<time>2011-02-26T10:25:18.000Z</time>
</trkpt>
<trkpt lat="31.8245700" lon="34.9650600">
<ele>216.914673</ele>
<time>2011-02-26T10:25:21.000Z</time>
</trkpt>
<trkpt lat="31.8246500" lon="34.9650300">
<ele>215.953262</ele>
<time>2011-02-26T10:25:25.000Z</time>
</trkpt>
<trkpt lat="31.8246800" lon="34.9651400">
<ele>215.472656</ele>
<time>2011-02-26T10:25:30.000Z</time>
</trkpt>
<trkpt lat="31.8246500" lon="34.9652800">
<ele>215.472656</ele>
<time>2011-02-26T10:25:35.000Z</time>
</trkpt>
<trkpt lat="31.8246100" lon="34.9654000">
<ele>214.991943</ele>
<time>2011-02-26T10:25:39.000Z</time>
</trkpt>
<trkpt lat="31.8245700" lon="34.9655200">
<ele>215.472656</ele>
<time>2011-02-26T10:25:43.000Z</time>
</trkpt>
<trkpt lat="31.8245300" lon="34.9656300">
<ele>214.511215</ele>
<time>2011-02-26T10:25:47.000Z</time>
</trkpt>
<trkpt lat="31.8244900" lon="34.9657400">
<ele>214.991943</ele>
<time>2011-02-26T10:25:51.000Z</time>
</trkpt>
<trkpt lat="31.8244400" lon="34.9658700">
<ele>215.472656</ele>
<time>2011-02-26T10:25:55.000Z</time>
</trkpt>
<trkpt lat="31.8244000" lon="34.9659800">
<ele>214.991943</ele>
<time>2011-02-26T10:25:58.000Z</time>
</trkpt>
<trkpt lat="31.8243700" lon="34.9660800">
<ele>214.991943</ele>
<time>2011-02-26T10:26:01.000Z</time>
</trkpt>
<trkpt lat="31.8243200" lon="34.9662200">
<ele>215.472656</ele>
<time>2011-02-26T10:26:05.000Z</time>
</trkpt>
<trkpt lat="31.8242800" lon="34.9663400">
<ele>215.472656</ele>
<time>2011-02-26T10:26:09.000Z</time>
</trkpt>
<trkpt lat="31.8242500" lon="34.9664600">
<ele>216.433945</ele>
<time>2011-02-26T10:26:13.000Z</time>
</trkpt>
<trkpt lat="31.8242200" lon="34.9665600">
<ele>216.433945</ele>
<time>2011-02-26T10:26:17.000Z</time>
</trkpt>
<trkpt lat="31.8241900" lon="34.9666700">
<ele>215.953262</ele>
<time>2011-02-26T10:26:21.000Z</time>
</trkpt>
<trkpt lat="31.8241500" lon="34.9667800">
<ele>215.472656</ele>
<time>2011-02-26T10:26:25.000Z</time>
</trkpt>
<trkpt lat="31.8241100" lon="34.9669000">
<ele>214.991943</ele>
<time>2011-02-26T10:26:29.000Z</time>
</trkpt>
<trkpt lat="31.8240600" lon="34.9670200">
<ele>214.991943</ele>
<time>2011-02-26T10:26:33.000Z</time>
</trkpt>
<trkpt lat="31.8240200" lon="34.9671200">
<ele>214.511215</ele>
<time>2011-02-26T10:26:36.000Z</time>
</trkpt>
<trkpt lat="31.8239800" lon="34.9672200">
<ele>214.030640</ele>
<time>2011-02-26T10:26:39.000Z</time>
</trkpt>
<trkpt lat="31.8239300" lon="34.9673100">
<ele>214.511215</ele>
<time>2011-02-26T10:26:42.000Z</time>
</trkpt>
<trkpt lat="31.8238600" lon="34.9674300">
<ele>214.030640</ele>
<time>2011-02-26T10:26:46.000Z</time>
</trkpt>
<trkpt lat="31.8238100" lon="34.9675300">
<ele>213.069336</ele>
<time>2011-02-26T10:26:49.000Z</time>
</trkpt>
<trkpt lat="31.8237600" lon="34.9676300">
<ele>213.069336</ele>
<time>2011-02-26T10:26:52.000Z</time>
</trkpt>
<trkpt lat="31.8237200" lon="34.9677300">
<ele>213.550049</ele>
<time>2011-02-26T10:26:55.000Z</time>
</trkpt>
<trkpt lat="31.8236700" lon="34.9678400">
<ele>213.069336</ele>
<time>2011-02-26T10:26:58.000Z</time>
</trkpt>
<trkpt lat="31.8236200" lon="34.9679400">
<ele>213.069336</ele>
<time>2011-02-26T10:27:01.000Z</time>
</trkpt>
<trkpt lat="31.8235500" lon="34.9680400">
<ele>213.069336</ele>
<time>2011-02-26T10:27:04.000Z</time>
</trkpt>
<trkpt lat="31.8235000" lon="34.9681300">
<ele>213.069336</ele>
<time>2011-02-26T10:27:07.000Z</time>
</trkpt>
<trkpt lat="31.8234800" lon="34.9682500">
<ele>212.588623</ele>
<time>2011-02-26T10:27:10.000Z</time>
</trkpt>
<trkpt lat="31.8234700" lon="34.9683800">
<ele>212.588623</ele>
<time>2011-02-26T10:27:13.000Z</time>
</trkpt>
<trkpt lat="31.8234600" lon="34.9685200">
<ele>211.627441</ele>
<time>2011-02-26T10:27:16.000Z</time>
</trkpt>
<trkpt lat="31.8234500" lon="34.9686800">
<ele>211.146729</ele>
<time>2011-02-26T10:27:19.000Z</time>
</trkpt>
<trkpt lat="31.8234400" lon="34.9687900">
<ele>210.666031</ele>
<time>2011-02-26T10:27:21.000Z</time>
</trkpt>
<trkpt lat="31.8234300" lon="34.9689100">
<ele>209.224121</ele>
<time>2011-02-26T10:27:23.000Z</time>
</trkpt>
<trkpt lat="31.8234100" lon="34.9690300">
<ele>209.224121</ele>
<time>2011-02-26T10:27:25.000Z</time>
</trkpt>
<trkpt lat="31.8234000" lon="34.9691400">
<ele>208.743408</ele>
<time>2011-02-26T10:27:27.000Z</time>
</trkpt>
<trkpt lat="31.8233900" lon="34.9692500">
<ele>208.262817</ele>
<time>2011-02-26T10:27:29.000Z</time>
</trkpt>
<trkpt lat="31.8233900" lon="34.9693800">
<ele>207.301392</ele>
<time>2011-02-26T10:27:32.000Z</time>
</trkpt>
<trkpt lat="31.8234400" lon="34.9694800">
<ele>206.340088</ele>
<time>2011-02-26T10:27:36.000Z</time>
</trkpt>
<trkpt lat="31.8235500" lon="34.9695300">
<ele>205.859497</ele>
<time>2011-02-26T10:27:40.000Z</time>
</trkpt>
<trkpt lat="31.8236600" lon="34.9695600">
<ele>205.378769</ele>
<time>2011-02-26T10:27:43.000Z</time>
</trkpt>
<trkpt lat="31.8237800" lon="34.9695900">
<ele>205.378769</ele>
<time>2011-02-26T10:27:46.000Z</time>
</trkpt>
<trkpt lat="31.8239000" lon="34.9696200">
<ele>205.378769</ele>
<time>2011-02-26T10:27:49.000Z</time>
</trkpt>
<trkpt lat="31.8240300" lon="34.9696500">
<ele>204.898087</ele>
<time>2011-02-26T10:27:52.000Z</time>
</trkpt>
<trkpt lat="31.8241700" lon="34.9696900">
<ele>203.936890</ele>
<time>2011-02-26T10:27:55.000Z</time>
</trkpt>
<trkpt lat="31.8242600" lon="34.9697100">
<ele>203.936890</ele>
<time>2011-02-26T10:27:57.000Z</time>
</trkpt>
<trkpt lat="31.8243600" lon="34.9697300">
<ele>204.417480</ele>
<time>2011-02-26T10:27:59.000Z</time>
</trkpt>
<trkpt lat="31.8244600" lon="34.9697500">
<ele>203.456177</ele>
<time>2011-02-26T10:28:01.000Z</time>
</trkpt>
<trkpt lat="31.8245600" lon="34.9697700">
<ele>202.975464</ele>
<time>2011-02-26T10:28:03.000Z</time>
</trkpt>
<trkpt lat="31.8246500" lon="34.9697800">
<ele>202.975464</ele>
<time>2011-02-26T10:28:05.000Z</time>
</trkpt>
<trkpt lat="31.8247400" lon="34.9697900">
<ele>202.494873</ele>
<time>2011-02-26T10:28:07.000Z</time>
</trkpt>
<trkpt lat="31.8248800" lon="34.9698100">
<ele>202.494873</ele>
<time>2011-02-26T10:28:10.000Z</time>
</trkpt>
<trkpt lat="31.8249700" lon="34.9698300">
<ele>202.494873</ele>
<time>2011-02-26T10:28:12.000Z</time>
</trkpt>
<trkpt lat="31.8251000" lon="34.9698600">
<ele>202.975464</ele>
<time>2011-02-26T10:28:15.000Z</time>
</trkpt>
<trkpt lat="31.8252300" lon="34.9698900">
<ele>202.014267</ele>
<time>2011-02-26T10:28:18.000Z</time>
</trkpt>
<trkpt lat="31.8253300" lon="34.9699300">
<ele>202.014267</ele>
<time>2011-02-26T10:28:21.000Z</time>
</trkpt>
<trkpt lat="31.8254500" lon="34.9699500">
<ele>202.014267</ele>
<time>2011-02-26T10:28:24.000Z</time>
</trkpt>
<trkpt lat="31.8255700" lon="34.9699800">
<ele>200.572266</ele>
<time>2011-02-26T10:28:27.000Z</time>
</trkpt>
<trkpt lat="31.8256900" lon="34.9700000">
<ele>200.091675</ele>
<time>2011-02-26T10:28:30.000Z</time>
</trkpt>
<trkpt lat="31.8258100" lon="34.9700100">
<ele>200.091675</ele>
<time>2011-02-26T10:28:33.000Z</time>
</trkpt>
<trkpt lat="31.8259400" lon="34.9700300">
<ele>200.091675</ele>
<time>2011-02-26T10:28:36.000Z</time>
</trkpt>
<trkpt lat="31.8260700" lon="34.9700600">
<ele>200.091675</ele>
<time>2011-02-26T10:28:39.000Z</time>
</trkpt>
<trkpt lat="31.8261600" lon="34.9700800">
<ele>199.610855</ele>
<time>2011-02-26T10:28:41.000Z</time>
</trkpt>
<trkpt lat="31.8262500" lon="34.9701000">
<ele>199.610855</ele>
<time>2011-02-26T10:28:43.000Z</time>
</trkpt>
<trkpt lat="31.8263800" lon="34.9701400">
<ele>200.091675</ele>
<time>2011-02-26T10:28:46.000Z</time>
</trkpt>
<trkpt lat="31.8264700" lon="34.9701600">
<ele>199.610855</ele>
<time>2011-02-26T10:28:48.000Z</time>
</trkpt>
<trkpt lat="31.8265600" lon="34.9701900">
<ele>200.091675</ele>
<time>2011-02-26T10:28:50.000Z</time>
</trkpt>
<trkpt lat="31.8266800" lon="34.9702300">
<ele>200.091675</ele>
<time>2011-02-26T10:28:53.000Z</time>
</trkpt>
<trkpt lat="31.8268000" lon="34.9702600">
<ele>200.091675</ele>
<time>2011-02-26T10:28:56.000Z</time>
</trkpt>
<trkpt lat="31.8269300" lon="34.9703100">
<ele>200.572266</ele>
<time>2011-02-26T10:28:59.000Z</time>
</trkpt>
<trkpt lat="31.8270200" lon="34.9703500">
<ele>199.610855</ele>
<time>2011-02-26T10:29:01.000Z</time>
</trkpt>
<trkpt lat="31.8271200" lon="34.9703800">
<ele>199.610855</ele>
<time>2011-02-26T10:29:03.000Z</time>
</trkpt>
<trkpt lat="31.8272100" lon="34.9704200">
<ele>199.130127</ele>
<time>2011-02-26T10:29:05.000Z</time>
</trkpt>
<trkpt lat="31.8273100" lon="34.9704600">
<ele>198.649536</ele>
<time>2011-02-26T10:29:07.000Z</time>
</trkpt>
<trkpt lat="31.8273900" lon="34.9704900">
<ele>198.168945</ele>
<time>2011-02-26T10:29:09.000Z</time>
</trkpt>
<trkpt lat="31.8275100" lon="34.9705200">
<ele>199.130127</ele>
<time>2011-02-26T10:29:12.000Z</time>
</trkpt>
<trkpt lat="31.8276500" lon="34.9705400">
<ele>199.610855</ele>
<time>2011-02-26T10:29:15.000Z</time>
</trkpt>
<trkpt lat="31.8277400" lon="34.9705400">
<ele>200.572266</ele>
<time>2011-02-26T10:29:17.000Z</time>
</trkpt>
<trkpt lat="31.8278400" lon="34.9705500">
<ele>200.572266</ele>
<time>2011-02-26T10:29:19.000Z</time>
</trkpt>
<trkpt lat="31.8279300" lon="34.9705500">
<ele>202.014267</ele>
<time>2011-02-26T10:29:21.000Z</time>
</trkpt>
<trkpt lat="31.8280300" lon="34.9705500">
<ele>201.533585</ele>
<time>2011-02-26T10:29:23.000Z</time>
</trkpt>
<trkpt lat="31.8281200" lon="34.9705600">
<ele>202.014267</ele>
<time>2011-02-26T10:29:25.000Z</time>
</trkpt>
<trkpt lat="31.8282500" lon="34.9705700">
<ele>202.494873</ele>
<time>2011-02-26T10:29:28.000Z</time>
</trkpt>
<trkpt lat="31.8283800" lon="34.9705800">
<ele>201.533585</ele>
<time>2011-02-26T10:29:31.000Z</time>
</trkpt>
<trkpt lat="31.8285100" lon="34.9706000">
<ele>200.091675</ele>
<time>2011-02-26T10:29:34.000Z</time>
</trkpt>
<trkpt lat="31.8286300" lon="34.9706200">
<ele>201.052856</ele>
<time>2011-02-26T10:29:37.000Z</time>
</trkpt>
<trkpt lat="31.8287600" lon="34.9706400">
<ele>200.091675</ele>
<time>2011-02-26T10:29:40.000Z</time>
</trkpt>
<trkpt lat="31.8288500" lon="34.9706500">
<ele>200.091675</ele>
<time>2011-02-26T10:29:42.000Z</time>
</trkpt>
<trkpt lat="31.8289400" lon="34.9706800">
<ele>200.091675</ele>
<time>2011-02-26T10:29:44.000Z</time>
</trkpt>
<trkpt lat="31.8290300" lon="34.9707200">
<ele>199.130127</ele>
<time>2011-02-26T10:29:46.000Z</time>
</trkpt>
<trkpt lat="31.8291300" lon="34.9707600">
<ele>198.649536</ele>
<time>2011-02-26T10:29:48.000Z</time>
</trkpt>
<trkpt lat="31.8292000" lon="34.9708200">
<ele>197.688232</ele>
<time>2011-02-26T10:29:50.000Z</time>
</trkpt>
<trkpt lat="31.8292800" lon="34.9709500">
<ele>195.765625</ele>
<time>2011-02-26T10:29:53.000Z</time>
</trkpt>
<trkpt lat="31.8293000" lon="34.9710800">
<ele>195.765625</ele>
<time>2011-02-26T10:29:55.000Z</time>
</trkpt>
<trkpt lat="31.8292900" lon="34.9712100">
<ele>195.284912</ele>
<time>2011-02-26T10:29:57.000Z</time>
</trkpt>
<trkpt lat="31.8292700" lon="34.9713400">
<ele>194.804321</ele>
<time>2011-02-26T10:29:59.000Z</time>
</trkpt>
<trkpt lat="31.8292400" lon="34.9714800">
<ele>194.323730</ele>
<time>2011-02-26T10:30:01.000Z</time>
</trkpt>
<trkpt lat="31.8292000" lon="34.9716200">
<ele>192.401123</ele>
<time>2011-02-26T10:30:03.000Z</time>
</trkpt>
<trkpt lat="31.8291500" lon="34.9717700">
<ele>190.958984</ele>
<time>2011-02-26T10:30:05.000Z</time>
</trkpt>
<trkpt lat="31.8291000" lon="34.9719300">
<ele>190.478409</ele>
<time>2011-02-26T10:30:07.000Z</time>
</trkpt>
<trkpt lat="31.8290500" lon="34.9720900">
<ele>189.997681</ele>
<time>2011-02-26T10:30:09.000Z</time>
</trkpt>
<trkpt lat="31.8289900" lon="34.9722400">
<ele>188.555786</ele>
<time>2011-02-26T10:30:11.000Z</time>
</trkpt>
<trkpt lat="31.8289500" lon="34.9723900">
<ele>187.594360</ele>
<time>2011-02-26T10:30:13.000Z</time>
</trkpt>
<trkpt lat="31.8289600" lon="34.9725200">
<ele>186.633179</ele>
<time>2011-02-26T10:30:15.000Z</time>
</trkpt>
<trkpt lat="31.8290000" lon="34.9726400">
<ele>187.113770</ele>
<time>2011-02-26T10:30:17.000Z</time>
</trkpt>
<trkpt lat="31.8290100" lon="34.9727900">
<ele>186.633179</ele>
<time>2011-02-26T10:30:20.000Z</time>
</trkpt>
<trkpt lat="31.8290000" lon="34.9729000">
<ele>185.671753</ele>
<time>2011-02-26T10:30:22.000Z</time>
</trkpt>
<trkpt lat="31.8290300" lon="34.9730400">
<ele>185.191177</ele>
<time>2011-02-26T10:30:25.000Z</time>
</trkpt>
<trkpt lat="31.8290700" lon="34.9731800">
<ele>185.671753</ele>
<time>2011-02-26T10:30:28.000Z</time>
</trkpt>
<trkpt lat="31.8291200" lon="34.9733300">
<ele>185.671753</ele>
<time>2011-02-26T10:30:31.000Z</time>
</trkpt>
<trkpt lat="31.8291600" lon="34.9734800">
<ele>185.191177</ele>
<time>2011-02-26T10:30:34.000Z</time>
</trkpt>
<trkpt lat="31.8291900" lon="34.9736200">
<ele>185.191177</ele>
<time>2011-02-26T10:30:37.000Z</time>
</trkpt>
<trkpt lat="31.8292100" lon="34.9737600">
<ele>185.191177</ele>
<time>2011-02-26T10:30:40.000Z</time>
</trkpt>
<trkpt lat="31.8292000" lon="34.9739000">
<ele>186.152466</ele>
<time>2011-02-26T10:30:43.000Z</time>
</trkpt>
<trkpt lat="31.8291800" lon="34.9740500">
<ele>186.152466</ele>
<time>2011-02-26T10:30:46.000Z</time>
</trkpt>
<trkpt lat="31.8291600" lon="34.9741700">
<ele>186.152466</ele>
<time>2011-02-26T10:30:49.000Z</time>
</trkpt>
<trkpt lat="31.8291300" lon="34.9743000">
<ele>187.594360</ele>
<time>2011-02-26T10:30:52.000Z</time>
</trkpt>
<trkpt lat="31.8290900" lon="34.9744200">
<ele>187.594360</ele>
<time>2011-02-26T10:30:55.000Z</time>
</trkpt>
<trkpt lat="31.8290600" lon="34.9745400">
<ele>188.075073</ele>
<time>2011-02-26T10:30:58.000Z</time>
</trkpt>
<trkpt lat="31.8290200" lon="34.9746800">
<ele>189.516968</ele>
<time>2011-02-26T10:31:02.000Z</time>
</trkpt>
<trkpt lat="31.8289900" lon="34.9748000">
<ele>189.036362</ele>
<time>2011-02-26T10:31:05.000Z</time>
</trkpt>
<trkpt lat="31.8289500" lon="34.9749100">
<ele>189.997681</ele>
<time>2011-02-26T10:31:08.000Z</time>
</trkpt>
<trkpt lat="31.8289300" lon="34.9750200">
<ele>190.478409</ele>
<time>2011-02-26T10:31:11.000Z</time>
</trkpt>
<trkpt lat="31.8288900" lon="34.9751500">
<ele>189.997681</ele>
<time>2011-02-26T10:31:14.000Z</time>
</trkpt>
<trkpt lat="31.8288500" lon="34.9752700">
<ele>190.478409</ele>
<time>2011-02-26T10:31:17.000Z</time>
</trkpt>
<trkpt lat="31.8288200" lon="34.9754000">
<ele>190.958984</ele>
<time>2011-02-26T10:31:20.000Z</time>
</trkpt>
<trkpt lat="31.8287900" lon="34.9755100">
<ele>190.478409</ele>
<time>2011-02-26T10:31:23.000Z</time>
</trkpt>
<trkpt lat="31.8287600" lon="34.9756400">
<ele>190.478409</ele>
<time>2011-02-26T10:31:26.000Z</time>
</trkpt>
<trkpt lat="31.8287300" lon="34.9757400">
<ele>190.478409</ele>
<time>2011-02-26T10:31:29.000Z</time>
</trkpt>
<trkpt lat="31.8287000" lon="34.9758500">
<ele>189.997681</ele>
<time>2011-02-26T10:31:32.000Z</time>
</trkpt>
<trkpt lat="31.8286800" lon="34.9759500">
<ele>190.958984</ele>
<time>2011-02-26T10:31:35.000Z</time>
</trkpt>
<trkpt lat="31.8286500" lon="34.9760600">
<ele>190.478409</ele>
<time>2011-02-26T10:31:38.000Z</time>
</trkpt>
<trkpt lat="31.8286200" lon="34.9761700">
<ele>191.439575</ele>
<time>2011-02-26T10:31:41.000Z</time>
</trkpt>
<trkpt lat="31.8285900" lon="34.9762800">
<ele>191.439575</ele>
<time>2011-02-26T10:31:44.000Z</time>
</trkpt>
<trkpt lat="31.8286500" lon="34.9763800">
<ele>191.920288</ele>
<time>2011-02-26T10:31:48.000Z</time>
</trkpt>
<trkpt lat="31.8287700" lon="34.9763900">
<ele>193.362305</ele>
<time>2011-02-26T10:31:52.000Z</time>
</trkpt>
<trkpt lat="31.8288700" lon="34.9763900">
<ele>192.881714</ele>
<time>2011-02-26T10:31:55.000Z</time>
</trkpt>
<trkpt lat="31.8289700" lon="34.9764000">
<ele>192.881714</ele>
<time>2011-02-26T10:31:58.000Z</time>
</trkpt>
<trkpt lat="31.8290700" lon="34.9764100">
<ele>192.881714</ele>
<time>2011-02-26T10:32:01.000Z</time>
</trkpt>
<trkpt lat="31.8291700" lon="34.9764400">
<ele>193.843018</ele>
<time>2011-02-26T10:32:04.000Z</time>
</trkpt>
<trkpt lat="31.8292600" lon="34.9764600">
<ele>195.284912</ele>
<time>2011-02-26T10:32:07.000Z</time>
</trkpt>
<trkpt lat="31.8293600" lon="34.9764800">
<ele>195.284912</ele>
<time>2011-02-26T10:32:11.000Z</time>
</trkpt>
<trkpt lat="31.8294600" lon="34.9765000">
<ele>195.765625</ele>
<time>2011-02-26T10:32:15.000Z</time>
</trkpt>
<trkpt lat="31.8295600" lon="34.9765000">
<ele>197.207520</ele>
<time>2011-02-26T10:32:19.000Z</time>
</trkpt>
<trkpt lat="31.8296700" lon="34.9765100">
<ele>197.688232</ele>
<time>2011-02-26T10:32:24.000Z</time>
</trkpt>
<trkpt lat="31.8297700" lon="34.9765000">
<ele>198.168945</ele>
<time>2011-02-26T10:32:29.000Z</time>
</trkpt>
<trkpt lat="31.8298700" lon="34.9765000">
<ele>199.610855</ele>
<time>2011-02-26T10:32:34.000Z</time>
</trkpt>
<trkpt lat="31.8299600" lon="34.9764900">
<ele>200.091675</ele>
<time>2011-02-26T10:32:39.000Z</time>
</trkpt>
<trkpt lat="31.8300500" lon="34.9764700">
<ele>200.572266</ele>
<time>2011-02-26T10:32:44.000Z</time>
</trkpt>
<trkpt lat="31.8301400" lon="34.9764400">
<ele>200.091675</ele>
<time>2011-02-26T10:32:49.000Z</time>
</trkpt>
<trkpt lat="31.8302300" lon="34.9764000">
<ele>201.052856</ele>
<time>2011-02-26T10:32:55.000Z</time>
</trkpt>
<trkpt lat="31.8303300" lon="34.9763600">
<ele>202.975464</ele>
<time>2011-02-26T10:33:00.000Z</time>
</trkpt>
<trkpt lat="31.8304300" lon="34.9763400">
<ele>204.417480</ele>
<time>2011-02-26T10:33:05.000Z</time>
</trkpt>
<trkpt lat="31.8305300" lon="34.9763300">
<ele>206.340088</ele>
<time>2011-02-26T10:33:10.000Z</time>
</trkpt>
<trkpt lat="31.8306300" lon="34.9763200">
<ele>206.820679</ele>
<time>2011-02-26T10:33:15.000Z</time>
</trkpt>
<trkpt lat="31.8307400" lon="34.9763000">
<ele>206.820679</ele>
<time>2011-02-26T10:33:20.000Z</time>
</trkpt>
<trkpt lat="31.8308500" lon="34.9762500">
<ele>206.340088</ele>
<time>2011-02-26T10:33:25.000Z</time>
</trkpt>
<trkpt lat="31.8309600" lon="34.9762100">
<ele>206.340088</ele>
<time>2011-02-26T10:33:29.000Z</time>
</trkpt>
<trkpt lat="31.8310700" lon="34.9761800">
<ele>206.340088</ele>
<time>2011-02-26T10:33:33.000Z</time>
</trkpt>
<trkpt lat="31.8311600" lon="34.9761600">
<ele>206.340088</ele>
<time>2011-02-26T10:33:36.000Z</time>
</trkpt>
<trkpt lat="31.8312600" lon="34.9761500">
<ele>206.340088</ele>
<time>2011-02-26T10:33:39.000Z</time>
</trkpt>
<trkpt lat="31.8313600" lon="34.9761500">
<ele>206.820679</ele>
<time>2011-02-26T10:33:42.000Z</time>
</trkpt>
<trkpt lat="31.8314600" lon="34.9761500">
<ele>205.859497</ele>
<time>2011-02-26T10:33:45.000Z</time>
</trkpt>
<trkpt lat="31.8315600" lon="34.9761600">
<ele>205.859497</ele>
<time>2011-02-26T10:33:48.000Z</time>
</trkpt>
<trkpt lat="31.8316600" lon="34.9761800">
<ele>205.859497</ele>
<time>2011-02-26T10:33:51.000Z</time>
</trkpt>
<trkpt lat="31.8317700" lon="34.9762000">
<ele>205.859497</ele>
<time>2011-02-26T10:33:54.000Z</time>
</trkpt>
<trkpt lat="31.8318800" lon="34.9762400">
<ele>206.820679</ele>
<time>2011-02-26T10:33:57.000Z</time>
</trkpt>
<trkpt lat="31.8320000" lon="34.9762900">
<ele>205.378769</ele>
<time>2011-02-26T10:34:00.000Z</time>
</trkpt>
<trkpt lat="31.8321000" lon="34.9763300">
<ele>205.378769</ele>
<time>2011-02-26T10:34:03.000Z</time>
</trkpt>
<trkpt lat="31.8322000" lon="34.9763800">
<ele>205.378769</ele>
<time>2011-02-26T10:34:06.000Z</time>
</trkpt>
<trkpt lat="31.8322900" lon="34.9764100">
<ele>206.340088</ele>
<time>2011-02-26T10:34:09.000Z</time>
</trkpt>
<trkpt lat="31.8323900" lon="34.9764800">
<ele>205.378769</ele>
<time>2011-02-26T10:34:13.000Z</time>
</trkpt>
<trkpt lat="31.8324900" lon="34.9765300">
<ele>205.378769</ele>
<time>2011-02-26T10:34:17.000Z</time>
</trkpt>
<trkpt lat="31.8325900" lon="34.9765800">
<ele>205.378769</ele>
<time>2011-02-26T10:34:21.000Z</time>
</trkpt>
<trkpt lat="31.8326800" lon="34.9766200">
<ele>204.898087</ele>
<time>2011-02-26T10:34:24.000Z</time>
</trkpt>
<trkpt lat="31.8327700" lon="34.9766800">
<ele>205.378769</ele>
<time>2011-02-26T10:34:27.000Z</time>
</trkpt>
<trkpt lat="31.8328600" lon="34.9767500">
<ele>204.898087</ele>
<time>2011-02-26T10:34:31.000Z</time>
</trkpt>
<trkpt lat="31.8329600" lon="34.9768200">
<ele>204.898087</ele>
<time>2011-02-26T10:34:35.000Z</time>
</trkpt>
<trkpt lat="31.8330500" lon="34.9769200">
<ele>205.859497</ele>
<time>2011-02-26T10:34:39.000Z</time>
</trkpt>
<trkpt lat="31.8331200" lon="34.9769900">
<ele>205.378769</ele>
<time>2011-02-26T10:34:42.000Z</time>
</trkpt>
<trkpt lat="31.8331900" lon="34.9770700">
<ele>204.417480</ele>
<time>2011-02-26T10:34:45.000Z</time>
</trkpt>
<trkpt lat="31.8332800" lon="34.9771400">
<ele>204.417480</ele>
<time>2011-02-26T10:34:48.000Z</time>
</trkpt>
<trkpt lat="31.8333700" lon="34.9772200">
<ele>204.417480</ele>
<time>2011-02-26T10:34:51.000Z</time>
</trkpt>
<trkpt lat="31.8334600" lon="34.9773000">
<ele>204.417480</ele>
<time>2011-02-26T10:34:54.000Z</time>
</trkpt>
<trkpt lat="31.8335600" lon="34.9773800">
<ele>204.417480</ele>
<time>2011-02-26T10:34:57.000Z</time>
</trkpt>
<trkpt lat="31.8336600" lon="34.9774600">
<ele>203.936890</ele>
<time>2011-02-26T10:35:00.000Z</time>
</trkpt>
<trkpt lat="31.8337300" lon="34.9775000">
<ele>204.417480</ele>
<time>2011-02-26T10:35:02.000Z</time>
</trkpt>
<trkpt lat="31.8338400" lon="34.9775700">
<ele>204.417480</ele>
<time>2011-02-26T10:35:05.000Z</time>
</trkpt>
<trkpt lat="31.8339700" lon="34.9776300">
<ele>202.975464</ele>
<time>2011-02-26T10:35:08.000Z</time>
</trkpt>
<trkpt lat="31.8340700" lon="34.9776700">
<ele>202.975464</ele>
<time>2011-02-26T10:35:10.000Z</time>
</trkpt>
<trkpt lat="31.8341800" lon="34.9777100">
<ele>202.014267</ele>
<time>2011-02-26T10:35:12.000Z</time>
</trkpt>
<trkpt lat="31.8342900" lon="34.9777400">
<ele>202.494873</ele>
<time>2011-02-26T10:35:14.000Z</time>
</trkpt>
<trkpt lat="31.8344000" lon="34.9777700">
<ele>202.014267</ele>
<time>2011-02-26T10:35:16.000Z</time>
</trkpt>
<trkpt lat="31.8345000" lon="34.9777800">
<ele>201.052856</ele>
<time>2011-02-26T10:35:18.000Z</time>
</trkpt>
<trkpt lat="31.8345900" lon="34.9777800">
<ele>202.014267</ele>
<time>2011-02-26T10:35:20.000Z</time>
</trkpt>
<trkpt lat="31.8346900" lon="34.9777700">
<ele>202.014267</ele>
<time>2011-02-26T10:35:24.000Z</time>
</trkpt>
<trkpt lat="31.8347900" lon="34.9777500">
<ele>202.014267</ele>
<time>2011-02-26T10:35:29.000Z</time>
</trkpt>
<trkpt lat="31.8349100" lon="34.9777300">
<ele>202.494873</ele>
<time>2011-02-26T10:36:35.000Z</time>
</trkpt>
<trkpt lat="31.8349700" lon="34.9777500">
<ele>202.014267</ele>
<time>2011-02-26T10:36:41.000Z</time>
</trkpt>
<trkpt lat="31.8350700" lon="34.9777000">
<ele>204.417480</ele>
<time>2011-02-26T10:37:02.000Z</time>
</trkpt>
<trkpt lat="31.8351700" lon="34.9776400">
<ele>202.975464</ele>
<time>2011-02-26T10:37:07.000Z</time>
</trkpt>
<trkpt lat="31.8352500" lon="34.9775600">
<ele>202.494873</ele>
<time>2011-02-26T10:37:10.000Z</time>
</trkpt>
<trkpt lat="31.8353400" lon="34.9774900">
<ele>202.494873</ele>
<time>2011-02-26T10:37:13.000Z</time>
</trkpt>
<trkpt lat="31.8354200" lon="34.9774300">
<ele>202.975464</ele>
<time>2011-02-26T10:37:16.000Z</time>
</trkpt>
<trkpt lat="31.8355000" lon="34.9773600">
<ele>202.014267</ele>
<time>2011-02-26T10:37:19.000Z</time>
</trkpt>
<trkpt lat="31.8355900" lon="34.9772800">
<ele>203.456177</ele>
<time>2011-02-26T10:37:23.000Z</time>
</trkpt>
<trkpt lat="31.8356700" lon="34.9772100">
<ele>202.494873</ele>
<time>2011-02-26T10:37:26.000Z</time>
</trkpt>
<trkpt lat="31.8357700" lon="34.9771400">
<ele>202.975464</ele>
<time>2011-02-26T10:37:30.000Z</time>
</trkpt>
<trkpt lat="31.8358700" lon="34.9770800">
<ele>203.936890</ele>
<time>2011-02-26T10:37:34.000Z</time>
</trkpt>
<trkpt lat="31.8359400" lon="34.9770200">
<ele>202.975464</ele>
<time>2011-02-26T10:37:37.000Z</time>
</trkpt>
<trkpt lat="31.8360400" lon="34.9769500">
<ele>203.456177</ele>
<time>2011-02-26T10:37:41.000Z</time>
</trkpt>
<trkpt lat="31.8361300" lon="34.9768800">
<ele>203.936890</ele>
<time>2011-02-26T10:37:45.000Z</time>
</trkpt>
<trkpt lat="31.8362100" lon="34.9768200">
<ele>203.936890</ele>
<time>2011-02-26T10:37:49.000Z</time>
</trkpt>
<trkpt lat="31.8363000" lon="34.9767600">
<ele>203.936890</ele>
<time>2011-02-26T10:37:53.000Z</time>
</trkpt>
<trkpt lat="31.8364000" lon="34.9767700">
<ele>205.859497</ele>
<time>2011-02-26T10:37:57.000Z</time>
</trkpt>
<trkpt lat="31.8364900" lon="34.9768400">
<ele>206.820679</ele>
<time>2011-02-26T10:38:01.000Z</time>
</trkpt>
<trkpt lat="31.8365100" lon="34.9769300">
<ele>206.820679</ele>
<time>2011-02-26T10:38:05.000Z</time>
</trkpt>
<trkpt lat="31.8365000" lon="34.9770600">
<ele>207.782104</ele>
<time>2011-02-26T10:38:09.000Z</time>
</trkpt>
<trkpt lat="31.8364800" lon="34.9771900">
<ele>207.782104</ele>
<time>2011-02-26T10:38:13.000Z</time>
</trkpt>
<trkpt lat="31.8364700" lon="34.9773100">
<ele>208.262817</ele>
<time>2011-02-26T10:38:17.000Z</time>
</trkpt>
<trkpt lat="31.8364600" lon="34.9774200">
<ele>208.743408</ele>
<time>2011-02-26T10:38:21.000Z</time>
</trkpt>
<trkpt lat="31.8364500" lon="34.9775400">
<ele>209.224121</ele>
<time>2011-02-26T10:38:25.000Z</time>
</trkpt>
<trkpt lat="31.8364500" lon="34.9776500">
<ele>208.743408</ele>
<time>2011-02-26T10:38:29.000Z</time>
</trkpt>
<trkpt lat="31.8364400" lon="34.9777600">
<ele>209.704834</ele>
<time>2011-02-26T10:38:33.000Z</time>
</trkpt>
<trkpt lat="31.8364900" lon="34.9778500">
<ele>210.185425</ele>
<time>2011-02-26T10:38:38.000Z</time>
</trkpt>
<trkpt lat="31.8364800" lon="34.9779500">
<ele>210.185425</ele>
<time>2011-02-26T10:38:44.000Z</time>
</trkpt>
<trkpt lat="31.8364200" lon="34.9780400">
<ele>211.146729</ele>
<time>2011-02-26T10:38:49.000Z</time>
</trkpt>
<trkpt lat="31.8363900" lon="34.9781500">
<ele>210.666031</ele>
<time>2011-02-26T10:38:54.000Z</time>
</trkpt>
<trkpt lat="31.8363700" lon="34.9782600">
<ele>211.146729</ele>
<time>2011-02-26T10:38:59.000Z</time>
</trkpt>
<trkpt lat="31.8363300" lon="34.9783700">
<ele>212.108032</ele>
<time>2011-02-26T10:39:04.000Z</time>
</trkpt>
<trkpt lat="31.8363000" lon="34.9784700">
<ele>211.627441</ele>
<time>2011-02-26T10:39:10.000Z</time>
</trkpt>
<trkpt lat="31.8363000" lon="34.9784900">
<ele>211.627441</ele>
<time>2011-02-26T10:40:22.000Z</time>
</trkpt>
</trkseg>
<trkseg>
<trkpt lat="31.8363000" lon="34.9784900">
<ele>207.782104</ele>
<time>2011-02-26T18:03:35.000Z</time>
</trkpt>
</trkseg>
</trk>
</gpx>
